<?xml version="1.0" encoding="UTF-8"?>
<gpx version="1.1" creator="https://www.youtrack.es" xsi:schemaLocation="http://www.topografix.com/GPX/1/1 http://www.topografix.com/GPX/1/1/gpx.xsd http://www.garmin.com/xmlschemas/GpxExtensions/v3 http://www.garmin.com/xmlschemas/GpxExtensionsv3.xsd http://www.garmin.com/xmlschemas/TrackPointExtension/v1 http://www.garmin.com/xmlschemas/TrackPointExtensionv1.xsd" xmlns:gpxtpx="http://www.garmin.com/xmlschemas/TrackPointExtension/v1" xmlns:gpxx="http://www.garmin.com/xmlschemas/GpxExtensions/v3" xmlns:xsi="http://www.w3.org/2001/XMLSchema-instance">
  <metadata>
    <link href="https://www.youtrack.es">
      <text>YouTrack.es</text>
    </link>
    <time>2026-05-09T00:56:44Z</time>
  </metadata>
  <trk>
    <src>https://www.youtrack.es</src>
    <link href="https://www.youtrack.es/ruta/9712-a-la-pastora-hemos-de-ir--">
      <text>YouTrack.es</text>
    </link>
    <trkseg>
      <trkpt lat="41.5801850" lon="2.0147880">
        <ele>357.0</ele>
        <time>2019-12-01T12:53:28Z</time>
      </trkpt>
      <trkpt lat="41.5801480" lon="2.0143560">
        <ele>356.3</ele>
        <time>2019-12-01T12:53:42Z</time>
      </trkpt>
      <trkpt lat="41.5801310" lon="2.0143090">
        <ele>356.3</ele>
        <time>2019-12-01T12:53:44Z</time>
      </trkpt>
      <trkpt lat="41.5801160" lon="2.0142770">
        <ele>356.3</ele>
        <time>2019-12-01T12:53:45Z</time>
      </trkpt>
      <trkpt lat="41.5800930" lon="2.0142180">
        <ele>356.2</ele>
        <time>2019-12-01T12:53:47Z</time>
      </trkpt>
      <trkpt lat="41.5800810" lon="2.0141540">
        <ele>356.1</ele>
        <time>2019-12-01T12:53:49Z</time>
      </trkpt>
      <trkpt lat="41.5800750" lon="2.0141180">
        <ele>355.7</ele>
        <time>2019-12-01T12:53:50Z</time>
      </trkpt>
      <trkpt lat="41.5800700" lon="2.0140800">
        <ele>355.5</ele>
        <time>2019-12-01T12:53:52Z</time>
      </trkpt>
      <trkpt lat="41.5800690" lon="2.0140420">
        <ele>355.3</ele>
        <time>2019-12-01T12:53:53Z</time>
      </trkpt>
      <trkpt lat="41.5800660" lon="2.0139480">
        <ele>354.9</ele>
        <time>2019-12-01T12:53:56Z</time>
      </trkpt>
      <trkpt lat="41.5800530" lon="2.0138670">
        <ele>354.5</ele>
        <time>2019-12-01T12:53:58Z</time>
      </trkpt>
      <trkpt lat="41.5800470" lon="2.0138250">
        <ele>354.2</ele>
        <time>2019-12-01T12:54:00Z</time>
      </trkpt>
      <trkpt lat="41.5800430" lon="2.0137840">
        <ele>354.0</ele>
        <time>2019-12-01T12:54:01Z</time>
      </trkpt>
      <trkpt lat="41.5800400" lon="2.0137280">
        <ele>353.7</ele>
        <time>2019-12-01T12:54:02Z</time>
      </trkpt>
      <trkpt lat="41.5800390" lon="2.0136900">
        <ele>353.6</ele>
        <time>2019-12-01T12:54:03Z</time>
      </trkpt>
      <trkpt lat="41.5800380" lon="2.0136530">
        <ele>353.4</ele>
        <time>2019-12-01T12:54:04Z</time>
      </trkpt>
      <trkpt lat="41.5800370" lon="2.0136170">
        <ele>353.2</ele>
        <time>2019-12-01T12:54:05Z</time>
      </trkpt>
      <trkpt lat="41.5800360" lon="2.0135770">
        <ele>353.1</ele>
        <time>2019-12-01T12:54:07Z</time>
      </trkpt>
      <trkpt lat="41.5800360" lon="2.0135390">
        <ele>352.9</ele>
        <time>2019-12-01T12:54:08Z</time>
      </trkpt>
      <trkpt lat="41.5800340" lon="2.0135010">
        <ele>352.7</ele>
        <time>2019-12-01T12:54:09Z</time>
      </trkpt>
      <trkpt lat="41.5800330" lon="2.0134610">
        <ele>352.5</ele>
        <time>2019-12-01T12:54:10Z</time>
      </trkpt>
      <trkpt lat="41.5800320" lon="2.0134230">
        <ele>352.1</ele>
        <time>2019-12-01T12:54:11Z</time>
      </trkpt>
      <trkpt lat="41.5800260" lon="2.0133830">
        <ele>351.9</ele>
        <time>2019-12-01T12:54:12Z</time>
      </trkpt>
      <trkpt lat="41.5800200" lon="2.0133420">
        <ele>351.8</ele>
        <time>2019-12-01T12:54:13Z</time>
      </trkpt>
      <trkpt lat="41.5800150" lon="2.0133020">
        <ele>351.5</ele>
        <time>2019-12-01T12:54:14Z</time>
      </trkpt>
      <trkpt lat="41.5800070" lon="2.0132600">
        <ele>351.4</ele>
        <time>2019-12-01T12:54:16Z</time>
      </trkpt>
      <trkpt lat="41.5799960" lon="2.0131990">
        <ele>351.2</ele>
        <time>2019-12-01T12:54:18Z</time>
      </trkpt>
      <trkpt lat="41.5799840" lon="2.0131310">
        <ele>351.3</ele>
        <time>2019-12-01T12:54:19Z</time>
      </trkpt>
      <trkpt lat="41.5799770" lon="2.0130890">
        <ele>351.3</ele>
        <time>2019-12-01T12:54:20Z</time>
      </trkpt>
      <trkpt lat="41.5799720" lon="2.0130190">
        <ele>351.2</ele>
        <time>2019-12-01T12:54:22Z</time>
      </trkpt>
      <trkpt lat="41.5799710" lon="2.0129470">
        <ele>351.1</ele>
        <time>2019-12-01T12:54:25Z</time>
      </trkpt>
      <trkpt lat="41.5799720" lon="2.0129050">
        <ele>351.1</ele>
        <time>2019-12-01T12:54:26Z</time>
      </trkpt>
      <trkpt lat="41.5799780" lon="2.0128680">
        <ele>351.0</ele>
        <time>2019-12-01T12:54:27Z</time>
      </trkpt>
      <trkpt lat="41.5799910" lon="2.0128280">
        <ele>351.0</ele>
        <time>2019-12-01T12:54:28Z</time>
      </trkpt>
      <trkpt lat="41.5800000" lon="2.0127920">
        <ele>350.8</ele>
        <time>2019-12-01T12:54:29Z</time>
      </trkpt>
      <trkpt lat="41.5800090" lon="2.0127500">
        <ele>350.7</ele>
        <time>2019-12-01T12:54:30Z</time>
      </trkpt>
      <trkpt lat="41.5800170" lon="2.0127130">
        <ele>350.6</ele>
        <time>2019-12-01T12:54:31Z</time>
      </trkpt>
      <trkpt lat="41.5800250" lon="2.0126410">
        <ele>350.4</ele>
        <time>2019-12-01T12:54:34Z</time>
      </trkpt>
      <trkpt lat="41.5800250" lon="2.0125540">
        <ele>350.0</ele>
        <time>2019-12-01T12:54:36Z</time>
      </trkpt>
      <trkpt lat="41.5800230" lon="2.0124840">
        <ele>349.6</ele>
        <time>2019-12-01T12:54:38Z</time>
      </trkpt>
      <trkpt lat="41.5800210" lon="2.0124470">
        <ele>349.5</ele>
        <time>2019-12-01T12:54:40Z</time>
      </trkpt>
      <trkpt lat="41.5800170" lon="2.0124110">
        <ele>349.4</ele>
        <time>2019-12-01T12:54:41Z</time>
      </trkpt>
      <trkpt lat="41.5800130" lon="2.0123500">
        <ele>349.1</ele>
        <time>2019-12-01T12:54:43Z</time>
      </trkpt>
      <trkpt lat="41.5800100" lon="2.0122740">
        <ele>348.9</ele>
        <time>2019-12-01T12:54:46Z</time>
      </trkpt>
      <trkpt lat="41.5800070" lon="2.0122250">
        <ele>348.7</ele>
        <time>2019-12-01T12:54:47Z</time>
      </trkpt>
      <trkpt lat="41.5799930" lon="2.0121540">
        <ele>348.4</ele>
        <time>2019-12-01T12:54:50Z</time>
      </trkpt>
      <trkpt lat="41.5799880" lon="2.0121050">
        <ele>348.2</ele>
        <time>2019-12-01T12:54:51Z</time>
      </trkpt>
      <trkpt lat="41.5799830" lon="2.0120540">
        <ele>348.1</ele>
        <time>2019-12-01T12:54:52Z</time>
      </trkpt>
      <trkpt lat="41.5799790" lon="2.0119850">
        <ele>347.9</ele>
        <time>2019-12-01T12:54:53Z</time>
      </trkpt>
      <trkpt lat="41.5799810" lon="2.0119380">
        <ele>347.8</ele>
        <time>2019-12-01T12:54:55Z</time>
      </trkpt>
      <trkpt lat="41.5800060" lon="2.0118780">
        <ele>347.6</ele>
        <time>2019-12-01T12:54:57Z</time>
      </trkpt>
      <trkpt lat="41.5800610" lon="2.0118280">
        <ele>347.6</ele>
        <time>2019-12-01T12:54:58Z</time>
      </trkpt>
      <trkpt lat="41.5801060" lon="2.0118070">
        <ele>347.6</ele>
        <time>2019-12-01T12:54:59Z</time>
      </trkpt>
      <trkpt lat="41.5801460" lon="2.0117940">
        <ele>347.5</ele>
        <time>2019-12-01T12:55:00Z</time>
      </trkpt>
      <trkpt lat="41.5801830" lon="2.0117840">
        <ele>347.5</ele>
        <time>2019-12-01T12:55:01Z</time>
      </trkpt>
      <trkpt lat="41.5802240" lon="2.0117820">
        <ele>347.4</ele>
        <time>2019-12-01T12:55:03Z</time>
      </trkpt>
      <trkpt lat="41.5802820" lon="2.0117830">
        <ele>347.3</ele>
        <time>2019-12-01T12:55:04Z</time>
      </trkpt>
      <trkpt lat="41.5803130" lon="2.0117800">
        <ele>347.2</ele>
        <time>2019-12-01T12:55:05Z</time>
      </trkpt>
      <trkpt lat="41.5803400" lon="2.0117780">
        <ele>347.1</ele>
        <time>2019-12-01T12:55:06Z</time>
      </trkpt>
      <trkpt lat="41.5803800" lon="2.0117740">
        <ele>347.0</ele>
        <time>2019-12-01T12:55:08Z</time>
      </trkpt>
      <trkpt lat="41.5804090" lon="2.0117730">
        <ele>347.0</ele>
        <time>2019-12-01T12:55:09Z</time>
      </trkpt>
      <trkpt lat="41.5804370" lon="2.0117710">
        <ele>346.9</ele>
        <time>2019-12-01T12:55:10Z</time>
      </trkpt>
      <trkpt lat="41.5804770" lon="2.0117660">
        <ele>346.9</ele>
        <time>2019-12-01T12:55:12Z</time>
      </trkpt>
      <trkpt lat="41.5805270" lon="2.0117680">
        <ele>346.8</ele>
        <time>2019-12-01T12:55:14Z</time>
      </trkpt>
      <trkpt lat="41.5805760" lon="2.0117700">
        <ele>346.8</ele>
        <time>2019-12-01T12:55:16Z</time>
      </trkpt>
      <trkpt lat="41.5806250" lon="2.0117640">
        <ele>346.8</ele>
        <time>2019-12-01T12:55:18Z</time>
      </trkpt>
      <trkpt lat="41.5806880" lon="2.0117660">
        <ele>346.9</ele>
        <time>2019-12-01T12:55:21Z</time>
      </trkpt>
      <trkpt lat="41.5807410" lon="2.0117630">
        <ele>347.0</ele>
        <time>2019-12-01T12:55:23Z</time>
      </trkpt>
      <trkpt lat="41.5807930" lon="2.0117550">
        <ele>347.2</ele>
        <time>2019-12-01T12:55:25Z</time>
      </trkpt>
      <trkpt lat="41.5808200" lon="2.0117500">
        <ele>347.3</ele>
        <time>2019-12-01T12:55:27Z</time>
      </trkpt>
      <trkpt lat="41.5808490" lon="2.0117460">
        <ele>347.4</ele>
        <time>2019-12-01T12:55:28Z</time>
      </trkpt>
      <trkpt lat="41.5808760" lon="2.0117440">
        <ele>347.6</ele>
        <time>2019-12-01T12:55:29Z</time>
      </trkpt>
      <trkpt lat="41.5809070" lon="2.0117440">
        <ele>347.6</ele>
        <time>2019-12-01T12:55:30Z</time>
      </trkpt>
      <trkpt lat="41.5809380" lon="2.0117430">
        <ele>347.7</ele>
        <time>2019-12-01T12:55:31Z</time>
      </trkpt>
      <trkpt lat="41.5809650" lon="2.0117440">
        <ele>347.8</ele>
        <time>2019-12-01T12:55:32Z</time>
      </trkpt>
      <trkpt lat="41.5809960" lon="2.0117450">
        <ele>348.3</ele>
        <time>2019-12-01T12:55:33Z</time>
      </trkpt>
      <trkpt lat="41.5810250" lon="2.0117450">
        <ele>348.3</ele>
        <time>2019-12-01T12:55:34Z</time>
      </trkpt>
      <trkpt lat="41.5810530" lon="2.0117450">
        <ele>348.4</ele>
        <time>2019-12-01T12:55:36Z</time>
      </trkpt>
      <trkpt lat="41.5810820" lon="2.0117430">
        <ele>348.5</ele>
        <time>2019-12-01T12:55:37Z</time>
      </trkpt>
      <trkpt lat="41.5811390" lon="2.0117360">
        <ele>348.7</ele>
        <time>2019-12-01T12:55:39Z</time>
      </trkpt>
      <trkpt lat="41.5811900" lon="2.0117320">
        <ele>348.8</ele>
        <time>2019-12-01T12:55:41Z</time>
      </trkpt>
      <trkpt lat="41.5812430" lon="2.0117280">
        <ele>349.0</ele>
        <time>2019-12-01T12:55:43Z</time>
      </trkpt>
      <trkpt lat="41.5812940" lon="2.0117230">
        <ele>349.1</ele>
        <time>2019-12-01T12:55:46Z</time>
      </trkpt>
      <trkpt lat="41.5813440" lon="2.0117210">
        <ele>349.2</ele>
        <time>2019-12-01T12:55:48Z</time>
      </trkpt>
      <trkpt lat="41.5813960" lon="2.0117220">
        <ele>349.4</ele>
        <time>2019-12-01T12:55:50Z</time>
      </trkpt>
      <trkpt lat="41.5814230" lon="2.0117250">
        <ele>349.5</ele>
        <time>2019-12-01T12:55:51Z</time>
      </trkpt>
      <trkpt lat="41.5814510" lon="2.0117240">
        <ele>349.5</ele>
        <time>2019-12-01T12:55:52Z</time>
      </trkpt>
      <trkpt lat="41.5814810" lon="2.0117210">
        <ele>349.6</ele>
        <time>2019-12-01T12:55:54Z</time>
      </trkpt>
      <trkpt lat="41.5815310" lon="2.0117110">
        <ele>349.7</ele>
        <time>2019-12-01T12:55:56Z</time>
      </trkpt>
      <trkpt lat="41.5815880" lon="2.0116940">
        <ele>349.8</ele>
        <time>2019-12-01T12:55:58Z</time>
      </trkpt>
      <trkpt lat="41.5816380" lon="2.0116740">
        <ele>349.9</ele>
        <time>2019-12-01T12:56:00Z</time>
      </trkpt>
      <trkpt lat="41.5816890" lon="2.0116610">
        <ele>350.0</ele>
        <time>2019-12-01T12:56:02Z</time>
      </trkpt>
      <trkpt lat="41.5817160" lon="2.0116530">
        <ele>350.1</ele>
        <time>2019-12-01T12:56:04Z</time>
      </trkpt>
      <trkpt lat="41.5817710" lon="2.0116350">
        <ele>350.2</ele>
        <time>2019-12-01T12:56:06Z</time>
      </trkpt>
      <trkpt lat="41.5818150" lon="2.0116200">
        <ele>350.3</ele>
        <time>2019-12-01T12:56:08Z</time>
      </trkpt>
      <trkpt lat="41.5818580" lon="2.0116020">
        <ele>350.4</ele>
        <time>2019-12-01T12:56:11Z</time>
      </trkpt>
      <trkpt lat="41.5819220" lon="2.0115810">
        <ele>350.5</ele>
        <time>2019-12-01T12:56:13Z</time>
      </trkpt>
      <trkpt lat="41.5819830" lon="2.0115820">
        <ele>350.7</ele>
        <time>2019-12-01T12:56:16Z</time>
      </trkpt>
      <trkpt lat="41.5820150" lon="2.0115860">
        <ele>350.8</ele>
        <time>2019-12-01T12:56:17Z</time>
      </trkpt>
      <trkpt lat="41.5820440" lon="2.0115890">
        <ele>350.9</ele>
        <time>2019-12-01T12:56:18Z</time>
      </trkpt>
      <trkpt lat="41.5820920" lon="2.0115940">
        <ele>351.0</ele>
        <time>2019-12-01T12:56:19Z</time>
      </trkpt>
      <trkpt lat="41.5821230" lon="2.0115990">
        <ele>351.1</ele>
        <time>2019-12-01T12:56:20Z</time>
      </trkpt>
      <trkpt lat="41.5821500" lon="2.0116020">
        <ele>351.2</ele>
        <time>2019-12-01T12:56:22Z</time>
      </trkpt>
      <trkpt lat="41.5821800" lon="2.0116060">
        <ele>351.3</ele>
        <time>2019-12-01T12:56:23Z</time>
      </trkpt>
      <trkpt lat="41.5822650" lon="2.0116020">
        <ele>351.5</ele>
        <time>2019-12-01T12:56:26Z</time>
      </trkpt>
      <trkpt lat="41.5823160" lon="2.0115940">
        <ele>351.7</ele>
        <time>2019-12-01T12:56:28Z</time>
      </trkpt>
      <trkpt lat="41.5823630" lon="2.0115820">
        <ele>351.8</ele>
        <time>2019-12-01T12:56:30Z</time>
      </trkpt>
      <trkpt lat="41.5824070" lon="2.0115730">
        <ele>352.0</ele>
        <time>2019-12-01T12:56:33Z</time>
      </trkpt>
      <trkpt lat="41.5824650" lon="2.0115610">
        <ele>352.2</ele>
        <time>2019-12-01T12:56:35Z</time>
      </trkpt>
      <trkpt lat="41.5825120" lon="2.0115490">
        <ele>352.6</ele>
        <time>2019-12-01T12:56:38Z</time>
      </trkpt>
      <trkpt lat="41.5825590" lon="2.0115390">
        <ele>352.8</ele>
        <time>2019-12-01T12:56:40Z</time>
      </trkpt>
      <trkpt lat="41.5826090" lon="2.0115350">
        <ele>353.1</ele>
        <time>2019-12-01T12:56:42Z</time>
      </trkpt>
      <trkpt lat="41.5826370" lon="2.0115340">
        <ele>353.2</ele>
        <time>2019-12-01T12:56:43Z</time>
      </trkpt>
      <trkpt lat="41.5826670" lon="2.0115380">
        <ele>353.3</ele>
        <time>2019-12-01T12:56:44Z</time>
      </trkpt>
      <trkpt lat="41.5826970" lon="2.0115400">
        <ele>353.5</ele>
        <time>2019-12-01T12:56:45Z</time>
      </trkpt>
      <trkpt lat="41.5827250" lon="2.0115420">
        <ele>353.6</ele>
        <time>2019-12-01T12:56:46Z</time>
      </trkpt>
      <trkpt lat="41.5827560" lon="2.0115430">
        <ele>353.7</ele>
        <time>2019-12-01T12:56:48Z</time>
      </trkpt>
      <trkpt lat="41.5827840" lon="2.0115450">
        <ele>353.9</ele>
        <time>2019-12-01T12:56:49Z</time>
      </trkpt>
      <trkpt lat="41.5828590" lon="2.0115570">
        <ele>354.5</ele>
        <time>2019-12-01T12:56:51Z</time>
      </trkpt>
      <trkpt lat="41.5829090" lon="2.0115610">
        <ele>354.9</ele>
        <time>2019-12-01T12:56:54Z</time>
      </trkpt>
      <trkpt lat="41.5829440" lon="2.0115620">
        <ele>355.2</ele>
        <time>2019-12-01T12:56:55Z</time>
      </trkpt>
      <trkpt lat="41.5829940" lon="2.0115690">
        <ele>355.5</ele>
        <time>2019-12-01T12:56:57Z</time>
      </trkpt>
      <trkpt lat="41.5830210" lon="2.0115690">
        <ele>355.7</ele>
        <time>2019-12-01T12:56:58Z</time>
      </trkpt>
      <trkpt lat="41.5830700" lon="2.0115580">
        <ele>356.1</ele>
        <time>2019-12-01T12:57:01Z</time>
      </trkpt>
      <trkpt lat="41.5831160" lon="2.0115430">
        <ele>356.4</ele>
        <time>2019-12-01T12:57:03Z</time>
      </trkpt>
      <trkpt lat="41.5831540" lon="2.0115250">
        <ele>356.7</ele>
        <time>2019-12-01T12:57:04Z</time>
      </trkpt>
      <trkpt lat="41.5832010" lon="2.0115090">
        <ele>356.9</ele>
        <time>2019-12-01T12:57:07Z</time>
      </trkpt>
      <trkpt lat="41.5832540" lon="2.0114960">
        <ele>357.2</ele>
        <time>2019-12-01T12:57:09Z</time>
      </trkpt>
      <trkpt lat="41.5832990" lon="2.0114920">
        <ele>357.4</ele>
        <time>2019-12-01T12:57:11Z</time>
      </trkpt>
      <trkpt lat="41.5833340" lon="2.0114970">
        <ele>357.6</ele>
        <time>2019-12-01T12:57:13Z</time>
      </trkpt>
      <trkpt lat="41.5833620" lon="2.0114990">
        <ele>357.7</ele>
        <time>2019-12-01T12:57:14Z</time>
      </trkpt>
      <trkpt lat="41.5834200" lon="2.0115020">
        <ele>357.9</ele>
        <time>2019-12-01T12:57:16Z</time>
      </trkpt>
      <trkpt lat="41.5834500" lon="2.0115040">
        <ele>358.0</ele>
        <time>2019-12-01T12:57:17Z</time>
      </trkpt>
      <trkpt lat="41.5834770" lon="2.0115060">
        <ele>358.1</ele>
        <time>2019-12-01T12:57:19Z</time>
      </trkpt>
      <trkpt lat="41.5835070" lon="2.0115080">
        <ele>358.2</ele>
        <time>2019-12-01T12:57:20Z</time>
      </trkpt>
      <trkpt lat="41.5835530" lon="2.0115120">
        <ele>358.3</ele>
        <time>2019-12-01T12:57:21Z</time>
      </trkpt>
      <trkpt lat="41.5835810" lon="2.0115150">
        <ele>358.4</ele>
        <time>2019-12-01T12:57:22Z</time>
      </trkpt>
      <trkpt lat="41.5836100" lon="2.0115160">
        <ele>358.5</ele>
        <time>2019-12-01T12:57:23Z</time>
      </trkpt>
      <trkpt lat="41.5836730" lon="2.0115130">
        <ele>358.7</ele>
        <time>2019-12-01T12:57:26Z</time>
      </trkpt>
      <trkpt lat="41.5837010" lon="2.0115110">
        <ele>358.7</ele>
        <time>2019-12-01T12:57:27Z</time>
      </trkpt>
      <trkpt lat="41.5837570" lon="2.0115110">
        <ele>358.8</ele>
        <time>2019-12-01T12:57:29Z</time>
      </trkpt>
      <trkpt lat="41.5838270" lon="2.0115200">
        <ele>358.9</ele>
        <time>2019-12-01T12:57:32Z</time>
      </trkpt>
      <trkpt lat="41.5838550" lon="2.0115260">
        <ele>358.9</ele>
        <time>2019-12-01T12:57:33Z</time>
      </trkpt>
      <trkpt lat="41.5838830" lon="2.0115320">
        <ele>358.9</ele>
        <time>2019-12-01T12:57:34Z</time>
      </trkpt>
      <trkpt lat="41.5839120" lon="2.0115390">
        <ele>359.0</ele>
        <time>2019-12-01T12:57:35Z</time>
      </trkpt>
      <trkpt lat="41.5839590" lon="2.0115460">
        <ele>359.1</ele>
        <time>2019-12-01T12:57:38Z</time>
      </trkpt>
      <trkpt lat="41.5840320" lon="2.0115550">
        <ele>359.2</ele>
        <time>2019-12-01T12:57:41Z</time>
      </trkpt>
      <trkpt lat="41.5840830" lon="2.0115580">
        <ele>359.2</ele>
        <time>2019-12-01T12:57:43Z</time>
      </trkpt>
      <trkpt lat="41.5841340" lon="2.0115600">
        <ele>359.3</ele>
        <time>2019-12-01T12:57:46Z</time>
      </trkpt>
      <trkpt lat="41.5841970" lon="2.0115690">
        <ele>359.4</ele>
        <time>2019-12-01T12:57:48Z</time>
      </trkpt>
      <trkpt lat="41.5842250" lon="2.0115710">
        <ele>359.5</ele>
        <time>2019-12-01T12:57:49Z</time>
      </trkpt>
      <trkpt lat="41.5842770" lon="2.0115690">
        <ele>359.6</ele>
        <time>2019-12-01T12:57:52Z</time>
      </trkpt>
      <trkpt lat="41.5843380" lon="2.0115660">
        <ele>359.6</ele>
        <time>2019-12-01T12:57:54Z</time>
      </trkpt>
      <trkpt lat="41.5843880" lon="2.0115740">
        <ele>359.7</ele>
        <time>2019-12-01T12:57:57Z</time>
      </trkpt>
      <trkpt lat="41.5844380" lon="2.0115750">
        <ele>359.8</ele>
        <time>2019-12-01T12:57:59Z</time>
      </trkpt>
      <trkpt lat="41.5844740" lon="2.0115580">
        <ele>359.8</ele>
        <time>2019-12-01T12:58:00Z</time>
      </trkpt>
      <trkpt lat="41.5844980" lon="2.0115390">
        <ele>359.8</ele>
        <time>2019-12-01T12:58:01Z</time>
      </trkpt>
      <trkpt lat="41.5845240" lon="2.0115260">
        <ele>359.8</ele>
        <time>2019-12-01T12:58:03Z</time>
      </trkpt>
      <trkpt lat="41.5845980" lon="2.0115730">
        <ele>359.9</ele>
        <time>2019-12-01T12:58:06Z</time>
      </trkpt>
      <trkpt lat="41.5846200" lon="2.0116390">
        <ele>361.0</ele>
        <time>2019-12-01T12:58:08Z</time>
      </trkpt>
      <trkpt lat="41.5846280" lon="2.0116770">
        <ele>361.0</ele>
        <time>2019-12-01T12:58:09Z</time>
      </trkpt>
      <trkpt lat="41.5846390" lon="2.0117160">
        <ele>361.1</ele>
        <time>2019-12-01T12:58:11Z</time>
      </trkpt>
      <trkpt lat="41.5846510" lon="2.0117750">
        <ele>361.2</ele>
        <time>2019-12-01T12:58:12Z</time>
      </trkpt>
      <trkpt lat="41.5846590" lon="2.0118140">
        <ele>361.2</ele>
        <time>2019-12-01T12:58:13Z</time>
      </trkpt>
      <trkpt lat="41.5846630" lon="2.0118540">
        <ele>361.3</ele>
        <time>2019-12-01T12:58:14Z</time>
      </trkpt>
      <trkpt lat="41.5846640" lon="2.0118920">
        <ele>361.3</ele>
        <time>2019-12-01T12:58:15Z</time>
      </trkpt>
      <trkpt lat="41.5846620" lon="2.0119340">
        <ele>361.4</ele>
        <time>2019-12-01T12:58:17Z</time>
      </trkpt>
      <trkpt lat="41.5846590" lon="2.0119720">
        <ele>361.4</ele>
        <time>2019-12-01T12:58:18Z</time>
      </trkpt>
      <trkpt lat="41.5846560" lon="2.0120130">
        <ele>361.4</ele>
        <time>2019-12-01T12:58:19Z</time>
      </trkpt>
      <trkpt lat="41.5846470" lon="2.0120930">
        <ele>361.5</ele>
        <time>2019-12-01T12:58:21Z</time>
      </trkpt>
      <trkpt lat="41.5846400" lon="2.0121610">
        <ele>361.6</ele>
        <time>2019-12-01T12:58:23Z</time>
      </trkpt>
      <trkpt lat="41.5846390" lon="2.0122280">
        <ele>361.7</ele>
        <time>2019-12-01T12:58:26Z</time>
      </trkpt>
      <trkpt lat="41.5846470" lon="2.0122960">
        <ele>361.7</ele>
        <time>2019-12-01T12:58:28Z</time>
      </trkpt>
      <trkpt lat="41.5846610" lon="2.0123610">
        <ele>361.8</ele>
        <time>2019-12-01T12:58:30Z</time>
      </trkpt>
      <trkpt lat="41.5846860" lon="2.0124220">
        <ele>361.8</ele>
        <time>2019-12-01T12:58:32Z</time>
      </trkpt>
      <trkpt lat="41.5847240" lon="2.0124880">
        <ele>361.9</ele>
        <time>2019-12-01T12:58:35Z</time>
      </trkpt>
      <trkpt lat="41.5847720" lon="2.0125200">
        <ele>361.9</ele>
        <time>2019-12-01T12:58:37Z</time>
      </trkpt>
      <trkpt lat="41.5847990" lon="2.0125310">
        <ele>362.0</ele>
        <time>2019-12-01T12:58:38Z</time>
      </trkpt>
      <trkpt lat="41.5848430" lon="2.0125430">
        <ele>362.3</ele>
        <time>2019-12-01T12:58:40Z</time>
      </trkpt>
      <trkpt lat="41.5848880" lon="2.0125440">
        <ele>362.5</ele>
        <time>2019-12-01T12:58:41Z</time>
      </trkpt>
      <trkpt lat="41.5849180" lon="2.0125460">
        <ele>362.7</ele>
        <time>2019-12-01T12:58:43Z</time>
      </trkpt>
      <trkpt lat="41.5849500" lon="2.0125500">
        <ele>362.9</ele>
        <time>2019-12-01T12:58:44Z</time>
      </trkpt>
      <trkpt lat="41.5850030" lon="2.0125490">
        <ele>363.2</ele>
        <time>2019-12-01T12:58:46Z</time>
      </trkpt>
      <trkpt lat="41.5850470" lon="2.0125520">
        <ele>363.5</ele>
        <time>2019-12-01T12:58:47Z</time>
      </trkpt>
      <trkpt lat="41.5851060" lon="2.0125630">
        <ele>363.9</ele>
        <time>2019-12-01T12:58:50Z</time>
      </trkpt>
      <trkpt lat="41.5851470" lon="2.0125690">
        <ele>364.1</ele>
        <time>2019-12-01T12:58:51Z</time>
      </trkpt>
      <trkpt lat="41.5851930" lon="2.0125790">
        <ele>364.4</ele>
        <time>2019-12-01T12:58:54Z</time>
      </trkpt>
      <trkpt lat="41.5852420" lon="2.0125920">
        <ele>364.6</ele>
        <time>2019-12-01T12:58:56Z</time>
      </trkpt>
      <trkpt lat="41.5852790" lon="2.0126040">
        <ele>364.8</ele>
        <time>2019-12-01T12:58:57Z</time>
      </trkpt>
      <trkpt lat="41.5853290" lon="2.0126190">
        <ele>365.0</ele>
        <time>2019-12-01T12:59:00Z</time>
      </trkpt>
      <trkpt lat="41.5853780" lon="2.0126320">
        <ele>365.1</ele>
        <time>2019-12-01T12:59:02Z</time>
      </trkpt>
      <trkpt lat="41.5854270" lon="2.0126500">
        <ele>365.2</ele>
        <time>2019-12-01T12:59:04Z</time>
      </trkpt>
      <trkpt lat="41.5854780" lon="2.0126690">
        <ele>365.2</ele>
        <time>2019-12-01T12:59:06Z</time>
      </trkpt>
      <trkpt lat="41.5855370" lon="2.0127030">
        <ele>365.2</ele>
        <time>2019-12-01T12:59:09Z</time>
      </trkpt>
      <trkpt lat="41.5855640" lon="2.0127190">
        <ele>365.2</ele>
        <time>2019-12-01T12:59:10Z</time>
      </trkpt>
      <trkpt lat="41.5855890" lon="2.0127340">
        <ele>365.2</ele>
        <time>2019-12-01T12:59:11Z</time>
      </trkpt>
      <trkpt lat="41.5856460" lon="2.0127780">
        <ele>365.7</ele>
        <time>2019-12-01T12:59:14Z</time>
      </trkpt>
      <trkpt lat="41.5856930" lon="2.0128230">
        <ele>366.0</ele>
        <time>2019-12-01T12:59:17Z</time>
      </trkpt>
      <trkpt lat="41.5857190" lon="2.0128490">
        <ele>366.1</ele>
        <time>2019-12-01T12:59:18Z</time>
      </trkpt>
      <trkpt lat="41.5857560" lon="2.0128900">
        <ele>366.3</ele>
        <time>2019-12-01T12:59:21Z</time>
      </trkpt>
      <trkpt lat="41.5857970" lon="2.0129640">
        <ele>366.8</ele>
        <time>2019-12-01T12:59:24Z</time>
      </trkpt>
      <trkpt lat="41.5858230" lon="2.0130150">
        <ele>367.0</ele>
        <time>2019-12-01T12:59:26Z</time>
      </trkpt>
      <trkpt lat="41.5858410" lon="2.0130540">
        <ele>367.1</ele>
        <time>2019-12-01T12:59:28Z</time>
      </trkpt>
      <trkpt lat="41.5858740" lon="2.0130830">
        <ele>367.3</ele>
        <time>2019-12-01T12:59:31Z</time>
      </trkpt>
      <trkpt lat="41.5859210" lon="2.0130960">
        <ele>367.5</ele>
        <time>2019-12-01T12:59:33Z</time>
      </trkpt>
      <trkpt lat="41.5859730" lon="2.0131020">
        <ele>367.7</ele>
        <time>2019-12-01T12:59:35Z</time>
      </trkpt>
      <trkpt lat="41.5860430" lon="2.0131060">
        <ele>368.0</ele>
        <time>2019-12-01T12:59:38Z</time>
      </trkpt>
      <trkpt lat="41.5860700" lon="2.0131110">
        <ele>368.1</ele>
        <time>2019-12-01T12:59:39Z</time>
      </trkpt>
      <trkpt lat="41.5860980" lon="2.0131190">
        <ele>368.2</ele>
        <time>2019-12-01T12:59:40Z</time>
      </trkpt>
      <trkpt lat="41.5861250" lon="2.0131270">
        <ele>368.3</ele>
        <time>2019-12-01T12:59:42Z</time>
      </trkpt>
      <trkpt lat="41.5861680" lon="2.0131460">
        <ele>368.5</ele>
        <time>2019-12-01T12:59:43Z</time>
      </trkpt>
      <trkpt lat="41.5862190" lon="2.0131690">
        <ele>368.7</ele>
        <time>2019-12-01T12:59:45Z</time>
      </trkpt>
      <trkpt lat="41.5862680" lon="2.0131970">
        <ele>368.9</ele>
        <time>2019-12-01T12:59:48Z</time>
      </trkpt>
      <trkpt lat="41.5863160" lon="2.0132230">
        <ele>369.1</ele>
        <time>2019-12-01T12:59:50Z</time>
      </trkpt>
      <trkpt lat="41.5863420" lon="2.0132370">
        <ele>369.3</ele>
        <time>2019-12-01T12:59:51Z</time>
      </trkpt>
      <trkpt lat="41.5863890" lon="2.0132590">
        <ele>369.5</ele>
        <time>2019-12-01T12:59:53Z</time>
      </trkpt>
      <trkpt lat="41.5864240" lon="2.0132760">
        <ele>369.6</ele>
        <time>2019-12-01T12:59:55Z</time>
      </trkpt>
      <trkpt lat="41.5864640" lon="2.0132900">
        <ele>369.8</ele>
        <time>2019-12-01T12:59:56Z</time>
      </trkpt>
      <trkpt lat="41.5865180" lon="2.0133010">
        <ele>370.1</ele>
        <time>2019-12-01T12:59:59Z</time>
      </trkpt>
      <trkpt lat="41.5865460" lon="2.0133050">
        <ele>370.2</ele>
        <time>2019-12-01T13:00:00Z</time>
      </trkpt>
      <trkpt lat="41.5865750" lon="2.0133100">
        <ele>370.4</ele>
        <time>2019-12-01T13:00:01Z</time>
      </trkpt>
      <trkpt lat="41.5866300" lon="2.0133280">
        <ele>370.7</ele>
        <time>2019-12-01T13:00:03Z</time>
      </trkpt>
      <trkpt lat="41.5866680" lon="2.0133440">
        <ele>371.0</ele>
        <time>2019-12-01T13:00:05Z</time>
      </trkpt>
      <trkpt lat="41.5866930" lon="2.0133580">
        <ele>371.1</ele>
        <time>2019-12-01T13:00:06Z</time>
      </trkpt>
      <trkpt lat="41.5867580" lon="2.0134000">
        <ele>371.6</ele>
        <time>2019-12-01T13:00:08Z</time>
      </trkpt>
      <trkpt lat="41.5867840" lon="2.0134220">
        <ele>371.8</ele>
        <time>2019-12-01T13:00:10Z</time>
      </trkpt>
      <trkpt lat="41.5868090" lon="2.0134460">
        <ele>372.0</ele>
        <time>2019-12-01T13:00:11Z</time>
      </trkpt>
      <trkpt lat="41.5868660" lon="2.0134890">
        <ele>372.4</ele>
        <time>2019-12-01T13:00:13Z</time>
      </trkpt>
      <trkpt lat="41.5868910" lon="2.0135090">
        <ele>372.6</ele>
        <time>2019-12-01T13:00:14Z</time>
      </trkpt>
      <trkpt lat="41.5869170" lon="2.0135270">
        <ele>372.8</ele>
        <time>2019-12-01T13:00:16Z</time>
      </trkpt>
      <trkpt lat="41.5869410" lon="2.0135430">
        <ele>372.9</ele>
        <time>2019-12-01T13:00:17Z</time>
      </trkpt>
      <trkpt lat="41.5869800" lon="2.0135690">
        <ele>373.2</ele>
        <time>2019-12-01T13:00:18Z</time>
      </trkpt>
      <trkpt lat="41.5870060" lon="2.0135880">
        <ele>373.3</ele>
        <time>2019-12-01T13:00:19Z</time>
      </trkpt>
      <trkpt lat="41.5870310" lon="2.0136060">
        <ele>373.5</ele>
        <time>2019-12-01T13:00:21Z</time>
      </trkpt>
      <trkpt lat="41.5870880" lon="2.0136470">
        <ele>373.8</ele>
        <time>2019-12-01T13:00:23Z</time>
      </trkpt>
      <trkpt lat="41.5871350" lon="2.0136750">
        <ele>374.0</ele>
        <time>2019-12-01T13:00:26Z</time>
      </trkpt>
      <trkpt lat="41.5871780" lon="2.0137060">
        <ele>374.2</ele>
        <time>2019-12-01T13:00:28Z</time>
      </trkpt>
      <trkpt lat="41.5872180" lon="2.0137350">
        <ele>374.4</ele>
        <time>2019-12-01T13:00:30Z</time>
      </trkpt>
      <trkpt lat="41.5872410" lon="2.0137540">
        <ele>374.5</ele>
        <time>2019-12-01T13:00:31Z</time>
      </trkpt>
      <trkpt lat="41.5872860" lon="2.0137910">
        <ele>374.7</ele>
        <time>2019-12-01T13:00:34Z</time>
      </trkpt>
      <trkpt lat="41.5873300" lon="2.0138230">
        <ele>374.8</ele>
        <time>2019-12-01T13:00:36Z</time>
      </trkpt>
      <trkpt lat="41.5873590" lon="2.0138490">
        <ele>375.0</ele>
        <time>2019-12-01T13:00:37Z</time>
      </trkpt>
      <trkpt lat="41.5873820" lon="2.0138680">
        <ele>375.1</ele>
        <time>2019-12-01T13:00:38Z</time>
      </trkpt>
      <trkpt lat="41.5874310" lon="2.0139040">
        <ele>375.3</ele>
        <time>2019-12-01T13:00:41Z</time>
      </trkpt>
      <trkpt lat="41.5874690" lon="2.0139400">
        <ele>375.5</ele>
        <time>2019-12-01T13:00:43Z</time>
      </trkpt>
      <trkpt lat="41.5875010" lon="2.0139650">
        <ele>375.6</ele>
        <time>2019-12-01T13:00:44Z</time>
      </trkpt>
      <trkpt lat="41.5875380" lon="2.0139970">
        <ele>375.8</ele>
        <time>2019-12-01T13:00:47Z</time>
      </trkpt>
      <trkpt lat="41.5875760" lon="2.0140290">
        <ele>375.9</ele>
        <time>2019-12-01T13:00:49Z</time>
      </trkpt>
      <trkpt lat="41.5876200" lon="2.0140540">
        <ele>376.1</ele>
        <time>2019-12-01T13:00:51Z</time>
      </trkpt>
      <trkpt lat="41.5876630" lon="2.0140830">
        <ele>376.3</ele>
        <time>2019-12-01T13:00:53Z</time>
      </trkpt>
      <trkpt lat="41.5877020" lon="2.0141070">
        <ele>376.4</ele>
        <time>2019-12-01T13:00:56Z</time>
      </trkpt>
      <trkpt lat="41.5877430" lon="2.0141340">
        <ele>376.6</ele>
        <time>2019-12-01T13:00:58Z</time>
      </trkpt>
      <trkpt lat="41.5877740" lon="2.0141530">
        <ele>376.7</ele>
        <time>2019-12-01T13:00:59Z</time>
      </trkpt>
      <trkpt lat="41.5878170" lon="2.0141780">
        <ele>376.8</ele>
        <time>2019-12-01T13:01:02Z</time>
      </trkpt>
      <trkpt lat="41.5878440" lon="2.0141930">
        <ele>376.9</ele>
        <time>2019-12-01T13:01:03Z</time>
      </trkpt>
      <trkpt lat="41.5878700" lon="2.0142100">
        <ele>377.1</ele>
        <time>2019-12-01T13:01:04Z</time>
      </trkpt>
      <trkpt lat="41.5878950" lon="2.0142270">
        <ele>377.2</ele>
        <time>2019-12-01T13:01:05Z</time>
      </trkpt>
      <trkpt lat="41.5879420" lon="2.0142670">
        <ele>377.4</ele>
        <time>2019-12-01T13:01:07Z</time>
      </trkpt>
      <trkpt lat="41.5879670" lon="2.0142860">
        <ele>377.5</ele>
        <time>2019-12-01T13:01:08Z</time>
      </trkpt>
      <trkpt lat="41.5879920" lon="2.0143070">
        <ele>377.7</ele>
        <time>2019-12-01T13:01:10Z</time>
      </trkpt>
      <trkpt lat="41.5880710" lon="2.0143770">
        <ele>378.1</ele>
        <time>2019-12-01T13:01:13Z</time>
      </trkpt>
      <trkpt lat="41.5881140" lon="2.0144090">
        <ele>378.4</ele>
        <time>2019-12-01T13:01:16Z</time>
      </trkpt>
      <trkpt lat="41.5881590" lon="2.0144450">
        <ele>378.6</ele>
        <time>2019-12-01T13:01:18Z</time>
      </trkpt>
      <trkpt lat="41.5881970" lon="2.0144750">
        <ele>378.8</ele>
        <time>2019-12-01T13:01:19Z</time>
      </trkpt>
      <trkpt lat="41.5882230" lon="2.0144930">
        <ele>379.0</ele>
        <time>2019-12-01T13:01:21Z</time>
      </trkpt>
      <trkpt lat="41.5882690" lon="2.0145210">
        <ele>379.2</ele>
        <time>2019-12-01T13:01:23Z</time>
      </trkpt>
      <trkpt lat="41.5883190" lon="2.0145530">
        <ele>379.4</ele>
        <time>2019-12-01T13:01:25Z</time>
      </trkpt>
      <trkpt lat="41.5883430" lon="2.0145740">
        <ele>379.6</ele>
        <time>2019-12-01T13:01:26Z</time>
      </trkpt>
      <trkpt lat="41.5883680" lon="2.0145930">
        <ele>379.7</ele>
        <time>2019-12-01T13:01:27Z</time>
      </trkpt>
      <trkpt lat="41.5883910" lon="2.0146140">
        <ele>379.8</ele>
        <time>2019-12-01T13:01:28Z</time>
      </trkpt>
      <trkpt lat="41.5884140" lon="2.0146360">
        <ele>380.0</ele>
        <time>2019-12-01T13:01:30Z</time>
      </trkpt>
      <trkpt lat="41.5884600" lon="2.0146800">
        <ele>380.3</ele>
        <time>2019-12-01T13:01:32Z</time>
      </trkpt>
      <trkpt lat="41.5884940" lon="2.0147140">
        <ele>380.5</ele>
        <time>2019-12-01T13:01:33Z</time>
      </trkpt>
      <trkpt lat="41.5885170" lon="2.0147370">
        <ele>380.6</ele>
        <time>2019-12-01T13:01:34Z</time>
      </trkpt>
      <trkpt lat="41.5885400" lon="2.0147610">
        <ele>380.8</ele>
        <time>2019-12-01T13:01:36Z</time>
      </trkpt>
      <trkpt lat="41.5885610" lon="2.0147840">
        <ele>380.9</ele>
        <time>2019-12-01T13:01:37Z</time>
      </trkpt>
      <trkpt lat="41.5886110" lon="2.0148350">
        <ele>381.3</ele>
        <time>2019-12-01T13:01:39Z</time>
      </trkpt>
      <trkpt lat="41.5886510" lon="2.0148650">
        <ele>381.5</ele>
        <time>2019-12-01T13:01:42Z</time>
      </trkpt>
      <trkpt lat="41.5886960" lon="2.0148900">
        <ele>382.0</ele>
        <time>2019-12-01T13:01:44Z</time>
      </trkpt>
      <trkpt lat="41.5887450" lon="2.0148950">
        <ele>382.0</ele>
        <time>2019-12-01T13:01:46Z</time>
      </trkpt>
      <trkpt lat="41.5887840" lon="2.0148970">
        <ele>382.0</ele>
        <time>2019-12-01T13:01:48Z</time>
      </trkpt>
      <trkpt lat="41.5888460" lon="2.0148930">
        <ele>382.0</ele>
        <time>2019-12-01T13:01:50Z</time>
      </trkpt>
      <trkpt lat="41.5888930" lon="2.0148610">
        <ele>382.0</ele>
        <time>2019-12-01T13:01:53Z</time>
      </trkpt>
      <trkpt lat="41.5889510" lon="2.0147800">
        <ele>382.0</ele>
        <time>2019-12-01T13:01:56Z</time>
      </trkpt>
      <trkpt lat="41.5889730" lon="2.0147550">
        <ele>382.1</ele>
        <time>2019-12-01T13:01:57Z</time>
      </trkpt>
      <trkpt lat="41.5889960" lon="2.0147290">
        <ele>382.1</ele>
        <time>2019-12-01T13:01:58Z</time>
      </trkpt>
      <trkpt lat="41.5890190" lon="2.0147030">
        <ele>382.1</ele>
        <time>2019-12-01T13:01:59Z</time>
      </trkpt>
      <trkpt lat="41.5890440" lon="2.0146800">
        <ele>382.2</ele>
        <time>2019-12-01T13:02:00Z</time>
      </trkpt>
      <trkpt lat="41.5890860" lon="2.0146390">
        <ele>382.3</ele>
        <time>2019-12-01T13:02:03Z</time>
      </trkpt>
      <trkpt lat="41.5891370" lon="2.0146000">
        <ele>382.5</ele>
        <time>2019-12-01T13:02:05Z</time>
      </trkpt>
      <trkpt lat="41.5891810" lon="2.0145630">
        <ele>382.6</ele>
        <time>2019-12-01T13:02:08Z</time>
      </trkpt>
      <trkpt lat="41.5892250" lon="2.0145210">
        <ele>382.8</ele>
        <time>2019-12-01T13:02:10Z</time>
      </trkpt>
      <trkpt lat="41.5892500" lon="2.0144950">
        <ele>382.9</ele>
        <time>2019-12-01T13:02:11Z</time>
      </trkpt>
      <trkpt lat="41.5892740" lon="2.0144690">
        <ele>382.9</ele>
        <time>2019-12-01T13:02:12Z</time>
      </trkpt>
      <trkpt lat="41.5893260" lon="2.0144370">
        <ele>383.0</ele>
        <time>2019-12-01T13:02:14Z</time>
      </trkpt>
      <trkpt lat="41.5893510" lon="2.0144220">
        <ele>383.1</ele>
        <time>2019-12-01T13:02:15Z</time>
      </trkpt>
      <trkpt lat="41.5893780" lon="2.0144100">
        <ele>383.1</ele>
        <time>2019-12-01T13:02:17Z</time>
      </trkpt>
      <trkpt lat="41.5894060" lon="2.0144050">
        <ele>383.1</ele>
        <time>2019-12-01T13:02:18Z</time>
      </trkpt>
      <trkpt lat="41.5894380" lon="2.0144100">
        <ele>383.1</ele>
        <time>2019-12-01T13:02:19Z</time>
      </trkpt>
      <trkpt lat="41.5894830" lon="2.0144220">
        <ele>383.2</ele>
        <time>2019-12-01T13:02:20Z</time>
      </trkpt>
      <trkpt lat="41.5895100" lon="2.0144360">
        <ele>384.7</ele>
        <time>2019-12-01T13:02:21Z</time>
      </trkpt>
      <trkpt lat="41.5895620" lon="2.0144590">
        <ele>385.0</ele>
        <time>2019-12-01T13:02:24Z</time>
      </trkpt>
      <trkpt lat="41.5895920" lon="2.0145030">
        <ele>385.2</ele>
        <time>2019-12-01T13:02:26Z</time>
      </trkpt>
      <trkpt lat="41.5896020" lon="2.0145560">
        <ele>385.3</ele>
        <time>2019-12-01T13:02:28Z</time>
      </trkpt>
      <trkpt lat="41.5896020" lon="2.0145950">
        <ele>385.4</ele>
        <time>2019-12-01T13:02:29Z</time>
      </trkpt>
      <trkpt lat="41.5895970" lon="2.0146620">
        <ele>385.6</ele>
        <time>2019-12-01T13:02:32Z</time>
      </trkpt>
      <trkpt lat="41.5895870" lon="2.0147300">
        <ele>385.8</ele>
        <time>2019-12-01T13:02:34Z</time>
      </trkpt>
      <trkpt lat="41.5895830" lon="2.0147990">
        <ele>385.9</ele>
        <time>2019-12-01T13:02:36Z</time>
      </trkpt>
      <trkpt lat="41.5895810" lon="2.0148660">
        <ele>386.0</ele>
        <time>2019-12-01T13:02:38Z</time>
      </trkpt>
      <trkpt lat="41.5895790" lon="2.0149340">
        <ele>386.1</ele>
        <time>2019-12-01T13:02:41Z</time>
      </trkpt>
      <trkpt lat="41.5895790" lon="2.0149720">
        <ele>386.1</ele>
        <time>2019-12-01T13:02:42Z</time>
      </trkpt>
      <trkpt lat="41.5895790" lon="2.0150130">
        <ele>386.2</ele>
        <time>2019-12-01T13:02:43Z</time>
      </trkpt>
      <trkpt lat="41.5895750" lon="2.0150870">
        <ele>386.3</ele>
        <time>2019-12-01T13:02:45Z</time>
      </trkpt>
      <trkpt lat="41.5895760" lon="2.0151250">
        <ele>386.3</ele>
        <time>2019-12-01T13:02:46Z</time>
      </trkpt>
      <trkpt lat="41.5895790" lon="2.0151610">
        <ele>386.4</ele>
        <time>2019-12-01T13:02:47Z</time>
      </trkpt>
      <trkpt lat="41.5895790" lon="2.0152170">
        <ele>386.5</ele>
        <time>2019-12-01T13:02:49Z</time>
      </trkpt>
      <trkpt lat="41.5895770" lon="2.0152550">
        <ele>386.5</ele>
        <time>2019-12-01T13:02:50Z</time>
      </trkpt>
      <trkpt lat="41.5895780" lon="2.0152930">
        <ele>386.6</ele>
        <time>2019-12-01T13:02:51Z</time>
      </trkpt>
      <trkpt lat="41.5895790" lon="2.0153310">
        <ele>386.7</ele>
        <time>2019-12-01T13:02:52Z</time>
      </trkpt>
      <trkpt lat="41.5895820" lon="2.0153680">
        <ele>386.8</ele>
        <time>2019-12-01T13:02:53Z</time>
      </trkpt>
      <trkpt lat="41.5895870" lon="2.0154070">
        <ele>386.9</ele>
        <time>2019-12-01T13:02:54Z</time>
      </trkpt>
      <trkpt lat="41.5895870" lon="2.0154810">
        <ele>387.0</ele>
        <time>2019-12-01T13:02:57Z</time>
      </trkpt>
      <trkpt lat="41.5895810" lon="2.0155490">
        <ele>387.1</ele>
        <time>2019-12-01T13:02:59Z</time>
      </trkpt>
      <trkpt lat="41.5895680" lon="2.0156010">
        <ele>387.2</ele>
        <time>2019-12-01T13:03:00Z</time>
      </trkpt>
      <trkpt lat="41.5895520" lon="2.0156620">
        <ele>387.3</ele>
        <time>2019-12-01T13:03:03Z</time>
      </trkpt>
      <trkpt lat="41.5895430" lon="2.0157170">
        <ele>387.4</ele>
        <time>2019-12-01T13:03:05Z</time>
      </trkpt>
      <trkpt lat="41.5895420" lon="2.0157770">
        <ele>387.6</ele>
        <time>2019-12-01T13:03:07Z</time>
      </trkpt>
      <trkpt lat="41.5895420" lon="2.0158320">
        <ele>387.7</ele>
        <time>2019-12-01T13:03:09Z</time>
      </trkpt>
      <trkpt lat="41.5895640" lon="2.0158610">
        <ele>387.8</ele>
        <time>2019-12-01T13:03:12Z</time>
      </trkpt>
      <trkpt lat="41.5896960" lon="2.0158650">
        <ele>388.1</ele>
        <time>2019-12-01T13:03:15Z</time>
      </trkpt>
      <trkpt lat="41.5897790" lon="2.0158700">
        <ele>388.4</ele>
        <time>2019-12-01T13:03:16Z</time>
      </trkpt>
      <trkpt lat="41.5898570" lon="2.0158560">
        <ele>389.0</ele>
        <time>2019-12-01T13:03:18Z</time>
      </trkpt>
      <trkpt lat="41.5899090" lon="2.0158390">
        <ele>388.9</ele>
        <time>2019-12-01T13:03:19Z</time>
      </trkpt>
      <trkpt lat="41.5899740" lon="2.0158070">
        <ele>388.9</ele>
        <time>2019-12-01T13:03:20Z</time>
      </trkpt>
      <trkpt lat="41.5900150" lon="2.0157810">
        <ele>389.0</ele>
        <time>2019-12-01T13:03:21Z</time>
      </trkpt>
      <trkpt lat="41.5900520" lon="2.0157530">
        <ele>389.0</ele>
        <time>2019-12-01T13:03:23Z</time>
      </trkpt>
      <trkpt lat="41.5900870" lon="2.0157240">
        <ele>389.0</ele>
        <time>2019-12-01T13:03:24Z</time>
      </trkpt>
      <trkpt lat="41.5901160" lon="2.0156960">
        <ele>389.0</ele>
        <time>2019-12-01T13:03:25Z</time>
      </trkpt>
      <trkpt lat="41.5901500" lon="2.0156650">
        <ele>389.0</ele>
        <time>2019-12-01T13:03:26Z</time>
      </trkpt>
      <trkpt lat="41.5901800" lon="2.0156390">
        <ele>389.0</ele>
        <time>2019-12-01T13:03:27Z</time>
      </trkpt>
      <trkpt lat="41.5902080" lon="2.0156130">
        <ele>389.0</ele>
        <time>2019-12-01T13:03:28Z</time>
      </trkpt>
      <trkpt lat="41.5902370" lon="2.0155840">
        <ele>389.0</ele>
        <time>2019-12-01T13:03:29Z</time>
      </trkpt>
      <trkpt lat="41.5902630" lon="2.0155580">
        <ele>389.0</ele>
        <time>2019-12-01T13:03:30Z</time>
      </trkpt>
      <trkpt lat="41.5903110" lon="2.0155150">
        <ele>389.1</ele>
        <time>2019-12-01T13:03:33Z</time>
      </trkpt>
      <trkpt lat="41.5903360" lon="2.0154930">
        <ele>389.1</ele>
        <time>2019-12-01T13:03:34Z</time>
      </trkpt>
      <trkpt lat="41.5903950" lon="2.0154350">
        <ele>389.1</ele>
        <time>2019-12-01T13:03:37Z</time>
      </trkpt>
      <trkpt lat="41.5904160" lon="2.0154120">
        <ele>389.1</ele>
        <time>2019-12-01T13:03:38Z</time>
      </trkpt>
      <trkpt lat="41.5904540" lon="2.0153690">
        <ele>389.1</ele>
        <time>2019-12-01T13:03:40Z</time>
      </trkpt>
      <trkpt lat="41.5905010" lon="2.0153210">
        <ele>389.1</ele>
        <time>2019-12-01T13:03:43Z</time>
      </trkpt>
      <trkpt lat="41.5905400" lon="2.0152780">
        <ele>389.1</ele>
        <time>2019-12-01T13:03:45Z</time>
      </trkpt>
      <trkpt lat="41.5905700" lon="2.0152420">
        <ele>389.1</ele>
        <time>2019-12-01T13:03:48Z</time>
      </trkpt>
      <trkpt lat="41.5906020" lon="2.0152100">
        <ele>389.2</ele>
        <time>2019-12-01T13:03:49Z</time>
      </trkpt>
      <trkpt lat="41.5906470" lon="2.0151680">
        <ele>389.2</ele>
        <time>2019-12-01T13:03:51Z</time>
      </trkpt>
      <trkpt lat="41.5906850" lon="2.0151260">
        <ele>389.1</ele>
        <time>2019-12-01T13:03:54Z</time>
      </trkpt>
      <trkpt lat="41.5907160" lon="2.0150920">
        <ele>389.1</ele>
        <time>2019-12-01T13:03:55Z</time>
      </trkpt>
      <trkpt lat="41.5907390" lon="2.0150680">
        <ele>389.0</ele>
        <time>2019-12-01T13:03:56Z</time>
      </trkpt>
      <trkpt lat="41.5907620" lon="2.0150430">
        <ele>389.0</ele>
        <time>2019-12-01T13:03:57Z</time>
      </trkpt>
      <trkpt lat="41.5907840" lon="2.0150180">
        <ele>389.0</ele>
        <time>2019-12-01T13:03:58Z</time>
      </trkpt>
      <trkpt lat="41.5908070" lon="2.0149950">
        <ele>389.0</ele>
        <time>2019-12-01T13:04:00Z</time>
      </trkpt>
      <trkpt lat="41.5908310" lon="2.0149700">
        <ele>389.0</ele>
        <time>2019-12-01T13:04:01Z</time>
      </trkpt>
      <trkpt lat="41.5908520" lon="2.0149480">
        <ele>389.1</ele>
        <time>2019-12-01T13:04:02Z</time>
      </trkpt>
      <trkpt lat="41.5908760" lon="2.0149260">
        <ele>389.2</ele>
        <time>2019-12-01T13:04:03Z</time>
      </trkpt>
      <trkpt lat="41.5909100" lon="2.0148970">
        <ele>389.3</ele>
        <time>2019-12-01T13:04:04Z</time>
      </trkpt>
      <trkpt lat="41.5909340" lon="2.0148780">
        <ele>389.3</ele>
        <time>2019-12-01T13:04:05Z</time>
      </trkpt>
      <trkpt lat="41.5909590" lon="2.0148550">
        <ele>389.4</ele>
        <time>2019-12-01T13:04:07Z</time>
      </trkpt>
      <trkpt lat="41.5909810" lon="2.0148340">
        <ele>389.5</ele>
        <time>2019-12-01T13:04:08Z</time>
      </trkpt>
      <trkpt lat="41.5910030" lon="2.0148120">
        <ele>389.7</ele>
        <time>2019-12-01T13:04:09Z</time>
      </trkpt>
      <trkpt lat="41.5910430" lon="2.0147680">
        <ele>389.9</ele>
        <time>2019-12-01T13:04:11Z</time>
      </trkpt>
      <trkpt lat="41.5910660" lon="2.0147480">
        <ele>390.0</ele>
        <time>2019-12-01T13:04:12Z</time>
      </trkpt>
      <trkpt lat="41.5911060" lon="2.0147150">
        <ele>390.1</ele>
        <time>2019-12-01T13:04:15Z</time>
      </trkpt>
      <trkpt lat="41.5911350" lon="2.0147020">
        <ele>390.1</ele>
        <time>2019-12-01T13:04:16Z</time>
      </trkpt>
      <trkpt lat="41.5911730" lon="2.0147110">
        <ele>390.2</ele>
        <time>2019-12-01T13:04:18Z</time>
      </trkpt>
      <trkpt lat="41.5912070" lon="2.0147360">
        <ele>390.3</ele>
        <time>2019-12-01T13:04:20Z</time>
      </trkpt>
      <trkpt lat="41.5912490" lon="2.0148060">
        <ele>390.4</ele>
        <time>2019-12-01T13:04:22Z</time>
      </trkpt>
      <trkpt lat="41.5912850" lon="2.0148600">
        <ele>390.6</ele>
        <time>2019-12-01T13:04:25Z</time>
      </trkpt>
      <trkpt lat="41.5913370" lon="2.0149020">
        <ele>390.8</ele>
        <time>2019-12-01T13:04:27Z</time>
      </trkpt>
      <trkpt lat="41.5913890" lon="2.0149190">
        <ele>391.0</ele>
        <time>2019-12-01T13:04:29Z</time>
      </trkpt>
      <trkpt lat="41.5914330" lon="2.0149260">
        <ele>391.1</ele>
        <time>2019-12-01T13:04:32Z</time>
      </trkpt>
      <trkpt lat="41.5915090" lon="2.0149340">
        <ele>391.3</ele>
        <time>2019-12-01T13:04:35Z</time>
      </trkpt>
      <trkpt lat="41.5915580" lon="2.0149410">
        <ele>391.4</ele>
        <time>2019-12-01T13:04:38Z</time>
      </trkpt>
      <trkpt lat="41.5915860" lon="2.0149440">
        <ele>391.5</ele>
        <time>2019-12-01T13:04:39Z</time>
      </trkpt>
      <trkpt lat="41.5916320" lon="2.0149430">
        <ele>391.6</ele>
        <time>2019-12-01T13:04:41Z</time>
      </trkpt>
      <trkpt lat="41.5916750" lon="2.0149470">
        <ele>391.8</ele>
        <time>2019-12-01T13:04:43Z</time>
      </trkpt>
      <trkpt lat="41.5917110" lon="2.0149400">
        <ele>391.9</ele>
        <time>2019-12-01T13:04:45Z</time>
      </trkpt>
      <trkpt lat="41.5917540" lon="2.0149320">
        <ele>392.0</ele>
        <time>2019-12-01T13:04:48Z</time>
      </trkpt>
      <trkpt lat="41.5918120" lon="2.0149290">
        <ele>392.0</ele>
        <time>2019-12-01T13:04:50Z</time>
      </trkpt>
      <trkpt lat="41.5918710" lon="2.0149270">
        <ele>392.1</ele>
        <time>2019-12-01T13:04:53Z</time>
      </trkpt>
      <trkpt lat="41.5919010" lon="2.0149250">
        <ele>392.1</ele>
        <time>2019-12-01T13:04:54Z</time>
      </trkpt>
      <trkpt lat="41.5919680" lon="2.0149250">
        <ele>392.1</ele>
        <time>2019-12-01T13:04:56Z</time>
      </trkpt>
      <trkpt lat="41.5920190" lon="2.0149220">
        <ele>392.1</ele>
        <time>2019-12-01T13:04:59Z</time>
      </trkpt>
      <trkpt lat="41.5920830" lon="2.0148960">
        <ele>392.1</ele>
        <time>2019-12-01T13:05:01Z</time>
      </trkpt>
      <trkpt lat="41.5921040" lon="2.0148670">
        <ele>392.1</ele>
        <time>2019-12-01T13:05:02Z</time>
      </trkpt>
      <trkpt lat="41.5921250" lon="2.0148360">
        <ele>392.1</ele>
        <time>2019-12-01T13:05:04Z</time>
      </trkpt>
      <trkpt lat="41.5921480" lon="2.0147990">
        <ele>392.1</ele>
        <time>2019-12-01T13:05:05Z</time>
      </trkpt>
      <trkpt lat="41.5921830" lon="2.0147620">
        <ele>392.1</ele>
        <time>2019-12-01T13:05:06Z</time>
      </trkpt>
      <trkpt lat="41.5922110" lon="2.0147370">
        <ele>392.1</ele>
        <time>2019-12-01T13:05:07Z</time>
      </trkpt>
      <trkpt lat="41.5922370" lon="2.0147130">
        <ele>392.2</ele>
        <time>2019-12-01T13:05:08Z</time>
      </trkpt>
      <trkpt lat="41.5922660" lon="2.0146910">
        <ele>392.2</ele>
        <time>2019-12-01T13:05:10Z</time>
      </trkpt>
      <trkpt lat="41.5923140" lon="2.0146830">
        <ele>392.3</ele>
        <time>2019-12-01T13:05:12Z</time>
      </trkpt>
      <trkpt lat="41.5923480" lon="2.0147090">
        <ele>392.1</ele>
        <time>2019-12-01T13:05:13Z</time>
      </trkpt>
      <trkpt lat="41.5923830" lon="2.0147540">
        <ele>392.0</ele>
        <time>2019-12-01T13:05:15Z</time>
      </trkpt>
      <trkpt lat="41.5924120" lon="2.0148050">
        <ele>391.8</ele>
        <time>2019-12-01T13:05:18Z</time>
      </trkpt>
      <trkpt lat="41.5924400" lon="2.0148550">
        <ele>391.6</ele>
        <time>2019-12-01T13:05:20Z</time>
      </trkpt>
      <trkpt lat="41.5924670" lon="2.0148960">
        <ele>391.4</ele>
        <time>2019-12-01T13:05:22Z</time>
      </trkpt>
      <trkpt lat="41.5924980" lon="2.0149410">
        <ele>391.3</ele>
        <time>2019-12-01T13:05:24Z</time>
      </trkpt>
      <trkpt lat="41.5925380" lon="2.0149920">
        <ele>391.3</ele>
        <time>2019-12-01T13:05:27Z</time>
      </trkpt>
      <trkpt lat="41.5925810" lon="2.0150450">
        <ele>391.2</ele>
        <time>2019-12-01T13:05:29Z</time>
      </trkpt>
      <trkpt lat="41.5926030" lon="2.0150730">
        <ele>391.2</ele>
        <time>2019-12-01T13:05:30Z</time>
      </trkpt>
      <trkpt lat="41.5926420" lon="2.0151210">
        <ele>391.2</ele>
        <time>2019-12-01T13:05:32Z</time>
      </trkpt>
      <trkpt lat="41.5926780" lon="2.0151740">
        <ele>391.2</ele>
        <time>2019-12-01T13:05:35Z</time>
      </trkpt>
      <trkpt lat="41.5927080" lon="2.0152120">
        <ele>391.3</ele>
        <time>2019-12-01T13:05:37Z</time>
      </trkpt>
      <trkpt lat="41.5927660" lon="2.0152790">
        <ele>391.4</ele>
        <time>2019-12-01T13:05:40Z</time>
      </trkpt>
      <trkpt lat="41.5927860" lon="2.0153090">
        <ele>391.4</ele>
        <time>2019-12-01T13:05:41Z</time>
      </trkpt>
      <trkpt lat="41.5928040" lon="2.0153370">
        <ele>391.5</ele>
        <time>2019-12-01T13:05:42Z</time>
      </trkpt>
      <trkpt lat="41.5928430" lon="2.0153840">
        <ele>391.6</ele>
        <time>2019-12-01T13:05:44Z</time>
      </trkpt>
      <trkpt lat="41.5928950" lon="2.0154450">
        <ele>391.8</ele>
        <time>2019-12-01T13:05:47Z</time>
      </trkpt>
      <trkpt lat="41.5929160" lon="2.0154680">
        <ele>391.9</ele>
        <time>2019-12-01T13:05:48Z</time>
      </trkpt>
      <trkpt lat="41.5929580" lon="2.0155080">
        <ele>392.1</ele>
        <time>2019-12-01T13:05:51Z</time>
      </trkpt>
      <trkpt lat="41.5929960" lon="2.0155570">
        <ele>392.3</ele>
        <time>2019-12-01T13:05:53Z</time>
      </trkpt>
      <trkpt lat="41.5930170" lon="2.0155810">
        <ele>392.4</ele>
        <time>2019-12-01T13:05:54Z</time>
      </trkpt>
      <trkpt lat="41.5930380" lon="2.0156040">
        <ele>392.5</ele>
        <time>2019-12-01T13:05:55Z</time>
      </trkpt>
      <trkpt lat="41.5930630" lon="2.0156260">
        <ele>392.5</ele>
        <time>2019-12-01T13:05:56Z</time>
      </trkpt>
      <trkpt lat="41.5930900" lon="2.0156460">
        <ele>392.5</ele>
        <time>2019-12-01T13:05:57Z</time>
      </trkpt>
      <trkpt lat="41.5931180" lon="2.0156650">
        <ele>392.5</ele>
        <time>2019-12-01T13:05:59Z</time>
      </trkpt>
      <trkpt lat="41.5931460" lon="2.0156820">
        <ele>392.5</ele>
        <time>2019-12-01T13:06:00Z</time>
      </trkpt>
      <trkpt lat="41.5931700" lon="2.0156990">
        <ele>392.5</ele>
        <time>2019-12-01T13:06:01Z</time>
      </trkpt>
      <trkpt lat="41.5932100" lon="2.0157250">
        <ele>392.5</ele>
        <time>2019-12-01T13:06:02Z</time>
      </trkpt>
      <trkpt lat="41.5932360" lon="2.0157420">
        <ele>392.5</ele>
        <time>2019-12-01T13:06:03Z</time>
      </trkpt>
      <trkpt lat="41.5932630" lon="2.0157580">
        <ele>392.5</ele>
        <time>2019-12-01T13:06:05Z</time>
      </trkpt>
      <trkpt lat="41.5932900" lon="2.0157750">
        <ele>392.5</ele>
        <time>2019-12-01T13:06:06Z</time>
      </trkpt>
      <trkpt lat="41.5933170" lon="2.0157880">
        <ele>392.6</ele>
        <time>2019-12-01T13:06:07Z</time>
      </trkpt>
      <trkpt lat="41.5933620" lon="2.0158160">
        <ele>392.7</ele>
        <time>2019-12-01T13:06:08Z</time>
      </trkpt>
      <trkpt lat="41.5933910" lon="2.0158350">
        <ele>392.7</ele>
        <time>2019-12-01T13:06:09Z</time>
      </trkpt>
      <trkpt lat="41.5934180" lon="2.0158520">
        <ele>392.8</ele>
        <time>2019-12-01T13:06:10Z</time>
      </trkpt>
      <trkpt lat="41.5934430" lon="2.0158690">
        <ele>392.8</ele>
        <time>2019-12-01T13:06:12Z</time>
      </trkpt>
      <trkpt lat="41.5934690" lon="2.0158860">
        <ele>392.9</ele>
        <time>2019-12-01T13:06:13Z</time>
      </trkpt>
      <trkpt lat="41.5934950" lon="2.0159040">
        <ele>393.0</ele>
        <time>2019-12-01T13:06:14Z</time>
      </trkpt>
      <trkpt lat="41.5935210" lon="2.0159240">
        <ele>393.1</ele>
        <time>2019-12-01T13:06:15Z</time>
      </trkpt>
      <trkpt lat="41.5935670" lon="2.0159500">
        <ele>393.3</ele>
        <time>2019-12-01T13:06:17Z</time>
      </trkpt>
      <trkpt lat="41.5935940" lon="2.0159630">
        <ele>393.4</ele>
        <time>2019-12-01T13:06:18Z</time>
      </trkpt>
      <trkpt lat="41.5936440" lon="2.0159920">
        <ele>393.6</ele>
        <time>2019-12-01T13:06:21Z</time>
      </trkpt>
      <trkpt lat="41.5936690" lon="2.0160050">
        <ele>393.7</ele>
        <time>2019-12-01T13:06:22Z</time>
      </trkpt>
      <trkpt lat="41.5937170" lon="2.0160300">
        <ele>394.1</ele>
        <time>2019-12-01T13:06:24Z</time>
      </trkpt>
      <trkpt lat="41.5937430" lon="2.0160430">
        <ele>394.3</ele>
        <time>2019-12-01T13:06:25Z</time>
      </trkpt>
      <trkpt lat="41.5938050" lon="2.0160730">
        <ele>394.7</ele>
        <time>2019-12-01T13:06:28Z</time>
      </trkpt>
      <trkpt lat="41.5938310" lon="2.0160860">
        <ele>394.8</ele>
        <time>2019-12-01T13:06:29Z</time>
      </trkpt>
      <trkpt lat="41.5938710" lon="2.0161060">
        <ele>395.1</ele>
        <time>2019-12-01T13:06:30Z</time>
      </trkpt>
      <trkpt lat="41.5939170" lon="2.0161320">
        <ele>395.4</ele>
        <time>2019-12-01T13:06:33Z</time>
      </trkpt>
      <trkpt lat="41.5939600" lon="2.0161590">
        <ele>395.7</ele>
        <time>2019-12-01T13:06:35Z</time>
      </trkpt>
      <trkpt lat="41.5940000" lon="2.0161920">
        <ele>396.0</ele>
        <time>2019-12-01T13:06:37Z</time>
      </trkpt>
      <trkpt lat="41.5940440" lon="2.0162200">
        <ele>396.4</ele>
        <time>2019-12-01T13:06:39Z</time>
      </trkpt>
      <trkpt lat="41.5940770" lon="2.0162410">
        <ele>396.7</ele>
        <time>2019-12-01T13:06:41Z</time>
      </trkpt>
      <trkpt lat="41.5941240" lon="2.0162680">
        <ele>397.1</ele>
        <time>2019-12-01T13:06:43Z</time>
      </trkpt>
      <trkpt lat="41.5941730" lon="2.0162960">
        <ele>397.6</ele>
        <time>2019-12-01T13:06:45Z</time>
      </trkpt>
      <trkpt lat="41.5942240" lon="2.0163210">
        <ele>398.0</ele>
        <time>2019-12-01T13:06:48Z</time>
      </trkpt>
      <trkpt lat="41.5942520" lon="2.0163310">
        <ele>398.3</ele>
        <time>2019-12-01T13:06:49Z</time>
      </trkpt>
      <trkpt lat="41.5943030" lon="2.0163460">
        <ele>398.6</ele>
        <time>2019-12-01T13:06:51Z</time>
      </trkpt>
      <trkpt lat="41.5943560" lon="2.0163590">
        <ele>399.0</ele>
        <time>2019-12-01T13:06:53Z</time>
      </trkpt>
      <trkpt lat="41.5944080" lon="2.0163630">
        <ele>400.8</ele>
        <time>2019-12-01T13:06:55Z</time>
      </trkpt>
      <trkpt lat="41.5944590" lon="2.0163580">
        <ele>400.8</ele>
        <time>2019-12-01T13:06:58Z</time>
      </trkpt>
      <trkpt lat="41.5945110" lon="2.0163780">
        <ele>400.8</ele>
        <time>2019-12-01T13:07:00Z</time>
      </trkpt>
      <trkpt lat="41.5945270" lon="2.0164240">
        <ele>400.8</ele>
        <time>2019-12-01T13:07:03Z</time>
      </trkpt>
      <trkpt lat="41.5945630" lon="2.0164430">
        <ele>401.9</ele>
        <time>2019-12-01T13:07:05Z</time>
      </trkpt>
      <trkpt lat="41.5945910" lon="2.0164450">
        <ele>401.9</ele>
        <time>2019-12-01T13:07:06Z</time>
      </trkpt>
      <trkpt lat="41.5946190" lon="2.0164440">
        <ele>402.0</ele>
        <time>2019-12-01T13:07:07Z</time>
      </trkpt>
      <trkpt lat="41.5946480" lon="2.0164460">
        <ele>402.0</ele>
        <time>2019-12-01T13:07:08Z</time>
      </trkpt>
      <trkpt lat="41.5946780" lon="2.0164500">
        <ele>402.1</ele>
        <time>2019-12-01T13:07:09Z</time>
      </trkpt>
      <trkpt lat="41.5947090" lon="2.0164620">
        <ele>402.3</ele>
        <time>2019-12-01T13:07:10Z</time>
      </trkpt>
      <trkpt lat="41.5947370" lon="2.0164790">
        <ele>402.4</ele>
        <time>2019-12-01T13:07:11Z</time>
      </trkpt>
      <trkpt lat="41.5947620" lon="2.0164980">
        <ele>402.5</ele>
        <time>2019-12-01T13:07:13Z</time>
      </trkpt>
      <trkpt lat="41.5947870" lon="2.0165140">
        <ele>402.6</ele>
        <time>2019-12-01T13:07:14Z</time>
      </trkpt>
      <trkpt lat="41.5948520" lon="2.0165490">
        <ele>402.9</ele>
        <time>2019-12-01T13:07:16Z</time>
      </trkpt>
      <trkpt lat="41.5948970" lon="2.0165810">
        <ele>403.1</ele>
        <time>2019-12-01T13:07:19Z</time>
      </trkpt>
      <trkpt lat="41.5949340" lon="2.0166170">
        <ele>403.3</ele>
        <time>2019-12-01T13:07:21Z</time>
      </trkpt>
      <trkpt lat="41.5949760" lon="2.0166620">
        <ele>403.6</ele>
        <time>2019-12-01T13:07:23Z</time>
      </trkpt>
      <trkpt lat="41.5950160" lon="2.0167030">
        <ele>403.8</ele>
        <time>2019-12-01T13:07:25Z</time>
      </trkpt>
      <trkpt lat="41.5950540" lon="2.0167480">
        <ele>404.1</ele>
        <time>2019-12-01T13:07:27Z</time>
      </trkpt>
      <trkpt lat="41.5950880" lon="2.0167900">
        <ele>404.3</ele>
        <time>2019-12-01T13:07:30Z</time>
      </trkpt>
      <trkpt lat="41.5951270" lon="2.0168420">
        <ele>404.5</ele>
        <time>2019-12-01T13:07:32Z</time>
      </trkpt>
      <trkpt lat="41.5951600" lon="2.0168780">
        <ele>404.7</ele>
        <time>2019-12-01T13:07:34Z</time>
      </trkpt>
      <trkpt lat="41.5951950" lon="2.0169190">
        <ele>405.0</ele>
        <time>2019-12-01T13:07:37Z</time>
      </trkpt>
      <trkpt lat="41.5952260" lon="2.0169550">
        <ele>405.2</ele>
        <time>2019-12-01T13:07:39Z</time>
      </trkpt>
      <trkpt lat="41.5952540" lon="2.0169870">
        <ele>405.4</ele>
        <time>2019-12-01T13:07:41Z</time>
      </trkpt>
      <trkpt lat="41.5952850" lon="2.0170240">
        <ele>405.6</ele>
        <time>2019-12-01T13:07:43Z</time>
      </trkpt>
      <trkpt lat="41.5953220" lon="2.0170670">
        <ele>405.8</ele>
        <time>2019-12-01T13:07:46Z</time>
      </trkpt>
      <trkpt lat="41.5953690" lon="2.0171270">
        <ele>406.2</ele>
        <time>2019-12-01T13:07:48Z</time>
      </trkpt>
      <trkpt lat="41.5954060" lon="2.0171730">
        <ele>406.5</ele>
        <time>2019-12-01T13:07:50Z</time>
      </trkpt>
      <trkpt lat="41.5954240" lon="2.0172000">
        <ele>406.6</ele>
        <time>2019-12-01T13:07:52Z</time>
      </trkpt>
      <trkpt lat="41.5954430" lon="2.0172280">
        <ele>406.7</ele>
        <time>2019-12-01T13:07:53Z</time>
      </trkpt>
      <trkpt lat="41.5954650" lon="2.0172560">
        <ele>406.9</ele>
        <time>2019-12-01T13:07:54Z</time>
      </trkpt>
      <trkpt lat="41.5954850" lon="2.0172820">
        <ele>407.1</ele>
        <time>2019-12-01T13:07:55Z</time>
      </trkpt>
      <trkpt lat="41.5955080" lon="2.0173060">
        <ele>407.2</ele>
        <time>2019-12-01T13:07:56Z</time>
      </trkpt>
      <trkpt lat="41.5955290" lon="2.0173310">
        <ele>407.4</ele>
        <time>2019-12-01T13:07:58Z</time>
      </trkpt>
      <trkpt lat="41.5955560" lon="2.0173650">
        <ele>407.5</ele>
        <time>2019-12-01T13:08:00Z</time>
      </trkpt>
      <trkpt lat="41.5955960" lon="2.0174110">
        <ele>407.8</ele>
        <time>2019-12-01T13:08:02Z</time>
      </trkpt>
      <trkpt lat="41.5956320" lon="2.0174430">
        <ele>408.0</ele>
        <time>2019-12-01T13:08:05Z</time>
      </trkpt>
      <trkpt lat="41.5956650" lon="2.0174850">
        <ele>408.2</ele>
        <time>2019-12-01T13:08:07Z</time>
      </trkpt>
      <trkpt lat="41.5957020" lon="2.0175300">
        <ele>408.4</ele>
        <time>2019-12-01T13:08:09Z</time>
      </trkpt>
      <trkpt lat="41.5957360" lon="2.0175660">
        <ele>408.6</ele>
        <time>2019-12-01T13:08:11Z</time>
      </trkpt>
      <trkpt lat="41.5957620" lon="2.0176000">
        <ele>408.8</ele>
        <time>2019-12-01T13:08:13Z</time>
      </trkpt>
      <trkpt lat="41.5957720" lon="2.0176460">
        <ele>409.0</ele>
        <time>2019-12-01T13:08:18Z</time>
      </trkpt>
      <trkpt lat="41.5957700" lon="2.0177130">
        <ele>409.2</ele>
        <time>2019-12-01T13:08:21Z</time>
      </trkpt>
      <trkpt lat="41.5957660" lon="2.0177640">
        <ele>409.3</ele>
        <time>2019-12-01T13:08:23Z</time>
      </trkpt>
      <trkpt lat="41.5957630" lon="2.0178180">
        <ele>409.5</ele>
        <time>2019-12-01T13:08:26Z</time>
      </trkpt>
      <trkpt lat="41.5957490" lon="2.0178690">
        <ele>409.7</ele>
        <time>2019-12-01T13:08:28Z</time>
      </trkpt>
      <trkpt lat="41.5957420" lon="2.0179220">
        <ele>409.8</ele>
        <time>2019-12-01T13:08:30Z</time>
      </trkpt>
      <trkpt lat="41.5957530" lon="2.0179830">
        <ele>410.0</ele>
        <time>2019-12-01T13:08:32Z</time>
      </trkpt>
      <trkpt lat="41.5957710" lon="2.0180440">
        <ele>410.2</ele>
        <time>2019-12-01T13:08:35Z</time>
      </trkpt>
      <trkpt lat="41.5957810" lon="2.0181010">
        <ele>410.4</ele>
        <time>2019-12-01T13:08:37Z</time>
      </trkpt>
      <trkpt lat="41.5957800" lon="2.0181380">
        <ele>410.6</ele>
        <time>2019-12-01T13:08:38Z</time>
      </trkpt>
      <trkpt lat="41.5957820" lon="2.0181750">
        <ele>410.7</ele>
        <time>2019-12-01T13:08:39Z</time>
      </trkpt>
      <trkpt lat="41.5957850" lon="2.0182130">
        <ele>410.8</ele>
        <time>2019-12-01T13:08:40Z</time>
      </trkpt>
      <trkpt lat="41.5957850" lon="2.0182520">
        <ele>410.9</ele>
        <time>2019-12-01T13:08:41Z</time>
      </trkpt>
      <trkpt lat="41.5957890" lon="2.0182870">
        <ele>411.0</ele>
        <time>2019-12-01T13:08:42Z</time>
      </trkpt>
      <trkpt lat="41.5958000" lon="2.0183530">
        <ele>411.3</ele>
        <time>2019-12-01T13:08:45Z</time>
      </trkpt>
      <trkpt lat="41.5958240" lon="2.0183840">
        <ele>411.4</ele>
        <time>2019-12-01T13:08:47Z</time>
      </trkpt>
      <trkpt lat="41.5958750" lon="2.0183980">
        <ele>411.6</ele>
        <time>2019-12-01T13:08:49Z</time>
      </trkpt>
      <trkpt lat="41.5959400" lon="2.0184100">
        <ele>411.9</ele>
        <time>2019-12-01T13:08:50Z</time>
      </trkpt>
      <trkpt lat="41.5960170" lon="2.0184120">
        <ele>412.3</ele>
        <time>2019-12-01T13:08:52Z</time>
      </trkpt>
      <trkpt lat="41.5960780" lon="2.0184000">
        <ele>412.0</ele>
        <time>2019-12-01T13:08:53Z</time>
      </trkpt>
      <trkpt lat="41.5961310" lon="2.0183750">
        <ele>411.8</ele>
        <time>2019-12-01T13:08:54Z</time>
      </trkpt>
      <trkpt lat="41.5961840" lon="2.0183420">
        <ele>411.6</ele>
        <time>2019-12-01T13:08:55Z</time>
      </trkpt>
      <trkpt lat="41.5962180" lon="2.0183110">
        <ele>411.4</ele>
        <time>2019-12-01T13:08:56Z</time>
      </trkpt>
      <trkpt lat="41.5962440" lon="2.0182780">
        <ele>411.2</ele>
        <time>2019-12-01T13:08:57Z</time>
      </trkpt>
      <trkpt lat="41.5962660" lon="2.0182400">
        <ele>411.1</ele>
        <time>2019-12-01T13:08:59Z</time>
      </trkpt>
      <trkpt lat="41.5962840" lon="2.0182040">
        <ele>411.0</ele>
        <time>2019-12-01T13:09:00Z</time>
      </trkpt>
      <trkpt lat="41.5963070" lon="2.0181490">
        <ele>410.8</ele>
        <time>2019-12-01T13:09:01Z</time>
      </trkpt>
      <trkpt lat="41.5963190" lon="2.0181100">
        <ele>410.6</ele>
        <time>2019-12-01T13:09:02Z</time>
      </trkpt>
      <trkpt lat="41.5963310" lon="2.0180760">
        <ele>410.5</ele>
        <time>2019-12-01T13:09:03Z</time>
      </trkpt>
      <trkpt lat="41.5963380" lon="2.0180410">
        <ele>410.4</ele>
        <time>2019-12-01T13:09:05Z</time>
      </trkpt>
      <trkpt lat="41.5963500" lon="2.0179820">
        <ele>410.2</ele>
        <time>2019-12-01T13:09:07Z</time>
      </trkpt>
      <trkpt lat="41.5963600" lon="2.0179080">
        <ele>410.0</ele>
        <time>2019-12-01T13:09:09Z</time>
      </trkpt>
      <trkpt lat="41.5963670" lon="2.0178670">
        <ele>409.8</ele>
        <time>2019-12-01T13:09:10Z</time>
      </trkpt>
      <trkpt lat="41.5963710" lon="2.0178220">
        <ele>409.5</ele>
        <time>2019-12-01T13:09:11Z</time>
      </trkpt>
      <trkpt lat="41.5963670" lon="2.0177670">
        <ele>409.2</ele>
        <time>2019-12-01T13:09:12Z</time>
      </trkpt>
      <trkpt lat="41.5963650" lon="2.0177200">
        <ele>409.1</ele>
        <time>2019-12-01T13:09:13Z</time>
      </trkpt>
      <trkpt lat="41.5963640" lon="2.0176790">
        <ele>408.9</ele>
        <time>2019-12-01T13:09:15Z</time>
      </trkpt>
      <trkpt lat="41.5963640" lon="2.0176410">
        <ele>408.8</ele>
        <time>2019-12-01T13:09:16Z</time>
      </trkpt>
      <trkpt lat="41.5963790" lon="2.0175730">
        <ele>407.9</ele>
        <time>2019-12-01T13:09:18Z</time>
      </trkpt>
      <trkpt lat="41.5964120" lon="2.0175370">
        <ele>407.7</ele>
        <time>2019-12-01T13:09:20Z</time>
      </trkpt>
      <trkpt lat="41.5964530" lon="2.0175270">
        <ele>407.5</ele>
        <time>2019-12-01T13:09:22Z</time>
      </trkpt>
      <trkpt lat="41.5965030" lon="2.0175240">
        <ele>407.3</ele>
        <time>2019-12-01T13:09:25Z</time>
      </trkpt>
      <trkpt lat="41.5965440" lon="2.0175210">
        <ele>407.2</ele>
        <time>2019-12-01T13:09:26Z</time>
      </trkpt>
      <trkpt lat="41.5966030" lon="2.0175120">
        <ele>407.1</ele>
        <time>2019-12-01T13:09:29Z</time>
      </trkpt>
      <trkpt lat="41.5966320" lon="2.0175060">
        <ele>407.0</ele>
        <time>2019-12-01T13:09:30Z</time>
      </trkpt>
      <trkpt lat="41.5966620" lon="2.0174980">
        <ele>407.0</ele>
        <time>2019-12-01T13:09:31Z</time>
      </trkpt>
      <trkpt lat="41.5966940" lon="2.0174910">
        <ele>407.0</ele>
        <time>2019-12-01T13:09:32Z</time>
      </trkpt>
      <trkpt lat="41.5967240" lon="2.0174820">
        <ele>407.0</ele>
        <time>2019-12-01T13:09:33Z</time>
      </trkpt>
      <trkpt lat="41.5967750" lon="2.0174700">
        <ele>407.1</ele>
        <time>2019-12-01T13:09:35Z</time>
      </trkpt>
      <trkpt lat="41.5968010" lon="2.0174620">
        <ele>407.1</ele>
        <time>2019-12-01T13:09:36Z</time>
      </trkpt>
      <trkpt lat="41.5968310" lon="2.0174540">
        <ele>407.1</ele>
        <time>2019-12-01T13:09:37Z</time>
      </trkpt>
      <trkpt lat="41.5968630" lon="2.0174450">
        <ele>407.2</ele>
        <time>2019-12-01T13:09:39Z</time>
      </trkpt>
      <trkpt lat="41.5968930" lon="2.0174360">
        <ele>407.3</ele>
        <time>2019-12-01T13:09:40Z</time>
      </trkpt>
      <trkpt lat="41.5969230" lon="2.0174290">
        <ele>407.4</ele>
        <time>2019-12-01T13:09:41Z</time>
      </trkpt>
      <trkpt lat="41.5969810" lon="2.0174210">
        <ele>407.7</ele>
        <time>2019-12-01T13:09:43Z</time>
      </trkpt>
      <trkpt lat="41.5970090" lon="2.0174170">
        <ele>407.8</ele>
        <time>2019-12-01T13:09:44Z</time>
      </trkpt>
      <trkpt lat="41.5970370" lon="2.0174120">
        <ele>407.9</ele>
        <time>2019-12-01T13:09:45Z</time>
      </trkpt>
      <trkpt lat="41.5970890" lon="2.0174100">
        <ele>408.2</ele>
        <time>2019-12-01T13:09:48Z</time>
      </trkpt>
      <trkpt lat="41.5971440" lon="2.0174090">
        <ele>408.5</ele>
        <time>2019-12-01T13:09:50Z</time>
      </trkpt>
      <trkpt lat="41.5971820" lon="2.0174170">
        <ele>408.7</ele>
        <time>2019-12-01T13:09:51Z</time>
      </trkpt>
      <trkpt lat="41.5972310" lon="2.0174240">
        <ele>409.1</ele>
        <time>2019-12-01T13:09:54Z</time>
      </trkpt>
      <trkpt lat="41.5972980" lon="2.0174140">
        <ele>409.9</ele>
        <time>2019-12-01T13:09:57Z</time>
      </trkpt>
      <trkpt lat="41.5973250" lon="2.0174020">
        <ele>410.2</ele>
        <time>2019-12-01T13:09:59Z</time>
      </trkpt>
      <trkpt lat="41.5973490" lon="2.0173830">
        <ele>410.6</ele>
        <time>2019-12-01T13:10:00Z</time>
      </trkpt>
      <trkpt lat="41.5973830" lon="2.0173630">
        <ele>411.1</ele>
        <time>2019-12-01T13:10:03Z</time>
      </trkpt>
      <trkpt lat="41.5974160" lon="2.0173510">
        <ele>411.5</ele>
        <time>2019-12-01T13:10:04Z</time>
      </trkpt>
      <trkpt lat="41.5974650" lon="2.0173430">
        <ele>411.8</ele>
        <time>2019-12-01T13:10:06Z</time>
      </trkpt>
      <trkpt lat="41.5975170" lon="2.0173440">
        <ele>412.2</ele>
        <time>2019-12-01T13:10:09Z</time>
      </trkpt>
      <trkpt lat="41.5975820" lon="2.0173520">
        <ele>412.7</ele>
        <time>2019-12-01T13:10:11Z</time>
      </trkpt>
      <trkpt lat="41.5976290" lon="2.0173600">
        <ele>413.1</ele>
        <time>2019-12-01T13:10:13Z</time>
      </trkpt>
      <trkpt lat="41.5976790" lon="2.0173660">
        <ele>413.3</ele>
        <time>2019-12-01T13:10:16Z</time>
      </trkpt>
      <trkpt lat="41.5977390" lon="2.0173720">
        <ele>413.7</ele>
        <time>2019-12-01T13:10:18Z</time>
      </trkpt>
      <trkpt lat="41.5977690" lon="2.0173780">
        <ele>413.9</ele>
        <time>2019-12-01T13:10:19Z</time>
      </trkpt>
      <trkpt lat="41.5977980" lon="2.0173870">
        <ele>414.1</ele>
        <time>2019-12-01T13:10:20Z</time>
      </trkpt>
      <trkpt lat="41.5978480" lon="2.0174000">
        <ele>414.5</ele>
        <time>2019-12-01T13:10:23Z</time>
      </trkpt>
      <trkpt lat="41.5979000" lon="2.0174150">
        <ele>414.8</ele>
        <time>2019-12-01T13:10:25Z</time>
      </trkpt>
      <trkpt lat="41.5979280" lon="2.0174220">
        <ele>415.0</ele>
        <time>2019-12-01T13:10:26Z</time>
      </trkpt>
      <trkpt lat="41.5979560" lon="2.0174290">
        <ele>415.1</ele>
        <time>2019-12-01T13:10:27Z</time>
      </trkpt>
      <trkpt lat="41.5980050" lon="2.0174410">
        <ele>415.5</ele>
        <time>2019-12-01T13:10:29Z</time>
      </trkpt>
      <trkpt lat="41.5980500" lon="2.0174550">
        <ele>415.8</ele>
        <time>2019-12-01T13:10:32Z</time>
      </trkpt>
      <trkpt lat="41.5980800" lon="2.0174660">
        <ele>416.1</ele>
        <time>2019-12-01T13:10:33Z</time>
      </trkpt>
      <trkpt lat="41.5981190" lon="2.0174810">
        <ele>416.4</ele>
        <time>2019-12-01T13:10:35Z</time>
      </trkpt>
      <trkpt lat="41.5981680" lon="2.0174980">
        <ele>416.8</ele>
        <time>2019-12-01T13:10:38Z</time>
      </trkpt>
      <trkpt lat="41.5982200" lon="2.0175220">
        <ele>417.2</ele>
        <time>2019-12-01T13:10:41Z</time>
      </trkpt>
      <trkpt lat="41.5982610" lon="2.0175490">
        <ele>417.5</ele>
        <time>2019-12-01T13:10:43Z</time>
      </trkpt>
      <trkpt lat="41.5983020" lon="2.0175620">
        <ele>418.0</ele>
        <time>2019-12-01T13:10:45Z</time>
      </trkpt>
      <trkpt lat="41.5983340" lon="2.0175470">
        <ele>418.4</ele>
        <time>2019-12-01T13:10:47Z</time>
      </trkpt>
      <trkpt lat="41.5983670" lon="2.0175270">
        <ele>418.7</ele>
        <time>2019-12-01T13:10:50Z</time>
      </trkpt>
      <trkpt lat="41.5984040" lon="2.0175080">
        <ele>419.1</ele>
        <time>2019-12-01T13:10:52Z</time>
      </trkpt>
      <trkpt lat="41.5984480" lon="2.0174890">
        <ele>419.5</ele>
        <time>2019-12-01T13:10:54Z</time>
      </trkpt>
      <trkpt lat="41.5984880" lon="2.0174620">
        <ele>419.9</ele>
        <time>2019-12-01T13:10:56Z</time>
      </trkpt>
      <trkpt lat="41.5985320" lon="2.0174290">
        <ele>420.4</ele>
        <time>2019-12-01T13:10:59Z</time>
      </trkpt>
      <trkpt lat="41.5985780" lon="2.0173960">
        <ele>420.6</ele>
        <time>2019-12-01T13:11:01Z</time>
      </trkpt>
      <trkpt lat="41.5986230" lon="2.0173680">
        <ele>420.7</ele>
        <time>2019-12-01T13:11:03Z</time>
      </trkpt>
      <trkpt lat="41.5986480" lon="2.0173460">
        <ele>420.8</ele>
        <time>2019-12-01T13:11:04Z</time>
      </trkpt>
      <trkpt lat="41.5986720" lon="2.0173250">
        <ele>420.8</ele>
        <time>2019-12-01T13:11:05Z</time>
      </trkpt>
      <trkpt lat="41.5986950" lon="2.0173050">
        <ele>420.9</ele>
        <time>2019-12-01T13:11:06Z</time>
      </trkpt>
      <trkpt lat="41.5987190" lon="2.0172860">
        <ele>421.0</ele>
        <time>2019-12-01T13:11:08Z</time>
      </trkpt>
      <trkpt lat="41.5987640" lon="2.0172530">
        <ele>421.1</ele>
        <time>2019-12-01T13:11:10Z</time>
      </trkpt>
      <trkpt lat="41.5987990" lon="2.0172320">
        <ele>421.2</ele>
        <time>2019-12-01T13:11:11Z</time>
      </trkpt>
      <trkpt lat="41.5988430" lon="2.0172010">
        <ele>421.2</ele>
        <time>2019-12-01T13:11:13Z</time>
      </trkpt>
      <trkpt lat="41.5988800" lon="2.0171750">
        <ele>421.3</ele>
        <time>2019-12-01T13:11:16Z</time>
      </trkpt>
      <trkpt lat="41.5989100" lon="2.0171520">
        <ele>421.4</ele>
        <time>2019-12-01T13:11:18Z</time>
      </trkpt>
      <trkpt lat="41.5989310" lon="2.0171220">
        <ele>421.4</ele>
        <time>2019-12-01T13:11:19Z</time>
      </trkpt>
      <trkpt lat="41.5989550" lon="2.0170870">
        <ele>421.5</ele>
        <time>2019-12-01T13:11:20Z</time>
      </trkpt>
      <trkpt lat="41.5989900" lon="2.0170310">
        <ele>421.7</ele>
        <time>2019-12-01T13:11:22Z</time>
      </trkpt>
      <trkpt lat="41.5990220" lon="2.0169470">
        <ele>422.0</ele>
        <time>2019-12-01T13:11:25Z</time>
      </trkpt>
      <trkpt lat="41.5990440" lon="2.0168860">
        <ele>422.3</ele>
        <time>2019-12-01T13:11:27Z</time>
      </trkpt>
      <trkpt lat="41.5990520" lon="2.0168210">
        <ele>422.6</ele>
        <time>2019-12-01T13:11:30Z</time>
      </trkpt>
      <trkpt lat="41.5990550" lon="2.0167840">
        <ele>422.8</ele>
        <time>2019-12-01T13:11:31Z</time>
      </trkpt>
      <trkpt lat="41.5990520" lon="2.0166990">
        <ele>423.4</ele>
        <time>2019-12-01T13:11:33Z</time>
      </trkpt>
      <trkpt lat="41.5990430" lon="2.0165890">
        <ele>424.2</ele>
        <time>2019-12-01T13:11:45Z</time>
      </trkpt>
      <trkpt lat="41.5990200" lon="2.0165120">
        <ele>424.8</ele>
        <time>2019-12-01T13:12:04Z</time>
      </trkpt>
      <trkpt lat="41.5990010" lon="2.0164350">
        <ele>425.4</ele>
        <time>2019-12-01T13:12:42Z</time>
      </trkpt>
      <trkpt lat="41.5989780" lon="2.0164030">
        <ele>425.8</ele>
        <time>2019-12-01T13:12:44Z</time>
      </trkpt>
      <trkpt lat="41.5989800" lon="2.0163370">
        <ele>426.3</ele>
        <time>2019-12-01T13:12:48Z</time>
      </trkpt>
      <trkpt lat="41.5989700" lon="2.0162740">
        <ele>426.7</ele>
        <time>2019-12-01T13:12:51Z</time>
      </trkpt>
      <trkpt lat="41.5989570" lon="2.0162170">
        <ele>427.1</ele>
        <time>2019-12-01T13:12:54Z</time>
      </trkpt>
      <trkpt lat="41.5989510" lon="2.0161710">
        <ele>427.4</ele>
        <time>2019-12-01T13:12:56Z</time>
      </trkpt>
      <trkpt lat="41.5989450" lon="2.0161280">
        <ele>427.8</ele>
        <time>2019-12-01T13:12:59Z</time>
      </trkpt>
      <trkpt lat="41.5989330" lon="2.0160840">
        <ele>428.1</ele>
        <time>2019-12-01T13:13:02Z</time>
      </trkpt>
      <trkpt lat="41.5989040" lon="2.0160550">
        <ele>428.5</ele>
        <time>2019-12-01T13:13:03Z</time>
      </trkpt>
      <trkpt lat="41.5988840" lon="2.0160220">
        <ele>428.7</ele>
        <time>2019-12-01T13:13:04Z</time>
      </trkpt>
      <trkpt lat="41.5988780" lon="2.0159790">
        <ele>429.0</ele>
        <time>2019-12-01T13:13:06Z</time>
      </trkpt>
      <trkpt lat="41.5988770" lon="2.0159420">
        <ele>429.2</ele>
        <time>2019-12-01T13:13:07Z</time>
      </trkpt>
      <trkpt lat="41.5988560" lon="2.0158770">
        <ele>429.6</ele>
        <time>2019-12-01T13:13:09Z</time>
      </trkpt>
      <trkpt lat="41.5988450" lon="2.0158170">
        <ele>430.0</ele>
        <time>2019-12-01T13:13:11Z</time>
      </trkpt>
      <trkpt lat="41.5988370" lon="2.0157490">
        <ele>430.5</ele>
        <time>2019-12-01T13:13:14Z</time>
      </trkpt>
      <trkpt lat="41.5988250" lon="2.0157020">
        <ele>430.8</ele>
        <time>2019-12-01T13:13:16Z</time>
      </trkpt>
      <trkpt lat="41.5988140" lon="2.0156610">
        <ele>431.1</ele>
        <time>2019-12-01T13:13:18Z</time>
      </trkpt>
      <trkpt lat="41.5988050" lon="2.0156210">
        <ele>431.3</ele>
        <time>2019-12-01T13:13:20Z</time>
      </trkpt>
      <trkpt lat="41.5987920" lon="2.0155720">
        <ele>431.7</ele>
        <time>2019-12-01T13:13:24Z</time>
      </trkpt>
      <trkpt lat="41.5987870" lon="2.0155360">
        <ele>432.3</ele>
        <time>2019-12-01T13:13:26Z</time>
      </trkpt>
      <trkpt lat="41.5987910" lon="2.0154880">
        <ele>432.8</ele>
        <time>2019-12-01T13:13:30Z</time>
      </trkpt>
      <trkpt lat="41.5988370" lon="2.0154720">
        <ele>433.4</ele>
        <time>2019-12-01T13:13:34Z</time>
      </trkpt>
      <trkpt lat="41.5988650" lon="2.0154440">
        <ele>434.0</ele>
        <time>2019-12-01T13:13:36Z</time>
      </trkpt>
      <trkpt lat="41.5988940" lon="2.0154080">
        <ele>434.7</ele>
        <time>2019-12-01T13:13:38Z</time>
      </trkpt>
      <trkpt lat="41.5989190" lon="2.0153710">
        <ele>435.3</ele>
        <time>2019-12-01T13:13:40Z</time>
      </trkpt>
      <trkpt lat="41.5989430" lon="2.0153330">
        <ele>435.9</ele>
        <time>2019-12-01T13:13:43Z</time>
      </trkpt>
      <trkpt lat="41.5989680" lon="2.0152900">
        <ele>436.4</ele>
        <time>2019-12-01T13:13:45Z</time>
      </trkpt>
      <trkpt lat="41.5989910" lon="2.0152460">
        <ele>436.9</ele>
        <time>2019-12-01T13:13:47Z</time>
      </trkpt>
      <trkpt lat="41.5990080" lon="2.0152130">
        <ele>437.3</ele>
        <time>2019-12-01T13:13:49Z</time>
      </trkpt>
      <trkpt lat="41.5990280" lon="2.0151700">
        <ele>437.9</ele>
        <time>2019-12-01T13:13:51Z</time>
      </trkpt>
      <trkpt lat="41.5990480" lon="2.0151300">
        <ele>438.6</ele>
        <time>2019-12-01T13:13:53Z</time>
      </trkpt>
      <trkpt lat="41.5990700" lon="2.0150870">
        <ele>439.3</ele>
        <time>2019-12-01T13:13:55Z</time>
      </trkpt>
      <trkpt lat="41.5990920" lon="2.0150460">
        <ele>439.8</ele>
        <time>2019-12-01T13:13:58Z</time>
      </trkpt>
      <trkpt lat="41.5991120" lon="2.0150030">
        <ele>440.3</ele>
        <time>2019-12-01T13:14:00Z</time>
      </trkpt>
      <trkpt lat="41.5991270" lon="2.0149710">
        <ele>440.7</ele>
        <time>2019-12-01T13:14:01Z</time>
      </trkpt>
      <trkpt lat="41.5991460" lon="2.0149270">
        <ele>441.3</ele>
        <time>2019-12-01T13:14:04Z</time>
      </trkpt>
      <trkpt lat="41.5991710" lon="2.0148730">
        <ele>442.1</ele>
        <time>2019-12-01T13:14:06Z</time>
      </trkpt>
      <trkpt lat="41.5991920" lon="2.0148320">
        <ele>442.7</ele>
        <time>2019-12-01T13:14:09Z</time>
      </trkpt>
      <trkpt lat="41.5992160" lon="2.0147950">
        <ele>443.2</ele>
        <time>2019-12-01T13:14:11Z</time>
      </trkpt>
      <trkpt lat="41.5992460" lon="2.0147580">
        <ele>443.8</ele>
        <time>2019-12-01T13:14:13Z</time>
      </trkpt>
      <trkpt lat="41.5992810" lon="2.0147210">
        <ele>444.4</ele>
        <time>2019-12-01T13:14:15Z</time>
      </trkpt>
      <trkpt lat="41.5993130" lon="2.0146880">
        <ele>445.0</ele>
        <time>2019-12-01T13:14:18Z</time>
      </trkpt>
      <trkpt lat="41.5993400" lon="2.0146630">
        <ele>445.5</ele>
        <time>2019-12-01T13:14:19Z</time>
      </trkpt>
      <trkpt lat="41.5993710" lon="2.0146300">
        <ele>446.2</ele>
        <time>2019-12-01T13:14:21Z</time>
      </trkpt>
      <trkpt lat="41.5994110" lon="2.0145970">
        <ele>446.9</ele>
        <time>2019-12-01T13:14:24Z</time>
      </trkpt>
      <trkpt lat="41.5994490" lon="2.0145650">
        <ele>447.6</ele>
        <time>2019-12-01T13:14:26Z</time>
      </trkpt>
      <trkpt lat="41.5994850" lon="2.0145340">
        <ele>448.2</ele>
        <time>2019-12-01T13:14:28Z</time>
      </trkpt>
      <trkpt lat="41.5995200" lon="2.0145030">
        <ele>448.9</ele>
        <time>2019-12-01T13:14:31Z</time>
      </trkpt>
      <trkpt lat="41.5995650" lon="2.0144610">
        <ele>449.7</ele>
        <time>2019-12-01T13:14:34Z</time>
      </trkpt>
      <trkpt lat="41.5995910" lon="2.0144340">
        <ele>450.2</ele>
        <time>2019-12-01T13:14:36Z</time>
      </trkpt>
      <trkpt lat="41.5996130" lon="2.0144110">
        <ele>450.6</ele>
        <time>2019-12-01T13:14:39Z</time>
      </trkpt>
      <trkpt lat="41.5996400" lon="2.0143920">
        <ele>451.1</ele>
        <time>2019-12-01T13:14:41Z</time>
      </trkpt>
      <trkpt lat="41.5996660" lon="2.0143750">
        <ele>451.5</ele>
        <time>2019-12-01T13:14:43Z</time>
      </trkpt>
      <trkpt lat="41.5997060" lon="2.0143590">
        <ele>452.2</ele>
        <time>2019-12-01T13:14:46Z</time>
      </trkpt>
      <trkpt lat="41.5997310" lon="2.0143470">
        <ele>452.6</ele>
        <time>2019-12-01T13:14:49Z</time>
      </trkpt>
      <trkpt lat="41.5998180" lon="2.0141550">
        <ele>454.7</ele>
        <time>2019-12-01T13:16:17Z</time>
      </trkpt>
      <trkpt lat="41.5998530" lon="2.0141510">
        <ele>455.0</ele>
        <time>2019-12-01T13:16:18Z</time>
      </trkpt>
      <trkpt lat="41.5998810" lon="2.0141460">
        <ele>455.2</ele>
        <time>2019-12-01T13:16:19Z</time>
      </trkpt>
      <trkpt lat="41.5999280" lon="2.0141500">
        <ele>455.6</ele>
        <time>2019-12-01T13:16:21Z</time>
      </trkpt>
      <trkpt lat="41.5999800" lon="2.0141490">
        <ele>456.0</ele>
        <time>2019-12-01T13:16:23Z</time>
      </trkpt>
      <trkpt lat="41.6000320" lon="2.0141510">
        <ele>456.3</ele>
        <time>2019-12-01T13:16:25Z</time>
      </trkpt>
      <trkpt lat="41.6000960" lon="2.0141590">
        <ele>456.7</ele>
        <time>2019-12-01T13:16:27Z</time>
      </trkpt>
      <trkpt lat="41.6001390" lon="2.0141560">
        <ele>456.8</ele>
        <time>2019-12-01T13:16:29Z</time>
      </trkpt>
      <trkpt lat="41.6001920" lon="2.0141540">
        <ele>457.0</ele>
        <time>2019-12-01T13:16:32Z</time>
      </trkpt>
      <trkpt lat="41.6002290" lon="2.0141450">
        <ele>457.1</ele>
        <time>2019-12-01T13:16:33Z</time>
      </trkpt>
      <trkpt lat="41.6002640" lon="2.0141280">
        <ele>457.2</ele>
        <time>2019-12-01T13:16:35Z</time>
      </trkpt>
      <trkpt lat="41.6003100" lon="2.0141370">
        <ele>457.4</ele>
        <time>2019-12-01T13:16:37Z</time>
      </trkpt>
      <trkpt lat="41.6003410" lon="2.0141600">
        <ele>457.5</ele>
        <time>2019-12-01T13:16:39Z</time>
      </trkpt>
      <trkpt lat="41.6004300" lon="2.0141750">
        <ele>457.8</ele>
        <time>2019-12-01T13:16:44Z</time>
      </trkpt>
      <trkpt lat="41.6004570" lon="2.0141440">
        <ele>457.9</ele>
        <time>2019-12-01T13:16:47Z</time>
      </trkpt>
      <trkpt lat="41.6004890" lon="2.0141100">
        <ele>457.9</ele>
        <time>2019-12-01T13:16:49Z</time>
      </trkpt>
      <trkpt lat="41.6005180" lon="2.0140920">
        <ele>458.7</ele>
        <time>2019-12-01T13:16:52Z</time>
      </trkpt>
      <trkpt lat="41.6005450" lon="2.0140750">
        <ele>459.1</ele>
        <time>2019-12-01T13:16:53Z</time>
      </trkpt>
      <trkpt lat="41.6005720" lon="2.0140610">
        <ele>459.5</ele>
        <time>2019-12-01T13:16:56Z</time>
      </trkpt>
      <trkpt lat="41.6006180" lon="2.0140360">
        <ele>460.2</ele>
        <time>2019-12-01T13:16:58Z</time>
      </trkpt>
      <trkpt lat="41.6006510" lon="2.0140180">
        <ele>460.6</ele>
        <time>2019-12-01T13:17:00Z</time>
      </trkpt>
      <trkpt lat="41.6006940" lon="2.0140080">
        <ele>461.1</ele>
        <time>2019-12-01T13:17:02Z</time>
      </trkpt>
      <trkpt lat="41.6007240" lon="2.0140040">
        <ele>461.5</ele>
        <time>2019-12-01T13:17:04Z</time>
      </trkpt>
      <trkpt lat="41.6007740" lon="2.0140020">
        <ele>462.1</ele>
        <time>2019-12-01T13:17:06Z</time>
      </trkpt>
      <trkpt lat="41.6008230" lon="2.0140020">
        <ele>462.5</ele>
        <time>2019-12-01T13:17:08Z</time>
      </trkpt>
      <trkpt lat="41.6008660" lon="2.0139990">
        <ele>462.9</ele>
        <time>2019-12-01T13:17:10Z</time>
      </trkpt>
      <trkpt lat="41.6009340" lon="2.0139930">
        <ele>463.4</ele>
        <time>2019-12-01T13:17:13Z</time>
      </trkpt>
      <trkpt lat="41.6009730" lon="2.0139940">
        <ele>463.8</ele>
        <time>2019-12-01T13:17:15Z</time>
      </trkpt>
      <trkpt lat="41.6010050" lon="2.0139970">
        <ele>464.0</ele>
        <time>2019-12-01T13:17:16Z</time>
      </trkpt>
      <trkpt lat="41.6010380" lon="2.0140030">
        <ele>464.2</ele>
        <time>2019-12-01T13:17:17Z</time>
      </trkpt>
      <trkpt lat="41.6010660" lon="2.0140050">
        <ele>464.4</ele>
        <time>2019-12-01T13:17:18Z</time>
      </trkpt>
      <trkpt lat="41.6010950" lon="2.0140070">
        <ele>464.6</ele>
        <time>2019-12-01T13:17:19Z</time>
      </trkpt>
      <trkpt lat="41.6011480" lon="2.0140090">
        <ele>464.8</ele>
        <time>2019-12-01T13:17:21Z</time>
      </trkpt>
      <trkpt lat="41.6011820" lon="2.0140020">
        <ele>465.0</ele>
        <time>2019-12-01T13:17:22Z</time>
      </trkpt>
      <trkpt lat="41.6012140" lon="2.0139950">
        <ele>465.1</ele>
        <time>2019-12-01T13:17:23Z</time>
      </trkpt>
      <trkpt lat="41.6012450" lon="2.0139910">
        <ele>465.2</ele>
        <time>2019-12-01T13:17:24Z</time>
      </trkpt>
      <trkpt lat="41.6012720" lon="2.0139880">
        <ele>465.3</ele>
        <time>2019-12-01T13:17:26Z</time>
      </trkpt>
      <trkpt lat="41.6013180" lon="2.0139900">
        <ele>465.5</ele>
        <time>2019-12-01T13:17:28Z</time>
      </trkpt>
      <trkpt lat="41.6013620" lon="2.0139890">
        <ele>465.7</ele>
        <time>2019-12-01T13:17:30Z</time>
      </trkpt>
      <trkpt lat="41.6014110" lon="2.0139840">
        <ele>465.9</ele>
        <time>2019-12-01T13:17:33Z</time>
      </trkpt>
      <trkpt lat="41.6014550" lon="2.0139610">
        <ele>466.2</ele>
        <time>2019-12-01T13:17:35Z</time>
      </trkpt>
      <trkpt lat="41.6014840" lon="2.0139250">
        <ele>466.4</ele>
        <time>2019-12-01T13:17:37Z</time>
      </trkpt>
      <trkpt lat="41.6015060" lon="2.0138930">
        <ele>466.6</ele>
        <time>2019-12-01T13:17:38Z</time>
      </trkpt>
      <trkpt lat="41.6015230" lon="2.0138630">
        <ele>466.8</ele>
        <time>2019-12-01T13:17:39Z</time>
      </trkpt>
      <trkpt lat="41.6015290" lon="2.0138080">
        <ele>467.0</ele>
        <time>2019-12-01T13:17:42Z</time>
      </trkpt>
      <trkpt lat="41.6015290" lon="2.0137550">
        <ele>467.3</ele>
        <time>2019-12-01T13:17:44Z</time>
      </trkpt>
      <trkpt lat="41.6015260" lon="2.0137130">
        <ele>467.5</ele>
        <time>2019-12-01T13:17:47Z</time>
      </trkpt>
      <trkpt lat="41.6015130" lon="2.0136700">
        <ele>467.7</ele>
        <time>2019-12-01T13:17:49Z</time>
      </trkpt>
      <trkpt lat="41.6015180" lon="2.0136180">
        <ele>468.0</ele>
        <time>2019-12-01T13:17:51Z</time>
      </trkpt>
      <trkpt lat="41.6015220" lon="2.0135600">
        <ele>468.3</ele>
        <time>2019-12-01T13:17:54Z</time>
      </trkpt>
      <trkpt lat="41.6015220" lon="2.0134920">
        <ele>468.7</ele>
        <time>2019-12-01T13:17:56Z</time>
      </trkpt>
      <trkpt lat="41.6015270" lon="2.0134300">
        <ele>469.1</ele>
        <time>2019-12-01T13:17:58Z</time>
      </trkpt>
      <trkpt lat="41.6015290" lon="2.0133910">
        <ele>469.3</ele>
        <time>2019-12-01T13:17:59Z</time>
      </trkpt>
      <trkpt lat="41.6015340" lon="2.0133290">
        <ele>469.7</ele>
        <time>2019-12-01T13:18:02Z</time>
      </trkpt>
      <trkpt lat="41.6015350" lon="2.0132520">
        <ele>470.2</ele>
        <time>2019-12-01T13:18:05Z</time>
      </trkpt>
      <trkpt lat="41.6015400" lon="2.0131990">
        <ele>470.5</ele>
        <time>2019-12-01T13:18:08Z</time>
      </trkpt>
      <trkpt lat="41.6015440" lon="2.0131540">
        <ele>470.8</ele>
        <time>2019-12-01T13:18:10Z</time>
      </trkpt>
      <trkpt lat="41.6015460" lon="2.0130980">
        <ele>471.2</ele>
        <time>2019-12-01T13:18:12Z</time>
      </trkpt>
      <trkpt lat="41.6015430" lon="2.0130350">
        <ele>471.7</ele>
        <time>2019-12-01T13:18:14Z</time>
      </trkpt>
      <trkpt lat="41.6015410" lon="2.0129980">
        <ele>471.9</ele>
        <time>2019-12-01T13:18:15Z</time>
      </trkpt>
      <trkpt lat="41.6015460" lon="2.0129240">
        <ele>472.4</ele>
        <time>2019-12-01T13:18:17Z</time>
      </trkpt>
      <trkpt lat="41.6015520" lon="2.0128880">
        <ele>472.7</ele>
        <time>2019-12-01T13:18:18Z</time>
      </trkpt>
      <trkpt lat="41.6015730" lon="2.0128250">
        <ele>473.1</ele>
        <time>2019-12-01T13:18:19Z</time>
      </trkpt>
      <trkpt lat="41.6015920" lon="2.0127660">
        <ele>473.4</ele>
        <time>2019-12-01T13:18:21Z</time>
      </trkpt>
      <trkpt lat="41.6016090" lon="2.0127170">
        <ele>473.8</ele>
        <time>2019-12-01T13:18:22Z</time>
      </trkpt>
      <trkpt lat="41.6016190" lon="2.0126790">
        <ele>474.0</ele>
        <time>2019-12-01T13:18:23Z</time>
      </trkpt>
      <trkpt lat="41.6016270" lon="2.0126240">
        <ele>474.4</ele>
        <time>2019-12-01T13:18:24Z</time>
      </trkpt>
      <trkpt lat="41.6016250" lon="2.0125600">
        <ele>474.8</ele>
        <time>2019-12-01T13:18:27Z</time>
      </trkpt>
      <trkpt lat="41.6016220" lon="2.0125120">
        <ele>475.1</ele>
        <time>2019-12-01T13:18:28Z</time>
      </trkpt>
      <trkpt lat="41.6016190" lon="2.0124630">
        <ele>475.4</ele>
        <time>2019-12-01T13:18:30Z</time>
      </trkpt>
      <trkpt lat="41.6016130" lon="2.0124190">
        <ele>475.7</ele>
        <time>2019-12-01T13:18:33Z</time>
      </trkpt>
      <trkpt lat="41.6016060" lon="2.0123750">
        <ele>476.0</ele>
        <time>2019-12-01T13:18:35Z</time>
      </trkpt>
      <trkpt lat="41.6016040" lon="2.0123290">
        <ele>476.3</ele>
        <time>2019-12-01T13:18:37Z</time>
      </trkpt>
      <trkpt lat="41.6016160" lon="2.0122700">
        <ele>476.8</ele>
        <time>2019-12-01T13:18:39Z</time>
      </trkpt>
      <trkpt lat="41.6016260" lon="2.0122350">
        <ele>477.1</ele>
        <time>2019-12-01T13:18:40Z</time>
      </trkpt>
      <trkpt lat="41.6016690" lon="2.0121690">
        <ele>477.6</ele>
        <time>2019-12-01T13:18:43Z</time>
      </trkpt>
      <trkpt lat="41.6016910" lon="2.0121460">
        <ele>477.9</ele>
        <time>2019-12-01T13:18:44Z</time>
      </trkpt>
      <trkpt lat="41.6017170" lon="2.0121230">
        <ele>478.2</ele>
        <time>2019-12-01T13:18:46Z</time>
      </trkpt>
      <trkpt lat="41.6017590" lon="2.0120880">
        <ele>478.6</ele>
        <time>2019-12-01T13:18:47Z</time>
      </trkpt>
      <trkpt lat="41.6017970" lon="2.0120480">
        <ele>479.0</ele>
        <time>2019-12-01T13:18:50Z</time>
      </trkpt>
      <trkpt lat="41.6018120" lon="2.0120070">
        <ele>479.3</ele>
        <time>2019-12-01T13:18:51Z</time>
      </trkpt>
      <trkpt lat="41.6018210" lon="2.0119580">
        <ele>479.6</ele>
        <time>2019-12-01T13:18:53Z</time>
      </trkpt>
      <trkpt lat="41.6018270" lon="2.0119060">
        <ele>480.0</ele>
        <time>2019-12-01T13:18:55Z</time>
      </trkpt>
      <trkpt lat="41.6018320" lon="2.0118550">
        <ele>480.4</ele>
        <time>2019-12-01T13:18:58Z</time>
      </trkpt>
      <trkpt lat="41.6018350" lon="2.0117940">
        <ele>480.9</ele>
        <time>2019-12-01T13:19:00Z</time>
      </trkpt>
      <trkpt lat="41.6018460" lon="2.0117340">
        <ele>481.4</ele>
        <time>2019-12-01T13:19:02Z</time>
      </trkpt>
      <trkpt lat="41.6018570" lon="2.0116640">
        <ele>481.9</ele>
        <time>2019-12-01T13:19:05Z</time>
      </trkpt>
      <trkpt lat="41.6018680" lon="2.0116240">
        <ele>481.8</ele>
        <time>2019-12-01T13:19:07Z</time>
      </trkpt>
      <trkpt lat="41.6019060" lon="2.0115430">
        <ele>481.4</ele>
        <time>2019-12-01T13:19:09Z</time>
      </trkpt>
      <trkpt lat="41.6019170" lon="2.0112880">
        <ele>480.4</ele>
        <time>2019-12-01T13:19:50Z</time>
      </trkpt>
      <trkpt lat="41.6019080" lon="2.0111760">
        <ele>479.9</ele>
        <time>2019-12-01T13:19:52Z</time>
      </trkpt>
      <trkpt lat="41.6019090" lon="2.0111120">
        <ele>479.9</ele>
        <time>2019-12-01T13:19:53Z</time>
      </trkpt>
      <trkpt lat="41.6019120" lon="2.0110550">
        <ele>479.9</ele>
        <time>2019-12-01T13:19:55Z</time>
      </trkpt>
      <trkpt lat="41.6019160" lon="2.0110050">
        <ele>479.9</ele>
        <time>2019-12-01T13:19:56Z</time>
      </trkpt>
      <trkpt lat="41.6019230" lon="2.0109560">
        <ele>479.9</ele>
        <time>2019-12-01T13:19:57Z</time>
      </trkpt>
      <trkpt lat="41.6019350" lon="2.0108500">
        <ele>479.9</ele>
        <time>2019-12-01T13:19:59Z</time>
      </trkpt>
      <trkpt lat="41.6019410" lon="2.0107580">
        <ele>480.1</ele>
        <time>2019-12-01T13:20:02Z</time>
      </trkpt>
      <trkpt lat="41.6019490" lon="2.0107120">
        <ele>480.3</ele>
        <time>2019-12-01T13:20:03Z</time>
      </trkpt>
      <trkpt lat="41.6019610" lon="2.0106440">
        <ele>480.7</ele>
        <time>2019-12-01T13:20:04Z</time>
      </trkpt>
      <trkpt lat="41.6019690" lon="2.0105950">
        <ele>480.9</ele>
        <time>2019-12-01T13:20:05Z</time>
      </trkpt>
      <trkpt lat="41.6019780" lon="2.0105580">
        <ele>481.1</ele>
        <time>2019-12-01T13:20:06Z</time>
      </trkpt>
      <trkpt lat="41.6019850" lon="2.0104870">
        <ele>481.5</ele>
        <time>2019-12-01T13:20:09Z</time>
      </trkpt>
      <trkpt lat="41.6019960" lon="2.0104530">
        <ele>481.7</ele>
        <time>2019-12-01T13:20:10Z</time>
      </trkpt>
      <trkpt lat="41.6020170" lon="2.0104220">
        <ele>481.9</ele>
        <time>2019-12-01T13:20:11Z</time>
      </trkpt>
      <trkpt lat="41.6020430" lon="2.0103810">
        <ele>482.1</ele>
        <time>2019-12-01T13:20:13Z</time>
      </trkpt>
      <trkpt lat="41.6020800" lon="2.0103110">
        <ele>482.4</ele>
        <time>2019-12-01T13:20:15Z</time>
      </trkpt>
      <trkpt lat="41.6021040" lon="2.0102610">
        <ele>482.5</ele>
        <time>2019-12-01T13:20:17Z</time>
      </trkpt>
      <trkpt lat="41.6021280" lon="2.0101930">
        <ele>482.6</ele>
        <time>2019-12-01T13:20:19Z</time>
      </trkpt>
      <trkpt lat="41.6021450" lon="2.0101470">
        <ele>482.7</ele>
        <time>2019-12-01T13:20:21Z</time>
      </trkpt>
      <trkpt lat="41.6021580" lon="2.0101110">
        <ele>482.8</ele>
        <time>2019-12-01T13:20:22Z</time>
      </trkpt>
      <trkpt lat="41.6021720" lon="2.0100770">
        <ele>482.9</ele>
        <time>2019-12-01T13:20:23Z</time>
      </trkpt>
      <trkpt lat="41.6021850" lon="2.0100440">
        <ele>483.0</ele>
        <time>2019-12-01T13:20:24Z</time>
      </trkpt>
      <trkpt lat="41.6021990" lon="2.0100090">
        <ele>483.1</ele>
        <time>2019-12-01T13:20:25Z</time>
      </trkpt>
      <trkpt lat="41.6022180" lon="2.0099480">
        <ele>483.3</ele>
        <time>2019-12-01T13:20:28Z</time>
      </trkpt>
      <trkpt lat="41.6022340" lon="2.0099050">
        <ele>483.4</ele>
        <time>2019-12-01T13:20:29Z</time>
      </trkpt>
      <trkpt lat="41.6022570" lon="2.0098520">
        <ele>483.6</ele>
        <time>2019-12-01T13:20:31Z</time>
      </trkpt>
      <trkpt lat="41.6022870" lon="2.0097940">
        <ele>483.8</ele>
        <time>2019-12-01T13:20:34Z</time>
      </trkpt>
      <trkpt lat="41.6023110" lon="2.0097400">
        <ele>484.0</ele>
        <time>2019-12-01T13:20:36Z</time>
      </trkpt>
      <trkpt lat="41.6023420" lon="2.0096890">
        <ele>484.1</ele>
        <time>2019-12-01T13:20:38Z</time>
      </trkpt>
      <trkpt lat="41.6023700" lon="2.0096360">
        <ele>484.3</ele>
        <time>2019-12-01T13:20:40Z</time>
      </trkpt>
      <trkpt lat="41.6023970" lon="2.0095650">
        <ele>484.5</ele>
        <time>2019-12-01T13:20:43Z</time>
      </trkpt>
      <trkpt lat="41.6024100" lon="2.0095320">
        <ele>484.6</ele>
        <time>2019-12-01T13:20:45Z</time>
      </trkpt>
      <trkpt lat="41.6024280" lon="2.0094900">
        <ele>484.7</ele>
        <time>2019-12-01T13:20:46Z</time>
      </trkpt>
      <trkpt lat="41.6024540" lon="2.0094310">
        <ele>484.9</ele>
        <time>2019-12-01T13:20:48Z</time>
      </trkpt>
      <trkpt lat="41.6024780" lon="2.0093720">
        <ele>485.1</ele>
        <time>2019-12-01T13:20:50Z</time>
      </trkpt>
      <trkpt lat="41.6025090" lon="2.0093140">
        <ele>485.4</ele>
        <time>2019-12-01T13:20:53Z</time>
      </trkpt>
      <trkpt lat="41.6025330" lon="2.0092760">
        <ele>485.6</ele>
        <time>2019-12-01T13:20:54Z</time>
      </trkpt>
      <trkpt lat="41.6025630" lon="2.0092160">
        <ele>485.9</ele>
        <time>2019-12-01T13:20:56Z</time>
      </trkpt>
      <trkpt lat="41.6026020" lon="2.0091470">
        <ele>486.4</ele>
        <time>2019-12-01T13:20:59Z</time>
      </trkpt>
      <trkpt lat="41.6026220" lon="2.0090930">
        <ele>486.7</ele>
        <time>2019-12-01T13:21:02Z</time>
      </trkpt>
      <trkpt lat="41.6026400" lon="2.0090300">
        <ele>487.2</ele>
        <time>2019-12-01T13:21:04Z</time>
      </trkpt>
      <trkpt lat="41.6026530" lon="2.0089790">
        <ele>487.5</ele>
        <time>2019-12-01T13:21:06Z</time>
      </trkpt>
      <trkpt lat="41.6026740" lon="2.0089160">
        <ele>487.9</ele>
        <time>2019-12-01T13:21:08Z</time>
      </trkpt>
      <trkpt lat="41.6026990" lon="2.0088560">
        <ele>488.3</ele>
        <time>2019-12-01T13:21:11Z</time>
      </trkpt>
      <trkpt lat="41.6027210" lon="2.0088020">
        <ele>488.5</ele>
        <time>2019-12-01T13:21:13Z</time>
      </trkpt>
      <trkpt lat="41.6027470" lon="2.0087400">
        <ele>488.7</ele>
        <time>2019-12-01T13:21:16Z</time>
      </trkpt>
      <trkpt lat="41.6027620" lon="2.0087030">
        <ele>488.8</ele>
        <time>2019-12-01T13:21:18Z</time>
      </trkpt>
      <trkpt lat="41.6027770" lon="2.0086660">
        <ele>488.8</ele>
        <time>2019-12-01T13:21:19Z</time>
      </trkpt>
      <trkpt lat="41.6027890" lon="2.0086330">
        <ele>488.9</ele>
        <time>2019-12-01T13:21:20Z</time>
      </trkpt>
      <trkpt lat="41.6028080" lon="2.0085910">
        <ele>488.9</ele>
        <time>2019-12-01T13:21:23Z</time>
      </trkpt>
      <trkpt lat="41.6028390" lon="2.0085390">
        <ele>489.0</ele>
        <time>2019-12-01T13:21:25Z</time>
      </trkpt>
      <trkpt lat="41.6028680" lon="2.0084760">
        <ele>489.2</ele>
        <time>2019-12-01T13:21:28Z</time>
      </trkpt>
      <trkpt lat="41.6028860" lon="2.0084320">
        <ele>489.4</ele>
        <time>2019-12-01T13:21:30Z</time>
      </trkpt>
      <trkpt lat="41.6029020" lon="2.0083960">
        <ele>489.6</ele>
        <time>2019-12-01T13:21:33Z</time>
      </trkpt>
      <trkpt lat="41.6029250" lon="2.0083410">
        <ele>489.9</ele>
        <time>2019-12-01T13:21:36Z</time>
      </trkpt>
      <trkpt lat="41.6029470" lon="2.0083090">
        <ele>490.1</ele>
        <time>2019-12-01T13:21:37Z</time>
      </trkpt>
      <trkpt lat="41.6029730" lon="2.0082720">
        <ele>490.2</ele>
        <time>2019-12-01T13:21:40Z</time>
      </trkpt>
      <trkpt lat="41.6030220" lon="2.0082610">
        <ele>490.5</ele>
        <time>2019-12-01T13:21:42Z</time>
      </trkpt>
      <trkpt lat="41.6030480" lon="2.0082910">
        <ele>490.7</ele>
        <time>2019-12-01T13:21:45Z</time>
      </trkpt>
      <trkpt lat="41.6030570" lon="2.0083420">
        <ele>490.9</ele>
        <time>2019-12-01T13:21:47Z</time>
      </trkpt>
      <trkpt lat="41.6030620" lon="2.0083840">
        <ele>491.1</ele>
        <time>2019-12-01T13:21:48Z</time>
      </trkpt>
      <trkpt lat="41.6030660" lon="2.0084440">
        <ele>491.4</ele>
        <time>2019-12-01T13:21:51Z</time>
      </trkpt>
      <trkpt lat="41.6030690" lon="2.0084810">
        <ele>491.5</ele>
        <time>2019-12-01T13:21:52Z</time>
      </trkpt>
      <trkpt lat="41.6030640" lon="2.0085440">
        <ele>491.8</ele>
        <time>2019-12-01T13:21:55Z</time>
      </trkpt>
      <trkpt lat="41.6030510" lon="2.0085980">
        <ele>492.0</ele>
        <time>2019-12-01T13:21:57Z</time>
      </trkpt>
      <trkpt lat="41.6030360" lon="2.0086660">
        <ele>492.2</ele>
        <time>2019-12-01T13:21:59Z</time>
      </trkpt>
      <trkpt lat="41.6030290" lon="2.0087060">
        <ele>492.3</ele>
        <time>2019-12-01T13:22:01Z</time>
      </trkpt>
      <trkpt lat="41.6030250" lon="2.0087470">
        <ele>492.3</ele>
        <time>2019-12-01T13:22:02Z</time>
      </trkpt>
      <trkpt lat="41.6030190" lon="2.0087890">
        <ele>492.4</ele>
        <time>2019-12-01T13:22:03Z</time>
      </trkpt>
      <trkpt lat="41.6030140" lon="2.0088250">
        <ele>492.4</ele>
        <time>2019-12-01T13:22:04Z</time>
      </trkpt>
      <trkpt lat="41.6030050" lon="2.0088770">
        <ele>492.5</ele>
        <time>2019-12-01T13:22:06Z</time>
      </trkpt>
      <trkpt lat="41.6029960" lon="2.0089340">
        <ele>492.7</ele>
        <time>2019-12-01T13:22:08Z</time>
      </trkpt>
      <trkpt lat="41.6029900" lon="2.0089910">
        <ele>492.8</ele>
        <time>2019-12-01T13:22:11Z</time>
      </trkpt>
      <trkpt lat="41.6029750" lon="2.0090510">
        <ele>492.9</ele>
        <time>2019-12-01T13:22:13Z</time>
      </trkpt>
      <trkpt lat="41.6029650" lon="2.0090920">
        <ele>492.9</ele>
        <time>2019-12-01T13:22:15Z</time>
      </trkpt>
      <trkpt lat="41.6029500" lon="2.0091520">
        <ele>493.0</ele>
        <time>2019-12-01T13:22:17Z</time>
      </trkpt>
      <trkpt lat="41.6029300" lon="2.0092240">
        <ele>493.1</ele>
        <time>2019-12-01T13:22:19Z</time>
      </trkpt>
      <trkpt lat="41.6029170" lon="2.0092830">
        <ele>493.2</ele>
        <time>2019-12-01T13:22:22Z</time>
      </trkpt>
      <trkpt lat="41.6029030" lon="2.0093420">
        <ele>493.3</ele>
        <time>2019-12-01T13:22:24Z</time>
      </trkpt>
      <trkpt lat="41.6028880" lon="2.0094010">
        <ele>493.4</ele>
        <time>2019-12-01T13:22:26Z</time>
      </trkpt>
      <trkpt lat="41.6028660" lon="2.0094630">
        <ele>493.5</ele>
        <time>2019-12-01T13:22:29Z</time>
      </trkpt>
      <trkpt lat="41.6028530" lon="2.0095180">
        <ele>493.6</ele>
        <time>2019-12-01T13:22:30Z</time>
      </trkpt>
      <trkpt lat="41.6028420" lon="2.0095760">
        <ele>493.7</ele>
        <time>2019-12-01T13:22:33Z</time>
      </trkpt>
      <trkpt lat="41.6028250" lon="2.0096330">
        <ele>493.7</ele>
        <time>2019-12-01T13:22:35Z</time>
      </trkpt>
      <trkpt lat="41.6028120" lon="2.0096690">
        <ele>493.8</ele>
        <time>2019-12-01T13:22:36Z</time>
      </trkpt>
      <trkpt lat="41.6027990" lon="2.0097040">
        <ele>493.8</ele>
        <time>2019-12-01T13:22:37Z</time>
      </trkpt>
      <trkpt lat="41.6027860" lon="2.0097420">
        <ele>493.9</ele>
        <time>2019-12-01T13:22:38Z</time>
      </trkpt>
      <trkpt lat="41.6027700" lon="2.0098030">
        <ele>494.0</ele>
        <time>2019-12-01T13:22:40Z</time>
      </trkpt>
      <trkpt lat="41.6027530" lon="2.0098630">
        <ele>494.1</ele>
        <time>2019-12-01T13:22:43Z</time>
      </trkpt>
      <trkpt lat="41.6027420" lon="2.0098980">
        <ele>494.2</ele>
        <time>2019-12-01T13:22:44Z</time>
      </trkpt>
      <trkpt lat="41.6027180" lon="2.0099710">
        <ele>494.3</ele>
        <time>2019-12-01T13:22:46Z</time>
      </trkpt>
      <trkpt lat="41.6027030" lon="2.0100060">
        <ele>494.4</ele>
        <time>2019-12-01T13:22:47Z</time>
      </trkpt>
      <trkpt lat="41.6026910" lon="2.0100380">
        <ele>494.5</ele>
        <time>2019-12-01T13:22:48Z</time>
      </trkpt>
      <trkpt lat="41.6026680" lon="2.0100900">
        <ele>494.6</ele>
        <time>2019-12-01T13:22:50Z</time>
      </trkpt>
      <trkpt lat="41.6026440" lon="2.0101440">
        <ele>494.8</ele>
        <time>2019-12-01T13:22:53Z</time>
      </trkpt>
      <trkpt lat="41.6026180" lon="2.0101970">
        <ele>495.1</ele>
        <time>2019-12-01T13:22:55Z</time>
      </trkpt>
      <trkpt lat="41.6025940" lon="2.0102560">
        <ele>495.4</ele>
        <time>2019-12-01T13:22:57Z</time>
      </trkpt>
      <trkpt lat="41.6025780" lon="2.0103010">
        <ele>495.6</ele>
        <time>2019-12-01T13:22:59Z</time>
      </trkpt>
      <trkpt lat="41.6025650" lon="2.0103470">
        <ele>495.8</ele>
        <time>2019-12-01T13:23:00Z</time>
      </trkpt>
      <trkpt lat="41.6025570" lon="2.0103930">
        <ele>496.0</ele>
        <time>2019-12-01T13:23:02Z</time>
      </trkpt>
      <trkpt lat="41.6025660" lon="2.0104530">
        <ele>496.3</ele>
        <time>2019-12-01T13:23:04Z</time>
      </trkpt>
      <trkpt lat="41.6025810" lon="2.0104840">
        <ele>496.5</ele>
        <time>2019-12-01T13:23:06Z</time>
      </trkpt>
      <trkpt lat="41.6026410" lon="2.0105070">
        <ele>496.9</ele>
        <time>2019-12-01T13:23:08Z</time>
      </trkpt>
      <trkpt lat="41.6026760" lon="2.0104980">
        <ele>497.3</ele>
        <time>2019-12-01T13:23:10Z</time>
      </trkpt>
      <trkpt lat="41.6027230" lon="2.0104470">
        <ele>497.8</ele>
        <time>2019-12-01T13:23:12Z</time>
      </trkpt>
      <trkpt lat="41.6027630" lon="2.0103890">
        <ele>498.3</ele>
        <time>2019-12-01T13:23:15Z</time>
      </trkpt>
      <trkpt lat="41.6027820" lon="2.0103550">
        <ele>498.5</ele>
        <time>2019-12-01T13:23:16Z</time>
      </trkpt>
      <trkpt lat="41.6027980" lon="2.0103240">
        <ele>498.7</ele>
        <time>2019-12-01T13:23:17Z</time>
      </trkpt>
      <trkpt lat="41.6028230" lon="2.0102610">
        <ele>499.0</ele>
        <time>2019-12-01T13:23:20Z</time>
      </trkpt>
      <trkpt lat="41.6028380" lon="2.0102100">
        <ele>499.3</ele>
        <time>2019-12-01T13:23:22Z</time>
      </trkpt>
      <trkpt lat="41.6028490" lon="2.0101750">
        <ele>499.5</ele>
        <time>2019-12-01T13:23:23Z</time>
      </trkpt>
      <trkpt lat="41.6028640" lon="2.0101220">
        <ele>499.7</ele>
        <time>2019-12-01T13:23:24Z</time>
      </trkpt>
      <trkpt lat="41.6028780" lon="2.0100610">
        <ele>500.0</ele>
        <time>2019-12-01T13:23:26Z</time>
      </trkpt>
      <trkpt lat="41.6028970" lon="2.0100100">
        <ele>500.2</ele>
        <time>2019-12-01T13:23:29Z</time>
      </trkpt>
      <trkpt lat="41.6029110" lon="2.0099620">
        <ele>500.5</ele>
        <time>2019-12-01T13:23:31Z</time>
      </trkpt>
      <trkpt lat="41.6029240" lon="2.0099230">
        <ele>500.7</ele>
        <time>2019-12-01T13:23:33Z</time>
      </trkpt>
      <trkpt lat="41.6029330" lon="2.0098880">
        <ele>500.9</ele>
        <time>2019-12-01T13:23:34Z</time>
      </trkpt>
      <trkpt lat="41.6029450" lon="2.0098460">
        <ele>501.1</ele>
        <time>2019-12-01T13:23:35Z</time>
      </trkpt>
      <trkpt lat="41.6029510" lon="2.0098100">
        <ele>501.3</ele>
        <time>2019-12-01T13:23:37Z</time>
      </trkpt>
      <trkpt lat="41.6029630" lon="2.0097600">
        <ele>501.5</ele>
        <time>2019-12-01T13:23:38Z</time>
      </trkpt>
      <trkpt lat="41.6029800" lon="2.0096970">
        <ele>501.8</ele>
        <time>2019-12-01T13:23:40Z</time>
      </trkpt>
      <trkpt lat="41.6030010" lon="2.0096400">
        <ele>502.1</ele>
        <time>2019-12-01T13:23:43Z</time>
      </trkpt>
      <trkpt lat="41.6030310" lon="2.0095600">
        <ele>502.4</ele>
        <time>2019-12-01T13:23:46Z</time>
      </trkpt>
      <trkpt lat="41.6030510" lon="2.0095140">
        <ele>502.6</ele>
        <time>2019-12-01T13:23:47Z</time>
      </trkpt>
      <trkpt lat="41.6030650" lon="2.0094820">
        <ele>502.7</ele>
        <time>2019-12-01T13:23:49Z</time>
      </trkpt>
      <trkpt lat="41.6030860" lon="2.0094370">
        <ele>502.9</ele>
        <time>2019-12-01T13:23:50Z</time>
      </trkpt>
      <trkpt lat="41.6031070" lon="2.0093920">
        <ele>503.0</ele>
        <time>2019-12-01T13:23:51Z</time>
      </trkpt>
      <trkpt lat="41.6031240" lon="2.0093570">
        <ele>503.2</ele>
        <time>2019-12-01T13:23:52Z</time>
      </trkpt>
      <trkpt lat="41.6031550" lon="2.0092790">
        <ele>503.5</ele>
        <time>2019-12-01T13:23:55Z</time>
      </trkpt>
      <trkpt lat="41.6031690" lon="2.0092280">
        <ele>503.7</ele>
        <time>2019-12-01T13:23:56Z</time>
      </trkpt>
      <trkpt lat="41.6031870" lon="2.0091580">
        <ele>504.0</ele>
        <time>2019-12-01T13:23:59Z</time>
      </trkpt>
      <trkpt lat="41.6032030" lon="2.0091100">
        <ele>504.2</ele>
        <time>2019-12-01T13:24:00Z</time>
      </trkpt>
      <trkpt lat="41.6032250" lon="2.0090530">
        <ele>504.5</ele>
        <time>2019-12-01T13:24:03Z</time>
      </trkpt>
      <trkpt lat="41.6032370" lon="2.0090200">
        <ele>504.6</ele>
        <time>2019-12-01T13:24:04Z</time>
      </trkpt>
      <trkpt lat="41.6032500" lon="2.0089860">
        <ele>504.7</ele>
        <time>2019-12-01T13:24:05Z</time>
      </trkpt>
      <trkpt lat="41.6032700" lon="2.0089340">
        <ele>505.0</ele>
        <time>2019-12-01T13:24:07Z</time>
      </trkpt>
      <trkpt lat="41.6032860" lon="2.0088660">
        <ele>505.3</ele>
        <time>2019-12-01T13:24:10Z</time>
      </trkpt>
      <trkpt lat="41.6032960" lon="2.0088130">
        <ele>505.6</ele>
        <time>2019-12-01T13:24:12Z</time>
      </trkpt>
      <trkpt lat="41.6033060" lon="2.0087380">
        <ele>506.0</ele>
        <time>2019-12-01T13:24:14Z</time>
      </trkpt>
      <trkpt lat="41.6033240" lon="2.0086760">
        <ele>506.2</ele>
        <time>2019-12-01T13:24:17Z</time>
      </trkpt>
      <trkpt lat="41.6033460" lon="2.0086230">
        <ele>506.4</ele>
        <time>2019-12-01T13:24:18Z</time>
      </trkpt>
      <trkpt lat="41.6033710" lon="2.0085700">
        <ele>506.5</ele>
        <time>2019-12-01T13:24:20Z</time>
      </trkpt>
      <trkpt lat="41.6033900" lon="2.0085340">
        <ele>506.7</ele>
        <time>2019-12-01T13:24:21Z</time>
      </trkpt>
      <trkpt lat="41.6034080" lon="2.0084960">
        <ele>506.8</ele>
        <time>2019-12-01T13:24:22Z</time>
      </trkpt>
      <trkpt lat="41.6034210" lon="2.0084620">
        <ele>506.9</ele>
        <time>2019-12-01T13:24:23Z</time>
      </trkpt>
      <trkpt lat="41.6034430" lon="2.0084040">
        <ele>507.0</ele>
        <time>2019-12-01T13:24:25Z</time>
      </trkpt>
      <trkpt lat="41.6034640" lon="2.0083560">
        <ele>507.0</ele>
        <time>2019-12-01T13:24:27Z</time>
      </trkpt>
      <trkpt lat="41.6034770" lon="2.0083240">
        <ele>507.0</ele>
        <time>2019-12-01T13:24:28Z</time>
      </trkpt>
      <trkpt lat="41.6034990" lon="2.0082700">
        <ele>507.0</ele>
        <time>2019-12-01T13:24:30Z</time>
      </trkpt>
      <trkpt lat="41.6035150" lon="2.0082270">
        <ele>507.1</ele>
        <time>2019-12-01T13:24:32Z</time>
      </trkpt>
      <trkpt lat="41.6035440" lon="2.0081700">
        <ele>507.1</ele>
        <time>2019-12-01T13:24:34Z</time>
      </trkpt>
      <trkpt lat="41.6035760" lon="2.0080970">
        <ele>507.1</ele>
        <time>2019-12-01T13:24:37Z</time>
      </trkpt>
      <trkpt lat="41.6035890" lon="2.0080640">
        <ele>507.1</ele>
        <time>2019-12-01T13:24:38Z</time>
      </trkpt>
      <trkpt lat="41.6036050" lon="2.0080170">
        <ele>507.2</ele>
        <time>2019-12-01T13:24:40Z</time>
      </trkpt>
      <trkpt lat="41.6036290" lon="2.0079230">
        <ele>508.8</ele>
        <time>2019-12-01T13:24:43Z</time>
      </trkpt>
      <trkpt lat="41.6036410" lon="2.0078670">
        <ele>509.5</ele>
        <time>2019-12-01T13:24:45Z</time>
      </trkpt>
      <trkpt lat="41.6036610" lon="2.0078080">
        <ele>510.4</ele>
        <time>2019-12-01T13:24:47Z</time>
      </trkpt>
      <trkpt lat="41.6036780" lon="2.0077410">
        <ele>511.3</ele>
        <time>2019-12-01T13:24:50Z</time>
      </trkpt>
      <trkpt lat="41.6036920" lon="2.0076920">
        <ele>512.0</ele>
        <time>2019-12-01T13:24:51Z</time>
      </trkpt>
      <trkpt lat="41.6037060" lon="2.0076480">
        <ele>512.7</ele>
        <time>2019-12-01T13:24:53Z</time>
      </trkpt>
      <trkpt lat="41.6037210" lon="2.0076010">
        <ele>513.4</ele>
        <time>2019-12-01T13:24:54Z</time>
      </trkpt>
      <trkpt lat="41.6037430" lon="2.0075440">
        <ele>514.3</ele>
        <time>2019-12-01T13:24:57Z</time>
      </trkpt>
      <trkpt lat="41.6037600" lon="2.0074920">
        <ele>515.2</ele>
        <time>2019-12-01T13:24:59Z</time>
      </trkpt>
      <trkpt lat="41.6037960" lon="2.0074260">
        <ele>516.5</ele>
        <time>2019-12-01T13:25:02Z</time>
      </trkpt>
      <trkpt lat="41.6038230" lon="2.0074020">
        <ele>517.2</ele>
        <time>2019-12-01T13:25:03Z</time>
      </trkpt>
      <trkpt lat="41.6038490" lon="2.0073750">
        <ele>517.9</ele>
        <time>2019-12-01T13:25:04Z</time>
      </trkpt>
      <trkpt lat="41.6038740" lon="2.0073570">
        <ele>518.5</ele>
        <time>2019-12-01T13:25:05Z</time>
      </trkpt>
      <trkpt lat="41.6039020" lon="2.0073390">
        <ele>519.2</ele>
        <time>2019-12-01T13:25:06Z</time>
      </trkpt>
      <trkpt lat="41.6039320" lon="2.0073230">
        <ele>520.0</ele>
        <time>2019-12-01T13:25:07Z</time>
      </trkpt>
      <trkpt lat="41.6039590" lon="2.0073050">
        <ele>520.8</ele>
        <time>2019-12-01T13:25:09Z</time>
      </trkpt>
      <trkpt lat="41.6040040" lon="2.0072750">
        <ele>522.0</ele>
        <time>2019-12-01T13:25:11Z</time>
      </trkpt>
      <trkpt lat="41.6040360" lon="2.0072460">
        <ele>523.0</ele>
        <time>2019-12-01T13:25:12Z</time>
      </trkpt>
      <trkpt lat="41.6040730" lon="2.0072090">
        <ele>524.1</ele>
        <time>2019-12-01T13:25:15Z</time>
      </trkpt>
      <trkpt lat="41.6041190" lon="2.0071680">
        <ele>525.5</ele>
        <time>2019-12-01T13:25:18Z</time>
      </trkpt>
      <trkpt lat="41.6041470" lon="2.0071530">
        <ele>526.2</ele>
        <time>2019-12-01T13:25:19Z</time>
      </trkpt>
      <trkpt lat="41.6042000" lon="2.0071350">
        <ele>527.5</ele>
        <time>2019-12-01T13:25:22Z</time>
      </trkpt>
      <trkpt lat="41.6042440" lon="2.0071310">
        <ele>528.3</ele>
        <time>2019-12-01T13:25:25Z</time>
      </trkpt>
      <trkpt lat="41.6042880" lon="2.0071380">
        <ele>529.1</ele>
        <time>2019-12-01T13:25:27Z</time>
      </trkpt>
      <trkpt lat="41.6043480" lon="2.0071910">
        <ele>530.0</ele>
        <time>2019-12-01T13:25:30Z</time>
      </trkpt>
      <trkpt lat="41.6043720" lon="2.0072440">
        <ele>530.4</ele>
        <time>2019-12-01T13:25:33Z</time>
      </trkpt>
      <trkpt lat="41.6043750" lon="2.0072960">
        <ele>530.7</ele>
        <time>2019-12-01T13:25:34Z</time>
      </trkpt>
      <trkpt lat="41.6043790" lon="2.0073360">
        <ele>530.8</ele>
        <time>2019-12-01T13:25:36Z</time>
      </trkpt>
      <trkpt lat="41.6043610" lon="2.0074100">
        <ele>531.0</ele>
        <time>2019-12-01T13:25:39Z</time>
      </trkpt>
      <trkpt lat="41.6043380" lon="2.0074550">
        <ele>531.1</ele>
        <time>2019-12-01T13:25:41Z</time>
      </trkpt>
      <trkpt lat="41.6043260" lon="2.0074880">
        <ele>531.1</ele>
        <time>2019-12-01T13:25:43Z</time>
      </trkpt>
      <trkpt lat="41.6043050" lon="2.0075300">
        <ele>531.1</ele>
        <time>2019-12-01T13:25:45Z</time>
      </trkpt>
      <trkpt lat="41.6042860" lon="2.0075690">
        <ele>531.2</ele>
        <time>2019-12-01T13:25:47Z</time>
      </trkpt>
      <trkpt lat="41.6042710" lon="2.0076030">
        <ele>531.2</ele>
        <time>2019-12-01T13:25:49Z</time>
      </trkpt>
      <trkpt lat="41.6042410" lon="2.0076570">
        <ele>531.2</ele>
        <time>2019-12-01T13:25:52Z</time>
      </trkpt>
      <trkpt lat="41.6042110" lon="2.0077030">
        <ele>531.1</ele>
        <time>2019-12-01T13:25:54Z</time>
      </trkpt>
      <trkpt lat="41.6041940" lon="2.0077310">
        <ele>531.1</ele>
        <time>2019-12-01T13:25:55Z</time>
      </trkpt>
      <trkpt lat="41.6041770" lon="2.0077590">
        <ele>531.1</ele>
        <time>2019-12-01T13:25:57Z</time>
      </trkpt>
      <trkpt lat="41.6041390" lon="2.0078170">
        <ele>531.0</ele>
        <time>2019-12-01T13:25:59Z</time>
      </trkpt>
      <trkpt lat="41.6041180" lon="2.0078470">
        <ele>531.0</ele>
        <time>2019-12-01T13:26:00Z</time>
      </trkpt>
      <trkpt lat="41.6040980" lon="2.0078760">
        <ele>530.9</ele>
        <time>2019-12-01T13:26:01Z</time>
      </trkpt>
      <trkpt lat="41.6040700" lon="2.0079130">
        <ele>530.8</ele>
        <time>2019-12-01T13:26:03Z</time>
      </trkpt>
      <trkpt lat="41.6040440" lon="2.0079450">
        <ele>530.7</ele>
        <time>2019-12-01T13:26:04Z</time>
      </trkpt>
      <trkpt lat="41.6040250" lon="2.0079710">
        <ele>530.6</ele>
        <time>2019-12-01T13:26:05Z</time>
      </trkpt>
      <trkpt lat="41.6039930" lon="2.0080120">
        <ele>530.4</ele>
        <time>2019-12-01T13:26:07Z</time>
      </trkpt>
      <trkpt lat="41.6039710" lon="2.0080510">
        <ele>530.2</ele>
        <time>2019-12-01T13:26:08Z</time>
      </trkpt>
      <trkpt lat="41.6039550" lon="2.0080900">
        <ele>530.1</ele>
        <time>2019-12-01T13:26:10Z</time>
      </trkpt>
      <trkpt lat="41.6039410" lon="2.0081470">
        <ele>529.9</ele>
        <time>2019-12-01T13:26:12Z</time>
      </trkpt>
      <trkpt lat="41.6039330" lon="2.0082000">
        <ele>529.6</ele>
        <time>2019-12-01T13:26:14Z</time>
      </trkpt>
      <trkpt lat="41.6039180" lon="2.0083090">
        <ele>529.3</ele>
        <time>2019-12-01T13:26:19Z</time>
      </trkpt>
      <trkpt lat="41.6039040" lon="2.0083670">
        <ele>529.7</ele>
        <time>2019-12-01T13:26:21Z</time>
      </trkpt>
      <trkpt lat="41.6038860" lon="2.0084360">
        <ele>530.2</ele>
        <time>2019-12-01T13:26:24Z</time>
      </trkpt>
      <trkpt lat="41.6038730" lon="2.0084920">
        <ele>530.5</ele>
        <time>2019-12-01T13:26:26Z</time>
      </trkpt>
      <trkpt lat="41.6038640" lon="2.0085440">
        <ele>530.9</ele>
        <time>2019-12-01T13:26:28Z</time>
      </trkpt>
      <trkpt lat="41.6038530" lon="2.0086030">
        <ele>531.3</ele>
        <time>2019-12-01T13:26:31Z</time>
      </trkpt>
      <trkpt lat="41.6038410" lon="2.0086550">
        <ele>531.7</ele>
        <time>2019-12-01T13:26:33Z</time>
      </trkpt>
      <trkpt lat="41.6038260" lon="2.0087140">
        <ele>532.1</ele>
        <time>2019-12-01T13:26:35Z</time>
      </trkpt>
      <trkpt lat="41.6038130" lon="2.0087670">
        <ele>532.4</ele>
        <time>2019-12-01T13:26:38Z</time>
      </trkpt>
      <trkpt lat="41.6037990" lon="2.0088290">
        <ele>532.7</ele>
        <time>2019-12-01T13:26:40Z</time>
      </trkpt>
      <trkpt lat="41.6037910" lon="2.0088870">
        <ele>533.0</ele>
        <time>2019-12-01T13:26:42Z</time>
      </trkpt>
      <trkpt lat="41.6037800" lon="2.0089430">
        <ele>533.4</ele>
        <time>2019-12-01T13:26:45Z</time>
      </trkpt>
      <trkpt lat="41.6037690" lon="2.0089980">
        <ele>533.7</ele>
        <time>2019-12-01T13:26:47Z</time>
      </trkpt>
      <trkpt lat="41.6037590" lon="2.0090400">
        <ele>534.0</ele>
        <time>2019-12-01T13:26:48Z</time>
      </trkpt>
      <trkpt lat="41.6037480" lon="2.0090910">
        <ele>534.3</ele>
        <time>2019-12-01T13:26:50Z</time>
      </trkpt>
      <trkpt lat="41.6037400" lon="2.0091550">
        <ele>534.7</ele>
        <time>2019-12-01T13:26:53Z</time>
      </trkpt>
      <trkpt lat="41.6037320" lon="2.0092130">
        <ele>535.0</ele>
        <time>2019-12-01T13:26:55Z</time>
      </trkpt>
      <trkpt lat="41.6037200" lon="2.0092670">
        <ele>535.3</ele>
        <time>2019-12-01T13:26:57Z</time>
      </trkpt>
      <trkpt lat="41.6037110" lon="2.0093100">
        <ele>535.5</ele>
        <time>2019-12-01T13:26:59Z</time>
      </trkpt>
      <trkpt lat="41.6037000" lon="2.0093700">
        <ele>535.9</ele>
        <time>2019-12-01T13:27:01Z</time>
      </trkpt>
      <trkpt lat="41.6036890" lon="2.0094330">
        <ele>536.3</ele>
        <time>2019-12-01T13:27:03Z</time>
      </trkpt>
      <trkpt lat="41.6036850" lon="2.0094900">
        <ele>536.7</ele>
        <time>2019-12-01T13:27:05Z</time>
      </trkpt>
      <trkpt lat="41.6036790" lon="2.0095520">
        <ele>537.1</ele>
        <time>2019-12-01T13:27:08Z</time>
      </trkpt>
      <trkpt lat="41.6036700" lon="2.0095960">
        <ele>537.5</ele>
        <time>2019-12-01T13:27:10Z</time>
      </trkpt>
      <trkpt lat="41.6036670" lon="2.0096560">
        <ele>538.0</ele>
        <time>2019-12-01T13:27:12Z</time>
      </trkpt>
      <trkpt lat="41.6036640" lon="2.0096990">
        <ele>538.3</ele>
        <time>2019-12-01T13:27:14Z</time>
      </trkpt>
      <trkpt lat="41.6036570" lon="2.0097420">
        <ele>538.7</ele>
        <time>2019-12-01T13:27:15Z</time>
      </trkpt>
      <trkpt lat="41.6036520" lon="2.0097990">
        <ele>539.1</ele>
        <time>2019-12-01T13:27:17Z</time>
      </trkpt>
      <trkpt lat="41.6036510" lon="2.0098690">
        <ele>539.6</ele>
        <time>2019-12-01T13:27:20Z</time>
      </trkpt>
      <trkpt lat="41.6036490" lon="2.0099250">
        <ele>540.2</ele>
        <time>2019-12-01T13:27:22Z</time>
      </trkpt>
      <trkpt lat="41.6036480" lon="2.0099850">
        <ele>540.7</ele>
        <time>2019-12-01T13:27:25Z</time>
      </trkpt>
      <trkpt lat="41.6036440" lon="2.0100370">
        <ele>541.1</ele>
        <time>2019-12-01T13:27:27Z</time>
      </trkpt>
      <trkpt lat="41.6036430" lon="2.0100850">
        <ele>541.5</ele>
        <time>2019-12-01T13:27:29Z</time>
      </trkpt>
      <trkpt lat="41.6036420" lon="2.0101460">
        <ele>542.0</ele>
        <time>2019-12-01T13:27:32Z</time>
      </trkpt>
      <trkpt lat="41.6036410" lon="2.0102160">
        <ele>542.6</ele>
        <time>2019-12-01T13:27:34Z</time>
      </trkpt>
      <trkpt lat="41.6036360" lon="2.0102750">
        <ele>543.1</ele>
        <time>2019-12-01T13:27:37Z</time>
      </trkpt>
      <trkpt lat="41.6036320" lon="2.0103190">
        <ele>543.4</ele>
        <time>2019-12-01T13:27:38Z</time>
      </trkpt>
      <trkpt lat="41.6036230" lon="2.0103710">
        <ele>543.8</ele>
        <time>2019-12-01T13:27:41Z</time>
      </trkpt>
      <trkpt lat="41.6036150" lon="2.0104080">
        <ele>544.2</ele>
        <time>2019-12-01T13:27:42Z</time>
      </trkpt>
      <trkpt lat="41.6036030" lon="2.0104580">
        <ele>544.6</ele>
        <time>2019-12-01T13:27:45Z</time>
      </trkpt>
      <trkpt lat="41.6035970" lon="2.0104940">
        <ele>544.9</ele>
        <time>2019-12-01T13:27:46Z</time>
      </trkpt>
      <trkpt lat="41.6035910" lon="2.0105470">
        <ele>545.4</ele>
        <time>2019-12-01T13:27:49Z</time>
      </trkpt>
      <trkpt lat="41.6035830" lon="2.0106120">
        <ele>545.9</ele>
        <time>2019-12-01T13:27:51Z</time>
      </trkpt>
      <trkpt lat="41.6035720" lon="2.0106650">
        <ele>546.2</ele>
        <time>2019-12-01T13:27:54Z</time>
      </trkpt>
      <trkpt lat="41.6035600" lon="2.0107230">
        <ele>546.6</ele>
        <time>2019-12-01T13:27:57Z</time>
      </trkpt>
      <trkpt lat="41.6035490" lon="2.0107620">
        <ele>546.9</ele>
        <time>2019-12-01T13:27:59Z</time>
      </trkpt>
      <trkpt lat="41.6035320" lon="2.0108300">
        <ele>547.3</ele>
        <time>2019-12-01T13:28:01Z</time>
      </trkpt>
      <trkpt lat="41.6035180" lon="2.0108890">
        <ele>547.7</ele>
        <time>2019-12-01T13:28:04Z</time>
      </trkpt>
      <trkpt lat="41.6035100" lon="2.0109250">
        <ele>547.9</ele>
        <time>2019-12-01T13:28:06Z</time>
      </trkpt>
      <trkpt lat="41.6034740" lon="2.0109950">
        <ele>548.3</ele>
        <time>2019-12-01T13:28:42Z</time>
      </trkpt>
      <trkpt lat="41.6034630" lon="2.0110580">
        <ele>548.7</ele>
        <time>2019-12-01T13:28:44Z</time>
      </trkpt>
      <trkpt lat="41.6034470" lon="2.0111490">
        <ele>549.1</ele>
        <time>2019-12-01T13:28:47Z</time>
      </trkpt>
      <trkpt lat="41.6034340" lon="2.0112030">
        <ele>549.4</ele>
        <time>2019-12-01T13:28:49Z</time>
      </trkpt>
      <trkpt lat="41.6034250" lon="2.0112580">
        <ele>549.8</ele>
        <time>2019-12-01T13:28:51Z</time>
      </trkpt>
      <trkpt lat="41.6034300" lon="2.0113070">
        <ele>550.0</ele>
        <time>2019-12-01T13:28:53Z</time>
      </trkpt>
      <trkpt lat="41.6034390" lon="2.0113510">
        <ele>550.3</ele>
        <time>2019-12-01T13:28:55Z</time>
      </trkpt>
      <trkpt lat="41.6034630" lon="2.0113920">
        <ele>550.6</ele>
        <time>2019-12-01T13:28:58Z</time>
      </trkpt>
      <trkpt lat="41.6035020" lon="2.0114320">
        <ele>551.0</ele>
        <time>2019-12-01T13:29:00Z</time>
      </trkpt>
      <trkpt lat="41.6035520" lon="2.0114610">
        <ele>551.5</ele>
        <time>2019-12-01T13:29:02Z</time>
      </trkpt>
      <trkpt lat="41.6035800" lon="2.0114610">
        <ele>551.8</ele>
        <time>2019-12-01T13:29:03Z</time>
      </trkpt>
      <trkpt lat="41.6036390" lon="2.0114370">
        <ele>552.3</ele>
        <time>2019-12-01T13:29:06Z</time>
      </trkpt>
      <trkpt lat="41.6036880" lon="2.0113880">
        <ele>552.9</ele>
        <time>2019-12-01T13:29:09Z</time>
      </trkpt>
      <trkpt lat="41.6037250" lon="2.0113460">
        <ele>553.4</ele>
        <time>2019-12-01T13:29:11Z</time>
      </trkpt>
      <trkpt lat="41.6037550" lon="2.0112980">
        <ele>553.9</ele>
        <time>2019-12-01T13:29:14Z</time>
      </trkpt>
      <trkpt lat="41.6037730" lon="2.0112510">
        <ele>554.3</ele>
        <time>2019-12-01T13:29:16Z</time>
      </trkpt>
      <trkpt lat="41.6037900" lon="2.0111740">
        <ele>555.0</ele>
        <time>2019-12-01T13:29:20Z</time>
      </trkpt>
      <trkpt lat="41.6038080" lon="2.0111090">
        <ele>555.7</ele>
        <time>2019-12-01T13:29:23Z</time>
      </trkpt>
      <trkpt lat="41.6038220" lon="2.0110660">
        <ele>556.1</ele>
        <time>2019-12-01T13:29:25Z</time>
      </trkpt>
      <trkpt lat="41.6038340" lon="2.0110330">
        <ele>556.4</ele>
        <time>2019-12-01T13:29:26Z</time>
      </trkpt>
      <trkpt lat="41.6038490" lon="2.0109850">
        <ele>556.8</ele>
        <time>2019-12-01T13:29:27Z</time>
      </trkpt>
      <trkpt lat="41.6038700" lon="2.0109250">
        <ele>557.3</ele>
        <time>2019-12-01T13:29:30Z</time>
      </trkpt>
      <trkpt lat="41.6038840" lon="2.0108740">
        <ele>557.7</ele>
        <time>2019-12-01T13:29:32Z</time>
      </trkpt>
      <trkpt lat="41.6038980" lon="2.0108260">
        <ele>558.1</ele>
        <time>2019-12-01T13:29:34Z</time>
      </trkpt>
      <trkpt lat="41.6039120" lon="2.0107880">
        <ele>558.4</ele>
        <time>2019-12-01T13:29:37Z</time>
      </trkpt>
      <trkpt lat="41.6039280" lon="2.0107480">
        <ele>558.6</ele>
        <time>2019-12-01T13:29:39Z</time>
      </trkpt>
      <trkpt lat="41.6039390" lon="2.0107130">
        <ele>558.9</ele>
        <time>2019-12-01T13:29:41Z</time>
      </trkpt>
      <trkpt lat="41.6039540" lon="2.0106530">
        <ele>559.2</ele>
        <time>2019-12-01T13:29:43Z</time>
      </trkpt>
      <trkpt lat="41.6039700" lon="2.0105920">
        <ele>559.5</ele>
        <time>2019-12-01T13:29:45Z</time>
      </trkpt>
      <trkpt lat="41.6039810" lon="2.0105540">
        <ele>559.7</ele>
        <time>2019-12-01T13:29:46Z</time>
      </trkpt>
      <trkpt lat="41.6040000" lon="2.0104980">
        <ele>560.0</ele>
        <time>2019-12-01T13:29:48Z</time>
      </trkpt>
      <trkpt lat="41.6040200" lon="2.0104360">
        <ele>560.3</ele>
        <time>2019-12-01T13:29:51Z</time>
      </trkpt>
      <trkpt lat="41.6040380" lon="2.0103750">
        <ele>560.5</ele>
        <time>2019-12-01T13:29:53Z</time>
      </trkpt>
      <trkpt lat="41.6040520" lon="2.0103220">
        <ele>560.8</ele>
        <time>2019-12-01T13:29:55Z</time>
      </trkpt>
      <trkpt lat="41.6040670" lon="2.0102480">
        <ele>561.0</ele>
        <time>2019-12-01T13:29:58Z</time>
      </trkpt>
      <trkpt lat="41.6040730" lon="2.0101950">
        <ele>561.2</ele>
        <time>2019-12-01T13:30:01Z</time>
      </trkpt>
      <trkpt lat="41.6040780" lon="2.0101270">
        <ele>561.4</ele>
        <time>2019-12-01T13:30:04Z</time>
      </trkpt>
      <trkpt lat="41.6040830" lon="2.0100610">
        <ele>561.5</ele>
        <time>2019-12-01T13:30:06Z</time>
      </trkpt>
      <trkpt lat="41.6040880" lon="2.0100240">
        <ele>561.6</ele>
        <time>2019-12-01T13:30:07Z</time>
      </trkpt>
      <trkpt lat="41.6041040" lon="2.0099280">
        <ele>561.8</ele>
        <time>2019-12-01T13:30:09Z</time>
      </trkpt>
      <trkpt lat="41.6041150" lon="2.0098830">
        <ele>561.9</ele>
        <time>2019-12-01T13:30:11Z</time>
      </trkpt>
      <trkpt lat="41.6041250" lon="2.0098280">
        <ele>562.0</ele>
        <time>2019-12-01T13:30:12Z</time>
      </trkpt>
      <trkpt lat="41.6041320" lon="2.0097890">
        <ele>562.1</ele>
        <time>2019-12-01T13:30:13Z</time>
      </trkpt>
      <trkpt lat="41.6041390" lon="2.0097490">
        <ele>562.2</ele>
        <time>2019-12-01T13:30:14Z</time>
      </trkpt>
      <trkpt lat="41.6041460" lon="2.0096790">
        <ele>562.3</ele>
        <time>2019-12-01T13:30:17Z</time>
      </trkpt>
      <trkpt lat="41.6041490" lon="2.0096420">
        <ele>562.4</ele>
        <time>2019-12-01T13:30:18Z</time>
      </trkpt>
      <trkpt lat="41.6041620" lon="2.0095490">
        <ele>562.4</ele>
        <time>2019-12-01T13:30:21Z</time>
      </trkpt>
      <trkpt lat="41.6041740" lon="2.0094900">
        <ele>562.5</ele>
        <time>2019-12-01T13:30:22Z</time>
      </trkpt>
      <trkpt lat="41.6041860" lon="2.0094510">
        <ele>562.5</ele>
        <time>2019-12-01T13:30:23Z</time>
      </trkpt>
      <trkpt lat="41.6042110" lon="2.0093810">
        <ele>562.6</ele>
        <time>2019-12-01T13:30:25Z</time>
      </trkpt>
      <trkpt lat="41.6042240" lon="2.0093500">
        <ele>562.6</ele>
        <time>2019-12-01T13:30:26Z</time>
      </trkpt>
      <trkpt lat="41.6042430" lon="2.0093080">
        <ele>562.7</ele>
        <time>2019-12-01T13:30:27Z</time>
      </trkpt>
      <trkpt lat="41.6042600" lon="2.0092680">
        <ele>562.8</ele>
        <time>2019-12-01T13:30:28Z</time>
      </trkpt>
      <trkpt lat="41.6042770" lon="2.0092280">
        <ele>562.9</ele>
        <time>2019-12-01T13:30:29Z</time>
      </trkpt>
      <trkpt lat="41.6042940" lon="2.0091930">
        <ele>562.9</ele>
        <time>2019-12-01T13:30:30Z</time>
      </trkpt>
      <trkpt lat="41.6043180" lon="2.0091490">
        <ele>563.1</ele>
        <time>2019-12-01T13:30:32Z</time>
      </trkpt>
      <trkpt lat="41.6043540" lon="2.0090940">
        <ele>563.3</ele>
        <time>2019-12-01T13:30:33Z</time>
      </trkpt>
      <trkpt lat="41.6043810" lon="2.0090560">
        <ele>563.4</ele>
        <time>2019-12-01T13:30:34Z</time>
      </trkpt>
      <trkpt lat="41.6044040" lon="2.0090260">
        <ele>563.5</ele>
        <time>2019-12-01T13:30:35Z</time>
      </trkpt>
      <trkpt lat="41.6044260" lon="2.0089940">
        <ele>563.4</ele>
        <time>2019-12-01T13:30:37Z</time>
      </trkpt>
      <trkpt lat="41.6044530" lon="2.0089430">
        <ele>563.2</ele>
        <time>2019-12-01T13:30:38Z</time>
      </trkpt>
      <trkpt lat="41.6044810" lon="2.0088990">
        <ele>563.0</ele>
        <time>2019-12-01T13:30:40Z</time>
      </trkpt>
      <trkpt lat="41.6045050" lon="2.0088590">
        <ele>562.9</ele>
        <time>2019-12-01T13:30:41Z</time>
      </trkpt>
      <trkpt lat="41.6045360" lon="2.0088100">
        <ele>562.6</ele>
        <time>2019-12-01T13:30:44Z</time>
      </trkpt>
      <trkpt lat="41.6045790" lon="2.0087410">
        <ele>562.4</ele>
        <time>2019-12-01T13:30:47Z</time>
      </trkpt>
      <trkpt lat="41.6045970" lon="2.0087110">
        <ele>562.3</ele>
        <time>2019-12-01T13:30:48Z</time>
      </trkpt>
      <trkpt lat="41.6046150" lon="2.0086810">
        <ele>562.2</ele>
        <time>2019-12-01T13:30:49Z</time>
      </trkpt>
      <trkpt lat="41.6046530" lon="2.0086320">
        <ele>562.0</ele>
        <time>2019-12-01T13:30:51Z</time>
      </trkpt>
      <trkpt lat="41.6046730" lon="2.0086050">
        <ele>561.9</ele>
        <time>2019-12-01T13:30:52Z</time>
      </trkpt>
      <trkpt lat="41.6047110" lon="2.0085490">
        <ele>561.6</ele>
        <time>2019-12-01T13:30:54Z</time>
      </trkpt>
      <trkpt lat="41.6047340" lon="2.0085200">
        <ele>561.5</ele>
        <time>2019-12-01T13:30:56Z</time>
      </trkpt>
      <trkpt lat="41.6047730" lon="2.0084860">
        <ele>561.3</ele>
        <time>2019-12-01T13:30:57Z</time>
      </trkpt>
      <trkpt lat="41.6048000" lon="2.0084680">
        <ele>561.2</ele>
        <time>2019-12-01T13:30:58Z</time>
      </trkpt>
      <trkpt lat="41.6048290" lon="2.0084570">
        <ele>561.1</ele>
        <time>2019-12-01T13:31:00Z</time>
      </trkpt>
      <trkpt lat="41.6048670" lon="2.0084510">
        <ele>560.9</ele>
        <time>2019-12-01T13:31:01Z</time>
      </trkpt>
      <trkpt lat="41.6049150" lon="2.0084760">
        <ele>561.2</ele>
        <time>2019-12-01T13:31:04Z</time>
      </trkpt>
      <trkpt lat="41.6049100" lon="2.0085400">
        <ele>562.0</ele>
        <time>2019-12-01T13:31:05Z</time>
      </trkpt>
      <trkpt lat="41.6049060" lon="2.0085770">
        <ele>562.5</ele>
        <time>2019-12-01T13:31:06Z</time>
      </trkpt>
      <trkpt lat="41.6048950" lon="2.0086110">
        <ele>563.0</ele>
        <time>2019-12-01T13:31:08Z</time>
      </trkpt>
      <trkpt lat="41.6048810" lon="2.0086430">
        <ele>563.4</ele>
        <time>2019-12-01T13:31:09Z</time>
      </trkpt>
      <trkpt lat="41.6048640" lon="2.0086740">
        <ele>563.9</ele>
        <time>2019-12-01T13:31:10Z</time>
      </trkpt>
      <trkpt lat="41.6048440" lon="2.0087240">
        <ele>564.5</ele>
        <time>2019-12-01T13:31:12Z</time>
      </trkpt>
      <trkpt lat="41.6048220" lon="2.0087800">
        <ele>565.2</ele>
        <time>2019-12-01T13:31:14Z</time>
      </trkpt>
      <trkpt lat="41.6048000" lon="2.0088420">
        <ele>565.9</ele>
        <time>2019-12-01T13:31:17Z</time>
      </trkpt>
      <trkpt lat="41.6047790" lon="2.0088980">
        <ele>566.5</ele>
        <time>2019-12-01T13:31:19Z</time>
      </trkpt>
      <trkpt lat="41.6047620" lon="2.0089520">
        <ele>567.0</ele>
        <time>2019-12-01T13:31:21Z</time>
      </trkpt>
      <trkpt lat="41.6047460" lon="2.0090000">
        <ele>567.5</ele>
        <time>2019-12-01T13:31:24Z</time>
      </trkpt>
      <trkpt lat="41.6047280" lon="2.0090570">
        <ele>567.9</ele>
        <time>2019-12-01T13:31:26Z</time>
      </trkpt>
      <trkpt lat="41.6047170" lon="2.0090980">
        <ele>568.2</ele>
        <time>2019-12-01T13:31:29Z</time>
      </trkpt>
      <trkpt lat="41.6047060" lon="2.0091470">
        <ele>568.6</ele>
        <time>2019-12-01T13:31:31Z</time>
      </trkpt>
      <trkpt lat="41.6046990" lon="2.0091820">
        <ele>568.8</ele>
        <time>2019-12-01T13:31:32Z</time>
      </trkpt>
      <trkpt lat="41.6046900" lon="2.0092280">
        <ele>569.0</ele>
        <time>2019-12-01T13:31:35Z</time>
      </trkpt>
      <trkpt lat="41.6046760" lon="2.0092870">
        <ele>569.1</ele>
        <time>2019-12-01T13:31:38Z</time>
      </trkpt>
      <trkpt lat="41.6046630" lon="2.0093310">
        <ele>569.2</ele>
        <time>2019-12-01T13:31:40Z</time>
      </trkpt>
      <trkpt lat="41.6046520" lon="2.0093770">
        <ele>569.3</ele>
        <time>2019-12-01T13:31:42Z</time>
      </trkpt>
      <trkpt lat="41.6046260" lon="2.0094610">
        <ele>569.6</ele>
        <time>2019-12-01T13:31:46Z</time>
      </trkpt>
      <trkpt lat="41.6046120" lon="2.0095010">
        <ele>569.7</ele>
        <time>2019-12-01T13:31:48Z</time>
      </trkpt>
      <trkpt lat="41.6045930" lon="2.0095570">
        <ele>569.9</ele>
        <time>2019-12-01T13:31:50Z</time>
      </trkpt>
      <trkpt lat="41.6045690" lon="2.0096210">
        <ele>570.1</ele>
        <time>2019-12-01T13:31:52Z</time>
      </trkpt>
      <trkpt lat="41.6045410" lon="2.0096790">
        <ele>570.4</ele>
        <time>2019-12-01T13:31:55Z</time>
      </trkpt>
      <trkpt lat="41.6045260" lon="2.0097110">
        <ele>570.5</ele>
        <time>2019-12-01T13:31:56Z</time>
      </trkpt>
      <trkpt lat="41.6045120" lon="2.0097430">
        <ele>570.6</ele>
        <time>2019-12-01T13:31:57Z</time>
      </trkpt>
      <trkpt lat="41.6044900" lon="2.0098050">
        <ele>570.8</ele>
        <time>2019-12-01T13:32:00Z</time>
      </trkpt>
      <trkpt lat="41.6044710" lon="2.0098710">
        <ele>571.1</ele>
        <time>2019-12-01T13:32:02Z</time>
      </trkpt>
      <trkpt lat="41.6044620" lon="2.0099300">
        <ele>571.2</ele>
        <time>2019-12-01T13:32:05Z</time>
      </trkpt>
      <trkpt lat="41.6044560" lon="2.0099860">
        <ele>571.4</ele>
        <time>2019-12-01T13:32:07Z</time>
      </trkpt>
      <trkpt lat="41.6044480" lon="2.0100590">
        <ele>571.6</ele>
        <time>2019-12-01T13:32:09Z</time>
      </trkpt>
      <trkpt lat="41.6044410" lon="2.0101270">
        <ele>571.9</ele>
        <time>2019-12-01T13:32:12Z</time>
      </trkpt>
      <trkpt lat="41.6044330" lon="2.0101910">
        <ele>572.2</ele>
        <time>2019-12-01T13:32:14Z</time>
      </trkpt>
      <trkpt lat="41.6044260" lon="2.0102330">
        <ele>572.3</ele>
        <time>2019-12-01T13:32:16Z</time>
      </trkpt>
      <trkpt lat="41.6044170" lon="2.0102990">
        <ele>572.7</ele>
        <time>2019-12-01T13:32:18Z</time>
      </trkpt>
      <trkpt lat="41.6044050" lon="2.0103650">
        <ele>573.1</ele>
        <time>2019-12-01T13:32:20Z</time>
      </trkpt>
      <trkpt lat="41.6043970" lon="2.0104260">
        <ele>573.4</ele>
        <time>2019-12-01T13:32:23Z</time>
      </trkpt>
      <trkpt lat="41.6043920" lon="2.0104620">
        <ele>573.6</ele>
        <time>2019-12-01T13:32:24Z</time>
      </trkpt>
      <trkpt lat="41.6043840" lon="2.0105150">
        <ele>573.8</ele>
        <time>2019-12-01T13:32:25Z</time>
      </trkpt>
      <trkpt lat="41.6043770" lon="2.0105500">
        <ele>573.9</ele>
        <time>2019-12-01T13:32:27Z</time>
      </trkpt>
      <trkpt lat="41.6043650" lon="2.0106010">
        <ele>574.2</ele>
        <time>2019-12-01T13:32:28Z</time>
      </trkpt>
      <trkpt lat="41.6043560" lon="2.0106380">
        <ele>574.4</ele>
        <time>2019-12-01T13:32:29Z</time>
      </trkpt>
      <trkpt lat="41.6043490" lon="2.0106740">
        <ele>574.5</ele>
        <time>2019-12-01T13:32:30Z</time>
      </trkpt>
      <trkpt lat="41.6043280" lon="2.0107540">
        <ele>574.9</ele>
        <time>2019-12-01T13:32:33Z</time>
      </trkpt>
      <trkpt lat="41.6043130" lon="2.0108110">
        <ele>575.1</ele>
        <time>2019-12-01T13:32:35Z</time>
      </trkpt>
      <trkpt lat="41.6043070" lon="2.0108500">
        <ele>575.2</ele>
        <time>2019-12-01T13:32:37Z</time>
      </trkpt>
      <trkpt lat="41.6043050" lon="2.0109040">
        <ele>575.4</ele>
        <time>2019-12-01T13:32:39Z</time>
      </trkpt>
      <trkpt lat="41.6043240" lon="2.0109690">
        <ele>575.7</ele>
        <time>2019-12-01T13:32:42Z</time>
      </trkpt>
      <trkpt lat="41.6043480" lon="2.0109940">
        <ele>575.9</ele>
        <time>2019-12-01T13:32:43Z</time>
      </trkpt>
      <trkpt lat="41.6043750" lon="2.0109930">
        <ele>576.0</ele>
        <time>2019-12-01T13:32:45Z</time>
      </trkpt>
      <trkpt lat="41.6044160" lon="2.0109730">
        <ele>576.3</ele>
        <time>2019-12-01T13:32:46Z</time>
      </trkpt>
      <trkpt lat="41.6044580" lon="2.0109150">
        <ele>576.6</ele>
        <time>2019-12-01T13:32:49Z</time>
      </trkpt>
      <trkpt lat="41.6044770" lon="2.0108480">
        <ele>576.9</ele>
        <time>2019-12-01T13:32:51Z</time>
      </trkpt>
      <trkpt lat="41.6044860" lon="2.0108120">
        <ele>577.0</ele>
        <time>2019-12-01T13:32:52Z</time>
      </trkpt>
      <trkpt lat="41.6044940" lon="2.0107710">
        <ele>577.1</ele>
        <time>2019-12-01T13:32:53Z</time>
      </trkpt>
      <trkpt lat="41.6045020" lon="2.0107340">
        <ele>577.3</ele>
        <time>2019-12-01T13:32:54Z</time>
      </trkpt>
      <trkpt lat="41.6045130" lon="2.0106780">
        <ele>577.5</ele>
        <time>2019-12-01T13:32:56Z</time>
      </trkpt>
      <trkpt lat="41.6045230" lon="2.0106390">
        <ele>577.6</ele>
        <time>2019-12-01T13:32:57Z</time>
      </trkpt>
      <trkpt lat="41.6045320" lon="2.0105960">
        <ele>577.7</ele>
        <time>2019-12-01T13:32:58Z</time>
      </trkpt>
      <trkpt lat="41.6045420" lon="2.0105440">
        <ele>577.9</ele>
        <time>2019-12-01T13:33:00Z</time>
      </trkpt>
      <trkpt lat="41.6045490" lon="2.0104900">
        <ele>578.1</ele>
        <time>2019-12-01T13:33:01Z</time>
      </trkpt>
      <trkpt lat="41.6045650" lon="2.0104160">
        <ele>578.3</ele>
        <time>2019-12-01T13:33:03Z</time>
      </trkpt>
      <trkpt lat="41.6045740" lon="2.0103800">
        <ele>578.5</ele>
        <time>2019-12-01T13:33:04Z</time>
      </trkpt>
      <trkpt lat="41.6045830" lon="2.0103380">
        <ele>578.6</ele>
        <time>2019-12-01T13:33:06Z</time>
      </trkpt>
      <trkpt lat="41.6046250" lon="2.0102200">
        <ele>578.8</ele>
        <time>2019-12-01T13:37:35Z</time>
      </trkpt>
      <trkpt lat="41.6046470" lon="2.0102630">
        <ele>578.8</ele>
        <time>2019-12-01T13:37:37Z</time>
      </trkpt>
      <trkpt lat="41.6046610" lon="2.0103020">
        <ele>578.8</ele>
        <time>2019-12-01T13:37:38Z</time>
      </trkpt>
      <trkpt lat="41.6046870" lon="2.0103500">
        <ele>578.7</ele>
        <time>2019-12-01T13:37:40Z</time>
      </trkpt>
      <trkpt lat="41.6047050" lon="2.0103980">
        <ele>578.6</ele>
        <time>2019-12-01T13:37:42Z</time>
      </trkpt>
      <trkpt lat="41.6047350" lon="2.0104500">
        <ele>578.7</ele>
        <time>2019-12-01T13:37:44Z</time>
      </trkpt>
      <trkpt lat="41.6047580" lon="2.0104770">
        <ele>578.7</ele>
        <time>2019-12-01T13:37:46Z</time>
      </trkpt>
      <trkpt lat="41.6047790" lon="2.0105130">
        <ele>578.8</ele>
        <time>2019-12-01T13:37:47Z</time>
      </trkpt>
      <trkpt lat="41.6048070" lon="2.0105800">
        <ele>579.1</ele>
        <time>2019-12-01T13:37:50Z</time>
      </trkpt>
      <trkpt lat="41.6048200" lon="2.0106160">
        <ele>579.4</ele>
        <time>2019-12-01T13:37:52Z</time>
      </trkpt>
      <trkpt lat="41.6048490" lon="2.0106780">
        <ele>580.1</ele>
        <time>2019-12-01T13:37:55Z</time>
      </trkpt>
      <trkpt lat="41.6048700" lon="2.0107150">
        <ele>580.5</ele>
        <time>2019-12-01T13:37:56Z</time>
      </trkpt>
      <trkpt lat="41.6048920" lon="2.0107420">
        <ele>581.0</ele>
        <time>2019-12-01T13:37:58Z</time>
      </trkpt>
      <trkpt lat="41.6049280" lon="2.0107650">
        <ele>581.5</ele>
        <time>2019-12-01T13:38:00Z</time>
      </trkpt>
      <trkpt lat="41.6049610" lon="2.0107710">
        <ele>581.9</ele>
        <time>2019-12-01T13:38:02Z</time>
      </trkpt>
      <trkpt lat="41.6049890" lon="2.0107500">
        <ele>582.2</ele>
        <time>2019-12-01T13:38:06Z</time>
      </trkpt>
      <trkpt lat="41.6050180" lon="2.0107530">
        <ele>582.5</ele>
        <time>2019-12-01T13:38:09Z</time>
      </trkpt>
      <trkpt lat="41.6050500" lon="2.0107570">
        <ele>582.7</ele>
        <time>2019-12-01T13:38:12Z</time>
      </trkpt>
      <trkpt lat="41.6050910" lon="2.0107460">
        <ele>583.0</ele>
        <time>2019-12-01T13:38:14Z</time>
      </trkpt>
      <trkpt lat="41.6051400" lon="2.0107440">
        <ele>583.2</ele>
        <time>2019-12-01T13:38:16Z</time>
      </trkpt>
      <trkpt lat="41.6051670" lon="2.0107570">
        <ele>582.1</ele>
        <time>2019-12-01T13:38:18Z</time>
      </trkpt>
      <trkpt lat="41.6051880" lon="2.0107850">
        <ele>581.2</ele>
        <time>2019-12-01T13:38:21Z</time>
      </trkpt>
      <trkpt lat="41.6052150" lon="2.0107160">
        <ele>580.6</ele>
        <time>2019-12-01T13:38:29Z</time>
      </trkpt>
      <trkpt lat="41.6052500" lon="2.0106460">
        <ele>579.9</ele>
        <time>2019-12-01T13:38:31Z</time>
      </trkpt>
      <trkpt lat="41.6052800" lon="2.0105870">
        <ele>579.1</ele>
        <time>2019-12-01T13:38:32Z</time>
      </trkpt>
      <trkpt lat="41.6052990" lon="2.0105280">
        <ele>579.1</ele>
        <time>2019-12-01T13:38:33Z</time>
      </trkpt>
      <trkpt lat="41.6053200" lon="2.0104430">
        <ele>578.3</ele>
        <time>2019-12-01T13:38:34Z</time>
      </trkpt>
      <trkpt lat="41.6053370" lon="2.0103820">
        <ele>577.3</ele>
        <time>2019-12-01T13:38:35Z</time>
      </trkpt>
      <trkpt lat="41.6053560" lon="2.0103200">
        <ele>577.1</ele>
        <time>2019-12-01T13:38:36Z</time>
      </trkpt>
      <trkpt lat="41.6053750" lon="2.0102690">
        <ele>576.1</ele>
        <time>2019-12-01T13:38:37Z</time>
      </trkpt>
      <trkpt lat="41.6053880" lon="2.0102270">
        <ele>575.9</ele>
        <time>2019-12-01T13:38:39Z</time>
      </trkpt>
      <trkpt lat="41.6054030" lon="2.0101960">
        <ele>575.0</ele>
        <time>2019-12-01T13:38:40Z</time>
      </trkpt>
      <trkpt lat="41.6054210" lon="2.0101580">
        <ele>574.8</ele>
        <time>2019-12-01T13:38:41Z</time>
      </trkpt>
      <trkpt lat="41.6054410" lon="2.0101300">
        <ele>573.9</ele>
        <time>2019-12-01T13:38:42Z</time>
      </trkpt>
      <trkpt lat="41.6054620" lon="2.0101020">
        <ele>573.6</ele>
        <time>2019-12-01T13:38:44Z</time>
      </trkpt>
      <trkpt lat="41.6054850" lon="2.0100390">
        <ele>572.7</ele>
        <time>2019-12-01T13:38:46Z</time>
      </trkpt>
      <trkpt lat="41.6055270" lon="2.0099990">
        <ele>571.7</ele>
        <time>2019-12-01T13:38:49Z</time>
      </trkpt>
      <trkpt lat="41.6055530" lon="2.0099820">
        <ele>570.5</ele>
        <time>2019-12-01T13:38:51Z</time>
      </trkpt>
      <trkpt lat="41.6055830" lon="2.0099690">
        <ele>569.4</ele>
        <time>2019-12-01T13:38:53Z</time>
      </trkpt>
      <trkpt lat="41.6056150" lon="2.0099510">
        <ele>568.4</ele>
        <time>2019-12-01T13:38:55Z</time>
      </trkpt>
      <trkpt lat="41.6056460" lon="2.0099220">
        <ele>567.3</ele>
        <time>2019-12-01T13:38:58Z</time>
      </trkpt>
      <trkpt lat="41.6056690" lon="2.0098700">
        <ele>566.2</ele>
        <time>2019-12-01T13:39:01Z</time>
      </trkpt>
      <trkpt lat="41.6056900" lon="2.0098240">
        <ele>565.1</ele>
        <time>2019-12-01T13:39:04Z</time>
      </trkpt>
      <trkpt lat="41.6057100" lon="2.0097720">
        <ele>564.8</ele>
        <time>2019-12-01T13:39:06Z</time>
      </trkpt>
      <trkpt lat="41.6057240" lon="2.0097220">
        <ele>563.5</ele>
        <time>2019-12-01T13:39:08Z</time>
      </trkpt>
      <trkpt lat="41.6057320" lon="2.0096270">
        <ele>562.9</ele>
        <time>2019-12-01T13:39:12Z</time>
      </trkpt>
      <trkpt lat="41.6057310" lon="2.0095760">
        <ele>562.5</ele>
        <time>2019-12-01T13:39:15Z</time>
      </trkpt>
      <trkpt lat="41.6057340" lon="2.0095210">
        <ele>562.0</ele>
        <time>2019-12-01T13:39:17Z</time>
      </trkpt>
      <trkpt lat="41.6057420" lon="2.0094640">
        <ele>561.2</ele>
        <time>2019-12-01T13:39:20Z</time>
      </trkpt>
      <trkpt lat="41.6057510" lon="2.0094230">
        <ele>560.6</ele>
        <time>2019-12-01T13:39:23Z</time>
      </trkpt>
      <trkpt lat="41.6057640" lon="2.0093900">
        <ele>559.6</ele>
        <time>2019-12-01T13:39:25Z</time>
      </trkpt>
      <trkpt lat="41.6057780" lon="2.0093580">
        <ele>559.1</ele>
        <time>2019-12-01T13:39:27Z</time>
      </trkpt>
      <trkpt lat="41.6057900" lon="2.0093190">
        <ele>557.6</ele>
        <time>2019-12-01T13:39:30Z</time>
      </trkpt>
      <trkpt lat="41.6058020" lon="2.0092870">
        <ele>557.1</ele>
        <time>2019-12-01T13:39:32Z</time>
      </trkpt>
      <trkpt lat="41.6058060" lon="2.0092490">
        <ele>556.5</ele>
        <time>2019-12-01T13:39:34Z</time>
      </trkpt>
      <trkpt lat="41.6058100" lon="2.0092010">
        <ele>555.8</ele>
        <time>2019-12-01T13:39:37Z</time>
      </trkpt>
      <trkpt lat="41.6058040" lon="2.0091440">
        <ele>555.2</ele>
        <time>2019-12-01T13:39:39Z</time>
      </trkpt>
      <trkpt lat="41.6058030" lon="2.0091060">
        <ele>554.6</ele>
        <time>2019-12-01T13:39:40Z</time>
      </trkpt>
      <trkpt lat="41.6058070" lon="2.0090400">
        <ele>553.9</ele>
        <time>2019-12-01T13:39:43Z</time>
      </trkpt>
      <trkpt lat="41.6058170" lon="2.0089940">
        <ele>551.7</ele>
        <time>2019-12-01T13:39:45Z</time>
      </trkpt>
      <trkpt lat="41.6058350" lon="2.0089360">
        <ele>551.1</ele>
        <time>2019-12-01T13:39:49Z</time>
      </trkpt>
      <trkpt lat="41.6058450" lon="2.0088930">
        <ele>550.5</ele>
        <time>2019-12-01T13:39:52Z</time>
      </trkpt>
      <trkpt lat="41.6058440" lon="2.0088440">
        <ele>549.9</ele>
        <time>2019-12-01T13:39:55Z</time>
      </trkpt>
      <trkpt lat="41.6058440" lon="2.0088070">
        <ele>549.4</ele>
        <time>2019-12-01T13:39:56Z</time>
      </trkpt>
      <trkpt lat="41.6058460" lon="2.0087450">
        <ele>548.9</ele>
        <time>2019-12-01T13:39:59Z</time>
      </trkpt>
      <trkpt lat="41.6058500" lon="2.0086900">
        <ele>547.1</ele>
        <time>2019-12-01T13:40:01Z</time>
      </trkpt>
      <trkpt lat="41.6058570" lon="2.0086310">
        <ele>546.7</ele>
        <time>2019-12-01T13:40:03Z</time>
      </trkpt>
      <trkpt lat="41.6058620" lon="2.0085910">
        <ele>546.3</ele>
        <time>2019-12-01T13:40:05Z</time>
      </trkpt>
      <trkpt lat="41.6058710" lon="2.0085200">
        <ele>545.9</ele>
        <time>2019-12-01T13:40:08Z</time>
      </trkpt>
      <trkpt lat="41.6058760" lon="2.0084780">
        <ele>545.7</ele>
        <time>2019-12-01T13:40:09Z</time>
      </trkpt>
      <trkpt lat="41.6058830" lon="2.0084260">
        <ele>544.6</ele>
        <time>2019-12-01T13:40:12Z</time>
      </trkpt>
      <trkpt lat="41.6058910" lon="2.0083650">
        <ele>544.5</ele>
        <time>2019-12-01T13:40:14Z</time>
      </trkpt>
      <trkpt lat="41.6059070" lon="2.0082950">
        <ele>544.5</ele>
        <time>2019-12-01T13:40:16Z</time>
      </trkpt>
      <trkpt lat="41.6059160" lon="2.0082510">
        <ele>543.6</ele>
        <time>2019-12-01T13:40:17Z</time>
      </trkpt>
      <trkpt lat="41.6059250" lon="2.0082100">
        <ele>543.7</ele>
        <time>2019-12-01T13:40:18Z</time>
      </trkpt>
      <trkpt lat="41.6059350" lon="2.0081300">
        <ele>544.0</ele>
        <time>2019-12-01T13:40:20Z</time>
      </trkpt>
      <trkpt lat="41.6059390" lon="2.0080930">
        <ele>544.2</ele>
        <time>2019-12-01T13:40:21Z</time>
      </trkpt>
      <trkpt lat="41.6059510" lon="2.0080530">
        <ele>543.2</ele>
        <time>2019-12-01T13:40:22Z</time>
      </trkpt>
      <trkpt lat="41.6059590" lon="2.0079970">
        <ele>543.7</ele>
        <time>2019-12-01T13:40:25Z</time>
      </trkpt>
      <trkpt lat="41.6059750" lon="2.0079230">
        <ele>544.3</ele>
        <time>2019-12-01T13:40:27Z</time>
      </trkpt>
      <trkpt lat="41.6059740" lon="2.0078720">
        <ele>544.5</ele>
        <time>2019-12-01T13:40:29Z</time>
      </trkpt>
      <trkpt lat="41.6059620" lon="2.0078290">
        <ele>544.8</ele>
        <time>2019-12-01T13:40:30Z</time>
      </trkpt>
      <trkpt lat="41.6058370" lon="2.0076810">
        <ele>548.4</ele>
        <time>2019-12-01T13:40:50Z</time>
      </trkpt>
      <trkpt lat="41.6057980" lon="2.0076410">
        <ele>548.9</ele>
        <time>2019-12-01T13:40:53Z</time>
      </trkpt>
      <trkpt lat="41.6057740" lon="2.0076110">
        <ele>549.2</ele>
        <time>2019-12-01T13:40:54Z</time>
      </trkpt>
      <trkpt lat="41.6057300" lon="2.0075390">
        <ele>550.0</ele>
        <time>2019-12-01T13:40:56Z</time>
      </trkpt>
      <trkpt lat="41.6057140" lon="2.0075030">
        <ele>550.3</ele>
        <time>2019-12-01T13:40:58Z</time>
      </trkpt>
      <trkpt lat="41.6057000" lon="2.0074490">
        <ele>550.8</ele>
        <time>2019-12-01T13:41:00Z</time>
      </trkpt>
      <trkpt lat="41.6056660" lon="2.0074210">
        <ele>551.3</ele>
        <time>2019-12-01T13:41:04Z</time>
      </trkpt>
      <trkpt lat="41.6056390" lon="2.0073970">
        <ele>551.7</ele>
        <time>2019-12-01T13:41:05Z</time>
      </trkpt>
      <trkpt lat="41.6056130" lon="2.0073750">
        <ele>552.1</ele>
        <time>2019-12-01T13:41:07Z</time>
      </trkpt>
      <trkpt lat="41.6055720" lon="2.0073480">
        <ele>552.6</ele>
        <time>2019-12-01T13:41:09Z</time>
      </trkpt>
      <trkpt lat="41.6055470" lon="2.0073300">
        <ele>552.9</ele>
        <time>2019-12-01T13:41:11Z</time>
      </trkpt>
      <trkpt lat="41.6055050" lon="2.0073020">
        <ele>553.3</ele>
        <time>2019-12-01T13:41:14Z</time>
      </trkpt>
      <trkpt lat="41.6054750" lon="2.0072860">
        <ele>553.7</ele>
        <time>2019-12-01T13:41:17Z</time>
      </trkpt>
      <trkpt lat="41.6053990" lon="2.0070700">
        <ele>554.7</ele>
        <time>2019-12-01T13:41:50Z</time>
      </trkpt>
      <trkpt lat="41.6053830" lon="2.0070390">
        <ele>554.4</ele>
        <time>2019-12-01T13:41:51Z</time>
      </trkpt>
      <trkpt lat="41.6053690" lon="2.0070010">
        <ele>554.3</ele>
        <time>2019-12-01T13:41:53Z</time>
      </trkpt>
      <trkpt lat="41.6053470" lon="2.0069420">
        <ele>553.9</ele>
        <time>2019-12-01T13:41:55Z</time>
      </trkpt>
      <trkpt lat="41.6053270" lon="2.0069050">
        <ele>553.7</ele>
        <time>2019-12-01T13:41:56Z</time>
      </trkpt>
      <trkpt lat="41.6052890" lon="2.0068570">
        <ele>553.4</ele>
        <time>2019-12-01T13:41:58Z</time>
      </trkpt>
      <trkpt lat="41.6052630" lon="2.0068240">
        <ele>553.1</ele>
        <time>2019-12-01T13:41:59Z</time>
      </trkpt>
      <trkpt lat="41.6052440" lon="2.0067890">
        <ele>552.9</ele>
        <time>2019-12-01T13:42:00Z</time>
      </trkpt>
      <trkpt lat="41.6052270" lon="2.0067530">
        <ele>552.7</ele>
        <time>2019-12-01T13:42:01Z</time>
      </trkpt>
      <trkpt lat="41.6052100" lon="2.0067060">
        <ele>552.6</ele>
        <time>2019-12-01T13:42:02Z</time>
      </trkpt>
      <trkpt lat="41.6051880" lon="2.0066320">
        <ele>552.5</ele>
        <time>2019-12-01T13:42:05Z</time>
      </trkpt>
      <trkpt lat="41.6051810" lon="2.0065960">
        <ele>552.5</ele>
        <time>2019-12-01T13:42:06Z</time>
      </trkpt>
      <trkpt lat="41.6051740" lon="2.0065590">
        <ele>552.4</ele>
        <time>2019-12-01T13:42:07Z</time>
      </trkpt>
      <trkpt lat="41.6051570" lon="2.0064960">
        <ele>552.4</ele>
        <time>2019-12-01T13:42:09Z</time>
      </trkpt>
      <trkpt lat="41.6051510" lon="2.0064590">
        <ele>552.4</ele>
        <time>2019-12-01T13:42:11Z</time>
      </trkpt>
      <trkpt lat="41.6051590" lon="2.0064080">
        <ele>552.4</ele>
        <time>2019-12-01T13:42:13Z</time>
      </trkpt>
      <trkpt lat="41.6051680" lon="2.0063590">
        <ele>552.4</ele>
        <time>2019-12-01T13:42:15Z</time>
      </trkpt>
      <trkpt lat="41.6051780" lon="2.0062960">
        <ele>552.5</ele>
        <time>2019-12-01T13:42:18Z</time>
      </trkpt>
      <trkpt lat="41.6051960" lon="2.0062380">
        <ele>552.6</ele>
        <time>2019-12-01T13:42:20Z</time>
      </trkpt>
      <trkpt lat="41.6052110" lon="2.0062040">
        <ele>552.6</ele>
        <time>2019-12-01T13:42:23Z</time>
      </trkpt>
      <trkpt lat="41.6052130" lon="2.0061660">
        <ele>552.7</ele>
        <time>2019-12-01T13:42:25Z</time>
      </trkpt>
      <trkpt lat="41.6052160" lon="2.0061190">
        <ele>552.8</ele>
        <time>2019-12-01T13:42:27Z</time>
      </trkpt>
      <trkpt lat="41.6052280" lon="2.0060710">
        <ele>552.9</ele>
        <time>2019-12-01T13:42:30Z</time>
      </trkpt>
      <trkpt lat="41.6052390" lon="2.0060230">
        <ele>553.0</ele>
        <time>2019-12-01T13:42:32Z</time>
      </trkpt>
      <trkpt lat="41.6052420" lon="2.0059680">
        <ele>553.1</ele>
        <time>2019-12-01T13:42:33Z</time>
      </trkpt>
      <trkpt lat="41.6052450" lon="2.0059280">
        <ele>553.2</ele>
        <time>2019-12-01T13:42:34Z</time>
      </trkpt>
      <trkpt lat="41.6052480" lon="2.0058880">
        <ele>553.4</ele>
        <time>2019-12-01T13:42:35Z</time>
      </trkpt>
      <trkpt lat="41.6052460" lon="2.0058460">
        <ele>553.4</ele>
        <time>2019-12-01T13:42:37Z</time>
      </trkpt>
      <trkpt lat="41.6052360" lon="2.0057800">
        <ele>553.6</ele>
        <time>2019-12-01T13:42:38Z</time>
      </trkpt>
      <trkpt lat="41.6052250" lon="2.0057030">
        <ele>553.7</ele>
        <time>2019-12-01T13:42:41Z</time>
      </trkpt>
      <trkpt lat="41.6052210" lon="2.0056390">
        <ele>553.9</ele>
        <time>2019-12-01T13:42:43Z</time>
      </trkpt>
      <trkpt lat="41.6052170" lon="2.0055750">
        <ele>554.0</ele>
        <time>2019-12-01T13:42:45Z</time>
      </trkpt>
      <trkpt lat="41.6052140" lon="2.0055050">
        <ele>554.2</ele>
        <time>2019-12-01T13:42:48Z</time>
      </trkpt>
      <trkpt lat="41.6052160" lon="2.0054680">
        <ele>554.3</ele>
        <time>2019-12-01T13:42:49Z</time>
      </trkpt>
      <trkpt lat="41.6052180" lon="2.0054290">
        <ele>554.4</ele>
        <time>2019-12-01T13:42:50Z</time>
      </trkpt>
      <trkpt lat="41.6052190" lon="2.0053890">
        <ele>554.5</ele>
        <time>2019-12-01T13:42:51Z</time>
      </trkpt>
      <trkpt lat="41.6052210" lon="2.0053460">
        <ele>554.5</ele>
        <time>2019-12-01T13:42:52Z</time>
      </trkpt>
      <trkpt lat="41.6052270" lon="2.0053010">
        <ele>554.6</ele>
        <time>2019-12-01T13:42:53Z</time>
      </trkpt>
      <trkpt lat="41.6052330" lon="2.0052570">
        <ele>554.7</ele>
        <time>2019-12-01T13:42:54Z</time>
      </trkpt>
      <trkpt lat="41.6052400" lon="2.0052170">
        <ele>554.7</ele>
        <time>2019-12-01T13:42:55Z</time>
      </trkpt>
      <trkpt lat="41.6052450" lon="2.0051800">
        <ele>554.8</ele>
        <time>2019-12-01T13:42:56Z</time>
      </trkpt>
      <trkpt lat="41.6052450" lon="2.0051240">
        <ele>554.9</ele>
        <time>2019-12-01T13:42:59Z</time>
      </trkpt>
      <trkpt lat="41.6052450" lon="2.0050730">
        <ele>555.0</ele>
        <time>2019-12-01T13:43:01Z</time>
      </trkpt>
      <trkpt lat="41.6052390" lon="2.0050220">
        <ele>555.1</ele>
        <time>2019-12-01T13:43:03Z</time>
      </trkpt>
      <trkpt lat="41.6052280" lon="2.0049650">
        <ele>555.2</ele>
        <time>2019-12-01T13:43:06Z</time>
      </trkpt>
      <trkpt lat="41.6052140" lon="2.0048930">
        <ele>555.4</ele>
        <time>2019-12-01T13:43:08Z</time>
      </trkpt>
      <trkpt lat="41.6052070" lon="2.0048380">
        <ele>555.5</ele>
        <time>2019-12-01T13:43:11Z</time>
      </trkpt>
      <trkpt lat="41.6052020" lon="2.0047720">
        <ele>555.7</ele>
        <time>2019-12-01T13:43:13Z</time>
      </trkpt>
      <trkpt lat="41.6051970" lon="2.0047000">
        <ele>555.9</ele>
        <time>2019-12-01T13:43:15Z</time>
      </trkpt>
      <trkpt lat="41.6051920" lon="2.0046360">
        <ele>556.1</ele>
        <time>2019-12-01T13:43:17Z</time>
      </trkpt>
      <trkpt lat="41.6051860" lon="2.0045740">
        <ele>556.3</ele>
        <time>2019-12-01T13:43:19Z</time>
      </trkpt>
      <trkpt lat="41.6051780" lon="2.0045360">
        <ele>556.4</ele>
        <time>2019-12-01T13:43:21Z</time>
      </trkpt>
      <trkpt lat="41.6051700" lon="2.0044950">
        <ele>556.6</ele>
        <time>2019-12-01T13:43:22Z</time>
      </trkpt>
      <trkpt lat="41.6051650" lon="2.0044590">
        <ele>556.7</ele>
        <time>2019-12-01T13:43:23Z</time>
      </trkpt>
      <trkpt lat="41.6051580" lon="2.0044190">
        <ele>556.8</ele>
        <time>2019-12-01T13:43:24Z</time>
      </trkpt>
      <trkpt lat="41.6051620" lon="2.0043550">
        <ele>557.0</ele>
        <time>2019-12-01T13:43:26Z</time>
      </trkpt>
      <trkpt lat="41.6051640" lon="2.0042980">
        <ele>557.2</ele>
        <time>2019-12-01T13:43:29Z</time>
      </trkpt>
      <trkpt lat="41.6051640" lon="2.0042500">
        <ele>557.4</ele>
        <time>2019-12-01T13:43:30Z</time>
      </trkpt>
      <trkpt lat="41.6051610" lon="2.0041890">
        <ele>557.6</ele>
        <time>2019-12-01T13:43:32Z</time>
      </trkpt>
      <trkpt lat="41.6051540" lon="2.0041390">
        <ele>557.7</ele>
        <time>2019-12-01T13:43:35Z</time>
      </trkpt>
      <trkpt lat="41.6051500" lon="2.0040910">
        <ele>557.9</ele>
        <time>2019-12-01T13:43:37Z</time>
      </trkpt>
      <trkpt lat="41.6051460" lon="2.0040380">
        <ele>558.1</ele>
        <time>2019-12-01T13:43:39Z</time>
      </trkpt>
      <trkpt lat="41.6051430" lon="2.0039810">
        <ele>558.3</ele>
        <time>2019-12-01T13:43:41Z</time>
      </trkpt>
      <trkpt lat="41.6051420" lon="2.0039250">
        <ele>558.5</ele>
        <time>2019-12-01T13:43:44Z</time>
      </trkpt>
      <trkpt lat="41.6051430" lon="2.0038250">
        <ele>558.8</ele>
        <time>2019-12-01T13:43:47Z</time>
      </trkpt>
      <trkpt lat="41.6051370" lon="2.0037510">
        <ele>559.2</ele>
        <time>2019-12-01T13:43:49Z</time>
      </trkpt>
      <trkpt lat="41.6051370" lon="2.0037140">
        <ele>559.3</ele>
        <time>2019-12-01T13:43:50Z</time>
      </trkpt>
      <trkpt lat="41.6051370" lon="2.0036750">
        <ele>559.5</ele>
        <time>2019-12-01T13:43:51Z</time>
      </trkpt>
      <trkpt lat="41.6051370" lon="2.0036390">
        <ele>559.7</ele>
        <time>2019-12-01T13:43:53Z</time>
      </trkpt>
      <trkpt lat="41.6051340" lon="2.0035760">
        <ele>560.0</ele>
        <time>2019-12-01T13:43:55Z</time>
      </trkpt>
      <trkpt lat="41.6051310" lon="2.0035160">
        <ele>560.3</ele>
        <time>2019-12-01T13:43:57Z</time>
      </trkpt>
      <trkpt lat="41.6051350" lon="2.0034430">
        <ele>560.6</ele>
        <time>2019-12-01T13:44:00Z</time>
      </trkpt>
      <trkpt lat="41.6051490" lon="2.0033790">
        <ele>561.0</ele>
        <time>2019-12-01T13:44:02Z</time>
      </trkpt>
      <trkpt lat="41.6051590" lon="2.0033350">
        <ele>561.2</ele>
        <time>2019-12-01T13:44:05Z</time>
      </trkpt>
      <trkpt lat="41.6051700" lon="2.0032900">
        <ele>561.5</ele>
        <time>2019-12-01T13:44:07Z</time>
      </trkpt>
      <trkpt lat="41.6051810" lon="2.0032510">
        <ele>561.7</ele>
        <time>2019-12-01T13:44:09Z</time>
      </trkpt>
      <trkpt lat="41.6051910" lon="2.0032050">
        <ele>562.0</ele>
        <time>2019-12-01T13:44:11Z</time>
      </trkpt>
      <trkpt lat="41.6051950" lon="2.0031590">
        <ele>562.2</ele>
        <time>2019-12-01T13:44:13Z</time>
      </trkpt>
      <trkpt lat="41.6052050" lon="2.0031130">
        <ele>562.5</ele>
        <time>2019-12-01T13:44:16Z</time>
      </trkpt>
      <trkpt lat="41.6052140" lon="2.0030770">
        <ele>562.7</ele>
        <time>2019-12-01T13:44:17Z</time>
      </trkpt>
      <trkpt lat="41.6052290" lon="2.0030320">
        <ele>563.0</ele>
        <time>2019-12-01T13:44:20Z</time>
      </trkpt>
      <trkpt lat="41.6052410" lon="2.0029810">
        <ele>563.3</ele>
        <time>2019-12-01T13:44:22Z</time>
      </trkpt>
      <trkpt lat="41.6052470" lon="2.0029450">
        <ele>563.5</ele>
        <time>2019-12-01T13:44:24Z</time>
      </trkpt>
      <trkpt lat="41.6052560" lon="2.0028920">
        <ele>563.9</ele>
        <time>2019-12-01T13:44:26Z</time>
      </trkpt>
      <trkpt lat="41.6052850" lon="2.0028250">
        <ele>564.5</ele>
        <time>2019-12-01T13:44:29Z</time>
      </trkpt>
      <trkpt lat="41.6053040" lon="2.0027800">
        <ele>564.9</ele>
        <time>2019-12-01T13:44:32Z</time>
      </trkpt>
      <trkpt lat="41.6053210" lon="2.0027450">
        <ele>565.2</ele>
        <time>2019-12-01T13:44:34Z</time>
      </trkpt>
      <trkpt lat="41.6053450" lon="2.0027160">
        <ele>565.5</ele>
        <time>2019-12-01T13:44:37Z</time>
      </trkpt>
      <trkpt lat="41.6053720" lon="2.0026950">
        <ele>565.8</ele>
        <time>2019-12-01T13:44:39Z</time>
      </trkpt>
      <trkpt lat="41.6054030" lon="2.0026710">
        <ele>566.2</ele>
        <time>2019-12-01T13:44:41Z</time>
      </trkpt>
      <trkpt lat="41.6054530" lon="2.0026320">
        <ele>566.6</ele>
        <time>2019-12-01T13:44:43Z</time>
      </trkpt>
      <trkpt lat="41.6054800" lon="2.0026120">
        <ele>566.9</ele>
        <time>2019-12-01T13:44:45Z</time>
      </trkpt>
      <trkpt lat="41.6055170" lon="2.0025970">
        <ele>567.2</ele>
        <time>2019-12-01T13:44:47Z</time>
      </trkpt>
      <trkpt lat="41.6055590" lon="2.0025900">
        <ele>567.6</ele>
        <time>2019-12-01T13:44:49Z</time>
      </trkpt>
      <trkpt lat="41.6056090" lon="2.0025770">
        <ele>568.0</ele>
        <time>2019-12-01T13:44:52Z</time>
      </trkpt>
      <trkpt lat="41.6056490" lon="2.0025690">
        <ele>568.2</ele>
        <time>2019-12-01T13:44:54Z</time>
      </trkpt>
      <trkpt lat="41.6056800" lon="2.0025520">
        <ele>568.5</ele>
        <time>2019-12-01T13:44:56Z</time>
      </trkpt>
      <trkpt lat="41.6057160" lon="2.0025180">
        <ele>568.8</ele>
        <time>2019-12-01T13:44:59Z</time>
      </trkpt>
      <trkpt lat="41.6057550" lon="2.0024840">
        <ele>569.1</ele>
        <time>2019-12-01T13:45:01Z</time>
      </trkpt>
      <trkpt lat="41.6058020" lon="2.0024480">
        <ele>569.5</ele>
        <time>2019-12-01T13:45:04Z</time>
      </trkpt>
      <trkpt lat="41.6058420" lon="2.0024040">
        <ele>569.9</ele>
        <time>2019-12-01T13:45:05Z</time>
      </trkpt>
      <trkpt lat="41.6058630" lon="2.0023780">
        <ele>570.2</ele>
        <time>2019-12-01T13:45:06Z</time>
      </trkpt>
      <trkpt lat="41.6058850" lon="2.0023510">
        <ele>570.4</ele>
        <time>2019-12-01T13:45:08Z</time>
      </trkpt>
      <trkpt lat="41.6059130" lon="2.0023140">
        <ele>570.8</ele>
        <time>2019-12-01T13:45:09Z</time>
      </trkpt>
      <trkpt lat="41.6059330" lon="2.0022840">
        <ele>571.0</ele>
        <time>2019-12-01T13:45:10Z</time>
      </trkpt>
      <trkpt lat="41.6059520" lon="2.0022550">
        <ele>571.3</ele>
        <time>2019-12-01T13:45:11Z</time>
      </trkpt>
      <trkpt lat="41.6059730" lon="2.0022140">
        <ele>571.7</ele>
        <time>2019-12-01T13:45:13Z</time>
      </trkpt>
      <trkpt lat="41.6059990" lon="2.0021610">
        <ele>572.2</ele>
        <time>2019-12-01T13:45:15Z</time>
      </trkpt>
      <trkpt lat="41.6060320" lon="2.0021020">
        <ele>572.7</ele>
        <time>2019-12-01T13:45:17Z</time>
      </trkpt>
      <trkpt lat="41.6060480" lon="2.0020680">
        <ele>572.9</ele>
        <time>2019-12-01T13:45:19Z</time>
      </trkpt>
      <trkpt lat="41.6060640" lon="2.0020280">
        <ele>573.3</ele>
        <time>2019-12-01T13:45:20Z</time>
      </trkpt>
      <trkpt lat="41.6060740" lon="2.0019880">
        <ele>573.6</ele>
        <time>2019-12-01T13:45:21Z</time>
      </trkpt>
      <trkpt lat="41.6060770" lon="2.0019400">
        <ele>573.9</ele>
        <time>2019-12-01T13:45:22Z</time>
      </trkpt>
      <trkpt lat="41.6060580" lon="2.0018980">
        <ele>573.8</ele>
        <time>2019-12-01T13:45:25Z</time>
      </trkpt>
      <trkpt lat="41.6060340" lon="2.0018660">
        <ele>573.1</ele>
        <time>2019-12-01T13:45:27Z</time>
      </trkpt>
      <trkpt lat="41.6059910" lon="2.0018490">
        <ele>572.2</ele>
        <time>2019-12-01T13:45:29Z</time>
      </trkpt>
      <trkpt lat="41.6059490" lon="2.0018500">
        <ele>571.4</ele>
        <time>2019-12-01T13:45:32Z</time>
      </trkpt>
      <trkpt lat="41.6059130" lon="2.0018520">
        <ele>570.6</ele>
        <time>2019-12-01T13:45:33Z</time>
      </trkpt>
      <trkpt lat="41.6058680" lon="2.0018610">
        <ele>569.7</ele>
        <time>2019-12-01T13:45:35Z</time>
      </trkpt>
      <trkpt lat="41.6058300" lon="2.0018700">
        <ele>568.8</ele>
        <time>2019-12-01T13:45:38Z</time>
      </trkpt>
      <trkpt lat="41.6057730" lon="2.0018530">
        <ele>567.6</ele>
        <time>2019-12-01T13:45:40Z</time>
      </trkpt>
      <trkpt lat="41.6057240" lon="2.0018280">
        <ele>566.3</ele>
        <time>2019-12-01T13:45:43Z</time>
      </trkpt>
      <trkpt lat="41.6056840" lon="2.0017950">
        <ele>565.2</ele>
        <time>2019-12-01T13:45:45Z</time>
      </trkpt>
      <trkpt lat="41.6056490" lon="2.0017620">
        <ele>564.2</ele>
        <time>2019-12-01T13:45:47Z</time>
      </trkpt>
      <trkpt lat="41.6056210" lon="2.0017320">
        <ele>563.3</ele>
        <time>2019-12-01T13:45:49Z</time>
      </trkpt>
      <trkpt lat="41.6055850" lon="2.0016910">
        <ele>562.3</ele>
        <time>2019-12-01T13:45:51Z</time>
      </trkpt>
      <trkpt lat="41.6055570" lon="2.0016450">
        <ele>561.3</ele>
        <time>2019-12-01T13:45:53Z</time>
      </trkpt>
      <trkpt lat="41.6055320" lon="2.0016240">
        <ele>560.6</ele>
        <time>2019-12-01T13:45:55Z</time>
      </trkpt>
      <trkpt lat="41.6054980" lon="2.0015920">
        <ele>559.6</ele>
        <time>2019-12-01T13:45:57Z</time>
      </trkpt>
      <trkpt lat="41.6054580" lon="2.0015630">
        <ele>558.6</ele>
        <time>2019-12-01T13:46:00Z</time>
      </trkpt>
      <trkpt lat="41.6054070" lon="2.0015290">
        <ele>556.9</ele>
        <time>2019-12-01T13:46:02Z</time>
      </trkpt>
      <trkpt lat="41.6053680" lon="2.0015030">
        <ele>556.6</ele>
        <time>2019-12-01T13:46:05Z</time>
      </trkpt>
      <trkpt lat="41.6053310" lon="2.0014730">
        <ele>556.2</ele>
        <time>2019-12-01T13:46:07Z</time>
      </trkpt>
      <trkpt lat="41.6052910" lon="2.0014390">
        <ele>555.7</ele>
        <time>2019-12-01T13:46:09Z</time>
      </trkpt>
      <trkpt lat="41.6052550" lon="2.0014070">
        <ele>555.3</ele>
        <time>2019-12-01T13:46:12Z</time>
      </trkpt>
      <trkpt lat="41.6051910" lon="2.0013700">
        <ele>554.7</ele>
        <time>2019-12-01T13:46:15Z</time>
      </trkpt>
      <trkpt lat="41.6051490" lon="2.0013450">
        <ele>554.3</ele>
        <time>2019-12-01T13:46:17Z</time>
      </trkpt>
      <trkpt lat="41.6051170" lon="2.0013280">
        <ele>554.0</ele>
        <time>2019-12-01T13:46:19Z</time>
      </trkpt>
      <trkpt lat="41.6050740" lon="2.0013090">
        <ele>553.6</ele>
        <time>2019-12-01T13:46:21Z</time>
      </trkpt>
      <trkpt lat="41.6050450" lon="2.0012930">
        <ele>553.3</ele>
        <time>2019-12-01T13:46:23Z</time>
      </trkpt>
      <trkpt lat="41.6049960" lon="2.0012710">
        <ele>553.1</ele>
        <time>2019-12-01T13:46:25Z</time>
      </trkpt>
      <trkpt lat="41.6049470" lon="2.0012560">
        <ele>552.9</ele>
        <time>2019-12-01T13:46:28Z</time>
      </trkpt>
      <trkpt lat="41.6048960" lon="2.0011980">
        <ele>552.6</ele>
        <time>2019-12-01T13:46:43Z</time>
      </trkpt>
      <trkpt lat="41.6048720" lon="2.0011640">
        <ele>552.5</ele>
        <time>2019-12-01T13:46:45Z</time>
      </trkpt>
      <trkpt lat="41.6048390" lon="2.0011230">
        <ele>552.3</ele>
        <time>2019-12-01T13:46:48Z</time>
      </trkpt>
      <trkpt lat="41.6048050" lon="2.0010920">
        <ele>551.9</ele>
        <time>2019-12-01T13:46:50Z</time>
      </trkpt>
      <trkpt lat="41.6047630" lon="2.0010490">
        <ele>552.1</ele>
        <time>2019-12-01T13:46:53Z</time>
      </trkpt>
      <trkpt lat="41.6047300" lon="2.0010140">
        <ele>552.2</ele>
        <time>2019-12-01T13:46:55Z</time>
      </trkpt>
      <trkpt lat="41.6047030" lon="2.0009740">
        <ele>552.3</ele>
        <time>2019-12-01T13:46:58Z</time>
      </trkpt>
      <trkpt lat="41.6046890" lon="2.0009370">
        <ele>552.4</ele>
        <time>2019-12-01T13:47:00Z</time>
      </trkpt>
      <trkpt lat="41.6046950" lon="2.0008970">
        <ele>552.5</ele>
        <time>2019-12-01T13:47:03Z</time>
      </trkpt>
      <trkpt lat="41.6047180" lon="2.0008640">
        <ele>552.6</ele>
        <time>2019-12-01T13:47:05Z</time>
      </trkpt>
      <trkpt lat="41.6047420" lon="2.0008410">
        <ele>552.7</ele>
        <time>2019-12-01T13:47:07Z</time>
      </trkpt>
      <trkpt lat="41.6048530" lon="2.0008960">
        <ele>553.5</ele>
        <time>2019-12-01T13:47:09Z</time>
      </trkpt>
      <trkpt lat="41.6048990" lon="2.0009170">
        <ele>553.8</ele>
        <time>2019-12-01T13:47:11Z</time>
      </trkpt>
      <trkpt lat="41.6049600" lon="2.0009490">
        <ele>554.3</ele>
        <time>2019-12-01T13:47:12Z</time>
      </trkpt>
      <trkpt lat="41.6050280" lon="2.0009860">
        <ele>555.3</ele>
        <time>2019-12-01T13:47:15Z</time>
      </trkpt>
      <trkpt lat="41.6050900" lon="2.0010070">
        <ele>556.0</ele>
        <time>2019-12-01T13:47:18Z</time>
      </trkpt>
      <trkpt lat="41.6051340" lon="2.0010140">
        <ele>556.5</ele>
        <time>2019-12-01T13:47:19Z</time>
      </trkpt>
      <trkpt lat="41.6051660" lon="2.0010150">
        <ele>556.8</ele>
        <time>2019-12-01T13:47:21Z</time>
      </trkpt>
      <trkpt lat="41.6052090" lon="2.0010120">
        <ele>557.3</ele>
        <time>2019-12-01T13:47:23Z</time>
      </trkpt>
      <trkpt lat="41.6052400" lon="2.0010040">
        <ele>557.7</ele>
        <time>2019-12-01T13:47:26Z</time>
      </trkpt>
      <trkpt lat="41.6053790" lon="2.0008660">
        <ele>561.0</ele>
        <time>2019-12-01T13:48:07Z</time>
      </trkpt>
      <trkpt lat="41.6054020" lon="2.0008460">
        <ele>561.7</ele>
        <time>2019-12-01T13:48:08Z</time>
      </trkpt>
      <trkpt lat="41.6054280" lon="2.0008290">
        <ele>562.4</ele>
        <time>2019-12-01T13:48:10Z</time>
      </trkpt>
      <trkpt lat="41.6054740" lon="2.0007980">
        <ele>563.6</ele>
        <time>2019-12-01T13:48:12Z</time>
      </trkpt>
      <trkpt lat="41.6055210" lon="2.0007660">
        <ele>564.5</ele>
        <time>2019-12-01T13:48:14Z</time>
      </trkpt>
      <trkpt lat="41.6055550" lon="2.0007500">
        <ele>564.9</ele>
        <time>2019-12-01T13:48:15Z</time>
      </trkpt>
      <trkpt lat="41.6055940" lon="2.0007290">
        <ele>565.4</ele>
        <time>2019-12-01T13:48:16Z</time>
      </trkpt>
      <trkpt lat="41.6056270" lon="2.0007140">
        <ele>565.8</ele>
        <time>2019-12-01T13:48:17Z</time>
      </trkpt>
      <trkpt lat="41.6056530" lon="2.0006960">
        <ele>566.1</ele>
        <time>2019-12-01T13:48:19Z</time>
      </trkpt>
      <trkpt lat="41.6056920" lon="2.0006640">
        <ele>566.4</ele>
        <time>2019-12-01T13:48:20Z</time>
      </trkpt>
      <trkpt lat="41.6057270" lon="2.0006380">
        <ele>566.7</ele>
        <time>2019-12-01T13:48:21Z</time>
      </trkpt>
      <trkpt lat="41.6057520" lon="2.0006170">
        <ele>566.9</ele>
        <time>2019-12-01T13:48:23Z</time>
      </trkpt>
      <trkpt lat="41.6057770" lon="2.0006000">
        <ele>567.1</ele>
        <time>2019-12-01T13:48:24Z</time>
      </trkpt>
      <trkpt lat="41.6058060" lon="2.0005840">
        <ele>567.3</ele>
        <time>2019-12-01T13:48:25Z</time>
      </trkpt>
      <trkpt lat="41.6058410" lon="2.0005650">
        <ele>567.5</ele>
        <time>2019-12-01T13:48:27Z</time>
      </trkpt>
      <trkpt lat="41.6058900" lon="2.0005470">
        <ele>567.8</ele>
        <time>2019-12-01T13:48:29Z</time>
      </trkpt>
      <trkpt lat="41.6059200" lon="2.0005400">
        <ele>568.0</ele>
        <time>2019-12-01T13:48:30Z</time>
      </trkpt>
      <trkpt lat="41.6059580" lon="2.0005230">
        <ele>568.2</ele>
        <time>2019-12-01T13:48:32Z</time>
      </trkpt>
      <trkpt lat="41.6059830" lon="2.0005100">
        <ele>568.3</ele>
        <time>2019-12-01T13:48:33Z</time>
      </trkpt>
      <trkpt lat="41.6060150" lon="2.0004880">
        <ele>568.5</ele>
        <time>2019-12-01T13:48:34Z</time>
      </trkpt>
      <trkpt lat="41.6060520" lon="2.0004670">
        <ele>568.6</ele>
        <time>2019-12-01T13:48:35Z</time>
      </trkpt>
      <trkpt lat="41.6060900" lon="2.0004460">
        <ele>568.7</ele>
        <time>2019-12-01T13:48:36Z</time>
      </trkpt>
      <trkpt lat="41.6061290" lon="2.0004260">
        <ele>568.8</ele>
        <time>2019-12-01T13:48:37Z</time>
      </trkpt>
      <trkpt lat="41.6061660" lon="2.0004090">
        <ele>568.8</ele>
        <time>2019-12-01T13:48:38Z</time>
      </trkpt>
      <trkpt lat="41.6062030" lon="2.0003930">
        <ele>568.9</ele>
        <time>2019-12-01T13:48:40Z</time>
      </trkpt>
      <trkpt lat="41.6062620" lon="2.0003780">
        <ele>568.8</ele>
        <time>2019-12-01T13:48:41Z</time>
      </trkpt>
      <trkpt lat="41.6062980" lon="2.0003700">
        <ele>568.8</ele>
        <time>2019-12-01T13:48:42Z</time>
      </trkpt>
      <trkpt lat="41.6063300" lon="2.0003650">
        <ele>568.8</ele>
        <time>2019-12-01T13:48:43Z</time>
      </trkpt>
      <trkpt lat="41.6063620" lon="2.0003580">
        <ele>568.8</ele>
        <time>2019-12-01T13:48:44Z</time>
      </trkpt>
      <trkpt lat="41.6063930" lon="2.0003480">
        <ele>568.7</ele>
        <time>2019-12-01T13:48:45Z</time>
      </trkpt>
      <trkpt lat="41.6064330" lon="2.0003370">
        <ele>568.7</ele>
        <time>2019-12-01T13:48:47Z</time>
      </trkpt>
      <trkpt lat="41.6064700" lon="2.0003230">
        <ele>568.7</ele>
        <time>2019-12-01T13:48:48Z</time>
      </trkpt>
      <trkpt lat="41.6065130" lon="2.0002940">
        <ele>568.7</ele>
        <time>2019-12-01T13:48:51Z</time>
      </trkpt>
      <trkpt lat="41.6065300" lon="2.0002380">
        <ele>568.6</ele>
        <time>2019-12-01T13:48:53Z</time>
      </trkpt>
      <trkpt lat="41.6065370" lon="2.0001960">
        <ele>568.6</ele>
        <time>2019-12-01T13:48:55Z</time>
      </trkpt>
      <trkpt lat="41.6065280" lon="2.0001390">
        <ele>568.6</ele>
        <time>2019-12-01T13:48:57Z</time>
      </trkpt>
      <trkpt lat="41.6065130" lon="2.0001040">
        <ele>568.6</ele>
        <time>2019-12-01T13:48:58Z</time>
      </trkpt>
      <trkpt lat="41.6064770" lon="2.0000450">
        <ele>568.7</ele>
        <time>2019-12-01T13:49:00Z</time>
      </trkpt>
      <trkpt lat="41.6064600" lon="2.0000140">
        <ele>568.7</ele>
        <time>2019-12-01T13:49:01Z</time>
      </trkpt>
      <trkpt lat="41.6064450" lon="1.9999830">
        <ele>568.8</ele>
        <time>2019-12-01T13:49:03Z</time>
      </trkpt>
      <trkpt lat="41.6064190" lon="1.9999130">
        <ele>568.9</ele>
        <time>2019-12-01T13:49:05Z</time>
      </trkpt>
      <trkpt lat="41.6063990" lon="1.9998460">
        <ele>569.0</ele>
        <time>2019-12-01T13:49:07Z</time>
      </trkpt>
      <trkpt lat="41.6063940" lon="1.9998070">
        <ele>569.1</ele>
        <time>2019-12-01T13:49:08Z</time>
      </trkpt>
      <trkpt lat="41.6063930" lon="1.9997570">
        <ele>569.2</ele>
        <time>2019-12-01T13:49:09Z</time>
      </trkpt>
      <trkpt lat="41.6063950" lon="1.9997090">
        <ele>569.3</ele>
        <time>2019-12-01T13:49:11Z</time>
      </trkpt>
      <trkpt lat="41.6064000" lon="1.9996550">
        <ele>569.4</ele>
        <time>2019-12-01T13:49:12Z</time>
      </trkpt>
      <trkpt lat="41.6064270" lon="1.9996050">
        <ele>569.6</ele>
        <time>2019-12-01T13:49:14Z</time>
      </trkpt>
      <trkpt lat="41.6064500" lon="1.9995820">
        <ele>568.9</ele>
        <time>2019-12-01T13:49:15Z</time>
      </trkpt>
      <trkpt lat="41.6064730" lon="1.9995600">
        <ele>568.3</ele>
        <time>2019-12-01T13:49:16Z</time>
      </trkpt>
      <trkpt lat="41.6065180" lon="1.9995180">
        <ele>567.1</ele>
        <time>2019-12-01T13:49:18Z</time>
      </trkpt>
      <trkpt lat="41.6065550" lon="1.9994900">
        <ele>566.4</ele>
        <time>2019-12-01T13:49:20Z</time>
      </trkpt>
      <trkpt lat="41.6065850" lon="1.9994630">
        <ele>566.0</ele>
        <time>2019-12-01T13:49:23Z</time>
      </trkpt>
      <trkpt lat="41.6066220" lon="1.9994220">
        <ele>565.6</ele>
        <time>2019-12-01T13:49:25Z</time>
      </trkpt>
      <trkpt lat="41.6066510" lon="1.9993810">
        <ele>565.3</ele>
        <time>2019-12-01T13:49:27Z</time>
      </trkpt>
      <trkpt lat="41.6066740" lon="1.9993460">
        <ele>565.2</ele>
        <time>2019-12-01T13:49:28Z</time>
      </trkpt>
      <trkpt lat="41.6066980" lon="1.9993040">
        <ele>565.1</ele>
        <time>2019-12-01T13:49:30Z</time>
      </trkpt>
      <trkpt lat="41.6067210" lon="1.9992560">
        <ele>565.2</ele>
        <time>2019-12-01T13:49:31Z</time>
      </trkpt>
      <trkpt lat="41.6067440" lon="1.9992080">
        <ele>565.2</ele>
        <time>2019-12-01T13:49:34Z</time>
      </trkpt>
      <trkpt lat="41.6067700" lon="1.9991500">
        <ele>565.3</ele>
        <time>2019-12-01T13:49:36Z</time>
      </trkpt>
      <trkpt lat="41.6067750" lon="1.9990850">
        <ele>565.4</ele>
        <time>2019-12-01T13:49:38Z</time>
      </trkpt>
      <trkpt lat="41.6067780" lon="1.9990200">
        <ele>565.5</ele>
        <time>2019-12-01T13:49:41Z</time>
      </trkpt>
      <trkpt lat="41.6067860" lon="1.9989490">
        <ele>565.6</ele>
        <time>2019-12-01T13:49:43Z</time>
      </trkpt>
      <trkpt lat="41.6067940" lon="1.9989020">
        <ele>565.7</ele>
        <time>2019-12-01T13:49:44Z</time>
      </trkpt>
      <trkpt lat="41.6068000" lon="1.9988580">
        <ele>565.8</ele>
        <time>2019-12-01T13:49:45Z</time>
      </trkpt>
      <trkpt lat="41.6068050" lon="1.9988150">
        <ele>565.9</ele>
        <time>2019-12-01T13:49:46Z</time>
      </trkpt>
      <trkpt lat="41.6068100" lon="1.9987710">
        <ele>565.9</ele>
        <time>2019-12-01T13:49:48Z</time>
      </trkpt>
      <trkpt lat="41.6068150" lon="1.9987040">
        <ele>566.1</ele>
        <time>2019-12-01T13:49:49Z</time>
      </trkpt>
      <trkpt lat="41.6068210" lon="1.9986590">
        <ele>566.1</ele>
        <time>2019-12-01T13:49:50Z</time>
      </trkpt>
      <trkpt lat="41.6068310" lon="1.9986190">
        <ele>566.2</ele>
        <time>2019-12-01T13:49:52Z</time>
      </trkpt>
      <trkpt lat="41.6068480" lon="1.9985730">
        <ele>566.2</ele>
        <time>2019-12-01T13:49:53Z</time>
      </trkpt>
      <trkpt lat="41.6068840" lon="1.9985370">
        <ele>566.2</ele>
        <time>2019-12-01T13:49:55Z</time>
      </trkpt>
      <trkpt lat="41.6069330" lon="1.9985320">
        <ele>566.2</ele>
        <time>2019-12-01T13:49:57Z</time>
      </trkpt>
      <trkpt lat="41.6069820" lon="1.9985390">
        <ele>566.2</ele>
        <time>2019-12-01T13:50:00Z</time>
      </trkpt>
      <trkpt lat="41.6070320" lon="1.9985530">
        <ele>566.1</ele>
        <time>2019-12-01T13:50:02Z</time>
      </trkpt>
      <trkpt lat="41.6070590" lon="1.9985630">
        <ele>566.0</ele>
        <time>2019-12-01T13:50:03Z</time>
      </trkpt>
      <trkpt lat="41.6071190" lon="1.9985850">
        <ele>565.6</ele>
        <time>2019-12-01T13:50:06Z</time>
      </trkpt>
      <trkpt lat="41.6071660" lon="1.9985990">
        <ele>565.2</ele>
        <time>2019-12-01T13:50:08Z</time>
      </trkpt>
      <trkpt lat="41.6072130" lon="1.9986200">
        <ele>564.8</ele>
        <time>2019-12-01T13:50:10Z</time>
      </trkpt>
      <trkpt lat="41.6072390" lon="1.9986350">
        <ele>564.5</ele>
        <time>2019-12-01T13:50:11Z</time>
      </trkpt>
      <trkpt lat="41.6072640" lon="1.9986510">
        <ele>564.3</ele>
        <time>2019-12-01T13:50:12Z</time>
      </trkpt>
      <trkpt lat="41.6073080" lon="1.9986490">
        <ele>564.0</ele>
        <time>2019-12-01T13:50:15Z</time>
      </trkpt>
      <trkpt lat="41.6073200" lon="1.9986130">
        <ele>563.7</ele>
        <time>2019-12-01T13:50:16Z</time>
      </trkpt>
      <trkpt lat="41.6073220" lon="1.9985730">
        <ele>563.5</ele>
        <time>2019-12-01T13:50:18Z</time>
      </trkpt>
      <trkpt lat="41.6073190" lon="1.9985330">
        <ele>563.2</ele>
        <time>2019-12-01T13:50:19Z</time>
      </trkpt>
      <trkpt lat="41.6073170" lon="1.9984960">
        <ele>563.0</ele>
        <time>2019-12-01T13:50:20Z</time>
      </trkpt>
      <trkpt lat="41.6073110" lon="1.9984610">
        <ele>562.7</ele>
        <time>2019-12-01T13:50:21Z</time>
      </trkpt>
      <trkpt lat="41.6073020" lon="1.9984190">
        <ele>562.5</ele>
        <time>2019-12-01T13:50:22Z</time>
      </trkpt>
      <trkpt lat="41.6072930" lon="1.9983820">
        <ele>562.3</ele>
        <time>2019-12-01T13:50:23Z</time>
      </trkpt>
      <trkpt lat="41.6072850" lon="1.9983420">
        <ele>562.1</ele>
        <time>2019-12-01T13:50:25Z</time>
      </trkpt>
      <trkpt lat="41.6072770" lon="1.9982970">
        <ele>561.9</ele>
        <time>2019-12-01T13:50:26Z</time>
      </trkpt>
      <trkpt lat="41.6072750" lon="1.9982340">
        <ele>561.6</ele>
        <time>2019-12-01T13:50:27Z</time>
      </trkpt>
      <trkpt lat="41.6072810" lon="1.9981920">
        <ele>561.3</ele>
        <time>2019-12-01T13:50:29Z</time>
      </trkpt>
      <trkpt lat="41.6072910" lon="1.9981320">
        <ele>561.0</ele>
        <time>2019-12-01T13:50:30Z</time>
      </trkpt>
      <trkpt lat="41.6073130" lon="1.9980440">
        <ele>560.6</ele>
        <time>2019-12-01T13:50:33Z</time>
      </trkpt>
      <trkpt lat="41.6073240" lon="1.9979980">
        <ele>560.2</ele>
        <time>2019-12-01T13:50:34Z</time>
      </trkpt>
      <trkpt lat="41.6073370" lon="1.9979580">
        <ele>560.0</ele>
        <time>2019-12-01T13:50:35Z</time>
      </trkpt>
      <trkpt lat="41.6073500" lon="1.9979210">
        <ele>559.7</ele>
        <time>2019-12-01T13:50:36Z</time>
      </trkpt>
      <trkpt lat="41.6073670" lon="1.9978780">
        <ele>559.5</ele>
        <time>2019-12-01T13:50:37Z</time>
      </trkpt>
      <trkpt lat="41.6073780" lon="1.9978390">
        <ele>559.2</ele>
        <time>2019-12-01T13:50:38Z</time>
      </trkpt>
      <trkpt lat="41.6073880" lon="1.9977980">
        <ele>559.0</ele>
        <time>2019-12-01T13:50:39Z</time>
      </trkpt>
      <trkpt lat="41.6073940" lon="1.9977580">
        <ele>558.9</ele>
        <time>2019-12-01T13:50:41Z</time>
      </trkpt>
      <trkpt lat="41.6074000" lon="1.9977010">
        <ele>558.6</ele>
        <time>2019-12-01T13:50:42Z</time>
      </trkpt>
      <trkpt lat="41.6073980" lon="1.9976560">
        <ele>558.5</ele>
        <time>2019-12-01T13:50:44Z</time>
      </trkpt>
      <trkpt lat="41.6073940" lon="1.9975910">
        <ele>558.3</ele>
        <time>2019-12-01T13:50:45Z</time>
      </trkpt>
      <trkpt lat="41.6073920" lon="1.9975300">
        <ele>558.0</ele>
        <time>2019-12-01T13:50:47Z</time>
      </trkpt>
      <trkpt lat="41.6073880" lon="1.9974820">
        <ele>557.9</ele>
        <time>2019-12-01T13:50:48Z</time>
      </trkpt>
      <trkpt lat="41.6073840" lon="1.9974250">
        <ele>557.7</ele>
        <time>2019-12-01T13:50:49Z</time>
      </trkpt>
      <trkpt lat="41.6073770" lon="1.9973840">
        <ele>557.5</ele>
        <time>2019-12-01T13:50:51Z</time>
      </trkpt>
      <trkpt lat="41.6073700" lon="1.9973460">
        <ele>557.4</ele>
        <time>2019-12-01T13:50:52Z</time>
      </trkpt>
      <trkpt lat="41.6073630" lon="1.9973120">
        <ele>557.3</ele>
        <time>2019-12-01T13:50:53Z</time>
      </trkpt>
      <trkpt lat="41.6073470" lon="1.9972500">
        <ele>557.0</ele>
        <time>2019-12-01T13:50:55Z</time>
      </trkpt>
      <trkpt lat="41.6073390" lon="1.9972100">
        <ele>556.9</ele>
        <time>2019-12-01T13:50:56Z</time>
      </trkpt>
      <trkpt lat="41.6073280" lon="1.9971390">
        <ele>556.5</ele>
        <time>2019-12-01T13:50:58Z</time>
      </trkpt>
      <trkpt lat="41.6073220" lon="1.9970900">
        <ele>556.3</ele>
        <time>2019-12-01T13:50:59Z</time>
      </trkpt>
      <trkpt lat="41.6073180" lon="1.9970150">
        <ele>556.0</ele>
        <time>2019-12-01T13:51:02Z</time>
      </trkpt>
      <trkpt lat="41.6073170" lon="1.9969520">
        <ele>555.8</ele>
        <time>2019-12-01T13:51:03Z</time>
      </trkpt>
      <trkpt lat="41.6073170" lon="1.9968960">
        <ele>555.6</ele>
        <time>2019-12-01T13:51:05Z</time>
      </trkpt>
      <trkpt lat="41.6073210" lon="1.9968390">
        <ele>555.4</ele>
        <time>2019-12-01T13:51:07Z</time>
      </trkpt>
      <trkpt lat="41.6073300" lon="1.9967800">
        <ele>555.1</ele>
        <time>2019-12-01T13:51:08Z</time>
      </trkpt>
      <trkpt lat="41.6073510" lon="1.9967320">
        <ele>554.7</ele>
        <time>2019-12-01T13:51:11Z</time>
      </trkpt>
      <trkpt lat="41.6073730" lon="1.9966910">
        <ele>554.5</ele>
        <time>2019-12-01T13:51:13Z</time>
      </trkpt>
      <trkpt lat="41.6073980" lon="1.9966510">
        <ele>554.2</ele>
        <time>2019-12-01T13:51:15Z</time>
      </trkpt>
      <trkpt lat="41.6074400" lon="1.9965920">
        <ele>553.8</ele>
        <time>2019-12-01T13:51:18Z</time>
      </trkpt>
      <trkpt lat="41.6074700" lon="1.9965560">
        <ele>553.5</ele>
        <time>2019-12-01T13:51:19Z</time>
      </trkpt>
      <trkpt lat="41.6075150" lon="1.9965220">
        <ele>553.1</ele>
        <time>2019-12-01T13:51:22Z</time>
      </trkpt>
      <trkpt lat="41.6075850" lon="1.9964850">
        <ele>552.8</ele>
        <time>2019-12-01T13:51:24Z</time>
      </trkpt>
      <trkpt lat="41.6076140" lon="1.9964700">
        <ele>552.6</ele>
        <time>2019-12-01T13:51:26Z</time>
      </trkpt>
      <trkpt lat="41.6076640" lon="1.9964400">
        <ele>552.4</ele>
        <time>2019-12-01T13:51:28Z</time>
      </trkpt>
      <trkpt lat="41.6076880" lon="1.9964220">
        <ele>552.3</ele>
        <time>2019-12-01T13:51:29Z</time>
      </trkpt>
      <trkpt lat="41.6077220" lon="1.9963980">
        <ele>552.2</ele>
        <time>2019-12-01T13:51:30Z</time>
      </trkpt>
      <trkpt lat="41.6077510" lon="1.9963760">
        <ele>552.1</ele>
        <time>2019-12-01T13:51:31Z</time>
      </trkpt>
      <trkpt lat="41.6077810" lon="1.9963550">
        <ele>552.0</ele>
        <time>2019-12-01T13:51:32Z</time>
      </trkpt>
      <trkpt lat="41.6078090" lon="1.9963360">
        <ele>552.0</ele>
        <time>2019-12-01T13:51:33Z</time>
      </trkpt>
      <trkpt lat="41.6078340" lon="1.9963190">
        <ele>552.0</ele>
        <time>2019-12-01T13:51:34Z</time>
      </trkpt>
      <trkpt lat="41.6078590" lon="1.9963000">
        <ele>552.0</ele>
        <time>2019-12-01T13:51:35Z</time>
      </trkpt>
      <trkpt lat="41.6078850" lon="1.9962840">
        <ele>552.0</ele>
        <time>2019-12-01T13:51:36Z</time>
      </trkpt>
      <trkpt lat="41.6079160" lon="1.9962750">
        <ele>552.1</ele>
        <time>2019-12-01T13:51:38Z</time>
      </trkpt>
      <trkpt lat="41.6079720" lon="1.9962880">
        <ele>552.2</ele>
        <time>2019-12-01T13:51:40Z</time>
      </trkpt>
      <trkpt lat="41.6080180" lon="1.9963020">
        <ele>552.5</ele>
        <time>2019-12-01T13:51:41Z</time>
      </trkpt>
      <trkpt lat="41.6080450" lon="1.9963100">
        <ele>552.7</ele>
        <time>2019-12-01T13:51:42Z</time>
      </trkpt>
      <trkpt lat="41.6080880" lon="1.9963190">
        <ele>553.1</ele>
        <time>2019-12-01T13:51:45Z</time>
      </trkpt>
      <trkpt lat="41.6081270" lon="1.9963240">
        <ele>553.5</ele>
        <time>2019-12-01T13:51:47Z</time>
      </trkpt>
      <trkpt lat="41.6081550" lon="1.9963250">
        <ele>553.9</ele>
        <time>2019-12-01T13:51:48Z</time>
      </trkpt>
      <trkpt lat="41.6081890" lon="1.9963250">
        <ele>554.4</ele>
        <time>2019-12-01T13:51:50Z</time>
      </trkpt>
      <trkpt lat="41.6082340" lon="1.9963210">
        <ele>555.0</ele>
        <time>2019-12-01T13:51:52Z</time>
      </trkpt>
      <trkpt lat="41.6082740" lon="1.9963280">
        <ele>555.5</ele>
        <time>2019-12-01T13:51:54Z</time>
      </trkpt>
      <trkpt lat="41.6083190" lon="1.9963300">
        <ele>556.1</ele>
        <time>2019-12-01T13:51:56Z</time>
      </trkpt>
      <trkpt lat="41.6083660" lon="1.9963390">
        <ele>556.6</ele>
        <time>2019-12-01T13:51:58Z</time>
      </trkpt>
      <trkpt lat="41.6084050" lon="1.9963600">
        <ele>557.1</ele>
        <time>2019-12-01T13:52:01Z</time>
      </trkpt>
      <trkpt lat="41.6084300" lon="1.9963740">
        <ele>557.5</ele>
        <time>2019-12-01T13:52:02Z</time>
      </trkpt>
      <trkpt lat="41.6084600" lon="1.9963910">
        <ele>557.9</ele>
        <time>2019-12-01T13:52:03Z</time>
      </trkpt>
      <trkpt lat="41.6085090" lon="1.9964110">
        <ele>558.3</ele>
        <time>2019-12-01T13:52:05Z</time>
      </trkpt>
      <trkpt lat="41.6085570" lon="1.9964180">
        <ele>558.6</ele>
        <time>2019-12-01T13:52:07Z</time>
      </trkpt>
      <trkpt lat="41.6086010" lon="1.9964190">
        <ele>558.9</ele>
        <time>2019-12-01T13:52:10Z</time>
      </trkpt>
      <trkpt lat="41.6086460" lon="1.9964260">
        <ele>559.1</ele>
        <time>2019-12-01T13:52:12Z</time>
      </trkpt>
      <trkpt lat="41.6087000" lon="1.9964480">
        <ele>559.4</ele>
        <time>2019-12-01T13:52:15Z</time>
      </trkpt>
      <trkpt lat="41.6087420" lon="1.9964800">
        <ele>559.6</ele>
        <time>2019-12-01T13:52:17Z</time>
      </trkpt>
      <trkpt lat="41.6087850" lon="1.9965030">
        <ele>559.8</ele>
        <time>2019-12-01T13:52:20Z</time>
      </trkpt>
      <trkpt lat="41.6088460" lon="1.9965070">
        <ele>560.1</ele>
        <time>2019-12-01T13:52:23Z</time>
      </trkpt>
      <trkpt lat="41.6088860" lon="1.9964950">
        <ele>560.4</ele>
        <time>2019-12-01T13:52:25Z</time>
      </trkpt>
      <trkpt lat="41.6089230" lon="1.9964660">
        <ele>560.6</ele>
        <time>2019-12-01T13:52:27Z</time>
      </trkpt>
      <trkpt lat="41.6089550" lon="1.9964220">
        <ele>560.9</ele>
        <time>2019-12-01T13:52:29Z</time>
      </trkpt>
      <trkpt lat="41.6089840" lon="1.9963660">
        <ele>561.3</ele>
        <time>2019-12-01T13:52:32Z</time>
      </trkpt>
      <trkpt lat="41.6090040" lon="1.9963110">
        <ele>561.7</ele>
        <time>2019-12-01T13:52:33Z</time>
      </trkpt>
      <trkpt lat="41.6090190" lon="1.9962670">
        <ele>561.9</ele>
        <time>2019-12-01T13:52:34Z</time>
      </trkpt>
      <trkpt lat="41.6090330" lon="1.9962200">
        <ele>562.1</ele>
        <time>2019-12-01T13:52:35Z</time>
      </trkpt>
      <trkpt lat="41.6090470" lon="1.9961800">
        <ele>562.3</ele>
        <time>2019-12-01T13:52:37Z</time>
      </trkpt>
      <trkpt lat="41.6090610" lon="1.9961470">
        <ele>562.5</ele>
        <time>2019-12-01T13:52:38Z</time>
      </trkpt>
      <trkpt lat="41.6090870" lon="1.9960830">
        <ele>562.8</ele>
        <time>2019-12-01T13:52:40Z</time>
      </trkpt>
      <trkpt lat="41.6091110" lon="1.9959980">
        <ele>563.3</ele>
        <time>2019-12-01T13:52:43Z</time>
      </trkpt>
      <trkpt lat="41.6091260" lon="1.9959390">
        <ele>563.6</ele>
        <time>2019-12-01T13:52:45Z</time>
      </trkpt>
      <trkpt lat="41.6091350" lon="1.9958800">
        <ele>564.0</ele>
        <time>2019-12-01T13:52:47Z</time>
      </trkpt>
      <trkpt lat="41.6091410" lon="1.9958030">
        <ele>564.8</ele>
        <time>2019-12-01T13:52:50Z</time>
      </trkpt>
      <trkpt lat="41.6091600" lon="1.9957580">
        <ele>565.3</ele>
        <time>2019-12-01T13:52:53Z</time>
      </trkpt>
      <trkpt lat="41.6091870" lon="1.9957090">
        <ele>565.8</ele>
        <time>2019-12-01T13:52:55Z</time>
      </trkpt>
      <trkpt lat="41.6092230" lon="1.9956320">
        <ele>566.5</ele>
        <time>2019-12-01T13:52:59Z</time>
      </trkpt>
      <trkpt lat="41.6092390" lon="1.9955910">
        <ele>566.8</ele>
        <time>2019-12-01T13:53:00Z</time>
      </trkpt>
      <trkpt lat="41.6092600" lon="1.9955440">
        <ele>567.2</ele>
        <time>2019-12-01T13:53:03Z</time>
      </trkpt>
      <trkpt lat="41.6092790" lon="1.9955040">
        <ele>567.6</ele>
        <time>2019-12-01T13:53:05Z</time>
      </trkpt>
      <trkpt lat="41.6093040" lon="1.9954540">
        <ele>568.1</ele>
        <time>2019-12-01T13:53:08Z</time>
      </trkpt>
      <trkpt lat="41.6093280" lon="1.9954070">
        <ele>568.4</ele>
        <time>2019-12-01T13:53:10Z</time>
      </trkpt>
      <trkpt lat="41.6093460" lon="1.9953750">
        <ele>568.7</ele>
        <time>2019-12-01T13:53:13Z</time>
      </trkpt>
      <trkpt lat="41.6093700" lon="1.9953440">
        <ele>568.9</ele>
        <time>2019-12-01T13:53:15Z</time>
      </trkpt>
      <trkpt lat="41.6093960" lon="1.9953200">
        <ele>569.2</ele>
        <time>2019-12-01T13:53:17Z</time>
      </trkpt>
      <trkpt lat="41.6094380" lon="1.9953280">
        <ele>569.6</ele>
        <time>2019-12-01T13:53:19Z</time>
      </trkpt>
      <trkpt lat="41.6094750" lon="1.9953220">
        <ele>569.7</ele>
        <time>2019-12-01T13:53:22Z</time>
      </trkpt>
      <trkpt lat="41.6095260" lon="1.9953190">
        <ele>570.0</ele>
        <time>2019-12-01T13:53:24Z</time>
      </trkpt>
      <trkpt lat="41.6095760" lon="1.9953140">
        <ele>570.2</ele>
        <time>2019-12-01T13:53:26Z</time>
      </trkpt>
      <trkpt lat="41.6096200" lon="1.9953010">
        <ele>570.4</ele>
        <time>2019-12-01T13:53:29Z</time>
      </trkpt>
      <trkpt lat="41.6096650" lon="1.9952810">
        <ele>570.5</ele>
        <time>2019-12-01T13:53:31Z</time>
      </trkpt>
      <trkpt lat="41.6097000" lon="1.9952560">
        <ele>570.7</ele>
        <time>2019-12-01T13:53:33Z</time>
      </trkpt>
      <trkpt lat="41.6097320" lon="1.9952270">
        <ele>570.9</ele>
        <time>2019-12-01T13:53:35Z</time>
      </trkpt>
      <trkpt lat="41.6097710" lon="1.9951940">
        <ele>571.0</ele>
        <time>2019-12-01T13:53:38Z</time>
      </trkpt>
      <trkpt lat="41.6098070" lon="1.9951560">
        <ele>571.2</ele>
        <time>2019-12-01T13:53:40Z</time>
      </trkpt>
      <trkpt lat="41.6098330" lon="1.9951220">
        <ele>571.4</ele>
        <time>2019-12-01T13:53:42Z</time>
      </trkpt>
      <trkpt lat="41.6098670" lon="1.9950830">
        <ele>571.5</ele>
        <time>2019-12-01T13:53:45Z</time>
      </trkpt>
      <trkpt lat="41.6099020" lon="1.9950440">
        <ele>571.7</ele>
        <time>2019-12-01T13:53:47Z</time>
      </trkpt>
      <trkpt lat="41.6099420" lon="1.9950260">
        <ele>571.9</ele>
        <time>2019-12-01T13:53:49Z</time>
      </trkpt>
      <trkpt lat="41.6099820" lon="1.9950110">
        <ele>572.0</ele>
        <time>2019-12-01T13:53:51Z</time>
      </trkpt>
      <trkpt lat="41.6100210" lon="1.9949990">
        <ele>572.2</ele>
        <time>2019-12-01T13:53:54Z</time>
      </trkpt>
      <trkpt lat="41.6100550" lon="1.9949980">
        <ele>572.3</ele>
        <time>2019-12-01T13:53:55Z</time>
      </trkpt>
      <trkpt lat="41.6101000" lon="1.9950180">
        <ele>572.6</ele>
        <time>2019-12-01T13:53:58Z</time>
      </trkpt>
      <trkpt lat="41.6101270" lon="1.9950300">
        <ele>572.7</ele>
        <time>2019-12-01T13:53:59Z</time>
      </trkpt>
      <trkpt lat="41.6101610" lon="1.9950430">
        <ele>572.9</ele>
        <time>2019-12-01T13:54:01Z</time>
      </trkpt>
      <trkpt lat="41.6101930" lon="1.9950540">
        <ele>573.1</ele>
        <time>2019-12-01T13:54:04Z</time>
      </trkpt>
      <trkpt lat="41.6102210" lon="1.9950480">
        <ele>573.3</ele>
        <time>2019-12-01T13:54:06Z</time>
      </trkpt>
      <trkpt lat="41.6102700" lon="1.9950160">
        <ele>573.7</ele>
        <time>2019-12-01T13:54:09Z</time>
      </trkpt>
      <trkpt lat="41.6102960" lon="1.9949790">
        <ele>574.0</ele>
        <time>2019-12-01T13:54:11Z</time>
      </trkpt>
      <trkpt lat="41.6103080" lon="1.9949240">
        <ele>574.3</ele>
        <time>2019-12-01T13:54:14Z</time>
      </trkpt>
      <trkpt lat="41.6103260" lon="1.9948620">
        <ele>574.6</ele>
        <time>2019-12-01T13:54:16Z</time>
      </trkpt>
      <trkpt lat="41.6103260" lon="1.9948030">
        <ele>574.9</ele>
        <time>2019-12-01T13:54:18Z</time>
      </trkpt>
      <trkpt lat="41.6103190" lon="1.9947460">
        <ele>575.2</ele>
        <time>2019-12-01T13:54:20Z</time>
      </trkpt>
      <trkpt lat="41.6103140" lon="1.9946860">
        <ele>575.5</ele>
        <time>2019-12-01T13:54:22Z</time>
      </trkpt>
      <trkpt lat="41.6103130" lon="1.9946130">
        <ele>575.8</ele>
        <time>2019-12-01T13:54:25Z</time>
      </trkpt>
      <trkpt lat="41.6103170" lon="1.9945730">
        <ele>576.0</ele>
        <time>2019-12-01T13:54:27Z</time>
      </trkpt>
      <trkpt lat="41.6103230" lon="1.9945260">
        <ele>576.1</ele>
        <time>2019-12-01T13:54:29Z</time>
      </trkpt>
      <trkpt lat="41.6103360" lon="1.9944730">
        <ele>576.3</ele>
        <time>2019-12-01T13:54:31Z</time>
      </trkpt>
      <trkpt lat="41.6103530" lon="1.9944150">
        <ele>576.4</ele>
        <time>2019-12-01T13:54:33Z</time>
      </trkpt>
      <trkpt lat="41.6103780" lon="1.9943470">
        <ele>576.4</ele>
        <time>2019-12-01T13:54:35Z</time>
      </trkpt>
      <trkpt lat="41.6103940" lon="1.9943140">
        <ele>576.5</ele>
        <time>2019-12-01T13:54:37Z</time>
      </trkpt>
      <trkpt lat="41.6104210" lon="1.9942640">
        <ele>576.5</ele>
        <time>2019-12-01T13:54:38Z</time>
      </trkpt>
      <trkpt lat="41.6104390" lon="1.9942280">
        <ele>576.6</ele>
        <time>2019-12-01T13:54:39Z</time>
      </trkpt>
      <trkpt lat="41.6104560" lon="1.9941970">
        <ele>576.6</ele>
        <time>2019-12-01T13:54:40Z</time>
      </trkpt>
      <trkpt lat="41.6104740" lon="1.9941670">
        <ele>576.5</ele>
        <time>2019-12-01T13:54:41Z</time>
      </trkpt>
      <trkpt lat="41.6105060" lon="1.9941210">
        <ele>576.5</ele>
        <time>2019-12-01T13:54:44Z</time>
      </trkpt>
      <trkpt lat="41.6105330" lon="1.9940930">
        <ele>576.5</ele>
        <time>2019-12-01T13:54:45Z</time>
      </trkpt>
      <trkpt lat="41.6105720" lon="1.9940570">
        <ele>576.5</ele>
        <time>2019-12-01T13:54:47Z</time>
      </trkpt>
      <trkpt lat="41.6106120" lon="1.9940030">
        <ele>576.3</ele>
        <time>2019-12-01T13:54:50Z</time>
      </trkpt>
      <trkpt lat="41.6106330" lon="1.9939560">
        <ele>576.2</ele>
        <time>2019-12-01T13:54:51Z</time>
      </trkpt>
      <trkpt lat="41.6106400" lon="1.9939190">
        <ele>576.1</ele>
        <time>2019-12-01T13:54:53Z</time>
      </trkpt>
      <trkpt lat="41.6106470" lon="1.9938790">
        <ele>576.1</ele>
        <time>2019-12-01T13:54:54Z</time>
      </trkpt>
      <trkpt lat="41.6106520" lon="1.9938380">
        <ele>576.0</ele>
        <time>2019-12-01T13:54:55Z</time>
      </trkpt>
      <trkpt lat="41.6106510" lon="1.9938020">
        <ele>575.9</ele>
        <time>2019-12-01T13:54:56Z</time>
      </trkpt>
      <trkpt lat="41.6106150" lon="1.9937870">
        <ele>575.8</ele>
        <time>2019-12-01T13:54:59Z</time>
      </trkpt>
      <trkpt lat="41.6105390" lon="1.9937770">
        <ele>575.7</ele>
        <time>2019-12-01T13:55:02Z</time>
      </trkpt>
      <trkpt lat="41.6104940" lon="1.9937780">
        <ele>575.6</ele>
        <time>2019-12-01T13:55:03Z</time>
      </trkpt>
      <trkpt lat="41.6104320" lon="1.9937740">
        <ele>575.6</ele>
        <time>2019-12-01T13:55:04Z</time>
      </trkpt>
      <trkpt lat="41.6103820" lon="1.9937680">
        <ele>575.5</ele>
        <time>2019-12-01T13:55:05Z</time>
      </trkpt>
      <trkpt lat="41.6103390" lon="1.9937600">
        <ele>575.5</ele>
        <time>2019-12-01T13:55:06Z</time>
      </trkpt>
      <trkpt lat="41.6103030" lon="1.9937470">
        <ele>575.4</ele>
        <time>2019-12-01T13:55:07Z</time>
      </trkpt>
      <trkpt lat="41.6102730" lon="1.9937330">
        <ele>575.4</ele>
        <time>2019-12-01T13:55:09Z</time>
      </trkpt>
      <trkpt lat="41.6102460" lon="1.9937190">
        <ele>575.4</ele>
        <time>2019-12-01T13:55:10Z</time>
      </trkpt>
      <trkpt lat="41.6102090" lon="1.9936800">
        <ele>575.3</ele>
        <time>2019-12-01T13:55:12Z</time>
      </trkpt>
      <trkpt lat="41.6101730" lon="1.9936220">
        <ele>575.3</ele>
        <time>2019-12-01T13:55:15Z</time>
      </trkpt>
      <trkpt lat="41.6101530" lon="1.9935840">
        <ele>575.3</ele>
        <time>2019-12-01T13:55:16Z</time>
      </trkpt>
      <trkpt lat="41.6101370" lon="1.9935540">
        <ele>575.2</ele>
        <time>2019-12-01T13:55:18Z</time>
      </trkpt>
      <trkpt lat="41.6101120" lon="1.9935150">
        <ele>575.2</ele>
        <time>2019-12-01T13:55:19Z</time>
      </trkpt>
      <trkpt lat="41.6100580" lon="1.9935070">
        <ele>575.1</ele>
        <time>2019-12-01T13:55:22Z</time>
      </trkpt>
      <trkpt lat="41.6100000" lon="1.9935490">
        <ele>575.0</ele>
        <time>2019-12-01T13:55:24Z</time>
      </trkpt>
      <trkpt lat="41.6099700" lon="1.9935700">
        <ele>574.9</ele>
        <time>2019-12-01T13:55:25Z</time>
      </trkpt>
      <trkpt lat="41.6099350" lon="1.9936000">
        <ele>574.8</ele>
        <time>2019-12-01T13:55:26Z</time>
      </trkpt>
      <trkpt lat="41.6099010" lon="1.9936410">
        <ele>574.6</ele>
        <time>2019-12-01T13:55:27Z</time>
      </trkpt>
      <trkpt lat="41.6098630" lon="1.9936870">
        <ele>574.4</ele>
        <time>2019-12-01T13:55:29Z</time>
      </trkpt>
      <trkpt lat="41.6098330" lon="1.9937270">
        <ele>574.2</ele>
        <time>2019-12-01T13:55:30Z</time>
      </trkpt>
      <trkpt lat="41.6098040" lon="1.9937640">
        <ele>574.0</ele>
        <time>2019-12-01T13:55:32Z</time>
      </trkpt>
      <trkpt lat="41.6097660" lon="1.9938060">
        <ele>573.7</ele>
        <time>2019-12-01T13:55:33Z</time>
      </trkpt>
      <trkpt lat="41.6097150" lon="1.9938520">
        <ele>573.2</ele>
        <time>2019-12-01T13:55:35Z</time>
      </trkpt>
      <trkpt lat="41.6096890" lon="1.9938710">
        <ele>572.9</ele>
        <time>2019-12-01T13:55:36Z</time>
      </trkpt>
      <trkpt lat="41.6096540" lon="1.9938750">
        <ele>572.6</ele>
        <time>2019-12-01T13:55:38Z</time>
      </trkpt>
      <trkpt lat="41.6096270" lon="1.9938750">
        <ele>572.3</ele>
        <time>2019-12-01T13:55:39Z</time>
      </trkpt>
      <trkpt lat="41.6095670" lon="1.9938640">
        <ele>571.7</ele>
        <time>2019-12-01T13:55:42Z</time>
      </trkpt>
      <trkpt lat="41.6095160" lon="1.9938520">
        <ele>571.1</ele>
        <time>2019-12-01T13:55:44Z</time>
      </trkpt>
      <trkpt lat="41.6094540" lon="1.9938380">
        <ele>570.5</ele>
        <time>2019-12-01T13:55:47Z</time>
      </trkpt>
      <trkpt lat="41.6094130" lon="1.9938300">
        <ele>570.1</ele>
        <time>2019-12-01T13:55:48Z</time>
      </trkpt>
      <trkpt lat="41.6093850" lon="1.9938220">
        <ele>569.8</ele>
        <time>2019-12-01T13:55:49Z</time>
      </trkpt>
      <trkpt lat="41.6093540" lon="1.9938120">
        <ele>569.5</ele>
        <time>2019-12-01T13:55:50Z</time>
      </trkpt>
      <trkpt lat="41.6093250" lon="1.9938050">
        <ele>569.3</ele>
        <time>2019-12-01T13:55:52Z</time>
      </trkpt>
      <trkpt lat="41.6092770" lon="1.9937940">
        <ele>568.8</ele>
        <time>2019-12-01T13:55:53Z</time>
      </trkpt>
      <trkpt lat="41.6092480" lon="1.9937850">
        <ele>568.5</ele>
        <time>2019-12-01T13:55:55Z</time>
      </trkpt>
      <trkpt lat="41.6092040" lon="1.9937660">
        <ele>568.1</ele>
        <time>2019-12-01T13:55:56Z</time>
      </trkpt>
      <trkpt lat="41.6091780" lon="1.9937530">
        <ele>567.9</ele>
        <time>2019-12-01T13:55:57Z</time>
      </trkpt>
      <trkpt lat="41.6091240" lon="1.9937390">
        <ele>567.5</ele>
        <time>2019-12-01T13:55:59Z</time>
      </trkpt>
      <trkpt lat="41.6090950" lon="1.9937330">
        <ele>567.3</ele>
        <time>2019-12-01T13:56:01Z</time>
      </trkpt>
      <trkpt lat="41.6090310" lon="1.9937180">
        <ele>567.2</ele>
        <time>2019-12-01T13:56:03Z</time>
      </trkpt>
      <trkpt lat="41.6089870" lon="1.9937030">
        <ele>567.2</ele>
        <time>2019-12-01T13:56:05Z</time>
      </trkpt>
      <trkpt lat="41.6089440" lon="1.9936920">
        <ele>567.2</ele>
        <time>2019-12-01T13:56:08Z</time>
      </trkpt>
      <trkpt lat="41.6088890" lon="1.9936850">
        <ele>567.2</ele>
        <time>2019-12-01T13:56:10Z</time>
      </trkpt>
      <trkpt lat="41.6088450" lon="1.9936730">
        <ele>567.2</ele>
        <time>2019-12-01T13:56:12Z</time>
      </trkpt>
      <trkpt lat="41.6088020" lon="1.9936650">
        <ele>567.3</ele>
        <time>2019-12-01T13:56:15Z</time>
      </trkpt>
      <trkpt lat="41.6087540" lon="1.9936670">
        <ele>567.4</ele>
        <time>2019-12-01T13:56:17Z</time>
      </trkpt>
      <trkpt lat="41.6086960" lon="1.9936620">
        <ele>567.5</ele>
        <time>2019-12-01T13:56:19Z</time>
      </trkpt>
      <trkpt lat="41.6086500" lon="1.9936550">
        <ele>567.7</ele>
        <time>2019-12-01T13:56:22Z</time>
      </trkpt>
      <trkpt lat="41.6085990" lon="1.9936520">
        <ele>567.9</ele>
        <time>2019-12-01T13:56:24Z</time>
      </trkpt>
      <trkpt lat="41.6085530" lon="1.9936490">
        <ele>568.1</ele>
        <time>2019-12-01T13:56:27Z</time>
      </trkpt>
      <trkpt lat="41.6085190" lon="1.9936420">
        <ele>568.3</ele>
        <time>2019-12-01T13:56:28Z</time>
      </trkpt>
      <trkpt lat="41.6084790" lon="1.9936270">
        <ele>568.5</ele>
        <time>2019-12-01T13:56:30Z</time>
      </trkpt>
      <trkpt lat="41.6084450" lon="1.9936260">
        <ele>568.7</ele>
        <time>2019-12-01T13:56:33Z</time>
      </trkpt>
      <trkpt lat="41.6084120" lon="1.9936230">
        <ele>568.9</ele>
        <time>2019-12-01T13:56:35Z</time>
      </trkpt>
      <trkpt lat="41.6083750" lon="1.9936180">
        <ele>569.2</ele>
        <time>2019-12-01T13:56:37Z</time>
      </trkpt>
      <trkpt lat="41.6083340" lon="1.9936070">
        <ele>569.5</ele>
        <time>2019-12-01T13:56:39Z</time>
      </trkpt>
      <trkpt lat="41.6082940" lon="1.9935910">
        <ele>569.8</ele>
        <time>2019-12-01T13:56:42Z</time>
      </trkpt>
      <trkpt lat="41.6082480" lon="1.9935650">
        <ele>570.0</ele>
        <time>2019-12-01T13:56:44Z</time>
      </trkpt>
      <trkpt lat="41.6082100" lon="1.9935400">
        <ele>570.3</ele>
        <time>2019-12-01T13:56:46Z</time>
      </trkpt>
      <trkpt lat="41.6081710" lon="1.9935170">
        <ele>570.4</ele>
        <time>2019-12-01T13:56:49Z</time>
      </trkpt>
      <trkpt lat="41.6081300" lon="1.9934910">
        <ele>570.6</ele>
        <time>2019-12-01T13:56:51Z</time>
      </trkpt>
      <trkpt lat="41.6080900" lon="1.9934710">
        <ele>570.7</ele>
        <time>2019-12-01T13:56:53Z</time>
      </trkpt>
      <trkpt lat="41.6080280" lon="1.9934180">
        <ele>571.0</ele>
        <time>2019-12-01T13:56:56Z</time>
      </trkpt>
      <trkpt lat="41.6080070" lon="1.9933860">
        <ele>571.1</ele>
        <time>2019-12-01T13:56:57Z</time>
      </trkpt>
      <trkpt lat="41.6079870" lon="1.9933550">
        <ele>571.2</ele>
        <time>2019-12-01T13:56:59Z</time>
      </trkpt>
      <trkpt lat="41.6079650" lon="1.9933220">
        <ele>571.3</ele>
        <time>2019-12-01T13:57:00Z</time>
      </trkpt>
      <trkpt lat="41.6079410" lon="1.9932940">
        <ele>571.5</ele>
        <time>2019-12-01T13:57:01Z</time>
      </trkpt>
      <trkpt lat="41.6079000" lon="1.9932570">
        <ele>571.7</ele>
        <time>2019-12-01T13:57:03Z</time>
      </trkpt>
      <trkpt lat="41.6078950" lon="1.9930040">
        <ele>575.3</ele>
        <time>2019-12-01T13:57:26Z</time>
      </trkpt>
      <trkpt lat="41.6079210" lon="1.9929520">
        <ele>576.2</ele>
        <time>2019-12-01T13:57:28Z</time>
      </trkpt>
      <trkpt lat="41.6079490" lon="1.9929150">
        <ele>576.9</ele>
        <time>2019-12-01T13:57:30Z</time>
      </trkpt>
      <trkpt lat="41.6079740" lon="1.9928850">
        <ele>577.6</ele>
        <time>2019-12-01T13:57:33Z</time>
      </trkpt>
      <trkpt lat="41.6080080" lon="1.9928800">
        <ele>578.2</ele>
        <time>2019-12-01T13:57:34Z</time>
      </trkpt>
      <trkpt lat="41.6080490" lon="1.9928700">
        <ele>579.0</ele>
        <time>2019-12-01T13:57:37Z</time>
      </trkpt>
      <trkpt lat="41.6080990" lon="1.9928760">
        <ele>579.8</ele>
        <time>2019-12-01T13:57:39Z</time>
      </trkpt>
      <trkpt lat="41.6081250" lon="1.9928820">
        <ele>580.3</ele>
        <time>2019-12-01T13:57:40Z</time>
      </trkpt>
      <trkpt lat="41.6081700" lon="1.9928960">
        <ele>581.1</ele>
        <time>2019-12-01T13:57:42Z</time>
      </trkpt>
      <trkpt lat="41.6082110" lon="1.9929060">
        <ele>581.8</ele>
        <time>2019-12-01T13:57:44Z</time>
      </trkpt>
      <trkpt lat="41.6082540" lon="1.9929220">
        <ele>582.7</ele>
        <time>2019-12-01T13:57:47Z</time>
      </trkpt>
      <trkpt lat="41.6082750" lon="1.9929500">
        <ele>583.3</ele>
        <time>2019-12-01T13:57:48Z</time>
      </trkpt>
      <trkpt lat="41.6082910" lon="1.9929830">
        <ele>583.9</ele>
        <time>2019-12-01T13:57:49Z</time>
      </trkpt>
      <trkpt lat="41.6083280" lon="1.9930230">
        <ele>584.8</ele>
        <time>2019-12-01T13:57:51Z</time>
      </trkpt>
      <trkpt lat="41.6083790" lon="1.9930640">
        <ele>586.0</ele>
        <time>2019-12-01T13:57:54Z</time>
      </trkpt>
      <trkpt lat="41.6084290" lon="1.9930930">
        <ele>587.1</ele>
        <time>2019-12-01T13:57:56Z</time>
      </trkpt>
      <trkpt lat="41.6084980" lon="1.9931150">
        <ele>588.7</ele>
        <time>2019-12-01T13:57:59Z</time>
      </trkpt>
      <trkpt lat="41.6085260" lon="1.9931290">
        <ele>589.5</ele>
        <time>2019-12-01T13:58:01Z</time>
      </trkpt>
      <trkpt lat="41.6085730" lon="1.9931430">
        <ele>590.6</ele>
        <time>2019-12-01T13:58:03Z</time>
      </trkpt>
      <trkpt lat="41.6086210" lon="1.9931490">
        <ele>591.7</ele>
        <time>2019-12-01T13:58:05Z</time>
      </trkpt>
      <trkpt lat="41.6086690" lon="1.9931500">
        <ele>592.9</ele>
        <time>2019-12-01T13:58:07Z</time>
      </trkpt>
      <trkpt lat="41.6087130" lon="1.9931480">
        <ele>593.9</ele>
        <time>2019-12-01T13:58:10Z</time>
      </trkpt>
      <trkpt lat="41.6087530" lon="1.9931430">
        <ele>594.8</ele>
        <time>2019-12-01T13:58:12Z</time>
      </trkpt>
      <trkpt lat="41.6088130" lon="1.9931310">
        <ele>596.0</ele>
        <time>2019-12-01T13:58:16Z</time>
      </trkpt>
      <trkpt lat="41.6088440" lon="1.9931190">
        <ele>596.6</ele>
        <time>2019-12-01T13:58:18Z</time>
      </trkpt>
      <trkpt lat="41.6088830" lon="1.9930950">
        <ele>597.4</ele>
        <time>2019-12-01T13:58:21Z</time>
      </trkpt>
      <trkpt lat="41.6089090" lon="1.9930730">
        <ele>597.9</ele>
        <time>2019-12-01T13:58:22Z</time>
      </trkpt>
      <trkpt lat="41.6089430" lon="1.9930370">
        <ele>598.6</ele>
        <time>2019-12-01T13:58:25Z</time>
      </trkpt>
      <trkpt lat="41.6089660" lon="1.9930090">
        <ele>599.1</ele>
        <time>2019-12-01T13:58:26Z</time>
      </trkpt>
      <trkpt lat="41.6089890" lon="1.9929840">
        <ele>599.5</ele>
        <time>2019-12-01T13:58:28Z</time>
      </trkpt>
      <trkpt lat="41.6090230" lon="1.9929350">
        <ele>600.3</ele>
        <time>2019-12-01T13:58:30Z</time>
      </trkpt>
      <trkpt lat="41.6090500" lon="1.9928850">
        <ele>600.8</ele>
        <time>2019-12-01T13:58:32Z</time>
      </trkpt>
      <trkpt lat="41.6090830" lon="1.9928300">
        <ele>601.5</ele>
        <time>2019-12-01T13:58:36Z</time>
      </trkpt>
      <trkpt lat="41.6090780" lon="1.9927840">
        <ele>601.9</ele>
        <time>2019-12-01T13:58:37Z</time>
      </trkpt>
      <trkpt lat="41.6090650" lon="1.9927470">
        <ele>602.3</ele>
        <time>2019-12-01T13:58:39Z</time>
      </trkpt>
      <trkpt lat="41.6090500" lon="1.9926880">
        <ele>602.8</ele>
        <time>2019-12-01T13:58:41Z</time>
      </trkpt>
      <trkpt lat="41.6090430" lon="1.9926530">
        <ele>603.1</ele>
        <time>2019-12-01T13:58:42Z</time>
      </trkpt>
      <trkpt lat="41.6090540" lon="1.9925970">
        <ele>603.7</ele>
        <time>2019-12-01T13:58:48Z</time>
      </trkpt>
      <trkpt lat="41.6090800" lon="1.9925700">
        <ele>604.1</ele>
        <time>2019-12-01T13:58:53Z</time>
      </trkpt>
      <trkpt lat="41.6091120" lon="1.9925230">
        <ele>604.7</ele>
        <time>2019-12-01T13:58:58Z</time>
      </trkpt>
      <trkpt lat="41.6091360" lon="1.9924780">
        <ele>605.3</ele>
        <time>2019-12-01T13:59:01Z</time>
      </trkpt>
      <trkpt lat="41.6091630" lon="1.9924220">
        <ele>606.0</ele>
        <time>2019-12-01T13:59:03Z</time>
      </trkpt>
      <trkpt lat="41.6091920" lon="1.9923730">
        <ele>606.7</ele>
        <time>2019-12-01T13:59:05Z</time>
      </trkpt>
      <trkpt lat="41.6092140" lon="1.9923420">
        <ele>607.3</ele>
        <time>2019-12-01T13:59:07Z</time>
      </trkpt>
      <trkpt lat="41.6092910" lon="1.9922410">
        <ele>609.2</ele>
        <time>2019-12-01T13:59:09Z</time>
      </trkpt>
      <trkpt lat="41.6093150" lon="1.9922010">
        <ele>609.9</ele>
        <time>2019-12-01T13:59:11Z</time>
      </trkpt>
      <trkpt lat="41.6093490" lon="1.9921410">
        <ele>611.0</ele>
        <time>2019-12-01T13:59:13Z</time>
      </trkpt>
      <trkpt lat="41.6093610" lon="1.9920850">
        <ele>611.8</ele>
        <time>2019-12-01T13:59:14Z</time>
      </trkpt>
      <trkpt lat="41.6093730" lon="1.9920520">
        <ele>612.3</ele>
        <time>2019-12-01T13:59:15Z</time>
      </trkpt>
      <trkpt lat="41.6093970" lon="1.9920210">
        <ele>613.0</ele>
        <time>2019-12-01T13:59:16Z</time>
      </trkpt>
      <trkpt lat="41.6094190" lon="1.9920010">
        <ele>613.5</ele>
        <time>2019-12-01T13:59:18Z</time>
      </trkpt>
      <trkpt lat="41.6094420" lon="1.9919810">
        <ele>614.0</ele>
        <time>2019-12-01T13:59:19Z</time>
      </trkpt>
      <trkpt lat="41.6094800" lon="1.9919310">
        <ele>615.0</ele>
        <time>2019-12-01T13:59:21Z</time>
      </trkpt>
      <trkpt lat="41.6094940" lon="1.9918770">
        <ele>615.9</ele>
        <time>2019-12-01T13:59:23Z</time>
      </trkpt>
      <trkpt lat="41.6095130" lon="1.9918200">
        <ele>616.8</ele>
        <time>2019-12-01T13:59:25Z</time>
      </trkpt>
      <trkpt lat="41.6095310" lon="1.9917590">
        <ele>617.8</ele>
        <time>2019-12-01T13:59:28Z</time>
      </trkpt>
      <trkpt lat="41.6095350" lon="1.9917210">
        <ele>618.3</ele>
        <time>2019-12-01T13:59:30Z</time>
      </trkpt>
      <trkpt lat="41.6095500" lon="1.9916850">
        <ele>618.8</ele>
        <time>2019-12-01T13:59:32Z</time>
      </trkpt>
      <trkpt lat="41.6095650" lon="1.9916460">
        <ele>619.3</ele>
        <time>2019-12-01T13:59:35Z</time>
      </trkpt>
      <trkpt lat="41.6095850" lon="1.9916040">
        <ele>620.0</ele>
        <time>2019-12-01T13:59:39Z</time>
      </trkpt>
      <trkpt lat="41.6096040" lon="1.9915630">
        <ele>620.6</ele>
        <time>2019-12-01T13:59:42Z</time>
      </trkpt>
      <trkpt lat="41.6096190" lon="1.9915290">
        <ele>621.0</ele>
        <time>2019-12-01T13:59:45Z</time>
      </trkpt>
      <trkpt lat="41.6097510" lon="1.9911250">
        <ele>626.3</ele>
        <time>2019-12-01T14:00:12Z</time>
      </trkpt>
      <trkpt lat="41.6097610" lon="1.9910890">
        <ele>626.8</ele>
        <time>2019-12-01T14:00:14Z</time>
      </trkpt>
      <trkpt lat="41.6097720" lon="1.9910360">
        <ele>627.5</ele>
        <time>2019-12-01T14:00:17Z</time>
      </trkpt>
      <trkpt lat="41.6097910" lon="1.9909940">
        <ele>628.1</ele>
        <time>2019-12-01T14:00:20Z</time>
      </trkpt>
      <trkpt lat="41.6098190" lon="1.9909560">
        <ele>628.7</ele>
        <time>2019-12-01T14:00:23Z</time>
      </trkpt>
      <trkpt lat="41.6098330" lon="1.9909150">
        <ele>629.3</ele>
        <time>2019-12-01T14:00:25Z</time>
      </trkpt>
      <trkpt lat="41.6098480" lon="1.9908730">
        <ele>629.8</ele>
        <time>2019-12-01T14:00:28Z</time>
      </trkpt>
      <trkpt lat="41.6098810" lon="1.9908070">
        <ele>630.5</ele>
        <time>2019-12-01T14:00:32Z</time>
      </trkpt>
      <trkpt lat="41.6099020" lon="1.9907740">
        <ele>630.9</ele>
        <time>2019-12-01T14:00:34Z</time>
      </trkpt>
      <trkpt lat="41.6099260" lon="1.9907250">
        <ele>631.4</ele>
        <time>2019-12-01T14:00:37Z</time>
      </trkpt>
      <trkpt lat="41.6099520" lon="1.9906950">
        <ele>631.8</ele>
        <time>2019-12-01T14:00:39Z</time>
      </trkpt>
      <trkpt lat="41.6099940" lon="1.9906610">
        <ele>632.3</ele>
        <time>2019-12-01T14:00:42Z</time>
      </trkpt>
      <trkpt lat="41.6100250" lon="1.9906350">
        <ele>632.7</ele>
        <time>2019-12-01T14:00:44Z</time>
      </trkpt>
      <trkpt lat="41.6100580" lon="1.9906000">
        <ele>633.1</ele>
        <time>2019-12-01T14:00:46Z</time>
      </trkpt>
      <trkpt lat="41.6100810" lon="1.9905680">
        <ele>633.4</ele>
        <time>2019-12-01T14:00:49Z</time>
      </trkpt>
      <trkpt lat="41.6101010" lon="1.9905300">
        <ele>633.6</ele>
        <time>2019-12-01T14:00:51Z</time>
      </trkpt>
      <trkpt lat="41.6101340" lon="1.9904860">
        <ele>634.0</ele>
        <time>2019-12-01T14:00:57Z</time>
      </trkpt>
      <trkpt lat="41.6101720" lon="1.9904820">
        <ele>634.3</ele>
        <time>2019-12-01T14:01:03Z</time>
      </trkpt>
      <trkpt lat="41.6102110" lon="1.9904730">
        <ele>634.6</ele>
        <time>2019-12-01T14:01:05Z</time>
      </trkpt>
      <trkpt lat="41.6102530" lon="1.9904650">
        <ele>634.9</ele>
        <time>2019-12-01T14:01:07Z</time>
      </trkpt>
      <trkpt lat="41.6102950" lon="1.9904570">
        <ele>635.2</ele>
        <time>2019-12-01T14:01:09Z</time>
      </trkpt>
      <trkpt lat="41.6103370" lon="1.9904530">
        <ele>635.6</ele>
        <time>2019-12-01T14:01:12Z</time>
      </trkpt>
      <trkpt lat="41.6103740" lon="1.9904380">
        <ele>635.9</ele>
        <time>2019-12-01T14:01:14Z</time>
      </trkpt>
      <trkpt lat="41.6103810" lon="1.9903780">
        <ele>636.4</ele>
        <time>2019-12-01T14:01:17Z</time>
      </trkpt>
      <trkpt lat="41.6103860" lon="1.9903320">
        <ele>636.8</ele>
        <time>2019-12-01T14:01:19Z</time>
      </trkpt>
      <trkpt lat="41.6103910" lon="1.9902800">
        <ele>637.2</ele>
        <time>2019-12-01T14:01:21Z</time>
      </trkpt>
      <trkpt lat="41.6103870" lon="1.9902200">
        <ele>637.7</ele>
        <time>2019-12-01T14:01:24Z</time>
      </trkpt>
      <trkpt lat="41.6103900" lon="1.9901800">
        <ele>638.0</ele>
        <time>2019-12-01T14:01:25Z</time>
      </trkpt>
      <trkpt lat="41.6103940" lon="1.9901310">
        <ele>638.4</ele>
        <time>2019-12-01T14:01:27Z</time>
      </trkpt>
      <trkpt lat="41.6104010" lon="1.9900850">
        <ele>638.8</ele>
        <time>2019-12-01T14:01:29Z</time>
      </trkpt>
      <trkpt lat="41.6104190" lon="1.9900280">
        <ele>639.4</ele>
        <time>2019-12-01T14:01:32Z</time>
      </trkpt>
      <trkpt lat="41.6104270" lon="1.9899860">
        <ele>639.7</ele>
        <time>2019-12-01T14:01:33Z</time>
      </trkpt>
      <trkpt lat="41.6104300" lon="1.9899380">
        <ele>640.1</ele>
        <time>2019-12-01T14:01:35Z</time>
      </trkpt>
      <trkpt lat="41.6104300" lon="1.9898820">
        <ele>640.6</ele>
        <time>2019-12-01T14:01:39Z</time>
      </trkpt>
      <trkpt lat="41.6104290" lon="1.9898340">
        <ele>641.0</ele>
        <time>2019-12-01T14:01:41Z</time>
      </trkpt>
      <trkpt lat="41.6104250" lon="1.9897980">
        <ele>641.3</ele>
        <time>2019-12-01T14:01:43Z</time>
      </trkpt>
      <trkpt lat="41.6103990" lon="1.9897400">
        <ele>641.9</ele>
        <time>2019-12-01T14:01:45Z</time>
      </trkpt>
      <trkpt lat="41.6103730" lon="1.9897010">
        <ele>642.4</ele>
        <time>2019-12-01T14:01:47Z</time>
      </trkpt>
      <trkpt lat="41.6103410" lon="1.9896700">
        <ele>642.8</ele>
        <time>2019-12-01T14:01:48Z</time>
      </trkpt>
      <trkpt lat="41.6103090" lon="1.9896360">
        <ele>643.3</ele>
        <time>2019-12-01T14:01:50Z</time>
      </trkpt>
      <trkpt lat="41.6102780" lon="1.9895980">
        <ele>643.8</ele>
        <time>2019-12-01T14:01:53Z</time>
      </trkpt>
      <trkpt lat="41.6102580" lon="1.9895660">
        <ele>644.2</ele>
        <time>2019-12-01T14:01:55Z</time>
      </trkpt>
      <trkpt lat="41.6102420" lon="1.9895290">
        <ele>644.6</ele>
        <time>2019-12-01T14:01:57Z</time>
      </trkpt>
      <trkpt lat="41.6102340" lon="1.9894900">
        <ele>645.0</ele>
        <time>2019-12-01T14:02:00Z</time>
      </trkpt>
      <trkpt lat="41.6102320" lon="1.9894470">
        <ele>646.6</ele>
        <time>2019-12-01T14:02:02Z</time>
      </trkpt>
      <trkpt lat="41.6102330" lon="1.9894100">
        <ele>646.7</ele>
        <time>2019-12-01T14:02:04Z</time>
      </trkpt>
      <trkpt lat="41.6102260" lon="1.9893530">
        <ele>646.9</ele>
        <time>2019-12-01T14:02:07Z</time>
      </trkpt>
      <trkpt lat="41.6102140" lon="1.9893020">
        <ele>647.3</ele>
        <time>2019-12-01T14:02:09Z</time>
      </trkpt>
      <trkpt lat="41.6102030" lon="1.9892600">
        <ele>648.1</ele>
        <time>2019-12-01T14:02:11Z</time>
      </trkpt>
      <trkpt lat="41.6101880" lon="1.9891750">
        <ele>649.5</ele>
        <time>2019-12-01T14:02:15Z</time>
      </trkpt>
      <trkpt lat="41.6101890" lon="1.9891230">
        <ele>650.3</ele>
        <time>2019-12-01T14:02:17Z</time>
      </trkpt>
      <trkpt lat="41.6101990" lon="1.9890810">
        <ele>650.9</ele>
        <time>2019-12-01T14:02:19Z</time>
      </trkpt>
      <trkpt lat="41.6102150" lon="1.9890250">
        <ele>651.5</ele>
        <time>2019-12-01T14:02:22Z</time>
      </trkpt>
      <trkpt lat="41.6102220" lon="1.9889760">
        <ele>652.1</ele>
        <time>2019-12-01T14:02:24Z</time>
      </trkpt>
      <trkpt lat="41.6102260" lon="1.9889120">
        <ele>652.7</ele>
        <time>2019-12-01T14:02:26Z</time>
      </trkpt>
      <trkpt lat="41.6102230" lon="1.9888650">
        <ele>653.2</ele>
        <time>2019-12-01T14:02:28Z</time>
      </trkpt>
      <trkpt lat="41.6102160" lon="1.9888040">
        <ele>653.8</ele>
        <time>2019-12-01T14:02:30Z</time>
      </trkpt>
      <trkpt lat="41.6102060" lon="1.9887550">
        <ele>654.2</ele>
        <time>2019-12-01T14:02:32Z</time>
      </trkpt>
      <trkpt lat="41.6101910" lon="1.9887130">
        <ele>654.6</ele>
        <time>2019-12-01T14:02:35Z</time>
      </trkpt>
      <trkpt lat="41.6101810" lon="1.9886800">
        <ele>654.9</ele>
        <time>2019-12-01T14:02:36Z</time>
      </trkpt>
      <trkpt lat="41.6101670" lon="1.9886350">
        <ele>655.3</ele>
        <time>2019-12-01T14:02:38Z</time>
      </trkpt>
      <trkpt lat="41.6101430" lon="1.9885850">
        <ele>655.8</ele>
        <time>2019-12-01T14:02:41Z</time>
      </trkpt>
      <trkpt lat="41.6101210" lon="1.9885440">
        <ele>656.2</ele>
        <time>2019-12-01T14:02:43Z</time>
      </trkpt>
      <trkpt lat="41.6100960" lon="1.9885050">
        <ele>656.6</ele>
        <time>2019-12-01T14:02:45Z</time>
      </trkpt>
      <trkpt lat="41.6100760" lon="1.9884630">
        <ele>657.0</ele>
        <time>2019-12-01T14:02:47Z</time>
      </trkpt>
      <trkpt lat="41.6100550" lon="1.9884190">
        <ele>657.4</ele>
        <time>2019-12-01T14:02:49Z</time>
      </trkpt>
      <trkpt lat="41.6100340" lon="1.9883730">
        <ele>657.8</ele>
        <time>2019-12-01T14:02:52Z</time>
      </trkpt>
      <trkpt lat="41.6100080" lon="1.9883190">
        <ele>658.3</ele>
        <time>2019-12-01T14:02:54Z</time>
      </trkpt>
      <trkpt lat="41.6099800" lon="1.9882680">
        <ele>658.6</ele>
        <time>2019-12-01T14:02:56Z</time>
      </trkpt>
      <trkpt lat="41.6099600" lon="1.9882190">
        <ele>659.0</ele>
        <time>2019-12-01T14:02:58Z</time>
      </trkpt>
      <trkpt lat="41.6099430" lon="1.9881660">
        <ele>659.4</ele>
        <time>2019-12-01T14:03:01Z</time>
      </trkpt>
      <trkpt lat="41.6099200" lon="1.9881360">
        <ele>659.7</ele>
        <time>2019-12-01T14:03:03Z</time>
      </trkpt>
      <trkpt lat="41.6098870" lon="1.9881170">
        <ele>660.0</ele>
        <time>2019-12-01T14:03:05Z</time>
      </trkpt>
      <trkpt lat="41.6098370" lon="1.9881010">
        <ele>660.4</ele>
        <time>2019-12-01T14:03:08Z</time>
      </trkpt>
      <trkpt lat="41.6097910" lon="1.9880810">
        <ele>660.8</ele>
        <time>2019-12-01T14:03:10Z</time>
      </trkpt>
      <trkpt lat="41.6097480" lon="1.9880600">
        <ele>661.1</ele>
        <time>2019-12-01T14:03:12Z</time>
      </trkpt>
      <trkpt lat="41.6096960" lon="1.9880280">
        <ele>661.5</ele>
        <time>2019-12-01T14:03:15Z</time>
      </trkpt>
      <trkpt lat="41.6096450" lon="1.9879720">
        <ele>661.9</ele>
        <time>2019-12-01T14:03:18Z</time>
      </trkpt>
      <trkpt lat="41.6095880" lon="1.9879060">
        <ele>662.5</ele>
        <time>2019-12-01T14:03:21Z</time>
      </trkpt>
      <trkpt lat="41.6095700" lon="1.9878770">
        <ele>662.6</ele>
        <time>2019-12-01T14:03:22Z</time>
      </trkpt>
      <trkpt lat="41.6095520" lon="1.9878470">
        <ele>662.8</ele>
        <time>2019-12-01T14:03:23Z</time>
      </trkpt>
      <trkpt lat="41.6095100" lon="1.9877760">
        <ele>663.2</ele>
        <time>2019-12-01T14:03:26Z</time>
      </trkpt>
      <trkpt lat="41.6094940" lon="1.9877450">
        <ele>663.3</ele>
        <time>2019-12-01T14:03:27Z</time>
      </trkpt>
      <trkpt lat="41.6094630" lon="1.9876920">
        <ele>663.5</ele>
        <time>2019-12-01T14:03:29Z</time>
      </trkpt>
      <trkpt lat="41.6094320" lon="1.9876460">
        <ele>663.7</ele>
        <time>2019-12-01T14:03:32Z</time>
      </trkpt>
      <trkpt lat="41.6094160" lon="1.9876120">
        <ele>663.9</ele>
        <time>2019-12-01T14:03:33Z</time>
      </trkpt>
      <trkpt lat="41.6093960" lon="1.9875830">
        <ele>664.0</ele>
        <time>2019-12-01T14:03:36Z</time>
      </trkpt>
      <trkpt lat="41.6093720" lon="1.9875600">
        <ele>664.1</ele>
        <time>2019-12-01T14:03:37Z</time>
      </trkpt>
      <trkpt lat="41.6093400" lon="1.9875240">
        <ele>664.3</ele>
        <time>2019-12-01T14:03:40Z</time>
      </trkpt>
      <trkpt lat="41.6093160" lon="1.9874970">
        <ele>664.4</ele>
        <time>2019-12-01T14:03:41Z</time>
      </trkpt>
      <trkpt lat="41.6092810" lon="1.9874590">
        <ele>664.6</ele>
        <time>2019-12-01T14:03:43Z</time>
      </trkpt>
      <trkpt lat="41.6092340" lon="1.9874290">
        <ele>664.8</ele>
        <time>2019-12-01T14:03:46Z</time>
      </trkpt>
      <trkpt lat="41.6091900" lon="1.9874050">
        <ele>664.9</ele>
        <time>2019-12-01T14:03:48Z</time>
      </trkpt>
      <trkpt lat="41.6091360" lon="1.9873890">
        <ele>665.1</ele>
        <time>2019-12-01T14:03:50Z</time>
      </trkpt>
      <trkpt lat="41.6091030" lon="1.9873770">
        <ele>665.1</ele>
        <time>2019-12-01T14:03:51Z</time>
      </trkpt>
      <trkpt lat="41.6090730" lon="1.9873660">
        <ele>665.1</ele>
        <time>2019-12-01T14:03:53Z</time>
      </trkpt>
      <trkpt lat="41.6090240" lon="1.9873550">
        <ele>665.0</ele>
        <time>2019-12-01T14:03:54Z</time>
      </trkpt>
      <trkpt lat="41.6089670" lon="1.9873430">
        <ele>664.6</ele>
        <time>2019-12-01T14:03:56Z</time>
      </trkpt>
      <trkpt lat="41.6089390" lon="1.9873380">
        <ele>664.4</ele>
        <time>2019-12-01T14:03:57Z</time>
      </trkpt>
      <trkpt lat="41.6089070" lon="1.9873290">
        <ele>664.0</ele>
        <time>2019-12-01T14:03:58Z</time>
      </trkpt>
      <trkpt lat="41.6088730" lon="1.9873220">
        <ele>663.6</ele>
        <time>2019-12-01T14:03:59Z</time>
      </trkpt>
      <trkpt lat="41.6088420" lon="1.9873220">
        <ele>663.0</ele>
        <time>2019-12-01T14:04:01Z</time>
      </trkpt>
      <trkpt lat="41.6087910" lon="1.9873230">
        <ele>662.0</ele>
        <time>2019-12-01T14:04:02Z</time>
      </trkpt>
      <trkpt lat="41.6087430" lon="1.9873250">
        <ele>661.0</ele>
        <time>2019-12-01T14:04:04Z</time>
      </trkpt>
      <trkpt lat="41.6086810" lon="1.9873360">
        <ele>659.6</ele>
        <time>2019-12-01T14:04:05Z</time>
      </trkpt>
      <trkpt lat="41.6086400" lon="1.9873480">
        <ele>658.6</ele>
        <time>2019-12-01T14:04:06Z</time>
      </trkpt>
      <trkpt lat="41.6086020" lon="1.9873540">
        <ele>657.7</ele>
        <time>2019-12-01T14:04:07Z</time>
      </trkpt>
      <trkpt lat="41.6085670" lon="1.9873600">
        <ele>656.7</ele>
        <time>2019-12-01T14:04:09Z</time>
      </trkpt>
      <trkpt lat="41.6085180" lon="1.9873730">
        <ele>655.5</ele>
        <time>2019-12-01T14:04:10Z</time>
      </trkpt>
      <trkpt lat="41.6084840" lon="1.9873750">
        <ele>654.4</ele>
        <time>2019-12-01T14:04:12Z</time>
      </trkpt>
      <trkpt lat="41.6084240" lon="1.9873860">
        <ele>652.6</ele>
        <time>2019-12-01T14:04:14Z</time>
      </trkpt>
      <trkpt lat="41.6083580" lon="1.9874060">
        <ele>650.3</ele>
        <time>2019-12-01T14:04:15Z</time>
      </trkpt>
      <trkpt lat="41.6083240" lon="1.9874170">
        <ele>648.9</ele>
        <time>2019-12-01T14:04:17Z</time>
      </trkpt>
      <trkpt lat="41.6082900" lon="1.9874270">
        <ele>647.6</ele>
        <time>2019-12-01T14:04:18Z</time>
      </trkpt>
      <trkpt lat="41.6082600" lon="1.9874340">
        <ele>646.4</ele>
        <time>2019-12-01T14:04:19Z</time>
      </trkpt>
      <trkpt lat="41.6082130" lon="1.9874390">
        <ele>644.6</ele>
        <time>2019-12-01T14:04:21Z</time>
      </trkpt>
      <trkpt lat="41.6081630" lon="1.9874470">
        <ele>642.6</ele>
        <time>2019-12-01T14:04:23Z</time>
      </trkpt>
      <trkpt lat="41.6081130" lon="1.9874540">
        <ele>640.6</ele>
        <time>2019-12-01T14:04:26Z</time>
      </trkpt>
      <trkpt lat="41.6080610" lon="1.9874660">
        <ele>638.5</ele>
        <time>2019-12-01T14:04:28Z</time>
      </trkpt>
      <trkpt lat="41.6080130" lon="1.9874540">
        <ele>636.6</ele>
        <time>2019-12-01T14:04:30Z</time>
      </trkpt>
      <trkpt lat="41.6079730" lon="1.9874340">
        <ele>634.9</ele>
        <time>2019-12-01T14:04:32Z</time>
      </trkpt>
      <trkpt lat="41.6079410" lon="1.9874160">
        <ele>633.7</ele>
        <time>2019-12-01T14:04:33Z</time>
      </trkpt>
      <trkpt lat="41.6078840" lon="1.9873690">
        <ele>631.3</ele>
        <time>2019-12-01T14:04:36Z</time>
      </trkpt>
      <trkpt lat="41.6078560" lon="1.9873560">
        <ele>630.1</ele>
        <time>2019-12-01T14:04:37Z</time>
      </trkpt>
      <trkpt lat="41.6078280" lon="1.9873430">
        <ele>629.0</ele>
        <time>2019-12-01T14:04:38Z</time>
      </trkpt>
      <trkpt lat="41.6077900" lon="1.9873300">
        <ele>627.5</ele>
        <time>2019-12-01T14:04:40Z</time>
      </trkpt>
      <trkpt lat="41.6077530" lon="1.9873230">
        <ele>626.3</ele>
        <time>2019-12-01T14:04:41Z</time>
      </trkpt>
      <trkpt lat="41.6077060" lon="1.9873110">
        <ele>624.7</ele>
        <time>2019-12-01T14:04:44Z</time>
      </trkpt>
      <trkpt lat="41.6076780" lon="1.9873020">
        <ele>623.7</ele>
        <time>2019-12-01T14:04:45Z</time>
      </trkpt>
      <trkpt lat="41.6076370" lon="1.9872940">
        <ele>622.1</ele>
        <time>2019-12-01T14:04:47Z</time>
      </trkpt>
      <trkpt lat="41.6076020" lon="1.9872900">
        <ele>620.7</ele>
        <time>2019-12-01T14:04:48Z</time>
      </trkpt>
      <trkpt lat="41.6075150" lon="1.9871370">
        <ele>621.3</ele>
        <time>2019-12-01T14:05:58Z</time>
      </trkpt>
      <trkpt lat="41.6075440" lon="1.9871030">
        <ele>622.1</ele>
        <time>2019-12-01T14:06:01Z</time>
      </trkpt>
      <trkpt lat="41.6075790" lon="1.9870690">
        <ele>622.9</ele>
        <time>2019-12-01T14:06:04Z</time>
      </trkpt>
      <trkpt lat="41.6076160" lon="1.9870260">
        <ele>623.8</ele>
        <time>2019-12-01T14:06:06Z</time>
      </trkpt>
      <trkpt lat="41.6076420" lon="1.9869880">
        <ele>624.5</ele>
        <time>2019-12-01T14:06:07Z</time>
      </trkpt>
      <trkpt lat="41.6076920" lon="1.9869140">
        <ele>625.6</ele>
        <time>2019-12-01T14:06:11Z</time>
      </trkpt>
      <trkpt lat="41.6077210" lon="1.9868620">
        <ele>626.3</ele>
        <time>2019-12-01T14:06:13Z</time>
      </trkpt>
      <trkpt lat="41.6077360" lon="1.9868310">
        <ele>626.6</ele>
        <time>2019-12-01T14:06:14Z</time>
      </trkpt>
      <trkpt lat="41.6077580" lon="1.9867630">
        <ele>627.3</ele>
        <time>2019-12-01T14:06:17Z</time>
      </trkpt>
      <trkpt lat="41.6077650" lon="1.9867250">
        <ele>627.6</ele>
        <time>2019-12-01T14:06:18Z</time>
      </trkpt>
      <trkpt lat="41.6077680" lon="1.9866800">
        <ele>628.0</ele>
        <time>2019-12-01T14:06:19Z</time>
      </trkpt>
      <trkpt lat="41.6077650" lon="1.9866400">
        <ele>628.3</ele>
        <time>2019-12-01T14:06:20Z</time>
      </trkpt>
      <trkpt lat="41.6077620" lon="1.9866000">
        <ele>628.5</ele>
        <time>2019-12-01T14:06:21Z</time>
      </trkpt>
      <trkpt lat="41.6077600" lon="1.9865420">
        <ele>629.0</ele>
        <time>2019-12-01T14:06:23Z</time>
      </trkpt>
      <trkpt lat="41.6077530" lon="1.9864720">
        <ele>629.5</ele>
        <time>2019-12-01T14:06:25Z</time>
      </trkpt>
      <trkpt lat="41.6077420" lon="1.9864200">
        <ele>629.9</ele>
        <time>2019-12-01T14:06:27Z</time>
      </trkpt>
      <trkpt lat="41.6077280" lon="1.9863700">
        <ele>630.2</ele>
        <time>2019-12-01T14:06:30Z</time>
      </trkpt>
      <trkpt lat="41.6077020" lon="1.9863220">
        <ele>630.6</ele>
        <time>2019-12-01T14:06:32Z</time>
      </trkpt>
      <trkpt lat="41.6076840" lon="1.9862760">
        <ele>631.0</ele>
        <time>2019-12-01T14:06:34Z</time>
      </trkpt>
      <trkpt lat="41.6076670" lon="1.9862290">
        <ele>631.3</ele>
        <time>2019-12-01T14:06:37Z</time>
      </trkpt>
      <trkpt lat="41.6076550" lon="1.9861820">
        <ele>631.5</ele>
        <time>2019-12-01T14:06:39Z</time>
      </trkpt>
      <trkpt lat="41.6076410" lon="1.9861460">
        <ele>631.8</ele>
        <time>2019-12-01T14:06:42Z</time>
      </trkpt>
      <trkpt lat="41.6076250" lon="1.9860990">
        <ele>632.0</ele>
        <time>2019-12-01T14:06:44Z</time>
      </trkpt>
      <trkpt lat="41.6076150" lon="1.9860490">
        <ele>632.3</ele>
        <time>2019-12-01T14:06:46Z</time>
      </trkpt>
      <trkpt lat="41.6076040" lon="1.9860030">
        <ele>632.6</ele>
        <time>2019-12-01T14:06:48Z</time>
      </trkpt>
      <trkpt lat="41.6075870" lon="1.9859510">
        <ele>632.9</ele>
        <time>2019-12-01T14:06:50Z</time>
      </trkpt>
      <trkpt lat="41.6075750" lon="1.9859190">
        <ele>633.0</ele>
        <time>2019-12-01T14:06:51Z</time>
      </trkpt>
      <trkpt lat="41.6075360" lon="1.9858010">
        <ele>633.5</ele>
        <time>2019-12-01T14:06:55Z</time>
      </trkpt>
      <trkpt lat="41.6075220" lon="1.9857690">
        <ele>633.6</ele>
        <time>2019-12-01T14:06:56Z</time>
      </trkpt>
      <trkpt lat="41.6074980" lon="1.9857110">
        <ele>633.9</ele>
        <time>2019-12-01T14:06:58Z</time>
      </trkpt>
      <trkpt lat="41.6074580" lon="1.9856360">
        <ele>634.2</ele>
        <time>2019-12-01T14:07:02Z</time>
      </trkpt>
      <trkpt lat="41.6074280" lon="1.9855960">
        <ele>634.4</ele>
        <time>2019-12-01T14:07:04Z</time>
      </trkpt>
      <trkpt lat="41.6074020" lon="1.9855530">
        <ele>634.7</ele>
        <time>2019-12-01T14:07:07Z</time>
      </trkpt>
      <trkpt lat="41.6073790" lon="1.9855100">
        <ele>635.0</ele>
        <time>2019-12-01T14:07:08Z</time>
      </trkpt>
      <trkpt lat="41.6073490" lon="1.9854600">
        <ele>635.3</ele>
        <time>2019-12-01T14:07:10Z</time>
      </trkpt>
      <trkpt lat="41.6073210" lon="1.9854060">
        <ele>635.7</ele>
        <time>2019-12-01T14:07:12Z</time>
      </trkpt>
      <trkpt lat="41.6072970" lon="1.9853310">
        <ele>636.2</ele>
        <time>2019-12-01T14:07:16Z</time>
      </trkpt>
      <trkpt lat="41.6072750" lon="1.9852540">
        <ele>636.7</ele>
        <time>2019-12-01T14:07:19Z</time>
      </trkpt>
      <trkpt lat="41.6072630" lon="1.9852160">
        <ele>636.9</ele>
        <time>2019-12-01T14:07:21Z</time>
      </trkpt>
      <trkpt lat="41.6072490" lon="1.9851730">
        <ele>637.2</ele>
        <time>2019-12-01T14:07:22Z</time>
      </trkpt>
      <trkpt lat="41.6072290" lon="1.9851160">
        <ele>637.7</ele>
        <time>2019-12-01T14:07:25Z</time>
      </trkpt>
      <trkpt lat="41.6072170" lon="1.9850780">
        <ele>638.0</ele>
        <time>2019-12-01T14:07:26Z</time>
      </trkpt>
      <trkpt lat="41.6072010" lon="1.9850120">
        <ele>640.5</ele>
        <time>2019-12-01T14:07:29Z</time>
      </trkpt>
      <trkpt lat="41.6072850" lon="1.9848610">
        <ele>640.8</ele>
        <time>2019-12-01T14:08:01Z</time>
      </trkpt>
      <trkpt lat="41.6073600" lon="1.9849180">
        <ele>641.1</ele>
        <time>2019-12-01T14:08:09Z</time>
      </trkpt>
      <trkpt lat="41.6073890" lon="1.9849560">
        <ele>641.2</ele>
        <time>2019-12-01T14:08:11Z</time>
      </trkpt>
      <trkpt lat="41.6074150" lon="1.9849870">
        <ele>641.3</ele>
        <time>2019-12-01T14:08:12Z</time>
      </trkpt>
      <trkpt lat="41.6074350" lon="1.9850160">
        <ele>641.3</ele>
        <time>2019-12-01T14:08:13Z</time>
      </trkpt>
      <trkpt lat="41.6074670" lon="1.9850750">
        <ele>641.3</ele>
        <time>2019-12-01T14:08:15Z</time>
      </trkpt>
      <trkpt lat="41.6075020" lon="1.9851170">
        <ele>641.4</ele>
        <time>2019-12-01T14:08:18Z</time>
      </trkpt>
      <trkpt lat="41.6075290" lon="1.9851390">
        <ele>641.4</ele>
        <time>2019-12-01T14:08:19Z</time>
      </trkpt>
      <trkpt lat="41.6075660" lon="1.9851650">
        <ele>641.5</ele>
        <time>2019-12-01T14:08:22Z</time>
      </trkpt>
      <trkpt lat="41.6076120" lon="1.9851950">
        <ele>641.5</ele>
        <time>2019-12-01T14:08:24Z</time>
      </trkpt>
      <trkpt lat="41.6076530" lon="1.9852020">
        <ele>641.5</ele>
        <time>2019-12-01T14:08:26Z</time>
      </trkpt>
      <trkpt lat="41.6076810" lon="1.9852080">
        <ele>641.6</ele>
        <time>2019-12-01T14:08:29Z</time>
      </trkpt>
      <trkpt lat="41.6077190" lon="1.9852240">
        <ele>641.6</ele>
        <time>2019-12-01T14:08:32Z</time>
      </trkpt>
      <trkpt lat="41.6077430" lon="1.9852400">
        <ele>641.6</ele>
        <time>2019-12-01T14:08:33Z</time>
      </trkpt>
      <trkpt lat="41.6077720" lon="1.9852560">
        <ele>641.7</ele>
        <time>2019-12-01T14:08:35Z</time>
      </trkpt>
      <trkpt lat="41.6078140" lon="1.9852770">
        <ele>641.8</ele>
        <time>2019-12-01T14:08:38Z</time>
      </trkpt>
      <trkpt lat="41.6078420" lon="1.9853020">
        <ele>641.9</ele>
        <time>2019-12-01T14:08:40Z</time>
      </trkpt>
      <trkpt lat="41.6078640" lon="1.9853270">
        <ele>642.0</ele>
        <time>2019-12-01T14:08:44Z</time>
      </trkpt>
      <trkpt lat="41.6078870" lon="1.9853520">
        <ele>642.0</ele>
        <time>2019-12-01T14:08:47Z</time>
      </trkpt>
      <trkpt lat="41.6079240" lon="1.9853840">
        <ele>642.2</ele>
        <time>2019-12-01T14:08:52Z</time>
      </trkpt>
      <trkpt lat="41.6079560" lon="1.9854110">
        <ele>642.3</ele>
        <time>2019-12-01T14:08:56Z</time>
      </trkpt>
      <trkpt lat="41.6079980" lon="1.9854260">
        <ele>642.4</ele>
        <time>2019-12-01T14:09:00Z</time>
      </trkpt>
      <trkpt lat="41.6081370" lon="1.9854200">
        <ele>643.1</ele>
        <time>2019-12-01T14:09:21Z</time>
      </trkpt>
      <trkpt lat="41.6081800" lon="1.9854130">
        <ele>643.3</ele>
        <time>2019-12-01T14:09:23Z</time>
      </trkpt>
      <trkpt lat="41.6082610" lon="1.9854410">
        <ele>643.8</ele>
        <time>2019-12-01T14:09:25Z</time>
      </trkpt>
      <trkpt lat="41.6082940" lon="1.9854480">
        <ele>644.0</ele>
        <time>2019-12-01T14:09:26Z</time>
      </trkpt>
      <trkpt lat="41.6083440" lon="1.9854460">
        <ele>644.2</ele>
        <time>2019-12-01T14:09:28Z</time>
      </trkpt>
      <trkpt lat="41.6083890" lon="1.9854490">
        <ele>644.4</ele>
        <time>2019-12-01T14:09:30Z</time>
      </trkpt>
      <trkpt lat="41.6084260" lon="1.9854570">
        <ele>644.6</ele>
        <time>2019-12-01T14:09:33Z</time>
      </trkpt>
      <trkpt lat="41.6084710" lon="1.9854480">
        <ele>644.9</ele>
        <time>2019-12-01T14:09:36Z</time>
      </trkpt>
      <trkpt lat="41.6085190" lon="1.9854490">
        <ele>645.0</ele>
        <time>2019-12-01T14:09:38Z</time>
      </trkpt>
      <trkpt lat="41.6085500" lon="1.9854510">
        <ele>645.1</ele>
        <time>2019-12-01T14:09:40Z</time>
      </trkpt>
      <trkpt lat="41.6086080" lon="1.9854680">
        <ele>645.3</ele>
        <time>2019-12-01T14:09:43Z</time>
      </trkpt>
      <trkpt lat="41.6086340" lon="1.9854810">
        <ele>645.3</ele>
        <time>2019-12-01T14:09:44Z</time>
      </trkpt>
      <trkpt lat="41.6086720" lon="1.9855090">
        <ele>645.4</ele>
        <time>2019-12-01T14:09:47Z</time>
      </trkpt>
      <trkpt lat="41.6087200" lon="1.9855390">
        <ele>645.6</ele>
        <time>2019-12-01T14:09:50Z</time>
      </trkpt>
      <trkpt lat="41.6087450" lon="1.9855620">
        <ele>645.7</ele>
        <time>2019-12-01T14:09:52Z</time>
      </trkpt>
      <trkpt lat="41.6087780" lon="1.9855920">
        <ele>645.7</ele>
        <time>2019-12-01T14:09:54Z</time>
      </trkpt>
      <trkpt lat="41.6088090" lon="1.9856210">
        <ele>645.8</ele>
        <time>2019-12-01T14:09:56Z</time>
      </trkpt>
      <trkpt lat="41.6088320" lon="1.9856450">
        <ele>645.8</ele>
        <time>2019-12-01T14:09:59Z</time>
      </trkpt>
      <trkpt lat="41.6088550" lon="1.9856800">
        <ele>645.9</ele>
        <time>2019-12-01T14:10:02Z</time>
      </trkpt>
      <trkpt lat="41.6088820" lon="1.9857150">
        <ele>645.9</ele>
        <time>2019-12-01T14:10:04Z</time>
      </trkpt>
      <trkpt lat="41.6089170" lon="1.9857510">
        <ele>645.9</ele>
        <time>2019-12-01T14:10:06Z</time>
      </trkpt>
      <trkpt lat="41.6089570" lon="1.9857860">
        <ele>646.0</ele>
        <time>2019-12-01T14:10:09Z</time>
      </trkpt>
      <trkpt lat="41.6089840" lon="1.9858100">
        <ele>646.0</ele>
        <time>2019-12-01T14:10:10Z</time>
      </trkpt>
      <trkpt lat="41.6090310" lon="1.9858570">
        <ele>646.0</ele>
        <time>2019-12-01T14:10:13Z</time>
      </trkpt>
      <trkpt lat="41.6090680" lon="1.9858980">
        <ele>646.1</ele>
        <time>2019-12-01T14:10:15Z</time>
      </trkpt>
      <trkpt lat="41.6091010" lon="1.9859620">
        <ele>646.1</ele>
        <time>2019-12-01T14:10:18Z</time>
      </trkpt>
      <trkpt lat="41.6091180" lon="1.9859910">
        <ele>646.1</ele>
        <time>2019-12-01T14:10:19Z</time>
      </trkpt>
      <trkpt lat="41.6091430" lon="1.9860340">
        <ele>646.2</ele>
        <time>2019-12-01T14:10:21Z</time>
      </trkpt>
      <trkpt lat="41.6091680" lon="1.9860910">
        <ele>646.2</ele>
        <time>2019-12-01T14:10:22Z</time>
      </trkpt>
      <trkpt lat="41.6091840" lon="1.9861250">
        <ele>646.3</ele>
        <time>2019-12-01T14:10:23Z</time>
      </trkpt>
      <trkpt lat="41.6092090" lon="1.9861780">
        <ele>646.4</ele>
        <time>2019-12-01T14:10:26Z</time>
      </trkpt>
      <trkpt lat="41.6092240" lon="1.9862130">
        <ele>646.5</ele>
        <time>2019-12-01T14:10:27Z</time>
      </trkpt>
      <trkpt lat="41.6092420" lon="1.9862450">
        <ele>646.6</ele>
        <time>2019-12-01T14:10:28Z</time>
      </trkpt>
      <trkpt lat="41.6092850" lon="1.9863130">
        <ele>646.7</ele>
        <time>2019-12-01T14:10:31Z</time>
      </trkpt>
      <trkpt lat="41.6093310" lon="1.9863740">
        <ele>647.1</ele>
        <time>2019-12-01T14:10:33Z</time>
      </trkpt>
      <trkpt lat="41.6093640" lon="1.9864190">
        <ele>647.4</ele>
        <time>2019-12-01T14:10:36Z</time>
      </trkpt>
      <trkpt lat="41.6093990" lon="1.9864660">
        <ele>647.7</ele>
        <time>2019-12-01T14:10:38Z</time>
      </trkpt>
      <trkpt lat="41.6094300" lon="1.9865030">
        <ele>648.0</ele>
        <time>2019-12-01T14:10:41Z</time>
      </trkpt>
      <trkpt lat="41.6094580" lon="1.9865270">
        <ele>648.2</ele>
        <time>2019-12-01T14:10:42Z</time>
      </trkpt>
      <trkpt lat="41.6095020" lon="1.9865840">
        <ele>648.5</ele>
        <time>2019-12-01T14:10:45Z</time>
      </trkpt>
      <trkpt lat="41.6095460" lon="1.9866390">
        <ele>648.8</ele>
        <time>2019-12-01T14:10:49Z</time>
      </trkpt>
      <trkpt lat="41.6095830" lon="1.9866700">
        <ele>649.0</ele>
        <time>2019-12-01T14:10:51Z</time>
      </trkpt>
      <trkpt lat="41.6096280" lon="1.9866870">
        <ele>649.3</ele>
        <time>2019-12-01T14:10:53Z</time>
      </trkpt>
      <trkpt lat="41.6096760" lon="1.9867120">
        <ele>649.5</ele>
        <time>2019-12-01T14:10:55Z</time>
      </trkpt>
      <trkpt lat="41.6097030" lon="1.9867260">
        <ele>649.6</ele>
        <time>2019-12-01T14:10:57Z</time>
      </trkpt>
      <trkpt lat="41.6097450" lon="1.9867550">
        <ele>649.9</ele>
        <time>2019-12-01T14:10:58Z</time>
      </trkpt>
      <trkpt lat="41.6097770" lon="1.9867800">
        <ele>650.0</ele>
        <time>2019-12-01T14:10:59Z</time>
      </trkpt>
      <trkpt lat="41.6098080" lon="1.9868030">
        <ele>650.1</ele>
        <time>2019-12-01T14:11:01Z</time>
      </trkpt>
      <trkpt lat="41.6098730" lon="1.9868590">
        <ele>650.4</ele>
        <time>2019-12-01T14:11:04Z</time>
      </trkpt>
      <trkpt lat="41.6099250" lon="1.9869030">
        <ele>650.7</ele>
        <time>2019-12-01T14:11:07Z</time>
      </trkpt>
      <trkpt lat="41.6099730" lon="1.9869430">
        <ele>650.7</ele>
        <time>2019-12-01T14:11:09Z</time>
      </trkpt>
      <trkpt lat="41.6100090" lon="1.9869700">
        <ele>650.8</ele>
        <time>2019-12-01T14:11:11Z</time>
      </trkpt>
      <trkpt lat="41.6100490" lon="1.9870050">
        <ele>650.8</ele>
        <time>2019-12-01T14:11:14Z</time>
      </trkpt>
      <trkpt lat="41.6100730" lon="1.9870240">
        <ele>650.8</ele>
        <time>2019-12-01T14:11:15Z</time>
      </trkpt>
      <trkpt lat="41.6100970" lon="1.9870450">
        <ele>650.9</ele>
        <time>2019-12-01T14:11:16Z</time>
      </trkpt>
      <trkpt lat="41.6101420" lon="1.9870780">
        <ele>651.0</ele>
        <time>2019-12-01T14:11:18Z</time>
      </trkpt>
      <trkpt lat="41.6101860" lon="1.9871060">
        <ele>651.2</ele>
        <time>2019-12-01T14:11:21Z</time>
      </trkpt>
      <trkpt lat="41.6102150" lon="1.9871200">
        <ele>651.3</ele>
        <time>2019-12-01T14:11:22Z</time>
      </trkpt>
      <trkpt lat="41.6102490" lon="1.9871450">
        <ele>651.5</ele>
        <time>2019-12-01T14:11:24Z</time>
      </trkpt>
      <trkpt lat="41.6102820" lon="1.9871720">
        <ele>651.7</ele>
        <time>2019-12-01T14:11:27Z</time>
      </trkpt>
      <trkpt lat="41.6103170" lon="1.9872000">
        <ele>652.0</ele>
        <time>2019-12-01T14:11:29Z</time>
      </trkpt>
      <trkpt lat="41.6103540" lon="1.9872290">
        <ele>652.4</ele>
        <time>2019-12-01T14:11:31Z</time>
      </trkpt>
      <trkpt lat="41.6103990" lon="1.9872690">
        <ele>652.9</ele>
        <time>2019-12-01T14:11:34Z</time>
      </trkpt>
      <trkpt lat="41.6104350" lon="1.9872950">
        <ele>653.2</ele>
        <time>2019-12-01T14:11:36Z</time>
      </trkpt>
      <trkpt lat="41.6104750" lon="1.9873210">
        <ele>653.5</ele>
        <time>2019-12-01T14:11:38Z</time>
      </trkpt>
      <trkpt lat="41.6105100" lon="1.9873470">
        <ele>653.9</ele>
        <time>2019-12-01T14:11:41Z</time>
      </trkpt>
      <trkpt lat="41.6105380" lon="1.9873640">
        <ele>654.4</ele>
        <time>2019-12-01T14:11:42Z</time>
      </trkpt>
      <trkpt lat="41.6105710" lon="1.9873920">
        <ele>655.0</ele>
        <time>2019-12-01T14:11:44Z</time>
      </trkpt>
      <trkpt lat="41.6106030" lon="1.9874250">
        <ele>655.6</ele>
        <time>2019-12-01T14:11:47Z</time>
      </trkpt>
      <trkpt lat="41.6106260" lon="1.9874470">
        <ele>656.1</ele>
        <time>2019-12-01T14:11:48Z</time>
      </trkpt>
      <trkpt lat="41.6106500" lon="1.9874700">
        <ele>656.6</ele>
        <time>2019-12-01T14:11:49Z</time>
      </trkpt>
      <trkpt lat="41.6106920" lon="1.9875090">
        <ele>657.4</ele>
        <time>2019-12-01T14:11:51Z</time>
      </trkpt>
      <trkpt lat="41.6107300" lon="1.9875360">
        <ele>658.2</ele>
        <time>2019-12-01T14:11:54Z</time>
      </trkpt>
      <trkpt lat="41.6107720" lon="1.9875680">
        <ele>659.1</ele>
        <time>2019-12-01T14:11:56Z</time>
      </trkpt>
      <trkpt lat="41.6108080" lon="1.9875870">
        <ele>660.0</ele>
        <time>2019-12-01T14:11:58Z</time>
      </trkpt>
      <trkpt lat="41.6108510" lon="1.9876060">
        <ele>661.0</ele>
        <time>2019-12-01T14:12:01Z</time>
      </trkpt>
      <trkpt lat="41.6109000" lon="1.9876330">
        <ele>662.0</ele>
        <time>2019-12-01T14:12:04Z</time>
      </trkpt>
      <trkpt lat="41.6109360" lon="1.9876610">
        <ele>662.9</ele>
        <time>2019-12-01T14:12:07Z</time>
      </trkpt>
      <trkpt lat="41.6109640" lon="1.9876810">
        <ele>663.6</ele>
        <time>2019-12-01T14:12:08Z</time>
      </trkpt>
      <trkpt lat="41.6110470" lon="1.9877300">
        <ele>666.1</ele>
        <time>2019-12-01T14:12:11Z</time>
      </trkpt>
      <trkpt lat="41.6110960" lon="1.9877550">
        <ele>668.0</ele>
        <time>2019-12-01T14:12:32Z</time>
      </trkpt>
      <trkpt lat="41.6111460" lon="1.9877790">
        <ele>669.9</ele>
        <time>2019-12-01T14:12:34Z</time>
      </trkpt>
      <trkpt lat="41.6111960" lon="1.9878040">
        <ele>671.8</ele>
        <time>2019-12-01T14:12:38Z</time>
      </trkpt>
      <trkpt lat="41.6112460" lon="1.9878280">
        <ele>673.4</ele>
        <time>2019-12-01T14:12:42Z</time>
      </trkpt>
      <trkpt lat="41.6112950" lon="1.9878530">
        <ele>674.8</ele>
        <time>2019-12-01T14:12:46Z</time>
      </trkpt>
      <trkpt lat="41.6113450" lon="1.9878770">
        <ele>676.2</ele>
        <time>2019-12-01T14:12:50Z</time>
      </trkpt>
      <trkpt lat="41.6113950" lon="1.9879020">
        <ele>677.6</ele>
        <time>2019-12-01T14:12:53Z</time>
      </trkpt>
      <trkpt lat="41.6114450" lon="1.9879260">
        <ele>678.5</ele>
        <time>2019-12-01T14:12:56Z</time>
      </trkpt>
      <trkpt lat="41.6114940" lon="1.9879510">
        <ele>679.5</ele>
        <time>2019-12-01T14:12:59Z</time>
      </trkpt>
      <trkpt lat="41.6115440" lon="1.9879750">
        <ele>680.6</ele>
        <time>2019-12-01T14:13:03Z</time>
      </trkpt>
      <trkpt lat="41.6115940" lon="1.9880000">
        <ele>681.9</ele>
        <time>2019-12-01T14:13:06Z</time>
      </trkpt>
      <trkpt lat="41.6116440" lon="1.9880240">
        <ele>682.0</ele>
        <time>2019-12-01T14:13:08Z</time>
      </trkpt>
      <trkpt lat="41.6116930" lon="1.9880490">
        <ele>682.1</ele>
        <time>2019-12-01T14:13:27Z</time>
      </trkpt>
      <trkpt lat="41.6117430" lon="1.9880730">
        <ele>682.2</ele>
        <time>2019-12-01T14:13:28Z</time>
      </trkpt>
      <trkpt lat="41.6118350" lon="1.9881250">
        <ele>682.5</ele>
        <time>2019-12-01T14:13:30Z</time>
      </trkpt>
      <trkpt lat="41.6118660" lon="1.9881520">
        <ele>682.6</ele>
        <time>2019-12-01T14:13:31Z</time>
      </trkpt>
      <trkpt lat="41.6119020" lon="1.9881820">
        <ele>682.8</ele>
        <time>2019-12-01T14:13:33Z</time>
      </trkpt>
      <trkpt lat="41.6119280" lon="1.9882090">
        <ele>682.8</ele>
        <time>2019-12-01T14:13:34Z</time>
      </trkpt>
      <trkpt lat="41.6119660" lon="1.9882480">
        <ele>683.0</ele>
        <time>2019-12-01T14:13:36Z</time>
      </trkpt>
      <trkpt lat="41.6120070" lon="1.9882790">
        <ele>683.1</ele>
        <time>2019-12-01T14:13:38Z</time>
      </trkpt>
      <trkpt lat="41.6120440" lon="1.9882970">
        <ele>683.3</ele>
        <time>2019-12-01T14:13:41Z</time>
      </trkpt>
      <trkpt lat="41.6120870" lon="1.9883100">
        <ele>683.5</ele>
        <time>2019-12-01T14:13:42Z</time>
      </trkpt>
      <trkpt lat="41.6121370" lon="1.9883270">
        <ele>683.7</ele>
        <time>2019-12-01T14:13:44Z</time>
      </trkpt>
      <trkpt lat="41.6121770" lon="1.9883320">
        <ele>683.9</ele>
        <time>2019-12-01T14:13:47Z</time>
      </trkpt>
      <trkpt lat="41.6122190" lon="1.9883470">
        <ele>684.1</ele>
        <time>2019-12-01T14:13:49Z</time>
      </trkpt>
      <trkpt lat="41.6122480" lon="1.9883580">
        <ele>684.3</ele>
        <time>2019-12-01T14:13:51Z</time>
      </trkpt>
      <trkpt lat="41.6122890" lon="1.9883960">
        <ele>684.6</ele>
        <time>2019-12-01T14:13:53Z</time>
      </trkpt>
      <trkpt lat="41.6123420" lon="1.9884330">
        <ele>685.1</ele>
        <time>2019-12-01T14:13:56Z</time>
      </trkpt>
      <trkpt lat="41.6123810" lon="1.9884700">
        <ele>685.5</ele>
        <time>2019-12-01T14:13:58Z</time>
      </trkpt>
      <trkpt lat="41.6124040" lon="1.9884880">
        <ele>685.7</ele>
        <time>2019-12-01T14:14:00Z</time>
      </trkpt>
      <trkpt lat="41.6124290" lon="1.9885130">
        <ele>686.1</ele>
        <time>2019-12-01T14:14:01Z</time>
      </trkpt>
      <trkpt lat="41.6124660" lon="1.9885590">
        <ele>686.6</ele>
        <time>2019-12-01T14:14:03Z</time>
      </trkpt>
      <trkpt lat="41.6124920" lon="1.9885820">
        <ele>687.0</ele>
        <time>2019-12-01T14:14:04Z</time>
      </trkpt>
      <trkpt lat="41.6125290" lon="1.9886110">
        <ele>687.6</ele>
        <time>2019-12-01T14:14:07Z</time>
      </trkpt>
      <trkpt lat="41.6125740" lon="1.9886410">
        <ele>688.3</ele>
        <time>2019-12-01T14:14:09Z</time>
      </trkpt>
      <trkpt lat="41.6126100" lon="1.9886580">
        <ele>688.8</ele>
        <time>2019-12-01T14:14:10Z</time>
      </trkpt>
      <trkpt lat="41.6126570" lon="1.9886780">
        <ele>689.5</ele>
        <time>2019-12-01T14:14:13Z</time>
      </trkpt>
      <trkpt lat="41.6126930" lon="1.9886900">
        <ele>690.1</ele>
        <time>2019-12-01T14:14:14Z</time>
      </trkpt>
      <trkpt lat="41.6127580" lon="1.9887130">
        <ele>691.1</ele>
        <time>2019-12-01T14:14:17Z</time>
      </trkpt>
      <trkpt lat="41.6127870" lon="1.9887220">
        <ele>691.6</ele>
        <time>2019-12-01T14:14:19Z</time>
      </trkpt>
      <trkpt lat="41.6128180" lon="1.9887330">
        <ele>692.2</ele>
        <time>2019-12-01T14:14:21Z</time>
      </trkpt>
      <trkpt lat="41.6128630" lon="1.9887430">
        <ele>692.9</ele>
        <time>2019-12-01T14:14:24Z</time>
      </trkpt>
      <trkpt lat="41.6129070" lon="1.9887640">
        <ele>693.7</ele>
        <time>2019-12-01T14:14:26Z</time>
      </trkpt>
      <trkpt lat="41.6131190" lon="1.9889010">
        <ele>697.3</ele>
        <time>2019-12-01T14:14:52Z</time>
      </trkpt>
      <trkpt lat="41.6131590" lon="1.9889110">
        <ele>698.0</ele>
        <time>2019-12-01T14:14:56Z</time>
      </trkpt>
      <trkpt lat="41.6131910" lon="1.9889160">
        <ele>698.5</ele>
        <time>2019-12-01T14:14:58Z</time>
      </trkpt>
      <trkpt lat="41.6132510" lon="1.9889240">
        <ele>699.4</ele>
        <time>2019-12-01T14:15:03Z</time>
      </trkpt>
      <trkpt lat="41.6132840" lon="1.9889230">
        <ele>699.9</ele>
        <time>2019-12-01T14:15:05Z</time>
      </trkpt>
      <trkpt lat="41.6133230" lon="1.9889170">
        <ele>700.6</ele>
        <time>2019-12-01T14:15:08Z</time>
      </trkpt>
      <trkpt lat="41.6133640" lon="1.9889210">
        <ele>701.2</ele>
        <time>2019-12-01T14:15:11Z</time>
      </trkpt>
      <trkpt lat="41.6134070" lon="1.9889280">
        <ele>701.9</ele>
        <time>2019-12-01T14:15:15Z</time>
      </trkpt>
      <trkpt lat="41.6134500" lon="1.9889280">
        <ele>702.7</ele>
        <time>2019-12-01T14:15:19Z</time>
      </trkpt>
      <trkpt lat="41.6134810" lon="1.9889310">
        <ele>703.2</ele>
        <time>2019-12-01T14:15:22Z</time>
      </trkpt>
      <trkpt lat="41.6135140" lon="1.9889380">
        <ele>703.8</ele>
        <time>2019-12-01T14:15:25Z</time>
      </trkpt>
      <trkpt lat="41.6135430" lon="1.9889430">
        <ele>704.3</ele>
        <time>2019-12-01T14:15:27Z</time>
      </trkpt>
      <trkpt lat="41.6135860" lon="1.9889540">
        <ele>705.0</ele>
        <time>2019-12-01T14:15:30Z</time>
      </trkpt>
      <trkpt lat="41.6136160" lon="1.9889570">
        <ele>705.5</ele>
        <time>2019-12-01T14:15:32Z</time>
      </trkpt>
      <trkpt lat="41.6136710" lon="1.9889590">
        <ele>706.3</ele>
        <time>2019-12-01T14:15:36Z</time>
      </trkpt>
      <trkpt lat="41.6136990" lon="1.9889590">
        <ele>706.8</ele>
        <time>2019-12-01T14:15:38Z</time>
      </trkpt>
      <trkpt lat="41.6137270" lon="1.9889540">
        <ele>707.2</ele>
        <time>2019-12-01T14:15:41Z</time>
      </trkpt>
      <trkpt lat="41.6137580" lon="1.9889340">
        <ele>707.7</ele>
        <time>2019-12-01T14:15:45Z</time>
      </trkpt>
      <trkpt lat="41.6137740" lon="1.9889010">
        <ele>708.1</ele>
        <time>2019-12-01T14:15:49Z</time>
      </trkpt>
      <trkpt lat="41.6137960" lon="1.9888440">
        <ele>708.7</ele>
        <time>2019-12-01T14:15:53Z</time>
      </trkpt>
      <trkpt lat="41.6138080" lon="1.9887880">
        <ele>709.2</ele>
        <time>2019-12-01T14:15:56Z</time>
      </trkpt>
      <trkpt lat="41.6138240" lon="1.9887450">
        <ele>709.7</ele>
        <time>2019-12-01T14:15:58Z</time>
      </trkpt>
      <trkpt lat="41.6138390" lon="1.9886930">
        <ele>710.2</ele>
        <time>2019-12-01T14:16:00Z</time>
      </trkpt>
      <trkpt lat="41.6138520" lon="1.9886490">
        <ele>710.6</ele>
        <time>2019-12-01T14:16:02Z</time>
      </trkpt>
      <trkpt lat="41.6138700" lon="1.9886120">
        <ele>711.0</ele>
        <time>2019-12-01T14:16:04Z</time>
      </trkpt>
      <trkpt lat="41.6138800" lon="1.9885760">
        <ele>711.3</ele>
        <time>2019-12-01T14:16:05Z</time>
      </trkpt>
      <trkpt lat="41.6139010" lon="1.9885260">
        <ele>711.8</ele>
        <time>2019-12-01T14:16:07Z</time>
      </trkpt>
      <trkpt lat="41.6139240" lon="1.9884690">
        <ele>712.3</ele>
        <time>2019-12-01T14:16:09Z</time>
      </trkpt>
      <trkpt lat="41.6139450" lon="1.9884200">
        <ele>712.8</ele>
        <time>2019-12-01T14:16:12Z</time>
      </trkpt>
      <trkpt lat="41.6139630" lon="1.9883880">
        <ele>713.1</ele>
        <time>2019-12-01T14:16:13Z</time>
      </trkpt>
      <trkpt lat="41.6139880" lon="1.9883570">
        <ele>713.4</ele>
        <time>2019-12-01T14:16:15Z</time>
      </trkpt>
      <trkpt lat="41.6140120" lon="1.9883380">
        <ele>713.6</ele>
        <time>2019-12-01T14:16:17Z</time>
      </trkpt>
      <trkpt lat="41.6140400" lon="1.9882880">
        <ele>714.0</ele>
        <time>2019-12-01T14:16:20Z</time>
      </trkpt>
      <trkpt lat="41.6140450" lon="1.9882390">
        <ele>714.3</ele>
        <time>2019-12-01T14:16:22Z</time>
      </trkpt>
      <trkpt lat="41.6140500" lon="1.9881850">
        <ele>714.6</ele>
        <time>2019-12-01T14:16:23Z</time>
      </trkpt>
      <trkpt lat="41.6140550" lon="1.9881390">
        <ele>714.9</ele>
        <time>2019-12-01T14:16:25Z</time>
      </trkpt>
      <trkpt lat="41.6140720" lon="1.9880750">
        <ele>715.3</ele>
        <time>2019-12-01T14:16:27Z</time>
      </trkpt>
      <trkpt lat="41.6140890" lon="1.9880430">
        <ele>715.5</ele>
        <time>2019-12-01T14:16:28Z</time>
      </trkpt>
      <trkpt lat="41.6141270" lon="1.9879960">
        <ele>715.9</ele>
        <time>2019-12-01T14:16:30Z</time>
      </trkpt>
      <trkpt lat="41.6141710" lon="1.9879620">
        <ele>716.3</ele>
        <time>2019-12-01T14:16:33Z</time>
      </trkpt>
      <trkpt lat="41.6142340" lon="1.9879290">
        <ele>716.8</ele>
        <time>2019-12-01T14:16:36Z</time>
      </trkpt>
      <trkpt lat="41.6143050" lon="1.9878900">
        <ele>717.3</ele>
        <time>2019-12-01T14:16:39Z</time>
      </trkpt>
      <trkpt lat="41.6143440" lon="1.9878680">
        <ele>717.6</ele>
        <time>2019-12-01T14:16:40Z</time>
      </trkpt>
      <trkpt lat="41.6143690" lon="1.9878500">
        <ele>717.8</ele>
        <time>2019-12-01T14:16:42Z</time>
      </trkpt>
      <trkpt lat="41.6144010" lon="1.9878210">
        <ele>718.0</ele>
        <time>2019-12-01T14:16:43Z</time>
      </trkpt>
      <trkpt lat="41.6144230" lon="1.9877970">
        <ele>718.2</ele>
        <time>2019-12-01T14:16:44Z</time>
      </trkpt>
      <trkpt lat="41.6144470" lon="1.9877700">
        <ele>718.3</ele>
        <time>2019-12-01T14:16:45Z</time>
      </trkpt>
      <trkpt lat="41.6144690" lon="1.9877460">
        <ele>718.5</ele>
        <time>2019-12-01T14:16:46Z</time>
      </trkpt>
      <trkpt lat="41.6144950" lon="1.9877190">
        <ele>718.6</ele>
        <time>2019-12-01T14:16:47Z</time>
      </trkpt>
      <trkpt lat="41.6145200" lon="1.9876930">
        <ele>718.8</ele>
        <time>2019-12-01T14:16:49Z</time>
      </trkpt>
      <trkpt lat="41.6145450" lon="1.9876690">
        <ele>718.9</ele>
        <time>2019-12-01T14:16:50Z</time>
      </trkpt>
      <trkpt lat="41.6145710" lon="1.9876480">
        <ele>719.1</ele>
        <time>2019-12-01T14:16:51Z</time>
      </trkpt>
      <trkpt lat="41.6145940" lon="1.9876280">
        <ele>719.2</ele>
        <time>2019-12-01T14:16:52Z</time>
      </trkpt>
      <trkpt lat="41.6146190" lon="1.9876080">
        <ele>719.3</ele>
        <time>2019-12-01T14:16:53Z</time>
      </trkpt>
      <trkpt lat="41.6146440" lon="1.9875940">
        <ele>719.5</ele>
        <time>2019-12-01T14:16:54Z</time>
      </trkpt>
      <trkpt lat="41.6146900" lon="1.9875660">
        <ele>719.7</ele>
        <time>2019-12-01T14:16:56Z</time>
      </trkpt>
      <trkpt lat="41.6147450" lon="1.9875510">
        <ele>720.0</ele>
        <time>2019-12-01T14:16:59Z</time>
      </trkpt>
      <trkpt lat="41.6147870" lon="1.9875540">
        <ele>720.3</ele>
        <time>2019-12-01T14:17:01Z</time>
      </trkpt>
      <trkpt lat="41.6148240" lon="1.9875610">
        <ele>720.5</ele>
        <time>2019-12-01T14:17:03Z</time>
      </trkpt>
      <trkpt lat="41.6148740" lon="1.9875620">
        <ele>720.9</ele>
        <time>2019-12-01T14:17:06Z</time>
      </trkpt>
      <trkpt lat="41.6149100" lon="1.9875660">
        <ele>721.2</ele>
        <time>2019-12-01T14:17:08Z</time>
      </trkpt>
      <trkpt lat="41.6149410" lon="1.9875590">
        <ele>721.6</ele>
        <time>2019-12-01T14:17:11Z</time>
      </trkpt>
      <trkpt lat="41.6149720" lon="1.9875450">
        <ele>721.9</ele>
        <time>2019-12-01T14:17:13Z</time>
      </trkpt>
      <trkpt lat="41.6149950" lon="1.9875230">
        <ele>722.2</ele>
        <time>2019-12-01T14:17:14Z</time>
      </trkpt>
      <trkpt lat="41.6153140" lon="1.9872080">
        <ele>724.7</ele>
        <time>2019-12-01T14:17:47Z</time>
      </trkpt>
      <trkpt lat="41.6153770" lon="1.9871980">
        <ele>724.9</ele>
        <time>2019-12-01T14:17:49Z</time>
      </trkpt>
      <trkpt lat="41.6154560" lon="1.9872230">
        <ele>725.2</ele>
        <time>2019-12-01T14:17:51Z</time>
      </trkpt>
      <trkpt lat="41.6154820" lon="1.9872360">
        <ele>725.3</ele>
        <time>2019-12-01T14:17:52Z</time>
      </trkpt>
      <trkpt lat="41.6155130" lon="1.9872520">
        <ele>725.4</ele>
        <time>2019-12-01T14:17:53Z</time>
      </trkpt>
      <trkpt lat="41.6155430" lon="1.9872620">
        <ele>725.6</ele>
        <time>2019-12-01T14:17:54Z</time>
      </trkpt>
      <trkpt lat="41.6155760" lon="1.9872790">
        <ele>725.7</ele>
        <time>2019-12-01T14:17:56Z</time>
      </trkpt>
      <trkpt lat="41.6156260" lon="1.9873030">
        <ele>726.0</ele>
        <time>2019-12-01T14:17:58Z</time>
      </trkpt>
      <trkpt lat="41.6156710" lon="1.9873300">
        <ele>726.3</ele>
        <time>2019-12-01T14:18:01Z</time>
      </trkpt>
      <trkpt lat="41.6157070" lon="1.9873470">
        <ele>726.6</ele>
        <time>2019-12-01T14:18:02Z</time>
      </trkpt>
      <trkpt lat="41.6157490" lon="1.9873690">
        <ele>726.9</ele>
        <time>2019-12-01T14:18:04Z</time>
      </trkpt>
      <trkpt lat="41.6157810" lon="1.9873840">
        <ele>727.2</ele>
        <time>2019-12-01T14:18:06Z</time>
      </trkpt>
      <trkpt lat="41.6158260" lon="1.9874010">
        <ele>727.6</ele>
        <time>2019-12-01T14:18:08Z</time>
      </trkpt>
      <trkpt lat="41.6158610" lon="1.9874070">
        <ele>727.9</ele>
        <time>2019-12-01T14:18:10Z</time>
      </trkpt>
      <trkpt lat="41.6158910" lon="1.9874040">
        <ele>728.2</ele>
        <time>2019-12-01T14:18:11Z</time>
      </trkpt>
      <trkpt lat="41.6159390" lon="1.9874080">
        <ele>728.5</ele>
        <time>2019-12-01T14:18:13Z</time>
      </trkpt>
      <trkpt lat="41.6159850" lon="1.9874110">
        <ele>728.8</ele>
        <time>2019-12-01T14:18:15Z</time>
      </trkpt>
      <trkpt lat="41.6160310" lon="1.9874070">
        <ele>729.2</ele>
        <time>2019-12-01T14:18:17Z</time>
      </trkpt>
      <trkpt lat="41.6160700" lon="1.9874050">
        <ele>729.5</ele>
        <time>2019-12-01T14:18:20Z</time>
      </trkpt>
      <trkpt lat="41.6161190" lon="1.9873980">
        <ele>729.8</ele>
        <time>2019-12-01T14:18:22Z</time>
      </trkpt>
      <trkpt lat="41.6161650" lon="1.9873940">
        <ele>730.0</ele>
        <time>2019-12-01T14:18:25Z</time>
      </trkpt>
      <trkpt lat="41.6162210" lon="1.9873890">
        <ele>730.3</ele>
        <time>2019-12-01T14:18:28Z</time>
      </trkpt>
      <trkpt lat="41.6162740" lon="1.9873830">
        <ele>730.4</ele>
        <time>2019-12-01T14:18:30Z</time>
      </trkpt>
      <trkpt lat="41.6163180" lon="1.9873730">
        <ele>730.4</ele>
        <time>2019-12-01T14:18:33Z</time>
      </trkpt>
      <trkpt lat="41.6166200" lon="1.9872800">
        <ele>729.5</ele>
        <time>2019-12-01T14:20:24Z</time>
      </trkpt>
      <trkpt lat="41.6166560" lon="1.9872720">
        <ele>729.4</ele>
        <time>2019-12-01T14:20:26Z</time>
      </trkpt>
      <trkpt lat="41.6166860" lon="1.9872410">
        <ele>729.2</ele>
        <time>2019-12-01T14:20:28Z</time>
      </trkpt>
      <trkpt lat="41.6167120" lon="1.9872130">
        <ele>729.1</ele>
        <time>2019-12-01T14:20:30Z</time>
      </trkpt>
      <trkpt lat="41.6167430" lon="1.9871800">
        <ele>729.0</ele>
        <time>2019-12-01T14:20:32Z</time>
      </trkpt>
      <trkpt lat="41.6167820" lon="1.9871260">
        <ele>728.8</ele>
        <time>2019-12-01T14:20:33Z</time>
      </trkpt>
      <trkpt lat="41.6168190" lon="1.9870800">
        <ele>728.7</ele>
        <time>2019-12-01T14:20:35Z</time>
      </trkpt>
      <trkpt lat="41.6168440" lon="1.9870480">
        <ele>728.5</ele>
        <time>2019-12-01T14:20:36Z</time>
      </trkpt>
      <trkpt lat="41.6168680" lon="1.9870170">
        <ele>728.4</ele>
        <time>2019-12-01T14:20:37Z</time>
      </trkpt>
      <trkpt lat="41.6168920" lon="1.9869830">
        <ele>728.2</ele>
        <time>2019-12-01T14:20:38Z</time>
      </trkpt>
      <trkpt lat="41.6169170" lon="1.9869500">
        <ele>728.0</ele>
        <time>2019-12-01T14:20:39Z</time>
      </trkpt>
      <trkpt lat="41.6169410" lon="1.9869200">
        <ele>727.9</ele>
        <time>2019-12-01T14:20:40Z</time>
      </trkpt>
      <trkpt lat="41.6169640" lon="1.9868910">
        <ele>727.8</ele>
        <time>2019-12-01T14:20:41Z</time>
      </trkpt>
      <trkpt lat="41.6169900" lon="1.9868700">
        <ele>727.7</ele>
        <time>2019-12-01T14:20:42Z</time>
      </trkpt>
      <trkpt lat="41.6170150" lon="1.9868470">
        <ele>727.6</ele>
        <time>2019-12-01T14:20:43Z</time>
      </trkpt>
      <trkpt lat="41.6170350" lon="1.9868230">
        <ele>727.5</ele>
        <time>2019-12-01T14:20:45Z</time>
      </trkpt>
      <trkpt lat="41.6170800" lon="1.9867620">
        <ele>727.2</ele>
        <time>2019-12-01T14:20:47Z</time>
      </trkpt>
      <trkpt lat="41.6170990" lon="1.9867330">
        <ele>727.1</ele>
        <time>2019-12-01T14:20:48Z</time>
      </trkpt>
      <trkpt lat="41.6171200" lon="1.9867020">
        <ele>727.0</ele>
        <time>2019-12-01T14:20:50Z</time>
      </trkpt>
      <trkpt lat="41.6171440" lon="1.9866530">
        <ele>726.8</ele>
        <time>2019-12-01T14:20:51Z</time>
      </trkpt>
      <trkpt lat="41.6171580" lon="1.9866200">
        <ele>726.7</ele>
        <time>2019-12-01T14:20:53Z</time>
      </trkpt>
      <trkpt lat="41.6171700" lon="1.9865870">
        <ele>726.2</ele>
        <time>2019-12-01T14:20:54Z</time>
      </trkpt>
      <trkpt lat="41.6171840" lon="1.9865390">
        <ele>725.9</ele>
        <time>2019-12-01T14:20:55Z</time>
      </trkpt>
      <trkpt lat="41.6171950" lon="1.9864700">
        <ele>725.3</ele>
        <time>2019-12-01T14:20:57Z</time>
      </trkpt>
      <trkpt lat="41.6172040" lon="1.9864060">
        <ele>724.8</ele>
        <time>2019-12-01T14:21:00Z</time>
      </trkpt>
      <trkpt lat="41.6172300" lon="1.9863500">
        <ele>724.7</ele>
        <time>2019-12-01T14:21:02Z</time>
      </trkpt>
      <trkpt lat="41.6172580" lon="1.9863140">
        <ele>724.6</ele>
        <time>2019-12-01T14:21:04Z</time>
      </trkpt>
      <trkpt lat="41.6172910" lon="1.9862960">
        <ele>724.5</ele>
        <time>2019-12-01T14:21:06Z</time>
      </trkpt>
      <trkpt lat="41.6173300" lon="1.9862670">
        <ele>724.4</ele>
        <time>2019-12-01T14:21:08Z</time>
      </trkpt>
      <trkpt lat="41.6173660" lon="1.9862280">
        <ele>724.3</ele>
        <time>2019-12-01T14:21:11Z</time>
      </trkpt>
      <trkpt lat="41.6173940" lon="1.9861810">
        <ele>724.2</ele>
        <time>2019-12-01T14:21:13Z</time>
      </trkpt>
      <trkpt lat="41.6174180" lon="1.9861370">
        <ele>724.0</ele>
        <time>2019-12-01T14:21:15Z</time>
      </trkpt>
      <trkpt lat="41.6174380" lon="1.9860950">
        <ele>723.9</ele>
        <time>2019-12-01T14:21:18Z</time>
      </trkpt>
      <trkpt lat="41.6174560" lon="1.9860600">
        <ele>723.8</ele>
        <time>2019-12-01T14:21:19Z</time>
      </trkpt>
      <trkpt lat="41.6174810" lon="1.9860200">
        <ele>723.7</ele>
        <time>2019-12-01T14:21:21Z</time>
      </trkpt>
      <trkpt lat="41.6175050" lon="1.9859750">
        <ele>723.6</ele>
        <time>2019-12-01T14:21:24Z</time>
      </trkpt>
      <trkpt lat="41.6175240" lon="1.9859440">
        <ele>723.5</ele>
        <time>2019-12-01T14:21:25Z</time>
      </trkpt>
      <trkpt lat="41.6175490" lon="1.9859120">
        <ele>723.4</ele>
        <time>2019-12-01T14:21:27Z</time>
      </trkpt>
      <trkpt lat="41.6175770" lon="1.9858780">
        <ele>723.3</ele>
        <time>2019-12-01T14:21:30Z</time>
      </trkpt>
      <trkpt lat="41.6176010" lon="1.9858480">
        <ele>723.1</ele>
        <time>2019-12-01T14:21:31Z</time>
      </trkpt>
      <trkpt lat="41.6176320" lon="1.9858130">
        <ele>723.0</ele>
        <time>2019-12-01T14:21:33Z</time>
      </trkpt>
      <trkpt lat="41.6176630" lon="1.9857800">
        <ele>722.8</ele>
        <time>2019-12-01T14:21:36Z</time>
      </trkpt>
      <trkpt lat="41.6176890" lon="1.9857450">
        <ele>722.7</ele>
        <time>2019-12-01T14:21:38Z</time>
      </trkpt>
      <trkpt lat="41.6177240" lon="1.9857070">
        <ele>722.6</ele>
        <time>2019-12-01T14:21:40Z</time>
      </trkpt>
      <trkpt lat="41.6177700" lon="1.9856480">
        <ele>722.5</ele>
        <time>2019-12-01T14:21:43Z</time>
      </trkpt>
      <trkpt lat="41.6177870" lon="1.9856200">
        <ele>722.5</ele>
        <time>2019-12-01T14:21:44Z</time>
      </trkpt>
      <trkpt lat="41.6178030" lon="1.9855870">
        <ele>722.5</ele>
        <time>2019-12-01T14:21:45Z</time>
      </trkpt>
      <trkpt lat="41.6178230" lon="1.9855190">
        <ele>722.4</ele>
        <time>2019-12-01T14:21:47Z</time>
      </trkpt>
      <trkpt lat="41.6178320" lon="1.9854850">
        <ele>722.4</ele>
        <time>2019-12-01T14:21:48Z</time>
      </trkpt>
      <trkpt lat="41.6178580" lon="1.9854080">
        <ele>722.3</ele>
        <time>2019-12-01T14:21:51Z</time>
      </trkpt>
      <trkpt lat="41.6178700" lon="1.9853740">
        <ele>722.2</ele>
        <time>2019-12-01T14:21:52Z</time>
      </trkpt>
      <trkpt lat="41.6178940" lon="1.9853090">
        <ele>722.0</ele>
        <time>2019-12-01T14:21:54Z</time>
      </trkpt>
      <trkpt lat="41.6179070" lon="1.9852760">
        <ele>721.9</ele>
        <time>2019-12-01T14:21:55Z</time>
      </trkpt>
      <trkpt lat="41.6179300" lon="1.9852140">
        <ele>721.6</ele>
        <time>2019-12-01T14:21:57Z</time>
      </trkpt>
      <trkpt lat="41.6179550" lon="1.9851590">
        <ele>721.3</ele>
        <time>2019-12-01T14:22:00Z</time>
      </trkpt>
      <trkpt lat="41.6179760" lon="1.9851140">
        <ele>721.0</ele>
        <time>2019-12-01T14:22:01Z</time>
      </trkpt>
      <trkpt lat="41.6180000" lon="1.9850620">
        <ele>720.7</ele>
        <time>2019-12-01T14:22:03Z</time>
      </trkpt>
      <trkpt lat="41.6180300" lon="1.9850110">
        <ele>720.4</ele>
        <time>2019-12-01T14:22:06Z</time>
      </trkpt>
      <trkpt lat="41.6180540" lon="1.9849830">
        <ele>720.3</ele>
        <time>2019-12-01T14:22:07Z</time>
      </trkpt>
      <trkpt lat="41.6180800" lon="1.9849540">
        <ele>720.1</ele>
        <time>2019-12-01T14:22:08Z</time>
      </trkpt>
      <trkpt lat="41.6181050" lon="1.9849280">
        <ele>720.0</ele>
        <time>2019-12-01T14:22:09Z</time>
      </trkpt>
      <trkpt lat="41.6181310" lon="1.9849040">
        <ele>719.9</ele>
        <time>2019-12-01T14:22:10Z</time>
      </trkpt>
      <trkpt lat="41.6181550" lon="1.9848820">
        <ele>719.8</ele>
        <time>2019-12-01T14:22:11Z</time>
      </trkpt>
      <trkpt lat="41.6181980" lon="1.9848400">
        <ele>719.8</ele>
        <time>2019-12-01T14:22:13Z</time>
      </trkpt>
      <trkpt lat="41.6182200" lon="1.9848180">
        <ele>719.7</ele>
        <time>2019-12-01T14:22:14Z</time>
      </trkpt>
      <trkpt lat="41.6182430" lon="1.9847910">
        <ele>719.8</ele>
        <time>2019-12-01T14:22:16Z</time>
      </trkpt>
      <trkpt lat="41.6182670" lon="1.9847590">
        <ele>719.8</ele>
        <time>2019-12-01T14:22:17Z</time>
      </trkpt>
      <trkpt lat="41.6182950" lon="1.9847220">
        <ele>719.8</ele>
        <time>2019-12-01T14:22:18Z</time>
      </trkpt>
      <trkpt lat="41.6183200" lon="1.9846870">
        <ele>719.9</ele>
        <time>2019-12-01T14:22:19Z</time>
      </trkpt>
      <trkpt lat="41.6183440" lon="1.9846550">
        <ele>719.9</ele>
        <time>2019-12-01T14:22:20Z</time>
      </trkpt>
      <trkpt lat="41.6183640" lon="1.9846250">
        <ele>720.0</ele>
        <time>2019-12-01T14:22:21Z</time>
      </trkpt>
      <trkpt lat="41.6183870" lon="1.9845980">
        <ele>720.1</ele>
        <time>2019-12-01T14:22:22Z</time>
      </trkpt>
      <trkpt lat="41.6184270" lon="1.9845470">
        <ele>720.1</ele>
        <time>2019-12-01T14:22:24Z</time>
      </trkpt>
      <trkpt lat="41.6184650" lon="1.9844930">
        <ele>720.1</ele>
        <time>2019-12-01T14:22:27Z</time>
      </trkpt>
      <trkpt lat="41.6184930" lon="1.9844420">
        <ele>720.1</ele>
        <time>2019-12-01T14:22:29Z</time>
      </trkpt>
      <trkpt lat="41.6185190" lon="1.9844070">
        <ele>720.0</ele>
        <time>2019-12-01T14:22:31Z</time>
      </trkpt>
      <trkpt lat="41.6185470" lon="1.9843720">
        <ele>719.9</ele>
        <time>2019-12-01T14:22:33Z</time>
      </trkpt>
      <trkpt lat="41.6185750" lon="1.9843320">
        <ele>719.7</ele>
        <time>2019-12-01T14:22:36Z</time>
      </trkpt>
      <trkpt lat="41.6199070" lon="1.9834860">
        <ele>709.6</ele>
        <time>2019-12-01T14:25:55Z</time>
      </trkpt>
      <trkpt lat="41.6199290" lon="1.9834620">
        <ele>709.6</ele>
        <time>2019-12-01T14:25:56Z</time>
      </trkpt>
      <trkpt lat="41.6199560" lon="1.9834370">
        <ele>709.7</ele>
        <time>2019-12-01T14:25:57Z</time>
      </trkpt>
      <trkpt lat="41.6199920" lon="1.9834120">
        <ele>709.7</ele>
        <time>2019-12-01T14:25:58Z</time>
      </trkpt>
      <trkpt lat="41.6200290" lon="1.9833880">
        <ele>709.8</ele>
        <time>2019-12-01T14:26:00Z</time>
      </trkpt>
      <trkpt lat="41.6200570" lon="1.9833670">
        <ele>710.0</ele>
        <time>2019-12-01T14:26:01Z</time>
      </trkpt>
      <trkpt lat="41.6200820" lon="1.9833470">
        <ele>710.1</ele>
        <time>2019-12-01T14:26:02Z</time>
      </trkpt>
      <trkpt lat="41.6201030" lon="1.9833250">
        <ele>710.1</ele>
        <time>2019-12-01T14:26:03Z</time>
      </trkpt>
      <trkpt lat="41.6201250" lon="1.9832980">
        <ele>710.2</ele>
        <time>2019-12-01T14:26:04Z</time>
      </trkpt>
      <trkpt lat="41.6201430" lon="1.9832700">
        <ele>710.4</ele>
        <time>2019-12-01T14:26:05Z</time>
      </trkpt>
      <trkpt lat="41.6201660" lon="1.9832290">
        <ele>710.5</ele>
        <time>2019-12-01T14:26:07Z</time>
      </trkpt>
      <trkpt lat="41.6201810" lon="1.9831950">
        <ele>710.7</ele>
        <time>2019-12-01T14:26:08Z</time>
      </trkpt>
      <trkpt lat="41.6201950" lon="1.9831620">
        <ele>710.8</ele>
        <time>2019-12-01T14:26:09Z</time>
      </trkpt>
      <trkpt lat="41.6202090" lon="1.9831260">
        <ele>711.0</ele>
        <time>2019-12-01T14:26:10Z</time>
      </trkpt>
      <trkpt lat="41.6202200" lon="1.9830920">
        <ele>711.1</ele>
        <time>2019-12-01T14:26:11Z</time>
      </trkpt>
      <trkpt lat="41.6202450" lon="1.9830320">
        <ele>711.5</ele>
        <time>2019-12-01T14:26:13Z</time>
      </trkpt>
      <trkpt lat="41.6202710" lon="1.9829980">
        <ele>711.6</ele>
        <time>2019-12-01T14:26:15Z</time>
      </trkpt>
      <trkpt lat="41.6203150" lon="1.9829560">
        <ele>711.0</ele>
        <time>2019-12-01T14:26:17Z</time>
      </trkpt>
      <trkpt lat="41.6203570" lon="1.9829210">
        <ele>710.5</ele>
        <time>2019-12-01T14:26:19Z</time>
      </trkpt>
      <trkpt lat="41.6203830" lon="1.9829020">
        <ele>710.3</ele>
        <time>2019-12-01T14:26:20Z</time>
      </trkpt>
      <trkpt lat="41.6204080" lon="1.9828820">
        <ele>710.0</ele>
        <time>2019-12-01T14:26:21Z</time>
      </trkpt>
      <trkpt lat="41.6204310" lon="1.9828590">
        <ele>709.8</ele>
        <time>2019-12-01T14:26:23Z</time>
      </trkpt>
      <trkpt lat="41.6204740" lon="1.9828180">
        <ele>709.4</ele>
        <time>2019-12-01T14:26:25Z</time>
      </trkpt>
      <trkpt lat="41.6204980" lon="1.9827930">
        <ele>709.2</ele>
        <time>2019-12-01T14:26:26Z</time>
      </trkpt>
      <trkpt lat="41.6205450" lon="1.9827530">
        <ele>708.8</ele>
        <time>2019-12-01T14:26:28Z</time>
      </trkpt>
      <trkpt lat="41.6205890" lon="1.9827250">
        <ele>708.4</ele>
        <time>2019-12-01T14:26:30Z</time>
      </trkpt>
      <trkpt lat="41.6206170" lon="1.9827070">
        <ele>708.1</ele>
        <time>2019-12-01T14:26:31Z</time>
      </trkpt>
      <trkpt lat="41.6206410" lon="1.9826900">
        <ele>707.9</ele>
        <time>2019-12-01T14:26:33Z</time>
      </trkpt>
      <trkpt lat="41.6206670" lon="1.9826750">
        <ele>707.8</ele>
        <time>2019-12-01T14:26:34Z</time>
      </trkpt>
      <trkpt lat="41.6207070" lon="1.9826540">
        <ele>707.5</ele>
        <time>2019-12-01T14:26:35Z</time>
      </trkpt>
      <trkpt lat="41.6207750" lon="1.9826290">
        <ele>707.2</ele>
        <time>2019-12-01T14:26:38Z</time>
      </trkpt>
      <trkpt lat="41.6208070" lon="1.9826230">
        <ele>707.1</ele>
        <time>2019-12-01T14:26:39Z</time>
      </trkpt>
      <trkpt lat="41.6208400" lon="1.9826200">
        <ele>706.9</ele>
        <time>2019-12-01T14:26:40Z</time>
      </trkpt>
      <trkpt lat="41.6208710" lon="1.9826200">
        <ele>706.8</ele>
        <time>2019-12-01T14:26:41Z</time>
      </trkpt>
      <trkpt lat="41.6209030" lon="1.9826190">
        <ele>706.6</ele>
        <time>2019-12-01T14:26:42Z</time>
      </trkpt>
      <trkpt lat="41.6209300" lon="1.9826240">
        <ele>706.4</ele>
        <time>2019-12-01T14:26:43Z</time>
      </trkpt>
      <trkpt lat="41.6209580" lon="1.9826320">
        <ele>706.2</ele>
        <time>2019-12-01T14:26:45Z</time>
      </trkpt>
      <trkpt lat="41.6210190" lon="1.9826520">
        <ele>705.7</ele>
        <time>2019-12-01T14:26:47Z</time>
      </trkpt>
      <trkpt lat="41.6210650" lon="1.9826860">
        <ele>705.1</ele>
        <time>2019-12-01T14:26:49Z</time>
      </trkpt>
      <trkpt lat="41.6211070" lon="1.9827200">
        <ele>704.5</ele>
        <time>2019-12-01T14:26:52Z</time>
      </trkpt>
      <trkpt lat="41.6211520" lon="1.9827470">
        <ele>703.9</ele>
        <time>2019-12-01T14:26:54Z</time>
      </trkpt>
      <trkpt lat="41.6211970" lon="1.9827550">
        <ele>703.3</ele>
        <time>2019-12-01T14:26:56Z</time>
      </trkpt>
      <trkpt lat="41.6212430" lon="1.9827450">
        <ele>702.5</ele>
        <time>2019-12-01T14:26:58Z</time>
      </trkpt>
      <trkpt lat="41.6212840" lon="1.9827140">
        <ele>701.9</ele>
        <time>2019-12-01T14:27:01Z</time>
      </trkpt>
      <trkpt lat="41.6213040" lon="1.9826870">
        <ele>701.4</ele>
        <time>2019-12-01T14:27:02Z</time>
      </trkpt>
      <trkpt lat="41.6213300" lon="1.9826290">
        <ele>700.5</ele>
        <time>2019-12-01T14:27:04Z</time>
      </trkpt>
      <trkpt lat="41.6213460" lon="1.9825660">
        <ele>699.5</ele>
        <time>2019-12-01T14:27:06Z</time>
      </trkpt>
      <trkpt lat="41.6213540" lon="1.9825300">
        <ele>698.9</ele>
        <time>2019-12-01T14:27:07Z</time>
      </trkpt>
      <trkpt lat="41.6213650" lon="1.9824470">
        <ele>697.7</ele>
        <time>2019-12-01T14:27:10Z</time>
      </trkpt>
      <trkpt lat="41.6213700" lon="1.9824110">
        <ele>697.1</ele>
        <time>2019-12-01T14:27:11Z</time>
      </trkpt>
      <trkpt lat="41.6213760" lon="1.9823740">
        <ele>696.6</ele>
        <time>2019-12-01T14:27:12Z</time>
      </trkpt>
      <trkpt lat="41.6213770" lon="1.9823360">
        <ele>696.0</ele>
        <time>2019-12-01T14:27:13Z</time>
      </trkpt>
      <trkpt lat="41.6213810" lon="1.9822830">
        <ele>695.1</ele>
        <time>2019-12-01T14:27:15Z</time>
      </trkpt>
      <trkpt lat="41.6213860" lon="1.9822470">
        <ele>694.6</ele>
        <time>2019-12-01T14:27:16Z</time>
      </trkpt>
      <trkpt lat="41.6213920" lon="1.9822090">
        <ele>694.1</ele>
        <time>2019-12-01T14:27:17Z</time>
      </trkpt>
      <trkpt lat="41.6214060" lon="1.9821400">
        <ele>693.1</ele>
        <time>2019-12-01T14:27:20Z</time>
      </trkpt>
      <trkpt lat="41.6214330" lon="1.9820580">
        <ele>691.8</ele>
        <time>2019-12-01T14:27:22Z</time>
      </trkpt>
      <trkpt lat="41.6214470" lon="1.9820210">
        <ele>691.3</ele>
        <time>2019-12-01T14:27:23Z</time>
      </trkpt>
      <trkpt lat="41.6214620" lon="1.9819860">
        <ele>690.8</ele>
        <time>2019-12-01T14:27:24Z</time>
      </trkpt>
      <trkpt lat="41.6214790" lon="1.9819490">
        <ele>690.3</ele>
        <time>2019-12-01T14:27:25Z</time>
      </trkpt>
      <trkpt lat="41.6214960" lon="1.9819160">
        <ele>689.7</ele>
        <time>2019-12-01T14:27:27Z</time>
      </trkpt>
      <trkpt lat="41.6215110" lon="1.9818850">
        <ele>689.1</ele>
        <time>2019-12-01T14:27:28Z</time>
      </trkpt>
      <trkpt lat="41.6215330" lon="1.9818500">
        <ele>688.4</ele>
        <time>2019-12-01T14:27:29Z</time>
      </trkpt>
      <trkpt lat="41.6215550" lon="1.9818230">
        <ele>687.8</ele>
        <time>2019-12-01T14:27:30Z</time>
      </trkpt>
      <trkpt lat="41.6215800" lon="1.9817970">
        <ele>687.1</ele>
        <time>2019-12-01T14:27:31Z</time>
      </trkpt>
      <trkpt lat="41.6216020" lon="1.9817760">
        <ele>686.5</ele>
        <time>2019-12-01T14:27:32Z</time>
      </trkpt>
      <trkpt lat="41.6216270" lon="1.9817580">
        <ele>685.8</ele>
        <time>2019-12-01T14:27:33Z</time>
      </trkpt>
      <trkpt lat="41.6216540" lon="1.9817400">
        <ele>685.1</ele>
        <time>2019-12-01T14:27:34Z</time>
      </trkpt>
      <trkpt lat="41.6216800" lon="1.9817210">
        <ele>684.4</ele>
        <time>2019-12-01T14:27:35Z</time>
      </trkpt>
      <trkpt lat="41.6217040" lon="1.9817020">
        <ele>683.8</ele>
        <time>2019-12-01T14:27:37Z</time>
      </trkpt>
      <trkpt lat="41.6217270" lon="1.9816760">
        <ele>683.0</ele>
        <time>2019-12-01T14:27:38Z</time>
      </trkpt>
      <trkpt lat="41.6217520" lon="1.9816390">
        <ele>682.1</ele>
        <time>2019-12-01T14:27:39Z</time>
      </trkpt>
      <trkpt lat="41.6217870" lon="1.9815870">
        <ele>681.0</ele>
        <time>2019-12-01T14:27:42Z</time>
      </trkpt>
      <trkpt lat="41.6218070" lon="1.9815560">
        <ele>680.4</ele>
        <time>2019-12-01T14:27:43Z</time>
      </trkpt>
      <trkpt lat="41.6218290" lon="1.9815260">
        <ele>679.8</ele>
        <time>2019-12-01T14:27:44Z</time>
      </trkpt>
      <trkpt lat="41.6218540" lon="1.9815020">
        <ele>679.3</ele>
        <time>2019-12-01T14:27:45Z</time>
      </trkpt>
      <trkpt lat="41.6218790" lon="1.9814820">
        <ele>679.0</ele>
        <time>2019-12-01T14:27:46Z</time>
      </trkpt>
      <trkpt lat="41.6219100" lon="1.9814610">
        <ele>678.6</ele>
        <time>2019-12-01T14:27:47Z</time>
      </trkpt>
      <trkpt lat="41.6219400" lon="1.9814420">
        <ele>678.5</ele>
        <time>2019-12-01T14:27:48Z</time>
      </trkpt>
      <trkpt lat="41.6219740" lon="1.9814240">
        <ele>678.5</ele>
        <time>2019-12-01T14:27:49Z</time>
      </trkpt>
      <trkpt lat="41.6220080" lon="1.9814040">
        <ele>678.5</ele>
        <time>2019-12-01T14:27:50Z</time>
      </trkpt>
      <trkpt lat="41.6220390" lon="1.9813780">
        <ele>678.7</ele>
        <time>2019-12-01T14:27:52Z</time>
      </trkpt>
      <trkpt lat="41.6220700" lon="1.9813490">
        <ele>679.0</ele>
        <time>2019-12-01T14:27:53Z</time>
      </trkpt>
      <trkpt lat="41.6220980" lon="1.9813180">
        <ele>679.2</ele>
        <time>2019-12-01T14:27:54Z</time>
      </trkpt>
      <trkpt lat="41.6221190" lon="1.9812870">
        <ele>679.5</ele>
        <time>2019-12-01T14:27:55Z</time>
      </trkpt>
      <trkpt lat="41.6221390" lon="1.9812540">
        <ele>679.8</ele>
        <time>2019-12-01T14:27:56Z</time>
      </trkpt>
      <trkpt lat="41.6221550" lon="1.9812230">
        <ele>680.1</ele>
        <time>2019-12-01T14:27:57Z</time>
      </trkpt>
      <trkpt lat="41.6221730" lon="1.9811630">
        <ele>680.7</ele>
        <time>2019-12-01T14:27:59Z</time>
      </trkpt>
      <trkpt lat="41.6221880" lon="1.9811190">
        <ele>681.1</ele>
        <time>2019-12-01T14:28:01Z</time>
      </trkpt>
      <trkpt lat="41.6222010" lon="1.9810630">
        <ele>681.5</ele>
        <time>2019-12-01T14:28:03Z</time>
      </trkpt>
      <trkpt lat="41.6222100" lon="1.9810020">
        <ele>682.0</ele>
        <time>2019-12-01T14:28:06Z</time>
      </trkpt>
      <trkpt lat="41.6222120" lon="1.9809490">
        <ele>682.4</ele>
        <time>2019-12-01T14:28:08Z</time>
      </trkpt>
      <trkpt lat="41.6222220" lon="1.9808970">
        <ele>682.8</ele>
        <time>2019-12-01T14:28:10Z</time>
      </trkpt>
      <trkpt lat="41.6222390" lon="1.9808540">
        <ele>683.1</ele>
        <time>2019-12-01T14:28:13Z</time>
      </trkpt>
      <trkpt lat="41.6222620" lon="1.9808070">
        <ele>683.5</ele>
        <time>2019-12-01T14:28:15Z</time>
      </trkpt>
      <trkpt lat="41.6222880" lon="1.9807700">
        <ele>683.8</ele>
        <time>2019-12-01T14:28:18Z</time>
      </trkpt>
      <trkpt lat="41.6223170" lon="1.9807310">
        <ele>684.0</ele>
        <time>2019-12-01T14:28:21Z</time>
      </trkpt>
      <trkpt lat="41.6223480" lon="1.9806870">
        <ele>684.2</ele>
        <time>2019-12-01T14:28:23Z</time>
      </trkpt>
      <trkpt lat="41.6223690" lon="1.9806450">
        <ele>684.4</ele>
        <time>2019-12-01T14:28:26Z</time>
      </trkpt>
      <trkpt lat="41.6223890" lon="1.9806080">
        <ele>684.5</ele>
        <time>2019-12-01T14:28:27Z</time>
      </trkpt>
      <trkpt lat="41.6224150" lon="1.9805630">
        <ele>684.5</ele>
        <time>2019-12-01T14:28:29Z</time>
      </trkpt>
      <trkpt lat="41.6224380" lon="1.9805170">
        <ele>684.5</ele>
        <time>2019-12-01T14:28:32Z</time>
      </trkpt>
      <trkpt lat="41.6224610" lon="1.9804670">
        <ele>684.6</ele>
        <time>2019-12-01T14:28:34Z</time>
      </trkpt>
      <trkpt lat="41.6224780" lon="1.9804280">
        <ele>684.6</ele>
        <time>2019-12-01T14:28:36Z</time>
      </trkpt>
      <trkpt lat="41.6224980" lon="1.9803810">
        <ele>684.5</ele>
        <time>2019-12-01T14:28:39Z</time>
      </trkpt>
      <trkpt lat="41.6225190" lon="1.9803360">
        <ele>684.4</ele>
        <time>2019-12-01T14:28:41Z</time>
      </trkpt>
      <trkpt lat="41.6225430" lon="1.9802960">
        <ele>684.3</ele>
        <time>2019-12-01T14:28:43Z</time>
      </trkpt>
      <trkpt lat="41.6225740" lon="1.9802620">
        <ele>684.2</ele>
        <time>2019-12-01T14:28:46Z</time>
      </trkpt>
      <trkpt lat="41.6226090" lon="1.9802410">
        <ele>684.1</ele>
        <time>2019-12-01T14:28:49Z</time>
      </trkpt>
      <trkpt lat="41.6226420" lon="1.9802250">
        <ele>683.9</ele>
        <time>2019-12-01T14:28:51Z</time>
      </trkpt>
      <trkpt lat="41.6226770" lon="1.9802150">
        <ele>683.7</ele>
        <time>2019-12-01T14:28:54Z</time>
      </trkpt>
      <trkpt lat="41.6227220" lon="1.9801920">
        <ele>683.4</ele>
        <time>2019-12-01T14:28:56Z</time>
      </trkpt>
      <trkpt lat="41.6227630" lon="1.9801680">
        <ele>683.1</ele>
        <time>2019-12-01T14:28:59Z</time>
      </trkpt>
      <trkpt lat="41.6228070" lon="1.9801350">
        <ele>682.8</ele>
        <time>2019-12-01T14:29:01Z</time>
      </trkpt>
      <trkpt lat="41.6228480" lon="1.9800960">
        <ele>682.4</ele>
        <time>2019-12-01T14:29:03Z</time>
      </trkpt>
      <trkpt lat="41.6228690" lon="1.9800710">
        <ele>682.2</ele>
        <time>2019-12-01T14:29:04Z</time>
      </trkpt>
      <trkpt lat="41.6229040" lon="1.9800300">
        <ele>681.9</ele>
        <time>2019-12-01T14:29:06Z</time>
      </trkpt>
      <trkpt lat="41.6229400" lon="1.9799850">
        <ele>681.5</ele>
        <time>2019-12-01T14:29:08Z</time>
      </trkpt>
      <trkpt lat="41.6229780" lon="1.9799330">
        <ele>681.2</ele>
        <time>2019-12-01T14:29:11Z</time>
      </trkpt>
      <trkpt lat="41.6229980" lon="1.9799060">
        <ele>681.1</ele>
        <time>2019-12-01T14:29:12Z</time>
      </trkpt>
      <trkpt lat="41.6230230" lon="1.9798670">
        <ele>681.0</ele>
        <time>2019-12-01T14:29:13Z</time>
      </trkpt>
      <trkpt lat="41.6230390" lon="1.9798330">
        <ele>680.8</ele>
        <time>2019-12-01T14:29:14Z</time>
      </trkpt>
      <trkpt lat="41.6230570" lon="1.9797970">
        <ele>680.8</ele>
        <time>2019-12-01T14:29:16Z</time>
      </trkpt>
      <trkpt lat="41.6230820" lon="1.9797470">
        <ele>680.7</ele>
        <time>2019-12-01T14:29:18Z</time>
      </trkpt>
      <trkpt lat="41.6231060" lon="1.9796960">
        <ele>680.7</ele>
        <time>2019-12-01T14:29:19Z</time>
      </trkpt>
      <trkpt lat="41.6231230" lon="1.9796620">
        <ele>680.7</ele>
        <time>2019-12-01T14:29:20Z</time>
      </trkpt>
      <trkpt lat="41.6231410" lon="1.9796310">
        <ele>680.7</ele>
        <time>2019-12-01T14:29:22Z</time>
      </trkpt>
      <trkpt lat="41.6231830" lon="1.9795570">
        <ele>681.0</ele>
        <time>2019-12-01T14:29:25Z</time>
      </trkpt>
      <trkpt lat="41.6232130" lon="1.9795020">
        <ele>681.3</ele>
        <time>2019-12-01T14:29:27Z</time>
      </trkpt>
      <trkpt lat="41.6232260" lon="1.9794490">
        <ele>681.5</ele>
        <time>2019-12-01T14:29:29Z</time>
      </trkpt>
      <trkpt lat="41.6232370" lon="1.9793960">
        <ele>681.7</ele>
        <time>2019-12-01T14:29:31Z</time>
      </trkpt>
      <trkpt lat="41.6232460" lon="1.9793560">
        <ele>681.8</ele>
        <time>2019-12-01T14:29:33Z</time>
      </trkpt>
      <trkpt lat="41.6232540" lon="1.9793140">
        <ele>682.0</ele>
        <time>2019-12-01T14:29:34Z</time>
      </trkpt>
      <trkpt lat="41.6232620" lon="1.9792730">
        <ele>682.1</ele>
        <time>2019-12-01T14:29:36Z</time>
      </trkpt>
      <trkpt lat="41.6232730" lon="1.9792080">
        <ele>682.4</ele>
        <time>2019-12-01T14:29:38Z</time>
      </trkpt>
      <trkpt lat="41.6232740" lon="1.9791550">
        <ele>682.6</ele>
        <time>2019-12-01T14:29:40Z</time>
      </trkpt>
      <trkpt lat="41.6232800" lon="1.9791130">
        <ele>682.8</ele>
        <time>2019-12-01T14:29:42Z</time>
      </trkpt>
      <trkpt lat="41.6232850" lon="1.9790560">
        <ele>683.1</ele>
        <time>2019-12-01T14:29:44Z</time>
      </trkpt>
      <trkpt lat="41.6232900" lon="1.9789940">
        <ele>683.4</ele>
        <time>2019-12-01T14:29:46Z</time>
      </trkpt>
      <trkpt lat="41.6232870" lon="1.9789340">
        <ele>683.8</ele>
        <time>2019-12-01T14:29:49Z</time>
      </trkpt>
      <trkpt lat="41.6232860" lon="1.9788680">
        <ele>684.1</ele>
        <time>2019-12-01T14:29:51Z</time>
      </trkpt>
      <trkpt lat="41.6232970" lon="1.9788170">
        <ele>684.5</ele>
        <time>2019-12-01T14:29:53Z</time>
      </trkpt>
      <trkpt lat="41.6233120" lon="1.9787640">
        <ele>684.9</ele>
        <time>2019-12-01T14:29:56Z</time>
      </trkpt>
      <trkpt lat="41.6233320" lon="1.9787030">
        <ele>685.4</ele>
        <time>2019-12-01T14:29:58Z</time>
      </trkpt>
      <trkpt lat="41.6233480" lon="1.9786590">
        <ele>685.7</ele>
        <time>2019-12-01T14:29:59Z</time>
      </trkpt>
      <trkpt lat="41.6233760" lon="1.9786040">
        <ele>686.2</ele>
        <time>2019-12-01T14:30:01Z</time>
      </trkpt>
      <trkpt lat="41.6234120" lon="1.9785490">
        <ele>686.8</ele>
        <time>2019-12-01T14:30:04Z</time>
      </trkpt>
      <trkpt lat="41.6234290" lon="1.9785210">
        <ele>686.9</ele>
        <time>2019-12-01T14:30:05Z</time>
      </trkpt>
      <trkpt lat="41.6234550" lon="1.9784680">
        <ele>686.8</ele>
        <time>2019-12-01T14:30:07Z</time>
      </trkpt>
      <trkpt lat="41.6234750" lon="1.9784130">
        <ele>686.8</ele>
        <time>2019-12-01T14:30:09Z</time>
      </trkpt>
      <trkpt lat="41.6234950" lon="1.9783510">
        <ele>686.7</ele>
        <time>2019-12-01T14:30:12Z</time>
      </trkpt>
      <trkpt lat="41.6235130" lon="1.9782840">
        <ele>686.6</ele>
        <time>2019-12-01T14:30:14Z</time>
      </trkpt>
      <trkpt lat="41.6235270" lon="1.9782320">
        <ele>686.6</ele>
        <time>2019-12-01T14:30:16Z</time>
      </trkpt>
      <trkpt lat="41.6235380" lon="1.9781870">
        <ele>686.6</ele>
        <time>2019-12-01T14:30:19Z</time>
      </trkpt>
      <trkpt lat="41.6235500" lon="1.9781460">
        <ele>686.5</ele>
        <time>2019-12-01T14:30:21Z</time>
      </trkpt>
      <trkpt lat="41.6235620" lon="1.9781090">
        <ele>686.5</ele>
        <time>2019-12-01T14:30:23Z</time>
      </trkpt>
      <trkpt lat="41.6235830" lon="1.9780670">
        <ele>686.4</ele>
        <time>2019-12-01T14:30:25Z</time>
      </trkpt>
      <trkpt lat="41.6235980" lon="1.9780300">
        <ele>686.4</ele>
        <time>2019-12-01T14:30:27Z</time>
      </trkpt>
      <trkpt lat="41.6236150" lon="1.9779860">
        <ele>686.4</ele>
        <time>2019-12-01T14:30:30Z</time>
      </trkpt>
      <trkpt lat="41.6236300" lon="1.9779430">
        <ele>686.4</ele>
        <time>2019-12-01T14:30:33Z</time>
      </trkpt>
      <trkpt lat="41.6236540" lon="1.9779030">
        <ele>686.3</ele>
        <time>2019-12-01T14:30:36Z</time>
      </trkpt>
      <trkpt lat="41.6236790" lon="1.9778490">
        <ele>686.3</ele>
        <time>2019-12-01T14:30:39Z</time>
      </trkpt>
      <trkpt lat="41.6236980" lon="1.9778120">
        <ele>686.3</ele>
        <time>2019-12-01T14:30:41Z</time>
      </trkpt>
      <trkpt lat="41.6237210" lon="1.9777750">
        <ele>686.3</ele>
        <time>2019-12-01T14:30:43Z</time>
      </trkpt>
      <trkpt lat="41.6237440" lon="1.9777440">
        <ele>686.3</ele>
        <time>2019-12-01T14:30:45Z</time>
      </trkpt>
      <trkpt lat="41.6237840" lon="1.9777090">
        <ele>686.3</ele>
        <time>2019-12-01T14:30:48Z</time>
      </trkpt>
      <trkpt lat="41.6238140" lon="1.9776930">
        <ele>686.3</ele>
        <time>2019-12-01T14:30:51Z</time>
      </trkpt>
      <trkpt lat="41.6238440" lon="1.9776650">
        <ele>686.3</ele>
        <time>2019-12-01T14:30:53Z</time>
      </trkpt>
      <trkpt lat="41.6238700" lon="1.9776310">
        <ele>686.2</ele>
        <time>2019-12-01T14:30:55Z</time>
      </trkpt>
      <trkpt lat="41.6238990" lon="1.9775890">
        <ele>686.2</ele>
        <time>2019-12-01T14:30:57Z</time>
      </trkpt>
      <trkpt lat="41.6239210" lon="1.9775430">
        <ele>686.1</ele>
        <time>2019-12-01T14:31:00Z</time>
      </trkpt>
      <trkpt lat="41.6239360" lon="1.9775050">
        <ele>686.0</ele>
        <time>2019-12-01T14:31:01Z</time>
      </trkpt>
      <trkpt lat="41.6239510" lon="1.9774500">
        <ele>685.9</ele>
        <time>2019-12-01T14:31:03Z</time>
      </trkpt>
      <trkpt lat="41.6239630" lon="1.9774010">
        <ele>685.9</ele>
        <time>2019-12-01T14:31:06Z</time>
      </trkpt>
      <trkpt lat="41.6239740" lon="1.9773590">
        <ele>685.9</ele>
        <time>2019-12-01T14:31:07Z</time>
      </trkpt>
      <trkpt lat="41.6239910" lon="1.9772900">
        <ele>686.0</ele>
        <time>2019-12-01T14:31:09Z</time>
      </trkpt>
      <trkpt lat="41.6240010" lon="1.9772500">
        <ele>686.0</ele>
        <time>2019-12-01T14:31:10Z</time>
      </trkpt>
      <trkpt lat="41.6240130" lon="1.9772090">
        <ele>686.2</ele>
        <time>2019-12-01T14:31:12Z</time>
      </trkpt>
      <trkpt lat="41.6240240" lon="1.9771650">
        <ele>686.3</ele>
        <time>2019-12-01T14:31:13Z</time>
      </trkpt>
      <trkpt lat="41.6240310" lon="1.9771240">
        <ele>686.5</ele>
        <time>2019-12-01T14:31:14Z</time>
      </trkpt>
      <trkpt lat="41.6240380" lon="1.9770870">
        <ele>686.7</ele>
        <time>2019-12-01T14:31:15Z</time>
      </trkpt>
      <trkpt lat="41.6240430" lon="1.9770490">
        <ele>686.9</ele>
        <time>2019-12-01T14:31:16Z</time>
      </trkpt>
      <trkpt lat="41.6240480" lon="1.9770110">
        <ele>687.1</ele>
        <time>2019-12-01T14:31:17Z</time>
      </trkpt>
      <trkpt lat="41.6240550" lon="1.9769710">
        <ele>687.3</ele>
        <time>2019-12-01T14:31:18Z</time>
      </trkpt>
      <trkpt lat="41.6240620" lon="1.9769300">
        <ele>687.5</ele>
        <time>2019-12-01T14:31:19Z</time>
      </trkpt>
      <trkpt lat="41.6240680" lon="1.9768940">
        <ele>687.7</ele>
        <time>2019-12-01T14:31:21Z</time>
      </trkpt>
      <trkpt lat="41.6240760" lon="1.9768530">
        <ele>687.9</ele>
        <time>2019-12-01T14:31:22Z</time>
      </trkpt>
      <trkpt lat="41.6240840" lon="1.9768100">
        <ele>688.2</ele>
        <time>2019-12-01T14:31:23Z</time>
      </trkpt>
      <trkpt lat="41.6240910" lon="1.9767740">
        <ele>688.3</ele>
        <time>2019-12-01T14:31:24Z</time>
      </trkpt>
      <trkpt lat="41.6241030" lon="1.9767030">
        <ele>688.6</ele>
        <time>2019-12-01T14:31:26Z</time>
      </trkpt>
      <trkpt lat="41.6241140" lon="1.9766350">
        <ele>688.9</ele>
        <time>2019-12-01T14:31:28Z</time>
      </trkpt>
      <trkpt lat="41.6241310" lon="1.9765700">
        <ele>689.1</ele>
        <time>2019-12-01T14:31:31Z</time>
      </trkpt>
      <trkpt lat="41.6241510" lon="1.9765160">
        <ele>689.3</ele>
        <time>2019-12-01T14:31:33Z</time>
      </trkpt>
      <trkpt lat="41.6241670" lon="1.9764600">
        <ele>689.5</ele>
        <time>2019-12-01T14:31:35Z</time>
      </trkpt>
      <trkpt lat="41.6241770" lon="1.9764010">
        <ele>689.7</ele>
        <time>2019-12-01T14:31:37Z</time>
      </trkpt>
      <trkpt lat="41.6241870" lon="1.9763460">
        <ele>689.9</ele>
        <time>2019-12-01T14:31:39Z</time>
      </trkpt>
      <trkpt lat="41.6242000" lon="1.9762820">
        <ele>690.1</ele>
        <time>2019-12-01T14:31:42Z</time>
      </trkpt>
      <trkpt lat="41.6242110" lon="1.9762100">
        <ele>690.4</ele>
        <time>2019-12-01T14:31:45Z</time>
      </trkpt>
      <trkpt lat="41.6242180" lon="1.9761560">
        <ele>690.6</ele>
        <time>2019-12-01T14:31:47Z</time>
      </trkpt>
      <trkpt lat="41.6242250" lon="1.9761080">
        <ele>690.7</ele>
        <time>2019-12-01T14:31:49Z</time>
      </trkpt>
      <trkpt lat="41.6242310" lon="1.9760630">
        <ele>690.9</ele>
        <time>2019-12-01T14:31:51Z</time>
      </trkpt>
      <trkpt lat="41.6242440" lon="1.9759940">
        <ele>691.3</ele>
        <time>2019-12-01T14:31:54Z</time>
      </trkpt>
      <trkpt lat="41.6242620" lon="1.9759470">
        <ele>691.6</ele>
        <time>2019-12-01T14:31:56Z</time>
      </trkpt>
      <trkpt lat="41.6242840" lon="1.9759030">
        <ele>691.9</ele>
        <time>2019-12-01T14:31:59Z</time>
      </trkpt>
      <trkpt lat="41.6243070" lon="1.9758600">
        <ele>692.2</ele>
        <time>2019-12-01T14:32:01Z</time>
      </trkpt>
      <trkpt lat="41.6243280" lon="1.9758230">
        <ele>692.4</ele>
        <time>2019-12-01T14:32:03Z</time>
      </trkpt>
      <trkpt lat="41.6243460" lon="1.9757880">
        <ele>692.7</ele>
        <time>2019-12-01T14:32:05Z</time>
      </trkpt>
      <trkpt lat="41.6243760" lon="1.9757430">
        <ele>693.0</ele>
        <time>2019-12-01T14:32:08Z</time>
      </trkpt>
      <trkpt lat="41.6243950" lon="1.9757080">
        <ele>693.2</ele>
        <time>2019-12-01T14:32:10Z</time>
      </trkpt>
      <trkpt lat="41.6244140" lon="1.9756710">
        <ele>693.5</ele>
        <time>2019-12-01T14:32:13Z</time>
      </trkpt>
      <trkpt lat="41.6244380" lon="1.9756300">
        <ele>693.7</ele>
        <time>2019-12-01T14:32:15Z</time>
      </trkpt>
      <trkpt lat="41.6244690" lon="1.9755880">
        <ele>693.9</ele>
        <time>2019-12-01T14:32:17Z</time>
      </trkpt>
      <trkpt lat="41.6245030" lon="1.9755470">
        <ele>694.2</ele>
        <time>2019-12-01T14:32:19Z</time>
      </trkpt>
      <trkpt lat="41.6245330" lon="1.9755070">
        <ele>694.5</ele>
        <time>2019-12-01T14:32:22Z</time>
      </trkpt>
      <trkpt lat="41.6245580" lon="1.9754570">
        <ele>694.8</ele>
        <time>2019-12-01T14:32:24Z</time>
      </trkpt>
      <trkpt lat="41.6245860" lon="1.9754080">
        <ele>695.2</ele>
        <time>2019-12-01T14:32:27Z</time>
      </trkpt>
      <trkpt lat="41.6246070" lon="1.9753550">
        <ele>695.6</ele>
        <time>2019-12-01T14:32:29Z</time>
      </trkpt>
      <trkpt lat="41.6246330" lon="1.9752930">
        <ele>696.1</ele>
        <time>2019-12-01T14:32:32Z</time>
      </trkpt>
      <trkpt lat="41.6246590" lon="1.9752380">
        <ele>696.7</ele>
        <time>2019-12-01T14:32:34Z</time>
      </trkpt>
      <trkpt lat="41.6246750" lon="1.9751960">
        <ele>697.1</ele>
        <time>2019-12-01T14:32:36Z</time>
      </trkpt>
      <trkpt lat="41.6246930" lon="1.9751510">
        <ele>697.6</ele>
        <time>2019-12-01T14:32:39Z</time>
      </trkpt>
      <trkpt lat="41.6247090" lon="1.9751040">
        <ele>698.1</ele>
        <time>2019-12-01T14:32:41Z</time>
      </trkpt>
      <trkpt lat="41.6247270" lon="1.9750540">
        <ele>698.6</ele>
        <time>2019-12-01T14:32:43Z</time>
      </trkpt>
      <trkpt lat="41.6247420" lon="1.9750060">
        <ele>699.1</ele>
        <time>2019-12-01T14:32:45Z</time>
      </trkpt>
      <trkpt lat="41.6247570" lon="1.9749530">
        <ele>699.7</ele>
        <time>2019-12-01T14:32:48Z</time>
      </trkpt>
      <trkpt lat="41.6247680" lon="1.9749030">
        <ele>700.3</ele>
        <time>2019-12-01T14:32:50Z</time>
      </trkpt>
      <trkpt lat="41.6247840" lon="1.9748530">
        <ele>701.0</ele>
        <time>2019-12-01T14:32:52Z</time>
      </trkpt>
      <trkpt lat="41.6248020" lon="1.9748020">
        <ele>701.7</ele>
        <time>2019-12-01T14:32:55Z</time>
      </trkpt>
      <trkpt lat="41.6248210" lon="1.9747340">
        <ele>702.7</ele>
        <time>2019-12-01T14:32:57Z</time>
      </trkpt>
      <trkpt lat="41.6248360" lon="1.9746750">
        <ele>703.4</ele>
        <time>2019-12-01T14:32:59Z</time>
      </trkpt>
      <trkpt lat="41.6248560" lon="1.9746270">
        <ele>704.0</ele>
        <time>2019-12-01T14:33:02Z</time>
      </trkpt>
      <trkpt lat="41.6248740" lon="1.9745690">
        <ele>704.7</ele>
        <time>2019-12-01T14:33:04Z</time>
      </trkpt>
      <trkpt lat="41.6248900" lon="1.9745160">
        <ele>705.3</ele>
        <time>2019-12-01T14:33:06Z</time>
      </trkpt>
      <trkpt lat="41.6249080" lon="1.9744630">
        <ele>705.9</ele>
        <time>2019-12-01T14:33:08Z</time>
      </trkpt>
      <trkpt lat="41.6249320" lon="1.9744110">
        <ele>706.6</ele>
        <time>2019-12-01T14:33:11Z</time>
      </trkpt>
      <trkpt lat="41.6249590" lon="1.9743640">
        <ele>707.2</ele>
        <time>2019-12-01T14:33:13Z</time>
      </trkpt>
      <trkpt lat="41.6249830" lon="1.9743150">
        <ele>707.8</ele>
        <time>2019-12-01T14:33:15Z</time>
      </trkpt>
      <trkpt lat="41.6250080" lon="1.9742610">
        <ele>708.4</ele>
        <time>2019-12-01T14:33:17Z</time>
      </trkpt>
      <trkpt lat="41.6250390" lon="1.9741930">
        <ele>709.2</ele>
        <time>2019-12-01T14:33:20Z</time>
      </trkpt>
      <trkpt lat="41.6250620" lon="1.9741330">
        <ele>709.9</ele>
        <time>2019-12-01T14:33:22Z</time>
      </trkpt>
      <trkpt lat="41.6250840" lon="1.9740780">
        <ele>710.5</ele>
        <time>2019-12-01T14:33:24Z</time>
      </trkpt>
      <trkpt lat="41.6251070" lon="1.9740170">
        <ele>711.1</ele>
        <time>2019-12-01T14:33:26Z</time>
      </trkpt>
      <trkpt lat="41.6252320" lon="1.9738800">
        <ele>713.4</ele>
        <time>2019-12-01T14:34:00Z</time>
      </trkpt>
      <trkpt lat="41.6252560" lon="1.9738610">
        <ele>713.8</ele>
        <time>2019-12-01T14:34:01Z</time>
      </trkpt>
      <trkpt lat="41.6253020" lon="1.9738270">
        <ele>714.4</ele>
        <time>2019-12-01T14:34:04Z</time>
      </trkpt>
      <trkpt lat="41.6253450" lon="1.9737920">
        <ele>715.2</ele>
        <time>2019-12-01T14:34:06Z</time>
      </trkpt>
      <trkpt lat="41.6253800" lon="1.9737560">
        <ele>715.9</ele>
        <time>2019-12-01T14:34:08Z</time>
      </trkpt>
      <trkpt lat="41.6254130" lon="1.9737160">
        <ele>716.4</ele>
        <time>2019-12-01T14:34:10Z</time>
      </trkpt>
      <trkpt lat="41.6254450" lon="1.9736750">
        <ele>717.0</ele>
        <time>2019-12-01T14:34:13Z</time>
      </trkpt>
      <trkpt lat="41.6254770" lon="1.9736270">
        <ele>717.6</ele>
        <time>2019-12-01T14:34:15Z</time>
      </trkpt>
      <trkpt lat="41.6255030" lon="1.9735790">
        <ele>718.3</ele>
        <time>2019-12-01T14:34:17Z</time>
      </trkpt>
      <trkpt lat="41.6255190" lon="1.9735480">
        <ele>718.8</ele>
        <time>2019-12-01T14:34:18Z</time>
      </trkpt>
      <trkpt lat="41.6255400" lon="1.9734940">
        <ele>719.4</ele>
        <time>2019-12-01T14:34:21Z</time>
      </trkpt>
      <trkpt lat="41.6255530" lon="1.9734570">
        <ele>719.8</ele>
        <time>2019-12-01T14:34:22Z</time>
      </trkpt>
      <trkpt lat="41.6255690" lon="1.9733930">
        <ele>720.2</ele>
        <time>2019-12-01T14:34:25Z</time>
      </trkpt>
      <trkpt lat="41.6255780" lon="1.9733460">
        <ele>720.5</ele>
        <time>2019-12-01T14:34:27Z</time>
      </trkpt>
      <trkpt lat="41.6255900" lon="1.9733080">
        <ele>720.8</ele>
        <time>2019-12-01T14:34:29Z</time>
      </trkpt>
      <trkpt lat="41.6256040" lon="1.9732650">
        <ele>721.0</ele>
        <time>2019-12-01T14:34:32Z</time>
      </trkpt>
      <trkpt lat="41.6256130" lon="1.9732050">
        <ele>721.3</ele>
        <time>2019-12-01T14:34:35Z</time>
      </trkpt>
      <trkpt lat="41.6256190" lon="1.9731580">
        <ele>721.5</ele>
        <time>2019-12-01T14:34:37Z</time>
      </trkpt>
      <trkpt lat="41.6256230" lon="1.9731110">
        <ele>721.8</ele>
        <time>2019-12-01T14:34:39Z</time>
      </trkpt>
      <trkpt lat="41.6256300" lon="1.9730580">
        <ele>722.1</ele>
        <time>2019-12-01T14:34:41Z</time>
      </trkpt>
      <trkpt lat="41.6256400" lon="1.9730020">
        <ele>722.3</ele>
        <time>2019-12-01T14:34:43Z</time>
      </trkpt>
      <trkpt lat="41.6256520" lon="1.9729510">
        <ele>722.7</ele>
        <time>2019-12-01T14:34:46Z</time>
      </trkpt>
      <trkpt lat="41.6256650" lon="1.9728960">
        <ele>723.1</ele>
        <time>2019-12-01T14:34:48Z</time>
      </trkpt>
      <trkpt lat="41.6256840" lon="1.9728520">
        <ele>723.4</ele>
        <time>2019-12-01T14:34:50Z</time>
      </trkpt>
      <trkpt lat="41.6256980" lon="1.9727930">
        <ele>723.9</ele>
        <time>2019-12-01T14:34:53Z</time>
      </trkpt>
      <trkpt lat="41.6257140" lon="1.9727450">
        <ele>724.3</ele>
        <time>2019-12-01T14:34:55Z</time>
      </trkpt>
      <trkpt lat="41.6257350" lon="1.9727050">
        <ele>724.8</ele>
        <time>2019-12-01T14:34:57Z</time>
      </trkpt>
      <trkpt lat="41.6257510" lon="1.9726700">
        <ele>725.1</ele>
        <time>2019-12-01T14:35:00Z</time>
      </trkpt>
      <trkpt lat="41.6257730" lon="1.9726460">
        <ele>725.3</ele>
        <time>2019-12-01T14:35:03Z</time>
      </trkpt>
      <trkpt lat="41.6257860" lon="1.9726120">
        <ele>725.5</ele>
        <time>2019-12-01T14:35:06Z</time>
      </trkpt>
      <trkpt lat="41.6258060" lon="1.9725620">
        <ele>725.9</ele>
        <time>2019-12-01T14:35:09Z</time>
      </trkpt>
      <trkpt lat="41.6258300" lon="1.9725230">
        <ele>726.2</ele>
        <time>2019-12-01T14:35:11Z</time>
      </trkpt>
      <trkpt lat="41.6258520" lon="1.9724900">
        <ele>726.6</ele>
        <time>2019-12-01T14:35:13Z</time>
      </trkpt>
      <trkpt lat="41.6258740" lon="1.9724540">
        <ele>727.0</ele>
        <time>2019-12-01T14:35:16Z</time>
      </trkpt>
      <trkpt lat="41.6258910" lon="1.9724200">
        <ele>727.3</ele>
        <time>2019-12-01T14:35:17Z</time>
      </trkpt>
      <trkpt lat="41.6259150" lon="1.9723770">
        <ele>727.8</ele>
        <time>2019-12-01T14:35:19Z</time>
      </trkpt>
      <trkpt lat="41.6259430" lon="1.9723440">
        <ele>728.2</ele>
        <time>2019-12-01T14:35:22Z</time>
      </trkpt>
      <trkpt lat="41.6259600" lon="1.9723040">
        <ele>728.7</ele>
        <time>2019-12-01T14:35:24Z</time>
      </trkpt>
      <trkpt lat="41.6259850" lon="1.9722670">
        <ele>729.1</ele>
        <time>2019-12-01T14:35:26Z</time>
      </trkpt>
      <trkpt lat="41.6262180" lon="1.9719500">
        <ele>732.1</ele>
        <time>2019-12-01T14:35:51Z</time>
      </trkpt>
      <trkpt lat="41.6262650" lon="1.9719050">
        <ele>732.5</ele>
        <time>2019-12-01T14:35:53Z</time>
      </trkpt>
      <trkpt lat="41.6263070" lon="1.9718610">
        <ele>732.8</ele>
        <time>2019-12-01T14:35:55Z</time>
      </trkpt>
      <trkpt lat="41.6263400" lon="1.9718310">
        <ele>733.0</ele>
        <time>2019-12-01T14:35:57Z</time>
      </trkpt>
      <trkpt lat="41.6263770" lon="1.9717970">
        <ele>733.2</ele>
        <time>2019-12-01T14:36:00Z</time>
      </trkpt>
      <trkpt lat="41.6264040" lon="1.9717810">
        <ele>733.4</ele>
        <time>2019-12-01T14:36:02Z</time>
      </trkpt>
      <trkpt lat="41.6264320" lon="1.9717630">
        <ele>733.6</ele>
        <time>2019-12-01T14:36:04Z</time>
      </trkpt>
      <trkpt lat="41.6264740" lon="1.9717360">
        <ele>733.9</ele>
        <time>2019-12-01T14:36:07Z</time>
      </trkpt>
      <trkpt lat="41.6265020" lon="1.9717240">
        <ele>734.1</ele>
        <time>2019-12-01T14:36:09Z</time>
      </trkpt>
      <trkpt lat="41.6265370" lon="1.9717040">
        <ele>734.5</ele>
        <time>2019-12-01T14:36:12Z</time>
      </trkpt>
      <trkpt lat="41.6265640" lon="1.9716840">
        <ele>734.8</ele>
        <time>2019-12-01T14:36:14Z</time>
      </trkpt>
      <trkpt lat="41.6266000" lon="1.9716530">
        <ele>735.3</ele>
        <time>2019-12-01T14:36:17Z</time>
      </trkpt>
      <trkpt lat="41.6266240" lon="1.9716260">
        <ele>735.7</ele>
        <time>2019-12-01T14:36:20Z</time>
      </trkpt>
      <trkpt lat="41.6266490" lon="1.9715940">
        <ele>736.2</ele>
        <time>2019-12-01T14:36:23Z</time>
      </trkpt>
      <trkpt lat="41.6266880" lon="1.9715590">
        <ele>736.8</ele>
        <time>2019-12-01T14:36:27Z</time>
      </trkpt>
      <trkpt lat="41.6267210" lon="1.9715430">
        <ele>737.2</ele>
        <time>2019-12-01T14:36:31Z</time>
      </trkpt>
      <trkpt lat="41.6267620" lon="1.9715050">
        <ele>737.9</ele>
        <time>2019-12-01T14:36:34Z</time>
      </trkpt>
      <trkpt lat="41.6267880" lon="1.9714790">
        <ele>738.3</ele>
        <time>2019-12-01T14:36:36Z</time>
      </trkpt>
      <trkpt lat="41.6268110" lon="1.9714540">
        <ele>738.7</ele>
        <time>2019-12-01T14:36:38Z</time>
      </trkpt>
      <trkpt lat="41.6268490" lon="1.9713980">
        <ele>739.5</ele>
        <time>2019-12-01T14:36:42Z</time>
      </trkpt>
      <trkpt lat="41.6268830" lon="1.9713690">
        <ele>739.8</ele>
        <time>2019-12-01T14:36:45Z</time>
      </trkpt>
      <trkpt lat="41.6269140" lon="1.9713440">
        <ele>740.1</ele>
        <time>2019-12-01T14:36:48Z</time>
      </trkpt>
      <trkpt lat="41.6269350" lon="1.9713190">
        <ele>740.4</ele>
        <time>2019-12-01T14:36:50Z</time>
      </trkpt>
      <trkpt lat="41.6269570" lon="1.9712710">
        <ele>740.7</ele>
        <time>2019-12-01T14:36:53Z</time>
      </trkpt>
      <trkpt lat="41.6269720" lon="1.9712350">
        <ele>741.0</ele>
        <time>2019-12-01T14:36:56Z</time>
      </trkpt>
      <trkpt lat="41.6269930" lon="1.9711930">
        <ele>741.4</ele>
        <time>2019-12-01T14:37:00Z</time>
      </trkpt>
      <trkpt lat="41.6270220" lon="1.9711350">
        <ele>741.9</ele>
        <time>2019-12-01T14:37:04Z</time>
      </trkpt>
      <trkpt lat="41.6270410" lon="1.9710960">
        <ele>742.2</ele>
        <time>2019-12-01T14:37:07Z</time>
      </trkpt>
      <trkpt lat="41.6270580" lon="1.9710390">
        <ele>742.8</ele>
        <time>2019-12-01T14:37:11Z</time>
      </trkpt>
      <trkpt lat="41.6270710" lon="1.9709880">
        <ele>743.3</ele>
        <time>2019-12-01T14:37:15Z</time>
      </trkpt>
      <trkpt lat="41.6270880" lon="1.9709400">
        <ele>743.8</ele>
        <time>2019-12-01T14:37:18Z</time>
      </trkpt>
      <trkpt lat="41.6271050" lon="1.9708990">
        <ele>744.3</ele>
        <time>2019-12-01T14:37:21Z</time>
      </trkpt>
      <trkpt lat="41.6271170" lon="1.9708660">
        <ele>744.6</ele>
        <time>2019-12-01T14:37:23Z</time>
      </trkpt>
      <trkpt lat="41.6271350" lon="1.9708340">
        <ele>745.0</ele>
        <time>2019-12-01T14:37:25Z</time>
      </trkpt>
      <trkpt lat="41.6271640" lon="1.9707850">
        <ele>745.5</ele>
        <time>2019-12-01T14:37:28Z</time>
      </trkpt>
      <trkpt lat="41.6271820" lon="1.9707530">
        <ele>745.9</ele>
        <time>2019-12-01T14:37:30Z</time>
      </trkpt>
      <trkpt lat="41.6271940" lon="1.9707180">
        <ele>746.1</ele>
        <time>2019-12-01T14:37:32Z</time>
      </trkpt>
      <trkpt lat="41.6272120" lon="1.9706670">
        <ele>746.5</ele>
        <time>2019-12-01T14:37:35Z</time>
      </trkpt>
      <trkpt lat="41.6272420" lon="1.9706470">
        <ele>746.8</ele>
        <time>2019-12-01T14:37:41Z</time>
      </trkpt>
      <trkpt lat="41.6272610" lon="1.9706170">
        <ele>747.0</ele>
        <time>2019-12-01T14:37:45Z</time>
      </trkpt>
      <trkpt lat="41.6272760" lon="1.9705800">
        <ele>747.3</ele>
        <time>2019-12-01T14:37:49Z</time>
      </trkpt>
      <trkpt lat="41.6272960" lon="1.9705390">
        <ele>747.6</ele>
        <time>2019-12-01T14:37:53Z</time>
      </trkpt>
      <trkpt lat="41.6273180" lon="1.9704950">
        <ele>747.9</ele>
        <time>2019-12-01T14:37:57Z</time>
      </trkpt>
      <trkpt lat="41.6274030" lon="1.9703510">
        <ele>748.9</ele>
        <time>2019-12-01T14:38:01Z</time>
      </trkpt>
      <trkpt lat="41.6274250" lon="1.9703060">
        <ele>749.1</ele>
        <time>2019-12-01T14:38:03Z</time>
      </trkpt>
      <trkpt lat="41.6274290" lon="1.9702640">
        <ele>749.3</ele>
        <time>2019-12-01T14:38:05Z</time>
      </trkpt>
      <trkpt lat="41.6274300" lon="1.9702220">
        <ele>749.4</ele>
        <time>2019-12-01T14:38:07Z</time>
      </trkpt>
      <trkpt lat="41.6274370" lon="1.9701820">
        <ele>749.6</ele>
        <time>2019-12-01T14:38:09Z</time>
      </trkpt>
      <trkpt lat="41.6274530" lon="1.9701340">
        <ele>750.1</ele>
        <time>2019-12-01T14:38:12Z</time>
      </trkpt>
      <trkpt lat="41.6274750" lon="1.9701030">
        <ele>750.9</ele>
        <time>2019-12-01T14:38:15Z</time>
      </trkpt>
      <trkpt lat="41.6274990" lon="1.9700760">
        <ele>751.6</ele>
        <time>2019-12-01T14:38:17Z</time>
      </trkpt>
      <trkpt lat="41.6275240" lon="1.9700480">
        <ele>752.3</ele>
        <time>2019-12-01T14:38:19Z</time>
      </trkpt>
      <trkpt lat="41.6275630" lon="1.9700210">
        <ele>753.3</ele>
        <time>2019-12-01T14:38:22Z</time>
      </trkpt>
      <trkpt lat="41.6275900" lon="1.9700110">
        <ele>753.9</ele>
        <time>2019-12-01T14:38:24Z</time>
      </trkpt>
      <trkpt lat="41.6276190" lon="1.9700030">
        <ele>754.6</ele>
        <time>2019-12-01T14:38:26Z</time>
      </trkpt>
      <trkpt lat="41.6276500" lon="1.9699960">
        <ele>755.2</ele>
        <time>2019-12-01T14:38:29Z</time>
      </trkpt>
      <trkpt lat="41.6276910" lon="1.9699990">
        <ele>755.9</ele>
        <time>2019-12-01T14:38:34Z</time>
      </trkpt>
      <trkpt lat="41.6277240" lon="1.9699890">
        <ele>756.5</ele>
        <time>2019-12-01T14:38:39Z</time>
      </trkpt>
      <trkpt lat="41.6277520" lon="1.9699680">
        <ele>757.1</ele>
        <time>2019-12-01T14:38:43Z</time>
      </trkpt>
      <trkpt lat="41.6277800" lon="1.9699570">
        <ele>758.0</ele>
        <time>2019-12-01T14:38:48Z</time>
      </trkpt>
      <trkpt lat="41.6278220" lon="1.9699350">
        <ele>759.1</ele>
        <time>2019-12-01T14:38:50Z</time>
      </trkpt>
      <trkpt lat="41.6278660" lon="1.9699110">
        <ele>759.8</ele>
        <time>2019-12-01T14:38:52Z</time>
      </trkpt>
      <trkpt lat="41.6279080" lon="1.9698810">
        <ele>760.4</ele>
        <time>2019-12-01T14:38:54Z</time>
      </trkpt>
      <trkpt lat="41.6279380" lon="1.9698590">
        <ele>760.9</ele>
        <time>2019-12-01T14:38:56Z</time>
      </trkpt>
      <trkpt lat="41.6279650" lon="1.9698340">
        <ele>761.4</ele>
        <time>2019-12-01T14:39:01Z</time>
      </trkpt>
      <trkpt lat="41.6279820" lon="1.9698050">
        <ele>761.8</ele>
        <time>2019-12-01T14:39:04Z</time>
      </trkpt>
      <trkpt lat="41.6279650" lon="1.9697770">
        <ele>762.1</ele>
        <time>2019-12-01T14:39:09Z</time>
      </trkpt>
      <trkpt lat="41.6279700" lon="1.9697390">
        <ele>762.5</ele>
        <time>2019-12-01T14:39:11Z</time>
      </trkpt>
      <trkpt lat="41.6279840" lon="1.9695900">
        <ele>758.8</ele>
        <time>2019-12-01T14:40:07Z</time>
      </trkpt>
      <trkpt lat="41.6279900" lon="1.9695420">
        <ele>758.2</ele>
        <time>2019-12-01T14:40:09Z</time>
      </trkpt>
      <trkpt lat="41.6279770" lon="1.9694810">
        <ele>757.4</ele>
        <time>2019-12-01T14:40:12Z</time>
      </trkpt>
      <trkpt lat="41.6279690" lon="1.9694210">
        <ele>756.7</ele>
        <time>2019-12-01T14:40:13Z</time>
      </trkpt>
      <trkpt lat="41.6279650" lon="1.9693790">
        <ele>756.2</ele>
        <time>2019-12-01T14:40:14Z</time>
      </trkpt>
      <trkpt lat="41.6279620" lon="1.9693370">
        <ele>755.8</ele>
        <time>2019-12-01T14:40:15Z</time>
      </trkpt>
      <trkpt lat="41.6279590" lon="1.9692890">
        <ele>755.3</ele>
        <time>2019-12-01T14:40:17Z</time>
      </trkpt>
      <trkpt lat="41.6279570" lon="1.9692440">
        <ele>754.9</ele>
        <time>2019-12-01T14:40:18Z</time>
      </trkpt>
      <trkpt lat="41.6278800" lon="1.9691140">
        <ele>753.5</ele>
        <time>2019-12-01T14:40:31Z</time>
      </trkpt>
      <trkpt lat="41.6278720" lon="1.9690890">
        <ele>753.3</ele>
        <time>2019-12-01T14:40:32Z</time>
      </trkpt>
      <trkpt lat="41.6278620" lon="1.9690420">
        <ele>752.9</ele>
        <time>2019-12-01T14:40:33Z</time>
      </trkpt>
      <trkpt lat="41.6278590" lon="1.9689990">
        <ele>752.7</ele>
        <time>2019-12-01T14:40:34Z</time>
      </trkpt>
      <trkpt lat="41.6278590" lon="1.9689540">
        <ele>752.4</ele>
        <time>2019-12-01T14:40:36Z</time>
      </trkpt>
      <trkpt lat="41.6278600" lon="1.9689120">
        <ele>752.1</ele>
        <time>2019-12-01T14:40:37Z</time>
      </trkpt>
      <trkpt lat="41.6278780" lon="1.9688480">
        <ele>751.8</ele>
        <time>2019-12-01T14:40:39Z</time>
      </trkpt>
      <trkpt lat="41.6278860" lon="1.9688120">
        <ele>751.6</ele>
        <time>2019-12-01T14:40:40Z</time>
      </trkpt>
      <trkpt lat="41.6278940" lon="1.9687770">
        <ele>751.5</ele>
        <time>2019-12-01T14:40:41Z</time>
      </trkpt>
      <trkpt lat="41.6279010" lon="1.9687340">
        <ele>751.3</ele>
        <time>2019-12-01T14:40:42Z</time>
      </trkpt>
      <trkpt lat="41.6279020" lon="1.9686950">
        <ele>751.1</ele>
        <time>2019-12-01T14:40:43Z</time>
      </trkpt>
      <trkpt lat="41.6279020" lon="1.9686260">
        <ele>750.9</ele>
        <time>2019-12-01T14:40:45Z</time>
      </trkpt>
      <trkpt lat="41.6278950" lon="1.9685510">
        <ele>750.6</ele>
        <time>2019-12-01T14:40:48Z</time>
      </trkpt>
      <trkpt lat="41.6278880" lon="1.9685020">
        <ele>750.5</ele>
        <time>2019-12-01T14:40:50Z</time>
      </trkpt>
      <trkpt lat="41.6278870" lon="1.9684580">
        <ele>750.3</ele>
        <time>2019-12-01T14:40:52Z</time>
      </trkpt>
      <trkpt lat="41.6278870" lon="1.9684080">
        <ele>750.1</ele>
        <time>2019-12-01T14:40:55Z</time>
      </trkpt>
      <trkpt lat="41.6278930" lon="1.9683680">
        <ele>750.0</ele>
        <time>2019-12-01T14:40:56Z</time>
      </trkpt>
      <trkpt lat="41.6278990" lon="1.9683290">
        <ele>749.8</ele>
        <time>2019-12-01T14:40:57Z</time>
      </trkpt>
      <trkpt lat="41.6279050" lon="1.9682810">
        <ele>749.7</ele>
        <time>2019-12-01T14:40:58Z</time>
      </trkpt>
      <trkpt lat="41.6279080" lon="1.9682340">
        <ele>749.5</ele>
        <time>2019-12-01T14:41:00Z</time>
      </trkpt>
      <trkpt lat="41.6279110" lon="1.9681880">
        <ele>749.4</ele>
        <time>2019-12-01T14:41:01Z</time>
      </trkpt>
      <trkpt lat="41.6279120" lon="1.9681260">
        <ele>749.1</ele>
        <time>2019-12-01T14:41:02Z</time>
      </trkpt>
      <trkpt lat="41.6279080" lon="1.9680600">
        <ele>748.9</ele>
        <time>2019-12-01T14:41:04Z</time>
      </trkpt>
      <trkpt lat="41.6278980" lon="1.9679980">
        <ele>748.7</ele>
        <time>2019-12-01T14:41:07Z</time>
      </trkpt>
      <trkpt lat="41.6278860" lon="1.9679320">
        <ele>748.3</ele>
        <time>2019-12-01T14:41:09Z</time>
      </trkpt>
      <trkpt lat="41.6278730" lon="1.9678690">
        <ele>748.0</ele>
        <time>2019-12-01T14:41:11Z</time>
      </trkpt>
      <trkpt lat="41.6278460" lon="1.9677930">
        <ele>747.5</ele>
        <time>2019-12-01T14:41:14Z</time>
      </trkpt>
      <trkpt lat="41.6278300" lon="1.9677460">
        <ele>747.2</ele>
        <time>2019-12-01T14:41:15Z</time>
      </trkpt>
      <trkpt lat="41.6278230" lon="1.9676800">
        <ele>746.9</ele>
        <time>2019-12-01T14:41:17Z</time>
      </trkpt>
      <trkpt lat="41.6278410" lon="1.9676070">
        <ele>746.7</ele>
        <time>2019-12-01T14:41:20Z</time>
      </trkpt>
      <trkpt lat="41.6278570" lon="1.9675740">
        <ele>746.6</ele>
        <time>2019-12-01T14:41:21Z</time>
      </trkpt>
      <trkpt lat="41.6278750" lon="1.9675370">
        <ele>746.5</ele>
        <time>2019-12-01T14:41:22Z</time>
      </trkpt>
      <trkpt lat="41.6278970" lon="1.9674880">
        <ele>746.4</ele>
        <time>2019-12-01T14:41:24Z</time>
      </trkpt>
      <trkpt lat="41.6279140" lon="1.9674580">
        <ele>746.3</ele>
        <time>2019-12-01T14:41:25Z</time>
      </trkpt>
      <trkpt lat="41.6279300" lon="1.9674250">
        <ele>746.2</ele>
        <time>2019-12-01T14:41:26Z</time>
      </trkpt>
      <trkpt lat="41.6279580" lon="1.9673720">
        <ele>746.1</ele>
        <time>2019-12-01T14:41:28Z</time>
      </trkpt>
      <trkpt lat="41.6279910" lon="1.9673310">
        <ele>746.0</ele>
        <time>2019-12-01T14:41:31Z</time>
      </trkpt>
      <trkpt lat="41.6280240" lon="1.9672920">
        <ele>745.9</ele>
        <time>2019-12-01T14:41:33Z</time>
      </trkpt>
      <trkpt lat="41.6280500" lon="1.9672550">
        <ele>745.8</ele>
        <time>2019-12-01T14:41:35Z</time>
      </trkpt>
      <trkpt lat="41.6280670" lon="1.9672070">
        <ele>745.7</ele>
        <time>2019-12-01T14:41:37Z</time>
      </trkpt>
      <trkpt lat="41.6280970" lon="1.9671450">
        <ele>745.5</ele>
        <time>2019-12-01T14:41:40Z</time>
      </trkpt>
      <trkpt lat="41.6281300" lon="1.9671000">
        <ele>745.3</ele>
        <time>2019-12-01T14:41:42Z</time>
      </trkpt>
      <trkpt lat="41.6281700" lon="1.9670530">
        <ele>745.2</ele>
        <time>2019-12-01T14:41:44Z</time>
      </trkpt>
      <trkpt lat="41.6281960" lon="1.9670310">
        <ele>745.0</ele>
        <time>2019-12-01T14:41:45Z</time>
      </trkpt>
      <trkpt lat="41.6282210" lon="1.9670110">
        <ele>744.9</ele>
        <time>2019-12-01T14:41:47Z</time>
      </trkpt>
      <trkpt lat="41.6282600" lon="1.9669740">
        <ele>744.8</ele>
        <time>2019-12-01T14:41:49Z</time>
      </trkpt>
      <trkpt lat="41.6282770" lon="1.9669210">
        <ele>744.6</ele>
        <time>2019-12-01T14:41:51Z</time>
      </trkpt>
      <trkpt lat="41.6282700" lon="1.9668580">
        <ele>744.3</ele>
        <time>2019-12-01T14:41:53Z</time>
      </trkpt>
      <trkpt lat="41.6282540" lon="1.9668150">
        <ele>744.2</ele>
        <time>2019-12-01T14:41:55Z</time>
      </trkpt>
      <trkpt lat="41.6282290" lon="1.9667640">
        <ele>744.0</ele>
        <time>2019-12-01T14:41:57Z</time>
      </trkpt>
      <trkpt lat="41.6282050" lon="1.9667210">
        <ele>743.9</ele>
        <time>2019-12-01T14:41:59Z</time>
      </trkpt>
      <trkpt lat="41.6281800" lon="1.9666750">
        <ele>743.8</ele>
        <time>2019-12-01T14:42:02Z</time>
      </trkpt>
      <trkpt lat="41.6281650" lon="1.9666270">
        <ele>743.6</ele>
        <time>2019-12-01T14:42:03Z</time>
      </trkpt>
      <trkpt lat="41.6281570" lon="1.9665920">
        <ele>743.5</ele>
        <time>2019-12-01T14:42:04Z</time>
      </trkpt>
      <trkpt lat="41.6281510" lon="1.9665540">
        <ele>743.3</ele>
        <time>2019-12-01T14:42:05Z</time>
      </trkpt>
      <trkpt lat="41.6281470" lon="1.9665170">
        <ele>743.2</ele>
        <time>2019-12-01T14:42:06Z</time>
      </trkpt>
      <trkpt lat="41.6281400" lon="1.9664500">
        <ele>743.0</ele>
        <time>2019-12-01T14:42:09Z</time>
      </trkpt>
      <trkpt lat="41.6281340" lon="1.9664140">
        <ele>742.9</ele>
        <time>2019-12-01T14:42:10Z</time>
      </trkpt>
      <trkpt lat="41.6281250" lon="1.9663790">
        <ele>742.8</ele>
        <time>2019-12-01T14:42:11Z</time>
      </trkpt>
      <trkpt lat="41.6281060" lon="1.9663180">
        <ele>742.7</ele>
        <time>2019-12-01T14:42:13Z</time>
      </trkpt>
      <trkpt lat="41.6280830" lon="1.9662590">
        <ele>742.5</ele>
        <time>2019-12-01T14:42:15Z</time>
      </trkpt>
      <trkpt lat="41.6280640" lon="1.9661990">
        <ele>742.2</ele>
        <time>2019-12-01T14:42:17Z</time>
      </trkpt>
      <trkpt lat="41.6280650" lon="1.9661160">
        <ele>741.9</ele>
        <time>2019-12-01T14:42:20Z</time>
      </trkpt>
      <trkpt lat="41.6280800" lon="1.9660560">
        <ele>741.7</ele>
        <time>2019-12-01T14:42:22Z</time>
      </trkpt>
      <trkpt lat="41.6281010" lon="1.9659900">
        <ele>741.6</ele>
        <time>2019-12-01T14:42:25Z</time>
      </trkpt>
      <trkpt lat="41.6281300" lon="1.9659260">
        <ele>741.4</ele>
        <time>2019-12-01T14:42:27Z</time>
      </trkpt>
      <trkpt lat="41.6281580" lon="1.9658630">
        <ele>741.3</ele>
        <time>2019-12-01T14:42:29Z</time>
      </trkpt>
      <trkpt lat="41.6281750" lon="1.9658320">
        <ele>741.3</ele>
        <time>2019-12-01T14:42:30Z</time>
      </trkpt>
      <trkpt lat="41.6281910" lon="1.9657980">
        <ele>741.2</ele>
        <time>2019-12-01T14:42:31Z</time>
      </trkpt>
      <trkpt lat="41.6282070" lon="1.9657620">
        <ele>741.1</ele>
        <time>2019-12-01T14:42:33Z</time>
      </trkpt>
      <trkpt lat="41.6282250" lon="1.9657270">
        <ele>741.1</ele>
        <time>2019-12-01T14:42:34Z</time>
      </trkpt>
      <trkpt lat="41.6282420" lon="1.9656960">
        <ele>741.1</ele>
        <time>2019-12-01T14:42:35Z</time>
      </trkpt>
      <trkpt lat="41.6282550" lon="1.9656610">
        <ele>741.1</ele>
        <time>2019-12-01T14:42:36Z</time>
      </trkpt>
      <trkpt lat="41.6282680" lon="1.9656210">
        <ele>741.2</ele>
        <time>2019-12-01T14:42:37Z</time>
      </trkpt>
      <trkpt lat="41.6282780" lon="1.9655840">
        <ele>741.2</ele>
        <time>2019-12-01T14:42:38Z</time>
      </trkpt>
      <trkpt lat="41.6282850" lon="1.9655450">
        <ele>741.3</ele>
        <time>2019-12-01T14:42:39Z</time>
      </trkpt>
      <trkpt lat="41.6282880" lon="1.9655070">
        <ele>741.4</ele>
        <time>2019-12-01T14:42:40Z</time>
      </trkpt>
      <trkpt lat="41.6282860" lon="1.9654650">
        <ele>741.4</ele>
        <time>2019-12-01T14:42:41Z</time>
      </trkpt>
      <trkpt lat="41.6282790" lon="1.9654290">
        <ele>741.5</ele>
        <time>2019-12-01T14:42:42Z</time>
      </trkpt>
      <trkpt lat="41.6282590" lon="1.9653860">
        <ele>741.5</ele>
        <time>2019-12-01T14:42:44Z</time>
      </trkpt>
      <trkpt lat="41.6282490" lon="1.9653500">
        <ele>741.6</ele>
        <time>2019-12-01T14:42:45Z</time>
      </trkpt>
      <trkpt lat="41.6282410" lon="1.9653130">
        <ele>741.6</ele>
        <time>2019-12-01T14:42:46Z</time>
      </trkpt>
      <trkpt lat="41.6282340" lon="1.9652620">
        <ele>741.6</ele>
        <time>2019-12-01T14:42:48Z</time>
      </trkpt>
      <trkpt lat="41.6282280" lon="1.9652260">
        <ele>741.6</ele>
        <time>2019-12-01T14:42:49Z</time>
      </trkpt>
      <trkpt lat="41.6282270" lon="1.9651690">
        <ele>741.6</ele>
        <time>2019-12-01T14:42:51Z</time>
      </trkpt>
      <trkpt lat="41.6282310" lon="1.9650990">
        <ele>741.6</ele>
        <time>2019-12-01T14:42:54Z</time>
      </trkpt>
      <trkpt lat="41.6282350" lon="1.9650550">
        <ele>741.6</ele>
        <time>2019-12-01T14:42:56Z</time>
      </trkpt>
      <trkpt lat="41.6282460" lon="1.9650080">
        <ele>741.5</ele>
        <time>2019-12-01T14:42:58Z</time>
      </trkpt>
      <trkpt lat="41.6282480" lon="1.9649590">
        <ele>741.5</ele>
        <time>2019-12-01T14:43:01Z</time>
      </trkpt>
      <trkpt lat="41.6282330" lon="1.9649110">
        <ele>741.4</ele>
        <time>2019-12-01T14:43:03Z</time>
      </trkpt>
      <trkpt lat="41.6282130" lon="1.9648610">
        <ele>741.4</ele>
        <time>2019-12-01T14:43:05Z</time>
      </trkpt>
      <trkpt lat="41.6281840" lon="1.9648210">
        <ele>741.3</ele>
        <time>2019-12-01T14:43:07Z</time>
      </trkpt>
      <trkpt lat="41.6281500" lon="1.9647810">
        <ele>741.2</ele>
        <time>2019-12-01T14:43:10Z</time>
      </trkpt>
      <trkpt lat="41.6281250" lon="1.9647450">
        <ele>741.1</ele>
        <time>2019-12-01T14:43:11Z</time>
      </trkpt>
      <trkpt lat="41.6281260" lon="1.9645240">
        <ele>740.5</ele>
        <time>2019-12-01T14:43:19Z</time>
      </trkpt>
      <trkpt lat="41.6281300" lon="1.9644780">
        <ele>740.3</ele>
        <time>2019-12-01T14:43:21Z</time>
      </trkpt>
      <trkpt lat="41.6281490" lon="1.9644180">
        <ele>740.1</ele>
        <time>2019-12-01T14:43:23Z</time>
      </trkpt>
      <trkpt lat="41.6281720" lon="1.9643830">
        <ele>739.9</ele>
        <time>2019-12-01T14:43:24Z</time>
      </trkpt>
      <trkpt lat="41.6281950" lon="1.9643490">
        <ele>739.7</ele>
        <time>2019-12-01T14:43:25Z</time>
      </trkpt>
      <trkpt lat="41.6282170" lon="1.9643160">
        <ele>739.6</ele>
        <time>2019-12-01T14:43:26Z</time>
      </trkpt>
      <trkpt lat="41.6282340" lon="1.9642790">
        <ele>739.5</ele>
        <time>2019-12-01T14:43:27Z</time>
      </trkpt>
      <trkpt lat="41.6282450" lon="1.9642320">
        <ele>739.3</ele>
        <time>2019-12-01T14:43:29Z</time>
      </trkpt>
      <trkpt lat="41.6282560" lon="1.9641340">
        <ele>738.7</ele>
        <time>2019-12-01T14:43:31Z</time>
      </trkpt>
      <trkpt lat="41.6282620" lon="1.9640960">
        <ele>738.4</ele>
        <time>2019-12-01T14:43:32Z</time>
      </trkpt>
      <trkpt lat="41.6282630" lon="1.9640280">
        <ele>737.9</ele>
        <time>2019-12-01T14:43:34Z</time>
      </trkpt>
      <trkpt lat="41.6282590" lon="1.9639630">
        <ele>737.4</ele>
        <time>2019-12-01T14:43:36Z</time>
      </trkpt>
      <trkpt lat="41.6282450" lon="1.9639240">
        <ele>737.0</ele>
        <time>2019-12-01T14:43:39Z</time>
      </trkpt>
      <trkpt lat="41.6282290" lon="1.9638820">
        <ele>736.6</ele>
        <time>2019-12-01T14:43:41Z</time>
      </trkpt>
      <trkpt lat="41.6282070" lon="1.9638320">
        <ele>736.1</ele>
        <time>2019-12-01T14:43:43Z</time>
      </trkpt>
      <trkpt lat="41.6281810" lon="1.9637850">
        <ele>735.7</ele>
        <time>2019-12-01T14:43:45Z</time>
      </trkpt>
      <trkpt lat="41.6281410" lon="1.9637440">
        <ele>735.4</ele>
        <time>2019-12-01T14:43:47Z</time>
      </trkpt>
      <trkpt lat="41.6281190" lon="1.9637220">
        <ele>735.2</ele>
        <time>2019-12-01T14:43:48Z</time>
      </trkpt>
      <trkpt lat="41.6280910" lon="1.9636580">
        <ele>734.9</ele>
        <time>2019-12-01T14:43:50Z</time>
      </trkpt>
      <trkpt lat="41.6280800" lon="1.9636200">
        <ele>734.7</ele>
        <time>2019-12-01T14:43:52Z</time>
      </trkpt>
      <trkpt lat="41.6280710" lon="1.9635640">
        <ele>734.5</ele>
        <time>2019-12-01T14:43:53Z</time>
      </trkpt>
      <trkpt lat="41.6280620" lon="1.9635280">
        <ele>734.4</ele>
        <time>2019-12-01T14:43:54Z</time>
      </trkpt>
      <trkpt lat="41.6280490" lon="1.9634910">
        <ele>734.3</ele>
        <time>2019-12-01T14:43:55Z</time>
      </trkpt>
      <trkpt lat="41.6280330" lon="1.9634570">
        <ele>734.2</ele>
        <time>2019-12-01T14:43:56Z</time>
      </trkpt>
      <trkpt lat="41.6280180" lon="1.9634270">
        <ele>734.1</ele>
        <time>2019-12-01T14:43:57Z</time>
      </trkpt>
      <trkpt lat="41.6279940" lon="1.9633930">
        <ele>734.0</ele>
        <time>2019-12-01T14:43:59Z</time>
      </trkpt>
      <trkpt lat="41.6279640" lon="1.9633430">
        <ele>733.8</ele>
        <time>2019-12-01T14:44:01Z</time>
      </trkpt>
      <trkpt lat="41.6279300" lon="1.9632770">
        <ele>733.6</ele>
        <time>2019-12-01T14:44:04Z</time>
      </trkpt>
      <trkpt lat="41.6279010" lon="1.9632290">
        <ele>733.4</ele>
        <time>2019-12-01T14:44:06Z</time>
      </trkpt>
      <trkpt lat="41.6278690" lon="1.9631710">
        <ele>733.3</ele>
        <time>2019-12-01T14:44:08Z</time>
      </trkpt>
      <trkpt lat="41.6278540" lon="1.9631390">
        <ele>733.2</ele>
        <time>2019-12-01T14:44:09Z</time>
      </trkpt>
      <trkpt lat="41.6278220" lon="1.9630550">
        <ele>733.0</ele>
        <time>2019-12-01T14:44:12Z</time>
      </trkpt>
      <trkpt lat="41.6278140" lon="1.9630200">
        <ele>732.9</ele>
        <time>2019-12-01T14:44:13Z</time>
      </trkpt>
      <trkpt lat="41.6278090" lon="1.9629830">
        <ele>732.8</ele>
        <time>2019-12-01T14:44:14Z</time>
      </trkpt>
      <trkpt lat="41.6278090" lon="1.9629110">
        <ele>732.7</ele>
        <time>2019-12-01T14:44:16Z</time>
      </trkpt>
      <trkpt lat="41.6278140" lon="1.9628730">
        <ele>732.6</ele>
        <time>2019-12-01T14:44:18Z</time>
      </trkpt>
      <trkpt lat="41.6278270" lon="1.9627950">
        <ele>732.5</ele>
        <time>2019-12-01T14:44:20Z</time>
      </trkpt>
      <trkpt lat="41.6278360" lon="1.9627560">
        <ele>732.4</ele>
        <time>2019-12-01T14:44:21Z</time>
      </trkpt>
      <trkpt lat="41.6278410" lon="1.9627120">
        <ele>732.3</ele>
        <time>2019-12-01T14:44:22Z</time>
      </trkpt>
      <trkpt lat="41.6278430" lon="1.9626720">
        <ele>732.2</ele>
        <time>2019-12-01T14:44:23Z</time>
      </trkpt>
      <trkpt lat="41.6278400" lon="1.9626070">
        <ele>732.1</ele>
        <time>2019-12-01T14:44:25Z</time>
      </trkpt>
      <trkpt lat="41.6278320" lon="1.9625430">
        <ele>731.9</ele>
        <time>2019-12-01T14:44:28Z</time>
      </trkpt>
      <trkpt lat="41.6278250" lon="1.9624940">
        <ele>731.8</ele>
        <time>2019-12-01T14:44:29Z</time>
      </trkpt>
      <trkpt lat="41.6278070" lon="1.9624320">
        <ele>731.7</ele>
        <time>2019-12-01T14:44:31Z</time>
      </trkpt>
      <trkpt lat="41.6277810" lon="1.9623690">
        <ele>731.5</ele>
        <time>2019-12-01T14:44:34Z</time>
      </trkpt>
      <trkpt lat="41.6277660" lon="1.9623370">
        <ele>731.4</ele>
        <time>2019-12-01T14:44:35Z</time>
      </trkpt>
      <trkpt lat="41.6277500" lon="1.9623030">
        <ele>731.4</ele>
        <time>2019-12-01T14:44:36Z</time>
      </trkpt>
      <trkpt lat="41.6277250" lon="1.9622390">
        <ele>731.2</ele>
        <time>2019-12-01T14:44:38Z</time>
      </trkpt>
      <trkpt lat="41.6277040" lon="1.9621930">
        <ele>731.1</ele>
        <time>2019-12-01T14:44:40Z</time>
      </trkpt>
      <trkpt lat="41.6276910" lon="1.9621610">
        <ele>731.0</ele>
        <time>2019-12-01T14:44:41Z</time>
      </trkpt>
      <trkpt lat="41.6276700" lon="1.9621010">
        <ele>730.9</ele>
        <time>2019-12-01T14:44:43Z</time>
      </trkpt>
      <trkpt lat="41.6276480" lon="1.9620260">
        <ele>730.7</ele>
        <time>2019-12-01T14:44:45Z</time>
      </trkpt>
      <trkpt lat="41.6276410" lon="1.9619580">
        <ele>730.5</ele>
        <time>2019-12-01T14:44:48Z</time>
      </trkpt>
      <trkpt lat="41.6276350" lon="1.9618980">
        <ele>730.4</ele>
        <time>2019-12-01T14:44:50Z</time>
      </trkpt>
      <trkpt lat="41.6276260" lon="1.9618170">
        <ele>730.2</ele>
        <time>2019-12-01T14:44:53Z</time>
      </trkpt>
      <trkpt lat="41.6276180" lon="1.9617650">
        <ele>730.0</ele>
        <time>2019-12-01T14:44:54Z</time>
      </trkpt>
      <trkpt lat="41.6276050" lon="1.9617030">
        <ele>729.9</ele>
        <time>2019-12-01T14:44:56Z</time>
      </trkpt>
      <trkpt lat="41.6275840" lon="1.9616420">
        <ele>729.6</ele>
        <time>2019-12-01T14:44:58Z</time>
      </trkpt>
      <trkpt lat="41.6275530" lon="1.9615940">
        <ele>729.3</ele>
        <time>2019-12-01T14:45:01Z</time>
      </trkpt>
      <trkpt lat="41.6275310" lon="1.9615470">
        <ele>729.0</ele>
        <time>2019-12-01T14:45:03Z</time>
      </trkpt>
      <trkpt lat="41.6275060" lon="1.9614890">
        <ele>728.6</ele>
        <time>2019-12-01T14:45:05Z</time>
      </trkpt>
      <trkpt lat="41.6274860" lon="1.9614220">
        <ele>728.0</ele>
        <time>2019-12-01T14:45:08Z</time>
      </trkpt>
      <trkpt lat="41.6274690" lon="1.9613650">
        <ele>727.4</ele>
        <time>2019-12-01T14:45:10Z</time>
      </trkpt>
      <trkpt lat="41.6274540" lon="1.9613080">
        <ele>726.8</ele>
        <time>2019-12-01T14:45:13Z</time>
      </trkpt>
      <trkpt lat="41.6274430" lon="1.9612650">
        <ele>725.7</ele>
        <time>2019-12-01T14:45:14Z</time>
      </trkpt>
      <trkpt lat="41.6274390" lon="1.9611970">
        <ele>724.8</ele>
        <time>2019-12-01T14:45:16Z</time>
      </trkpt>
      <trkpt lat="41.6274350" lon="1.9611240">
        <ele>723.7</ele>
        <time>2019-12-01T14:45:18Z</time>
      </trkpt>
      <trkpt lat="41.6274330" lon="1.9610870">
        <ele>723.2</ele>
        <time>2019-12-01T14:45:19Z</time>
      </trkpt>
      <trkpt lat="41.6274310" lon="1.9610500">
        <ele>722.7</ele>
        <time>2019-12-01T14:45:21Z</time>
      </trkpt>
      <trkpt lat="41.6274290" lon="1.9609980">
        <ele>722.0</ele>
        <time>2019-12-01T14:45:22Z</time>
      </trkpt>
      <trkpt lat="41.6274280" lon="1.9609600">
        <ele>721.4</ele>
        <time>2019-12-01T14:45:23Z</time>
      </trkpt>
      <trkpt lat="41.6274290" lon="1.9609220">
        <ele>720.9</ele>
        <time>2019-12-01T14:45:24Z</time>
      </trkpt>
      <trkpt lat="41.6274320" lon="1.9608860">
        <ele>720.4</ele>
        <time>2019-12-01T14:45:25Z</time>
      </trkpt>
      <trkpt lat="41.6274430" lon="1.9608160">
        <ele>719.4</ele>
        <time>2019-12-01T14:45:28Z</time>
      </trkpt>
      <trkpt lat="41.6274480" lon="1.9607740">
        <ele>718.8</ele>
        <time>2019-12-01T14:45:29Z</time>
      </trkpt>
      <trkpt lat="41.6274570" lon="1.9607370">
        <ele>718.2</ele>
        <time>2019-12-01T14:45:30Z</time>
      </trkpt>
      <trkpt lat="41.6274670" lon="1.9607010">
        <ele>717.7</ele>
        <time>2019-12-01T14:45:31Z</time>
      </trkpt>
      <trkpt lat="41.6274760" lon="1.9606640">
        <ele>716.3</ele>
        <time>2019-12-01T14:45:32Z</time>
      </trkpt>
      <trkpt lat="41.6274830" lon="1.9606200">
        <ele>715.9</ele>
        <time>2019-12-01T14:45:33Z</time>
      </trkpt>
      <trkpt lat="41.6274820" lon="1.9605700">
        <ele>715.3</ele>
        <time>2019-12-01T14:45:34Z</time>
      </trkpt>
      <trkpt lat="41.6274810" lon="1.9605290">
        <ele>714.7</ele>
        <time>2019-12-01T14:45:35Z</time>
      </trkpt>
      <trkpt lat="41.6274790" lon="1.9604850">
        <ele>714.3</ele>
        <time>2019-12-01T14:45:36Z</time>
      </trkpt>
      <trkpt lat="41.6274740" lon="1.9604380">
        <ele>714.0</ele>
        <time>2019-12-01T14:45:38Z</time>
      </trkpt>
      <trkpt lat="41.6274590" lon="1.9603740">
        <ele>713.5</ele>
        <time>2019-12-01T14:45:39Z</time>
      </trkpt>
      <trkpt lat="41.6274410" lon="1.9603330">
        <ele>713.2</ele>
        <time>2019-12-01T14:45:40Z</time>
      </trkpt>
      <trkpt lat="41.6274180" lon="1.9602920">
        <ele>712.9</ele>
        <time>2019-12-01T14:45:41Z</time>
      </trkpt>
      <trkpt lat="41.6274010" lon="1.9602550">
        <ele>712.6</ele>
        <time>2019-12-01T14:45:42Z</time>
      </trkpt>
      <trkpt lat="41.6273880" lon="1.9602160">
        <ele>712.3</ele>
        <time>2019-12-01T14:45:43Z</time>
      </trkpt>
      <trkpt lat="41.6273720" lon="1.9601730">
        <ele>712.0</ele>
        <time>2019-12-01T14:45:45Z</time>
      </trkpt>
      <trkpt lat="41.6273600" lon="1.9601350">
        <ele>711.5</ele>
        <time>2019-12-01T14:45:46Z</time>
      </trkpt>
      <trkpt lat="41.6273340" lon="1.9600730">
        <ele>710.6</ele>
        <time>2019-12-01T14:45:48Z</time>
      </trkpt>
      <trkpt lat="41.6273020" lon="1.9600150">
        <ele>709.7</ele>
        <time>2019-12-01T14:45:50Z</time>
      </trkpt>
      <trkpt lat="41.6272750" lon="1.9599750">
        <ele>709.1</ele>
        <time>2019-12-01T14:45:52Z</time>
      </trkpt>
      <trkpt lat="41.6272430" lon="1.9599260">
        <ele>708.4</ele>
        <time>2019-12-01T14:45:54Z</time>
      </trkpt>
      <trkpt lat="41.6272250" lon="1.9598980">
        <ele>708.0</ele>
        <time>2019-12-01T14:45:55Z</time>
      </trkpt>
      <trkpt lat="41.6272030" lon="1.9598700">
        <ele>707.6</ele>
        <time>2019-12-01T14:45:56Z</time>
      </trkpt>
      <trkpt lat="41.6271750" lon="1.9598330">
        <ele>707.1</ele>
        <time>2019-12-01T14:45:58Z</time>
      </trkpt>
      <trkpt lat="41.6271530" lon="1.9598110">
        <ele>706.8</ele>
        <time>2019-12-01T14:45:59Z</time>
      </trkpt>
      <trkpt lat="41.6271250" lon="1.9597810">
        <ele>706.3</ele>
        <time>2019-12-01T14:46:01Z</time>
      </trkpt>
      <trkpt lat="41.6270810" lon="1.9597430">
        <ele>705.7</ele>
        <time>2019-12-01T14:46:03Z</time>
      </trkpt>
      <trkpt lat="41.6270420" lon="1.9597030">
        <ele>705.1</ele>
        <time>2019-12-01T14:46:05Z</time>
      </trkpt>
      <trkpt lat="41.6269980" lon="1.9596580">
        <ele>704.4</ele>
        <time>2019-12-01T14:46:07Z</time>
      </trkpt>
      <trkpt lat="41.6269530" lon="1.9596100">
        <ele>703.7</ele>
        <time>2019-12-01T14:46:09Z</time>
      </trkpt>
      <trkpt lat="41.6269130" lon="1.9595720">
        <ele>703.2</ele>
        <time>2019-12-01T14:46:11Z</time>
      </trkpt>
      <trkpt lat="41.6268740" lon="1.9595350">
        <ele>702.6</ele>
        <time>2019-12-01T14:46:14Z</time>
      </trkpt>
      <trkpt lat="41.6268380" lon="1.9594910">
        <ele>702.1</ele>
        <time>2019-12-01T14:46:16Z</time>
      </trkpt>
      <trkpt lat="41.6267960" lon="1.9594270">
        <ele>701.3</ele>
        <time>2019-12-01T14:46:19Z</time>
      </trkpt>
      <trkpt lat="41.6267670" lon="1.9593720">
        <ele>700.8</ele>
        <time>2019-12-01T14:46:21Z</time>
      </trkpt>
      <trkpt lat="41.6267460" lon="1.9593330">
        <ele>700.4</ele>
        <time>2019-12-01T14:46:23Z</time>
      </trkpt>
      <trkpt lat="41.6267220" lon="1.9592860">
        <ele>700.1</ele>
        <time>2019-12-01T14:46:24Z</time>
      </trkpt>
      <trkpt lat="41.6266960" lon="1.9592290">
        <ele>699.6</ele>
        <time>2019-12-01T14:46:26Z</time>
      </trkpt>
      <trkpt lat="41.6266830" lon="1.9591610">
        <ele>699.3</ele>
        <time>2019-12-01T14:46:28Z</time>
      </trkpt>
      <trkpt lat="41.6266810" lon="1.9591190">
        <ele>699.2</ele>
        <time>2019-12-01T14:46:29Z</time>
      </trkpt>
      <trkpt lat="41.6266760" lon="1.9590760">
        <ele>699.0</ele>
        <time>2019-12-01T14:46:30Z</time>
      </trkpt>
      <trkpt lat="41.6266640" lon="1.9590360">
        <ele>698.9</ele>
        <time>2019-12-01T14:46:32Z</time>
      </trkpt>
      <trkpt lat="41.6266490" lon="1.9589950">
        <ele>698.9</ele>
        <time>2019-12-01T14:46:33Z</time>
      </trkpt>
      <trkpt lat="41.6266230" lon="1.9589320">
        <ele>698.8</ele>
        <time>2019-12-01T14:46:35Z</time>
      </trkpt>
      <trkpt lat="41.6266030" lon="1.9589000">
        <ele>698.8</ele>
        <time>2019-12-01T14:46:36Z</time>
      </trkpt>
      <trkpt lat="41.6265870" lon="1.9588650">
        <ele>698.9</ele>
        <time>2019-12-01T14:46:37Z</time>
      </trkpt>
      <trkpt lat="41.6265570" lon="1.9588060">
        <ele>699.0</ele>
        <time>2019-12-01T14:46:39Z</time>
      </trkpt>
      <trkpt lat="41.6265220" lon="1.9587470">
        <ele>699.1</ele>
        <time>2019-12-01T14:46:42Z</time>
      </trkpt>
      <trkpt lat="41.6264830" lon="1.9586980">
        <ele>699.2</ele>
        <time>2019-12-01T14:46:44Z</time>
      </trkpt>
      <trkpt lat="41.6264580" lon="1.9586440">
        <ele>699.3</ele>
        <time>2019-12-01T14:46:46Z</time>
      </trkpt>
      <trkpt lat="41.6264460" lon="1.9586020">
        <ele>699.4</ele>
        <time>2019-12-01T14:46:48Z</time>
      </trkpt>
      <trkpt lat="41.6264190" lon="1.9585670">
        <ele>699.4</ele>
        <time>2019-12-01T14:46:51Z</time>
      </trkpt>
      <trkpt lat="41.6263770" lon="1.9585360">
        <ele>699.4</ele>
        <time>2019-12-01T14:46:53Z</time>
      </trkpt>
      <trkpt lat="41.6263330" lon="1.9585000">
        <ele>699.4</ele>
        <time>2019-12-01T14:46:55Z</time>
      </trkpt>
      <trkpt lat="41.6262940" lon="1.9584660">
        <ele>699.3</ele>
        <time>2019-12-01T14:46:57Z</time>
      </trkpt>
      <trkpt lat="41.6262430" lon="1.9584290">
        <ele>699.2</ele>
        <time>2019-12-01T14:47:00Z</time>
      </trkpt>
      <trkpt lat="41.6262010" lon="1.9583980">
        <ele>699.2</ele>
        <time>2019-12-01T14:47:02Z</time>
      </trkpt>
      <trkpt lat="41.6261610" lon="1.9583700">
        <ele>699.1</ele>
        <time>2019-12-01T14:47:04Z</time>
      </trkpt>
      <trkpt lat="41.6261120" lon="1.9583380">
        <ele>698.9</ele>
        <time>2019-12-01T14:47:07Z</time>
      </trkpt>
      <trkpt lat="41.6260760" lon="1.9583170">
        <ele>698.9</ele>
        <time>2019-12-01T14:47:09Z</time>
      </trkpt>
      <trkpt lat="41.6260440" lon="1.9583020">
        <ele>698.8</ele>
        <time>2019-12-01T14:47:12Z</time>
      </trkpt>
      <trkpt lat="41.6260030" lon="1.9582900">
        <ele>698.8</ele>
        <time>2019-12-01T14:47:15Z</time>
      </trkpt>
      <trkpt lat="41.6259650" lon="1.9582790">
        <ele>698.7</ele>
        <time>2019-12-01T14:47:17Z</time>
      </trkpt>
      <trkpt lat="41.6259240" lon="1.9582570">
        <ele>698.7</ele>
        <time>2019-12-01T14:47:19Z</time>
      </trkpt>
      <trkpt lat="41.6258750" lon="1.9582070">
        <ele>698.7</ele>
        <time>2019-12-01T14:47:22Z</time>
      </trkpt>
      <trkpt lat="41.6258380" lon="1.9581520">
        <ele>698.6</ele>
        <time>2019-12-01T14:47:25Z</time>
      </trkpt>
      <trkpt lat="41.6258210" lon="1.9581200">
        <ele>698.6</ele>
        <time>2019-12-01T14:47:26Z</time>
      </trkpt>
      <trkpt lat="41.6257970" lon="1.9580570">
        <ele>698.5</ele>
        <time>2019-12-01T14:47:28Z</time>
      </trkpt>
      <trkpt lat="41.6257850" lon="1.9580220">
        <ele>698.4</ele>
        <time>2019-12-01T14:47:29Z</time>
      </trkpt>
      <trkpt lat="41.6257730" lon="1.9579870">
        <ele>698.3</ele>
        <time>2019-12-01T14:47:30Z</time>
      </trkpt>
      <trkpt lat="41.6257490" lon="1.9579300">
        <ele>698.0</ele>
        <time>2019-12-01T14:47:33Z</time>
      </trkpt>
      <trkpt lat="41.6257210" lon="1.9578770">
        <ele>697.7</ele>
        <time>2019-12-01T14:47:35Z</time>
      </trkpt>
      <trkpt lat="41.6257060" lon="1.9578450">
        <ele>697.5</ele>
        <time>2019-12-01T14:47:36Z</time>
      </trkpt>
      <trkpt lat="41.6256890" lon="1.9578060">
        <ele>697.2</ele>
        <time>2019-12-01T14:47:39Z</time>
      </trkpt>
      <trkpt lat="41.6256720" lon="1.9577660">
        <ele>696.9</ele>
        <time>2019-12-01T14:47:40Z</time>
      </trkpt>
      <trkpt lat="41.6256480" lon="1.9577080">
        <ele>696.4</ele>
        <time>2019-12-01T14:47:42Z</time>
      </trkpt>
      <trkpt lat="41.6256340" lon="1.9576760">
        <ele>696.1</ele>
        <time>2019-12-01T14:47:43Z</time>
      </trkpt>
      <trkpt lat="41.6256200" lon="1.9576430">
        <ele>695.8</ele>
        <time>2019-12-01T14:47:45Z</time>
      </trkpt>
      <trkpt lat="41.6256000" lon="1.9575940">
        <ele>695.3</ele>
        <time>2019-12-01T14:47:46Z</time>
      </trkpt>
      <trkpt lat="41.6255740" lon="1.9575420">
        <ele>694.9</ele>
        <time>2019-12-01T14:47:48Z</time>
      </trkpt>
      <trkpt lat="41.6255340" lon="1.9574910">
        <ele>694.3</ele>
        <time>2019-12-01T14:47:51Z</time>
      </trkpt>
      <trkpt lat="41.6255030" lon="1.9574590">
        <ele>694.0</ele>
        <time>2019-12-01T14:47:53Z</time>
      </trkpt>
      <trkpt lat="41.6254740" lon="1.9574390">
        <ele>693.6</ele>
        <time>2019-12-01T14:47:55Z</time>
      </trkpt>
      <trkpt lat="41.6254270" lon="1.9574120">
        <ele>693.1</ele>
        <time>2019-12-01T14:47:57Z</time>
      </trkpt>
      <trkpt lat="41.6254020" lon="1.9573950">
        <ele>692.9</ele>
        <time>2019-12-01T14:47:58Z</time>
      </trkpt>
      <trkpt lat="41.6253750" lon="1.9573730">
        <ele>692.5</ele>
        <time>2019-12-01T14:47:59Z</time>
      </trkpt>
      <trkpt lat="41.6253520" lon="1.9573530">
        <ele>692.2</ele>
        <time>2019-12-01T14:48:00Z</time>
      </trkpt>
      <trkpt lat="41.6253140" lon="1.9573190">
        <ele>691.7</ele>
        <time>2019-12-01T14:48:02Z</time>
      </trkpt>
      <trkpt lat="41.6252910" lon="1.9572920">
        <ele>691.4</ele>
        <time>2019-12-01T14:48:03Z</time>
      </trkpt>
      <trkpt lat="41.6252710" lon="1.9572620">
        <ele>691.0</ele>
        <time>2019-12-01T14:48:04Z</time>
      </trkpt>
      <trkpt lat="41.6252520" lon="1.9572260">
        <ele>690.7</ele>
        <time>2019-12-01T14:48:05Z</time>
      </trkpt>
      <trkpt lat="41.6252360" lon="1.9571910">
        <ele>690.3</ele>
        <time>2019-12-01T14:48:07Z</time>
      </trkpt>
      <trkpt lat="41.6252160" lon="1.9571380">
        <ele>689.9</ele>
        <time>2019-12-01T14:48:08Z</time>
      </trkpt>
      <trkpt lat="41.6252010" lon="1.9571000">
        <ele>689.5</ele>
        <time>2019-12-01T14:48:09Z</time>
      </trkpt>
      <trkpt lat="41.6251870" lon="1.9570630">
        <ele>689.2</ele>
        <time>2019-12-01T14:48:10Z</time>
      </trkpt>
      <trkpt lat="41.6251710" lon="1.9570250">
        <ele>688.9</ele>
        <time>2019-12-01T14:48:11Z</time>
      </trkpt>
      <trkpt lat="41.6251540" lon="1.9569860">
        <ele>688.5</ele>
        <time>2019-12-01T14:48:12Z</time>
      </trkpt>
      <trkpt lat="41.6251360" lon="1.9569440">
        <ele>688.2</ele>
        <time>2019-12-01T14:48:13Z</time>
      </trkpt>
      <trkpt lat="41.6251190" lon="1.9569080">
        <ele>687.9</ele>
        <time>2019-12-01T14:48:15Z</time>
      </trkpt>
      <trkpt lat="41.6251020" lon="1.9568710">
        <ele>687.7</ele>
        <time>2019-12-01T14:48:16Z</time>
      </trkpt>
      <trkpt lat="41.6250870" lon="1.9568370">
        <ele>687.4</ele>
        <time>2019-12-01T14:48:17Z</time>
      </trkpt>
      <trkpt lat="41.6250720" lon="1.9568050">
        <ele>687.3</ele>
        <time>2019-12-01T14:48:18Z</time>
      </trkpt>
      <trkpt lat="41.6250550" lon="1.9567750">
        <ele>687.1</ele>
        <time>2019-12-01T14:48:19Z</time>
      </trkpt>
      <trkpt lat="41.6250220" lon="1.9567180">
        <ele>686.7</ele>
        <time>2019-12-01T14:48:21Z</time>
      </trkpt>
      <trkpt lat="41.6250010" lon="1.9566870">
        <ele>686.6</ele>
        <time>2019-12-01T14:48:22Z</time>
      </trkpt>
      <trkpt lat="41.6249810" lon="1.9566570">
        <ele>686.4</ele>
        <time>2019-12-01T14:48:23Z</time>
      </trkpt>
      <trkpt lat="41.6249510" lon="1.9566120">
        <ele>686.1</ele>
        <time>2019-12-01T14:48:25Z</time>
      </trkpt>
      <trkpt lat="41.6249290" lon="1.9565880">
        <ele>685.9</ele>
        <time>2019-12-01T14:48:27Z</time>
      </trkpt>
      <trkpt lat="41.6249040" lon="1.9565610">
        <ele>685.7</ele>
        <time>2019-12-01T14:48:28Z</time>
      </trkpt>
      <trkpt lat="41.6248840" lon="1.9565350">
        <ele>685.5</ele>
        <time>2019-12-01T14:48:29Z</time>
      </trkpt>
      <trkpt lat="41.6248650" lon="1.9565090">
        <ele>685.3</ele>
        <time>2019-12-01T14:48:30Z</time>
      </trkpt>
      <trkpt lat="41.6248480" lon="1.9564780">
        <ele>685.1</ele>
        <time>2019-12-01T14:48:31Z</time>
      </trkpt>
      <trkpt lat="41.6248330" lon="1.9564460">
        <ele>684.9</ele>
        <time>2019-12-01T14:48:32Z</time>
      </trkpt>
      <trkpt lat="41.6247950" lon="1.9563740">
        <ele>684.4</ele>
        <time>2019-12-01T14:48:35Z</time>
      </trkpt>
      <trkpt lat="41.6247790" lon="1.9563430">
        <ele>684.2</ele>
        <time>2019-12-01T14:48:36Z</time>
      </trkpt>
      <trkpt lat="41.6247630" lon="1.9563130">
        <ele>684.1</ele>
        <time>2019-12-01T14:48:37Z</time>
      </trkpt>
      <trkpt lat="41.6247410" lon="1.9562830">
        <ele>683.8</ele>
        <time>2019-12-01T14:48:38Z</time>
      </trkpt>
      <trkpt lat="41.6247190" lon="1.9562590">
        <ele>683.7</ele>
        <time>2019-12-01T14:48:39Z</time>
      </trkpt>
      <trkpt lat="41.6246980" lon="1.9562320">
        <ele>683.5</ele>
        <time>2019-12-01T14:48:40Z</time>
      </trkpt>
      <trkpt lat="41.6246790" lon="1.9562020">
        <ele>683.3</ele>
        <time>2019-12-01T14:48:41Z</time>
      </trkpt>
      <trkpt lat="41.6246660" lon="1.9561710">
        <ele>683.1</ele>
        <time>2019-12-01T14:48:43Z</time>
      </trkpt>
      <trkpt lat="41.6246470" lon="1.9561250">
        <ele>682.8</ele>
        <time>2019-12-01T14:48:44Z</time>
      </trkpt>
      <trkpt lat="41.6246180" lon="1.9560680">
        <ele>682.5</ele>
        <time>2019-12-01T14:48:46Z</time>
      </trkpt>
      <trkpt lat="41.6246000" lon="1.9560400">
        <ele>682.3</ele>
        <time>2019-12-01T14:48:47Z</time>
      </trkpt>
      <trkpt lat="41.6245810" lon="1.9560120">
        <ele>682.1</ele>
        <time>2019-12-01T14:48:49Z</time>
      </trkpt>
      <trkpt lat="41.6245540" lon="1.9559720">
        <ele>681.8</ele>
        <time>2019-12-01T14:48:50Z</time>
      </trkpt>
      <trkpt lat="41.6245150" lon="1.9559240">
        <ele>681.5</ele>
        <time>2019-12-01T14:48:52Z</time>
      </trkpt>
      <trkpt lat="41.6244860" lon="1.9558870">
        <ele>681.1</ele>
        <time>2019-12-01T14:48:54Z</time>
      </trkpt>
      <trkpt lat="41.6244640" lon="1.9558610">
        <ele>680.9</ele>
        <time>2019-12-01T14:48:55Z</time>
      </trkpt>
      <trkpt lat="41.6244420" lon="1.9558370">
        <ele>680.6</ele>
        <time>2019-12-01T14:48:56Z</time>
      </trkpt>
      <trkpt lat="41.6243930" lon="1.9557970">
        <ele>680.0</ele>
        <time>2019-12-01T14:48:58Z</time>
      </trkpt>
      <trkpt lat="41.6243700" lon="1.9557770">
        <ele>679.7</ele>
        <time>2019-12-01T14:48:59Z</time>
      </trkpt>
      <trkpt lat="41.6243170" lon="1.9557400">
        <ele>679.0</ele>
        <time>2019-12-01T14:49:02Z</time>
      </trkpt>
      <trkpt lat="41.6242600" lon="1.9557160">
        <ele>678.3</ele>
        <time>2019-12-01T14:49:05Z</time>
      </trkpt>
      <trkpt lat="41.6242150" lon="1.9557150">
        <ele>677.8</ele>
        <time>2019-12-01T14:49:06Z</time>
      </trkpt>
      <trkpt lat="41.6241850" lon="1.9557160">
        <ele>677.5</ele>
        <time>2019-12-01T14:49:07Z</time>
      </trkpt>
      <trkpt lat="41.6241570" lon="1.9557190">
        <ele>677.1</ele>
        <time>2019-12-01T14:49:08Z</time>
      </trkpt>
      <trkpt lat="41.6241090" lon="1.9557340">
        <ele>676.6</ele>
        <time>2019-12-01T14:49:11Z</time>
      </trkpt>
      <trkpt lat="41.6240860" lon="1.9557560">
        <ele>676.2</ele>
        <time>2019-12-01T14:49:12Z</time>
      </trkpt>
      <trkpt lat="41.6240630" lon="1.9557770">
        <ele>675.9</ele>
        <time>2019-12-01T14:49:13Z</time>
      </trkpt>
      <trkpt lat="41.6240390" lon="1.9557920">
        <ele>675.6</ele>
        <time>2019-12-01T14:49:14Z</time>
      </trkpt>
      <trkpt lat="41.6239950" lon="1.9558300">
        <ele>675.0</ele>
        <time>2019-12-01T14:49:16Z</time>
      </trkpt>
      <trkpt lat="41.6239700" lon="1.9558490">
        <ele>674.7</ele>
        <time>2019-12-01T14:49:17Z</time>
      </trkpt>
      <trkpt lat="41.6239470" lon="1.9558770">
        <ele>674.4</ele>
        <time>2019-12-01T14:49:19Z</time>
      </trkpt>
      <trkpt lat="41.6239290" lon="1.9559120">
        <ele>674.0</ele>
        <time>2019-12-01T14:49:20Z</time>
      </trkpt>
      <trkpt lat="41.6239040" lon="1.9559620">
        <ele>673.5</ele>
        <time>2019-12-01T14:49:21Z</time>
      </trkpt>
      <trkpt lat="41.6238840" lon="1.9559920">
        <ele>673.2</ele>
        <time>2019-12-01T14:49:22Z</time>
      </trkpt>
      <trkpt lat="41.6238610" lon="1.9560210">
        <ele>672.9</ele>
        <time>2019-12-01T14:49:23Z</time>
      </trkpt>
      <trkpt lat="41.6238300" lon="1.9560430">
        <ele>672.5</ele>
        <time>2019-12-01T14:49:24Z</time>
      </trkpt>
      <trkpt lat="41.6238000" lon="1.9560590">
        <ele>672.1</ele>
        <time>2019-12-01T14:49:26Z</time>
      </trkpt>
      <trkpt lat="41.6237560" lon="1.9560900">
        <ele>671.6</ele>
        <time>2019-12-01T14:49:28Z</time>
      </trkpt>
      <trkpt lat="41.6237210" lon="1.9561110">
        <ele>671.2</ele>
        <time>2019-12-01T14:49:30Z</time>
      </trkpt>
      <trkpt lat="41.6236850" lon="1.9561290">
        <ele>670.8</ele>
        <time>2019-12-01T14:49:33Z</time>
      </trkpt>
      <trkpt lat="41.6236390" lon="1.9561370">
        <ele>670.3</ele>
        <time>2019-12-01T14:49:35Z</time>
      </trkpt>
      <trkpt lat="41.6236060" lon="1.9561300">
        <ele>670.0</ele>
        <time>2019-12-01T14:49:36Z</time>
      </trkpt>
      <trkpt lat="41.6235750" lon="1.9561300">
        <ele>669.7</ele>
        <time>2019-12-01T14:49:37Z</time>
      </trkpt>
      <trkpt lat="41.6235460" lon="1.9561360">
        <ele>669.5</ele>
        <time>2019-12-01T14:49:38Z</time>
      </trkpt>
      <trkpt lat="41.6235170" lon="1.9561440">
        <ele>669.3</ele>
        <time>2019-12-01T14:49:39Z</time>
      </trkpt>
      <trkpt lat="41.6234840" lon="1.9561470">
        <ele>669.0</ele>
        <time>2019-12-01T14:49:40Z</time>
      </trkpt>
      <trkpt lat="41.6234350" lon="1.9561390">
        <ele>668.7</ele>
        <time>2019-12-01T14:49:42Z</time>
      </trkpt>
      <trkpt lat="41.6234000" lon="1.9561240">
        <ele>668.5</ele>
        <time>2019-12-01T14:49:43Z</time>
      </trkpt>
      <trkpt lat="41.6233650" lon="1.9561030">
        <ele>668.3</ele>
        <time>2019-12-01T14:49:44Z</time>
      </trkpt>
      <trkpt lat="41.6233240" lon="1.9560800">
        <ele>668.0</ele>
        <time>2019-12-01T14:49:45Z</time>
      </trkpt>
      <trkpt lat="41.6232920" lon="1.9560570">
        <ele>667.8</ele>
        <time>2019-12-01T14:49:46Z</time>
      </trkpt>
      <trkpt lat="41.6232580" lon="1.9560330">
        <ele>667.6</ele>
        <time>2019-12-01T14:49:48Z</time>
      </trkpt>
      <trkpt lat="41.6232240" lon="1.9560080">
        <ele>667.4</ele>
        <time>2019-12-01T14:49:49Z</time>
      </trkpt>
      <trkpt lat="41.6231930" lon="1.9559820">
        <ele>667.2</ele>
        <time>2019-12-01T14:49:50Z</time>
      </trkpt>
      <trkpt lat="41.6231610" lon="1.9559500">
        <ele>667.0</ele>
        <time>2019-12-01T14:49:51Z</time>
      </trkpt>
      <trkpt lat="41.6231360" lon="1.9559240">
        <ele>666.9</ele>
        <time>2019-12-01T14:49:52Z</time>
      </trkpt>
      <trkpt lat="41.6231120" lon="1.9558970">
        <ele>666.8</ele>
        <time>2019-12-01T14:49:53Z</time>
      </trkpt>
      <trkpt lat="41.6230720" lon="1.9558580">
        <ele>666.6</ele>
        <time>2019-12-01T14:49:55Z</time>
      </trkpt>
      <trkpt lat="41.6230230" lon="1.9558130">
        <ele>666.3</ele>
        <time>2019-12-01T14:49:58Z</time>
      </trkpt>
      <trkpt lat="41.6229980" lon="1.9557940">
        <ele>666.2</ele>
        <time>2019-12-01T14:49:59Z</time>
      </trkpt>
      <trkpt lat="41.6229720" lon="1.9557700">
        <ele>666.0</ele>
        <time>2019-12-01T14:50:00Z</time>
      </trkpt>
      <trkpt lat="41.6229460" lon="1.9557430">
        <ele>665.8</ele>
        <time>2019-12-01T14:50:01Z</time>
      </trkpt>
      <trkpt lat="41.6229210" lon="1.9557170">
        <ele>665.7</ele>
        <time>2019-12-01T14:50:02Z</time>
      </trkpt>
      <trkpt lat="41.6229010" lon="1.9556910">
        <ele>665.5</ele>
        <time>2019-12-01T14:50:04Z</time>
      </trkpt>
      <trkpt lat="41.6228830" lon="1.9556630">
        <ele>665.4</ele>
        <time>2019-12-01T14:50:05Z</time>
      </trkpt>
      <trkpt lat="41.6228600" lon="1.9556010">
        <ele>665.1</ele>
        <time>2019-12-01T14:50:06Z</time>
      </trkpt>
      <trkpt lat="41.6228460" lon="1.9555370">
        <ele>664.9</ele>
        <time>2019-12-01T14:50:09Z</time>
      </trkpt>
      <trkpt lat="41.6228330" lon="1.9554730">
        <ele>664.7</ele>
        <time>2019-12-01T14:50:11Z</time>
      </trkpt>
      <trkpt lat="41.6228310" lon="1.9553880">
        <ele>664.4</ele>
        <time>2019-12-01T14:50:14Z</time>
      </trkpt>
      <trkpt lat="41.6228380" lon="1.9553470">
        <ele>664.3</ele>
        <time>2019-12-01T14:50:15Z</time>
      </trkpt>
      <trkpt lat="41.6228500" lon="1.9553030">
        <ele>664.2</ele>
        <time>2019-12-01T14:50:16Z</time>
      </trkpt>
      <trkpt lat="41.6228600" lon="1.9552420">
        <ele>664.0</ele>
        <time>2019-12-01T14:50:18Z</time>
      </trkpt>
      <trkpt lat="41.6228690" lon="1.9551940">
        <ele>664.0</ele>
        <time>2019-12-01T14:50:19Z</time>
      </trkpt>
      <trkpt lat="41.6228870" lon="1.9551210">
        <ele>663.9</ele>
        <time>2019-12-01T14:50:20Z</time>
      </trkpt>
      <trkpt lat="41.6228950" lon="1.9550760">
        <ele>663.8</ele>
        <time>2019-12-01T14:50:21Z</time>
      </trkpt>
      <trkpt lat="41.6229050" lon="1.9550230">
        <ele>663.8</ele>
        <time>2019-12-01T14:50:23Z</time>
      </trkpt>
      <trkpt lat="41.6229140" lon="1.9549790">
        <ele>663.8</ele>
        <time>2019-12-01T14:50:24Z</time>
      </trkpt>
      <trkpt lat="41.6229230" lon="1.9549270">
        <ele>663.7</ele>
        <time>2019-12-01T14:50:25Z</time>
      </trkpt>
      <trkpt lat="41.6229310" lon="1.9548650">
        <ele>663.7</ele>
        <time>2019-12-01T14:50:26Z</time>
      </trkpt>
      <trkpt lat="41.6229390" lon="1.9548230">
        <ele>663.7</ele>
        <time>2019-12-01T14:50:27Z</time>
      </trkpt>
      <trkpt lat="41.6229480" lon="1.9547690">
        <ele>663.7</ele>
        <time>2019-12-01T14:50:29Z</time>
      </trkpt>
      <trkpt lat="41.6229560" lon="1.9547090">
        <ele>663.6</ele>
        <time>2019-12-01T14:50:31Z</time>
      </trkpt>
      <trkpt lat="41.6229540" lon="1.9546610">
        <ele>663.6</ele>
        <time>2019-12-01T14:50:33Z</time>
      </trkpt>
      <trkpt lat="41.6229380" lon="1.9546210">
        <ele>663.6</ele>
        <time>2019-12-01T14:50:36Z</time>
      </trkpt>
      <trkpt lat="41.6229210" lon="1.9545920">
        <ele>663.6</ele>
        <time>2019-12-01T14:50:38Z</time>
      </trkpt>
      <trkpt lat="41.6229010" lon="1.9545590">
        <ele>663.6</ele>
        <time>2019-12-01T14:50:39Z</time>
      </trkpt>
      <trkpt lat="41.6228650" lon="1.9545240">
        <ele>663.5</ele>
        <time>2019-12-01T14:50:42Z</time>
      </trkpt>
      <trkpt lat="41.6228310" lon="1.9545090">
        <ele>663.5</ele>
        <time>2019-12-01T14:50:43Z</time>
      </trkpt>
      <trkpt lat="41.6227820" lon="1.9544900">
        <ele>663.5</ele>
        <time>2019-12-01T14:50:45Z</time>
      </trkpt>
      <trkpt lat="41.6227250" lon="1.9544710">
        <ele>663.5</ele>
        <time>2019-12-01T14:50:48Z</time>
      </trkpt>
      <trkpt lat="41.6221670" lon="1.9541940">
        <ele>662.1</ele>
        <time>2019-12-01T14:52:56Z</time>
      </trkpt>
      <trkpt lat="41.6221580" lon="1.9542390">
        <ele>662.1</ele>
        <time>2019-12-01T14:52:57Z</time>
      </trkpt>
      <trkpt lat="41.6221510" lon="1.9542750">
        <ele>662.1</ele>
        <time>2019-12-01T14:52:58Z</time>
      </trkpt>
      <trkpt lat="41.6221250" lon="1.9543120">
        <ele>662.4</ele>
        <time>2019-12-01T14:53:00Z</time>
      </trkpt>
      <trkpt lat="41.6220960" lon="1.9543450">
        <ele>662.7</ele>
        <time>2019-12-01T14:53:02Z</time>
      </trkpt>
      <trkpt lat="41.6220700" lon="1.9543600">
        <ele>663.1</ele>
        <time>2019-12-01T14:53:03Z</time>
      </trkpt>
      <trkpt lat="41.6220370" lon="1.9543770">
        <ele>663.7</ele>
        <time>2019-12-01T14:53:04Z</time>
      </trkpt>
      <trkpt lat="41.6220010" lon="1.9544000">
        <ele>664.0</ele>
        <time>2019-12-01T14:53:05Z</time>
      </trkpt>
      <trkpt lat="41.6219720" lon="1.9544200">
        <ele>664.2</ele>
        <time>2019-12-01T14:53:06Z</time>
      </trkpt>
      <trkpt lat="41.6219470" lon="1.9544370">
        <ele>664.4</ele>
        <time>2019-12-01T14:53:07Z</time>
      </trkpt>
      <trkpt lat="41.6219000" lon="1.9544720">
        <ele>664.7</ele>
        <time>2019-12-01T14:53:09Z</time>
      </trkpt>
      <trkpt lat="41.6218490" lon="1.9544820">
        <ele>665.1</ele>
        <time>2019-12-01T14:53:12Z</time>
      </trkpt>
      <trkpt lat="41.6218160" lon="1.9544780">
        <ele>665.3</ele>
        <time>2019-12-01T14:53:13Z</time>
      </trkpt>
      <trkpt lat="41.6217870" lon="1.9544660">
        <ele>665.5</ele>
        <time>2019-12-01T14:53:14Z</time>
      </trkpt>
      <trkpt lat="41.6217510" lon="1.9544530">
        <ele>665.7</ele>
        <time>2019-12-01T14:53:15Z</time>
      </trkpt>
      <trkpt lat="41.6217170" lon="1.9544440">
        <ele>666.0</ele>
        <time>2019-12-01T14:53:16Z</time>
      </trkpt>
      <trkpt lat="41.6216880" lon="1.9544380">
        <ele>666.2</ele>
        <time>2019-12-01T14:53:17Z</time>
      </trkpt>
      <trkpt lat="41.6216340" lon="1.9544320">
        <ele>666.7</ele>
        <time>2019-12-01T14:53:19Z</time>
      </trkpt>
      <trkpt lat="41.6216030" lon="1.9544170">
        <ele>667.0</ele>
        <time>2019-12-01T14:53:20Z</time>
      </trkpt>
      <trkpt lat="41.6215700" lon="1.9544020">
        <ele>667.3</ele>
        <time>2019-12-01T14:53:21Z</time>
      </trkpt>
      <trkpt lat="41.6215440" lon="1.9543940">
        <ele>667.5</ele>
        <time>2019-12-01T14:53:22Z</time>
      </trkpt>
      <trkpt lat="41.6214840" lon="1.9543860">
        <ele>667.8</ele>
        <time>2019-12-01T14:53:25Z</time>
      </trkpt>
      <trkpt lat="41.6214340" lon="1.9543810">
        <ele>667.3</ele>
        <time>2019-12-01T14:53:27Z</time>
      </trkpt>
      <trkpt lat="41.6214070" lon="1.9543720">
        <ele>667.1</ele>
        <time>2019-12-01T14:53:28Z</time>
      </trkpt>
      <trkpt lat="41.6213600" lon="1.9543480">
        <ele>666.8</ele>
        <time>2019-12-01T14:53:31Z</time>
      </trkpt>
      <trkpt lat="41.6213210" lon="1.9542980">
        <ele>666.4</ele>
        <time>2019-12-01T14:53:33Z</time>
      </trkpt>
      <trkpt lat="41.6213050" lon="1.9542670">
        <ele>666.3</ele>
        <time>2019-12-01T14:53:34Z</time>
      </trkpt>
      <trkpt lat="41.6212920" lon="1.9542330">
        <ele>666.2</ele>
        <time>2019-12-01T14:53:35Z</time>
      </trkpt>
      <trkpt lat="41.6212830" lon="1.9541980">
        <ele>666.0</ele>
        <time>2019-12-01T14:53:36Z</time>
      </trkpt>
      <trkpt lat="41.6212770" lon="1.9541590">
        <ele>665.9</ele>
        <time>2019-12-01T14:53:37Z</time>
      </trkpt>
      <trkpt lat="41.6212730" lon="1.9541180">
        <ele>665.7</ele>
        <time>2019-12-01T14:53:38Z</time>
      </trkpt>
      <trkpt lat="41.6212680" lon="1.9540780">
        <ele>665.6</ele>
        <time>2019-12-01T14:53:40Z</time>
      </trkpt>
      <trkpt lat="41.6212610" lon="1.9540190">
        <ele>665.4</ele>
        <time>2019-12-01T14:53:41Z</time>
      </trkpt>
      <trkpt lat="41.6212560" lon="1.9539800">
        <ele>665.2</ele>
        <time>2019-12-01T14:53:42Z</time>
      </trkpt>
      <trkpt lat="41.6212520" lon="1.9539430">
        <ele>665.1</ele>
        <time>2019-12-01T14:53:43Z</time>
      </trkpt>
      <trkpt lat="41.6212510" lon="1.9539030">
        <ele>665.0</ele>
        <time>2019-12-01T14:53:44Z</time>
      </trkpt>
      <trkpt lat="41.6212540" lon="1.9538620">
        <ele>664.9</ele>
        <time>2019-12-01T14:53:45Z</time>
      </trkpt>
      <trkpt lat="41.6212640" lon="1.9536640">
        <ele>664.3</ele>
        <time>2019-12-01T14:54:24Z</time>
      </trkpt>
      <trkpt lat="41.6212480" lon="1.9536340">
        <ele>664.2</ele>
        <time>2019-12-01T14:54:25Z</time>
      </trkpt>
      <trkpt lat="41.6212310" lon="1.9535910">
        <ele>664.1</ele>
        <time>2019-12-01T14:54:26Z</time>
      </trkpt>
      <trkpt lat="41.6212090" lon="1.9535500">
        <ele>663.9</ele>
        <time>2019-12-01T14:54:27Z</time>
      </trkpt>
      <trkpt lat="41.6211850" lon="1.9535150">
        <ele>663.8</ele>
        <time>2019-12-01T14:54:28Z</time>
      </trkpt>
      <trkpt lat="41.6211650" lon="1.9534780">
        <ele>663.6</ele>
        <time>2019-12-01T14:54:29Z</time>
      </trkpt>
      <trkpt lat="41.6211410" lon="1.9534450">
        <ele>663.1</ele>
        <time>2019-12-01T14:54:30Z</time>
      </trkpt>
      <trkpt lat="41.6211140" lon="1.9534150">
        <ele>662.6</ele>
        <time>2019-12-01T14:54:31Z</time>
      </trkpt>
      <trkpt lat="41.6210860" lon="1.9533880">
        <ele>662.2</ele>
        <time>2019-12-01T14:54:32Z</time>
      </trkpt>
      <trkpt lat="41.6210560" lon="1.9533630">
        <ele>661.7</ele>
        <time>2019-12-01T14:54:33Z</time>
      </trkpt>
      <trkpt lat="41.6210280" lon="1.9533430">
        <ele>661.2</ele>
        <time>2019-12-01T14:54:34Z</time>
      </trkpt>
      <trkpt lat="41.6210000" lon="1.9533250">
        <ele>660.8</ele>
        <time>2019-12-01T14:54:35Z</time>
      </trkpt>
      <trkpt lat="41.6209740" lon="1.9533100">
        <ele>660.4</ele>
        <time>2019-12-01T14:54:37Z</time>
      </trkpt>
      <trkpt lat="41.6209230" lon="1.9533040">
        <ele>659.7</ele>
        <time>2019-12-01T14:54:39Z</time>
      </trkpt>
      <trkpt lat="41.6208740" lon="1.9533160">
        <ele>659.0</ele>
        <time>2019-12-01T14:54:41Z</time>
      </trkpt>
      <trkpt lat="41.6208200" lon="1.9533410">
        <ele>658.2</ele>
        <time>2019-12-01T14:54:43Z</time>
      </trkpt>
      <trkpt lat="41.6207920" lon="1.9533560">
        <ele>658.1</ele>
        <time>2019-12-01T14:54:44Z</time>
      </trkpt>
      <trkpt lat="41.6207470" lon="1.9533890">
        <ele>657.8</ele>
        <time>2019-12-01T14:54:46Z</time>
      </trkpt>
      <trkpt lat="41.6207160" lon="1.9534520">
        <ele>657.5</ele>
        <time>2019-12-01T14:54:48Z</time>
      </trkpt>
      <trkpt lat="41.6206990" lon="1.9534860">
        <ele>657.4</ele>
        <time>2019-12-01T14:54:49Z</time>
      </trkpt>
      <trkpt lat="41.6206830" lon="1.9535150">
        <ele>657.2</ele>
        <time>2019-12-01T14:54:51Z</time>
      </trkpt>
      <trkpt lat="41.6206630" lon="1.9535430">
        <ele>657.1</ele>
        <time>2019-12-01T14:54:52Z</time>
      </trkpt>
      <trkpt lat="41.6206390" lon="1.9535710">
        <ele>656.9</ele>
        <time>2019-12-01T14:54:53Z</time>
      </trkpt>
      <trkpt lat="41.6206160" lon="1.9535940">
        <ele>656.8</ele>
        <time>2019-12-01T14:54:54Z</time>
      </trkpt>
      <trkpt lat="41.6205900" lon="1.9536180">
        <ele>656.6</ele>
        <time>2019-12-01T14:54:55Z</time>
      </trkpt>
      <trkpt lat="41.6205670" lon="1.9536380">
        <ele>656.4</ele>
        <time>2019-12-01T14:54:56Z</time>
      </trkpt>
      <trkpt lat="41.6205220" lon="1.9536760">
        <ele>656.2</ele>
        <time>2019-12-01T14:54:58Z</time>
      </trkpt>
      <trkpt lat="41.6204810" lon="1.9537170">
        <ele>655.9</ele>
        <time>2019-12-01T14:55:00Z</time>
      </trkpt>
      <trkpt lat="41.6204420" lon="1.9537660">
        <ele>655.6</ele>
        <time>2019-12-01T14:55:03Z</time>
      </trkpt>
      <trkpt lat="41.6204050" lon="1.9538200">
        <ele>654.7</ele>
        <time>2019-12-01T14:55:05Z</time>
      </trkpt>
      <trkpt lat="41.6203850" lon="1.9538460">
        <ele>654.4</ele>
        <time>2019-12-01T14:55:06Z</time>
      </trkpt>
      <trkpt lat="41.6203650" lon="1.9538700">
        <ele>654.1</ele>
        <time>2019-12-01T14:55:07Z</time>
      </trkpt>
      <trkpt lat="41.6203440" lon="1.9538930">
        <ele>653.8</ele>
        <time>2019-12-01T14:55:08Z</time>
      </trkpt>
      <trkpt lat="41.6203200" lon="1.9539130">
        <ele>653.5</ele>
        <time>2019-12-01T14:55:09Z</time>
      </trkpt>
      <trkpt lat="41.6202950" lon="1.9539320">
        <ele>653.3</ele>
        <time>2019-12-01T14:55:10Z</time>
      </trkpt>
      <trkpt lat="41.6199730" lon="1.9539300">
        <ele>651.2</ele>
        <time>2019-12-01T14:56:27Z</time>
      </trkpt>
      <trkpt lat="41.6199440" lon="1.9539140">
        <ele>651.0</ele>
        <time>2019-12-01T14:56:29Z</time>
      </trkpt>
      <trkpt lat="41.6199030" lon="1.9538780">
        <ele>650.8</ele>
        <time>2019-12-01T14:56:32Z</time>
      </trkpt>
      <trkpt lat="41.6198670" lon="1.9538460">
        <ele>650.5</ele>
        <time>2019-12-01T14:56:35Z</time>
      </trkpt>
      <trkpt lat="41.6198370" lon="1.9538090">
        <ele>650.3</ele>
        <time>2019-12-01T14:56:38Z</time>
      </trkpt>
      <trkpt lat="41.6198110" lon="1.9537810">
        <ele>650.1</ele>
        <time>2019-12-01T14:56:39Z</time>
      </trkpt>
      <trkpt lat="41.6197800" lon="1.9537610">
        <ele>649.8</ele>
        <time>2019-12-01T14:56:40Z</time>
      </trkpt>
      <trkpt lat="41.6197480" lon="1.9537500">
        <ele>649.5</ele>
        <time>2019-12-01T14:56:41Z</time>
      </trkpt>
      <trkpt lat="41.6197130" lon="1.9537470">
        <ele>649.2</ele>
        <time>2019-12-01T14:56:42Z</time>
      </trkpt>
      <trkpt lat="41.6196730" lon="1.9537440">
        <ele>648.7</ele>
        <time>2019-12-01T14:56:43Z</time>
      </trkpt>
      <trkpt lat="41.6196390" lon="1.9537440">
        <ele>648.3</ele>
        <time>2019-12-01T14:56:45Z</time>
      </trkpt>
      <trkpt lat="41.6196080" lon="1.9537450">
        <ele>648.0</ele>
        <time>2019-12-01T14:56:46Z</time>
      </trkpt>
      <trkpt lat="41.6195670" lon="1.9537530">
        <ele>647.4</ele>
        <time>2019-12-01T14:56:47Z</time>
      </trkpt>
      <trkpt lat="41.6194940" lon="1.9537650">
        <ele>645.8</ele>
        <time>2019-12-01T14:56:49Z</time>
      </trkpt>
      <trkpt lat="41.6194460" lon="1.9537710">
        <ele>645.7</ele>
        <time>2019-12-01T14:56:50Z</time>
      </trkpt>
      <trkpt lat="41.6194110" lon="1.9537790">
        <ele>645.7</ele>
        <time>2019-12-01T14:56:51Z</time>
      </trkpt>
      <trkpt lat="41.6193820" lon="1.9537770">
        <ele>645.7</ele>
        <time>2019-12-01T14:56:53Z</time>
      </trkpt>
      <trkpt lat="41.6193300" lon="1.9537520">
        <ele>645.7</ele>
        <time>2019-12-01T14:56:55Z</time>
      </trkpt>
      <trkpt lat="41.6192860" lon="1.9537430">
        <ele>645.8</ele>
        <time>2019-12-01T14:56:57Z</time>
      </trkpt>
      <trkpt lat="41.6192530" lon="1.9537580">
        <ele>645.9</ele>
        <time>2019-12-01T14:56:59Z</time>
      </trkpt>
      <trkpt lat="41.6192210" lon="1.9537780">
        <ele>646.0</ele>
        <time>2019-12-01T14:57:02Z</time>
      </trkpt>
      <trkpt lat="41.6191890" lon="1.9538170">
        <ele>646.1</ele>
        <time>2019-12-01T14:57:04Z</time>
      </trkpt>
      <trkpt lat="41.6191660" lon="1.9538700">
        <ele>646.1</ele>
        <time>2019-12-01T14:57:05Z</time>
      </trkpt>
      <trkpt lat="41.6191440" lon="1.9539030">
        <ele>646.2</ele>
        <time>2019-12-01T14:57:09Z</time>
      </trkpt>
      <trkpt lat="41.6191210" lon="1.9539400">
        <ele>646.3</ele>
        <time>2019-12-01T14:57:12Z</time>
      </trkpt>
      <trkpt lat="41.6191020" lon="1.9539730">
        <ele>646.3</ele>
        <time>2019-12-01T14:57:14Z</time>
      </trkpt>
      <trkpt lat="41.6190850" lon="1.9540010">
        <ele>646.3</ele>
        <time>2019-12-01T14:57:16Z</time>
      </trkpt>
      <trkpt lat="41.6190640" lon="1.9540390">
        <ele>646.4</ele>
        <time>2019-12-01T14:57:18Z</time>
      </trkpt>
      <trkpt lat="41.6190430" lon="1.9540800">
        <ele>646.4</ele>
        <time>2019-12-01T14:57:20Z</time>
      </trkpt>
      <trkpt lat="41.6190280" lon="1.9541150">
        <ele>646.4</ele>
        <time>2019-12-01T14:57:23Z</time>
      </trkpt>
      <trkpt lat="41.6190140" lon="1.9541570">
        <ele>646.5</ele>
        <time>2019-12-01T14:57:25Z</time>
      </trkpt>
      <trkpt lat="41.6190030" lon="1.9541950">
        <ele>646.5</ele>
        <time>2019-12-01T14:57:27Z</time>
      </trkpt>
      <trkpt lat="41.6189930" lon="1.9542300">
        <ele>646.5</ele>
        <time>2019-12-01T14:57:29Z</time>
      </trkpt>
      <trkpt lat="41.6189810" lon="1.9542650">
        <ele>646.6</ele>
        <time>2019-12-01T14:57:32Z</time>
      </trkpt>
      <trkpt lat="41.6189640" lon="1.9542950">
        <ele>646.6</ele>
        <time>2019-12-01T14:57:34Z</time>
      </trkpt>
      <trkpt lat="41.6189390" lon="1.9543200">
        <ele>646.6</ele>
        <time>2019-12-01T14:57:36Z</time>
      </trkpt>
      <trkpt lat="41.6188900" lon="1.9543530">
        <ele>646.7</ele>
        <time>2019-12-01T14:57:39Z</time>
      </trkpt>
      <trkpt lat="41.6188490" lon="1.9543620">
        <ele>646.7</ele>
        <time>2019-12-01T14:57:42Z</time>
      </trkpt>
      <trkpt lat="41.6188180" lon="1.9543450">
        <ele>646.8</ele>
        <time>2019-12-01T14:57:44Z</time>
      </trkpt>
      <trkpt lat="41.6186800" lon="1.9542430">
        <ele>647.1</ele>
        <time>2019-12-01T14:58:26Z</time>
      </trkpt>
      <trkpt lat="41.6186540" lon="1.9542220">
        <ele>647.1</ele>
        <time>2019-12-01T14:58:27Z</time>
      </trkpt>
      <trkpt lat="41.6186050" lon="1.9541930">
        <ele>647.2</ele>
        <time>2019-12-01T14:58:30Z</time>
      </trkpt>
      <trkpt lat="41.6185820" lon="1.9541700">
        <ele>647.3</ele>
        <time>2019-12-01T14:58:32Z</time>
      </trkpt>
      <trkpt lat="41.6185480" lon="1.9541280">
        <ele>647.4</ele>
        <time>2019-12-01T14:58:35Z</time>
      </trkpt>
      <trkpt lat="41.6185310" lon="1.9540880">
        <ele>647.5</ele>
        <time>2019-12-01T14:58:36Z</time>
      </trkpt>
      <trkpt lat="41.6185000" lon="1.9540610">
        <ele>647.6</ele>
        <time>2019-12-01T14:58:37Z</time>
      </trkpt>
      <trkpt lat="41.6184640" lon="1.9540410">
        <ele>647.7</ele>
        <time>2019-12-01T14:58:38Z</time>
      </trkpt>
      <trkpt lat="41.6184200" lon="1.9540220">
        <ele>647.8</ele>
        <time>2019-12-01T14:58:40Z</time>
      </trkpt>
      <trkpt lat="41.6183670" lon="1.9540080">
        <ele>648.0</ele>
        <time>2019-12-01T14:58:41Z</time>
      </trkpt>
      <trkpt lat="41.6183260" lon="1.9539980">
        <ele>648.1</ele>
        <time>2019-12-01T14:58:42Z</time>
      </trkpt>
      <trkpt lat="41.6182930" lon="1.9539870">
        <ele>648.3</ele>
        <time>2019-12-01T14:58:43Z</time>
      </trkpt>
      <trkpt lat="41.6182640" lon="1.9539730">
        <ele>648.4</ele>
        <time>2019-12-01T14:58:45Z</time>
      </trkpt>
      <trkpt lat="41.6181980" lon="1.9539410">
        <ele>648.6</ele>
        <time>2019-12-01T14:58:47Z</time>
      </trkpt>
      <trkpt lat="41.6181540" lon="1.9539090">
        <ele>648.8</ele>
        <time>2019-12-01T14:58:49Z</time>
      </trkpt>
      <trkpt lat="41.6181060" lon="1.9538690">
        <ele>649.0</ele>
        <time>2019-12-01T14:58:51Z</time>
      </trkpt>
      <trkpt lat="41.6180820" lon="1.9538520">
        <ele>649.0</ele>
        <time>2019-12-01T14:58:52Z</time>
      </trkpt>
      <trkpt lat="41.6180530" lon="1.9538330">
        <ele>649.1</ele>
        <time>2019-12-01T14:58:53Z</time>
      </trkpt>
      <trkpt lat="41.6180110" lon="1.9538000">
        <ele>649.3</ele>
        <time>2019-12-01T14:58:55Z</time>
      </trkpt>
      <trkpt lat="41.6179670" lon="1.9537710">
        <ele>649.5</ele>
        <time>2019-12-01T14:58:57Z</time>
      </trkpt>
      <trkpt lat="41.6179220" lon="1.9537450">
        <ele>649.7</ele>
        <time>2019-12-01T14:59:00Z</time>
      </trkpt>
      <trkpt lat="41.6178760" lon="1.9537060">
        <ele>649.8</ele>
        <time>2019-12-01T14:59:02Z</time>
      </trkpt>
      <trkpt lat="41.6178270" lon="1.9536620">
        <ele>649.9</ele>
        <time>2019-12-01T14:59:05Z</time>
      </trkpt>
      <trkpt lat="41.6177900" lon="1.9536320">
        <ele>649.9</ele>
        <time>2019-12-01T14:59:06Z</time>
      </trkpt>
      <trkpt lat="41.6177680" lon="1.9536090">
        <ele>650.0</ele>
        <time>2019-12-01T14:59:08Z</time>
      </trkpt>
      <trkpt lat="41.6177200" lon="1.9535520">
        <ele>650.1</ele>
        <time>2019-12-01T14:59:10Z</time>
      </trkpt>
      <trkpt lat="41.6176840" lon="1.9535090">
        <ele>650.1</ele>
        <time>2019-12-01T14:59:12Z</time>
      </trkpt>
      <trkpt lat="41.6176360" lon="1.9534550">
        <ele>650.2</ele>
        <time>2019-12-01T14:59:16Z</time>
      </trkpt>
      <trkpt lat="41.6176090" lon="1.9534250">
        <ele>650.3</ele>
        <time>2019-12-01T14:59:17Z</time>
      </trkpt>
      <trkpt lat="41.6175770" lon="1.9533870">
        <ele>650.3</ele>
        <time>2019-12-01T14:59:19Z</time>
      </trkpt>
      <trkpt lat="41.6175470" lon="1.9533510">
        <ele>650.4</ele>
        <time>2019-12-01T14:59:21Z</time>
      </trkpt>
      <trkpt lat="41.6175130" lon="1.9533100">
        <ele>650.4</ele>
        <time>2019-12-01T14:59:23Z</time>
      </trkpt>
      <trkpt lat="41.6174780" lon="1.9532610">
        <ele>650.5</ele>
        <time>2019-12-01T14:59:25Z</time>
      </trkpt>
      <trkpt lat="41.6174430" lon="1.9532190">
        <ele>650.5</ele>
        <time>2019-12-01T14:59:28Z</time>
      </trkpt>
      <trkpt lat="41.6174010" lon="1.9531970">
        <ele>650.5</ele>
        <time>2019-12-01T14:59:30Z</time>
      </trkpt>
      <trkpt lat="41.6173650" lon="1.9532040">
        <ele>650.5</ele>
        <time>2019-12-01T14:59:32Z</time>
      </trkpt>
      <trkpt lat="41.6173210" lon="1.9532290">
        <ele>650.5</ele>
        <time>2019-12-01T14:59:35Z</time>
      </trkpt>
      <trkpt lat="41.6172800" lon="1.9532530">
        <ele>650.5</ele>
        <time>2019-12-01T14:59:37Z</time>
      </trkpt>
      <trkpt lat="41.6172550" lon="1.9532720">
        <ele>650.5</ele>
        <time>2019-12-01T14:59:38Z</time>
      </trkpt>
      <trkpt lat="41.6172270" lon="1.9532900">
        <ele>650.5</ele>
        <time>2019-12-01T14:59:40Z</time>
      </trkpt>
      <trkpt lat="41.6171960" lon="1.9533040">
        <ele>650.5</ele>
        <time>2019-12-01T14:59:41Z</time>
      </trkpt>
      <trkpt lat="41.6171490" lon="1.9533250">
        <ele>650.4</ele>
        <time>2019-12-01T14:59:43Z</time>
      </trkpt>
      <trkpt lat="41.6171020" lon="1.9533530">
        <ele>650.3</ele>
        <time>2019-12-01T14:59:45Z</time>
      </trkpt>
      <trkpt lat="41.6170620" lon="1.9533750">
        <ele>650.2</ele>
        <time>2019-12-01T14:59:48Z</time>
      </trkpt>
      <trkpt lat="41.6170340" lon="1.9533880">
        <ele>650.1</ele>
        <time>2019-12-01T14:59:49Z</time>
      </trkpt>
      <trkpt lat="41.6170060" lon="1.9534010">
        <ele>649.9</ele>
        <time>2019-12-01T14:59:50Z</time>
      </trkpt>
      <trkpt lat="41.6169580" lon="1.9534230">
        <ele>649.7</ele>
        <time>2019-12-01T14:59:52Z</time>
      </trkpt>
      <trkpt lat="41.6169270" lon="1.9534350">
        <ele>649.6</ele>
        <time>2019-12-01T14:59:54Z</time>
      </trkpt>
      <trkpt lat="41.6168890" lon="1.9534550">
        <ele>649.4</ele>
        <time>2019-12-01T14:59:55Z</time>
      </trkpt>
      <trkpt lat="41.6168530" lon="1.9534830">
        <ele>649.2</ele>
        <time>2019-12-01T14:59:56Z</time>
      </trkpt>
      <trkpt lat="41.6168280" lon="1.9535080">
        <ele>649.1</ele>
        <time>2019-12-01T14:59:57Z</time>
      </trkpt>
      <trkpt lat="41.6168090" lon="1.9535420">
        <ele>649.0</ele>
        <time>2019-12-01T14:59:58Z</time>
      </trkpt>
      <trkpt lat="41.6167950" lon="1.9535850">
        <ele>648.9</ele>
        <time>2019-12-01T14:59:59Z</time>
      </trkpt>
      <trkpt lat="41.6167830" lon="1.9536260">
        <ele>648.8</ele>
        <time>2019-12-01T15:00:00Z</time>
      </trkpt>
      <trkpt lat="41.6167730" lon="1.9536710">
        <ele>648.7</ele>
        <time>2019-12-01T15:00:02Z</time>
      </trkpt>
      <trkpt lat="41.6167650" lon="1.9537220">
        <ele>648.7</ele>
        <time>2019-12-01T15:00:03Z</time>
      </trkpt>
      <trkpt lat="41.6167570" lon="1.9537580">
        <ele>648.6</ele>
        <time>2019-12-01T15:00:04Z</time>
      </trkpt>
      <trkpt lat="41.6167480" lon="1.9537940">
        <ele>648.6</ele>
        <time>2019-12-01T15:00:05Z</time>
      </trkpt>
      <trkpt lat="41.6167420" lon="1.9538350">
        <ele>648.6</ele>
        <time>2019-12-01T15:00:06Z</time>
      </trkpt>
      <trkpt lat="41.6167390" lon="1.9538880">
        <ele>648.6</ele>
        <time>2019-12-01T15:00:07Z</time>
      </trkpt>
      <trkpt lat="41.6167360" lon="1.9539330">
        <ele>648.6</ele>
        <time>2019-12-01T15:00:08Z</time>
      </trkpt>
      <trkpt lat="41.6167320" lon="1.9539800">
        <ele>648.6</ele>
        <time>2019-12-01T15:00:09Z</time>
      </trkpt>
      <trkpt lat="41.6167270" lon="1.9540310">
        <ele>648.6</ele>
        <time>2019-12-01T15:00:10Z</time>
      </trkpt>
      <trkpt lat="41.6167200" lon="1.9540800">
        <ele>648.6</ele>
        <time>2019-12-01T15:00:12Z</time>
      </trkpt>
      <trkpt lat="41.6167150" lon="1.9541180">
        <ele>648.6</ele>
        <time>2019-12-01T15:00:13Z</time>
      </trkpt>
      <trkpt lat="41.6167110" lon="1.9541660">
        <ele>648.6</ele>
        <time>2019-12-01T15:00:14Z</time>
      </trkpt>
      <trkpt lat="41.6166980" lon="1.9542300">
        <ele>648.7</ele>
        <time>2019-12-01T15:00:16Z</time>
      </trkpt>
      <trkpt lat="41.6166690" lon="1.9542920">
        <ele>648.7</ele>
        <time>2019-12-01T15:00:18Z</time>
      </trkpt>
      <trkpt lat="41.6166380" lon="1.9543210">
        <ele>648.8</ele>
        <time>2019-12-01T15:00:21Z</time>
      </trkpt>
      <trkpt lat="41.6165950" lon="1.9543410">
        <ele>648.8</ele>
        <time>2019-12-01T15:00:24Z</time>
      </trkpt>
      <trkpt lat="41.6165520" lon="1.9543370">
        <ele>648.9</ele>
        <time>2019-12-01T15:00:26Z</time>
      </trkpt>
      <trkpt lat="41.6164990" lon="1.9543270">
        <ele>649.0</ele>
        <time>2019-12-01T15:00:28Z</time>
      </trkpt>
      <trkpt lat="41.6164700" lon="1.9543200">
        <ele>649.1</ele>
        <time>2019-12-01T15:00:29Z</time>
      </trkpt>
      <trkpt lat="41.6164390" lon="1.9543160">
        <ele>649.2</ele>
        <time>2019-12-01T15:00:30Z</time>
      </trkpt>
      <trkpt lat="41.6164030" lon="1.9543100">
        <ele>649.2</ele>
        <time>2019-12-01T15:00:32Z</time>
      </trkpt>
      <trkpt lat="41.6163670" lon="1.9543080">
        <ele>649.3</ele>
        <time>2019-12-01T15:00:33Z</time>
      </trkpt>
      <trkpt lat="41.6163120" lon="1.9543110">
        <ele>649.4</ele>
        <time>2019-12-01T15:00:35Z</time>
      </trkpt>
      <trkpt lat="41.6162580" lon="1.9543250">
        <ele>649.4</ele>
        <time>2019-12-01T15:00:37Z</time>
      </trkpt>
      <trkpt lat="41.6162310" lon="1.9543360">
        <ele>649.5</ele>
        <time>2019-12-01T15:00:38Z</time>
      </trkpt>
      <trkpt lat="41.6162040" lon="1.9543450">
        <ele>649.5</ele>
        <time>2019-12-01T15:00:39Z</time>
      </trkpt>
      <trkpt lat="41.6161690" lon="1.9543510">
        <ele>649.5</ele>
        <time>2019-12-01T15:00:40Z</time>
      </trkpt>
      <trkpt lat="41.6161160" lon="1.9543610">
        <ele>649.6</ele>
        <time>2019-12-01T15:00:44Z</time>
      </trkpt>
      <trkpt lat="41.6160960" lon="1.9543640">
        <ele>649.6</ele>
        <time>2019-12-01T15:00:45Z</time>
      </trkpt>
      <trkpt lat="41.6160580" lon="1.9543630">
        <ele>649.6</ele>
        <time>2019-12-01T15:00:47Z</time>
      </trkpt>
      <trkpt lat="41.6160220" lon="1.9543670">
        <ele>649.6</ele>
        <time>2019-12-01T15:00:49Z</time>
      </trkpt>
      <trkpt lat="41.6159900" lon="1.9543820">
        <ele>649.6</ele>
        <time>2019-12-01T15:00:51Z</time>
      </trkpt>
      <trkpt lat="41.6159580" lon="1.9543960">
        <ele>649.6</ele>
        <time>2019-12-01T15:00:53Z</time>
      </trkpt>
      <trkpt lat="41.6159240" lon="1.9544090">
        <ele>649.6</ele>
        <time>2019-12-01T15:00:56Z</time>
      </trkpt>
      <trkpt lat="41.6158910" lon="1.9544170">
        <ele>649.6</ele>
        <time>2019-12-01T15:00:58Z</time>
      </trkpt>
      <trkpt lat="41.6158580" lon="1.9544320">
        <ele>649.6</ele>
        <time>2019-12-01T15:01:00Z</time>
      </trkpt>
      <trkpt lat="41.6158160" lon="1.9544330">
        <ele>649.6</ele>
        <time>2019-12-01T15:01:02Z</time>
      </trkpt>
      <trkpt lat="41.6157730" lon="1.9544270">
        <ele>649.6</ele>
        <time>2019-12-01T15:01:05Z</time>
      </trkpt>
      <trkpt lat="41.6157230" lon="1.9544270">
        <ele>649.6</ele>
        <time>2019-12-01T15:01:08Z</time>
      </trkpt>
      <trkpt lat="41.6156820" lon="1.9544280">
        <ele>649.6</ele>
        <time>2019-12-01T15:01:09Z</time>
      </trkpt>
      <trkpt lat="41.6156340" lon="1.9544280">
        <ele>649.5</ele>
        <time>2019-12-01T15:01:11Z</time>
      </trkpt>
      <trkpt lat="41.6155970" lon="1.9544220">
        <ele>649.5</ele>
        <time>2019-12-01T15:01:14Z</time>
      </trkpt>
      <trkpt lat="41.6155590" lon="1.9544130">
        <ele>649.5</ele>
        <time>2019-12-01T15:01:16Z</time>
      </trkpt>
      <trkpt lat="41.6155280" lon="1.9544120">
        <ele>649.4</ele>
        <time>2019-12-01T15:01:19Z</time>
      </trkpt>
      <trkpt lat="41.6154820" lon="1.9544220">
        <ele>649.4</ele>
        <time>2019-12-01T15:01:21Z</time>
      </trkpt>
      <trkpt lat="41.6154330" lon="1.9544380">
        <ele>649.3</ele>
        <time>2019-12-01T15:01:23Z</time>
      </trkpt>
      <trkpt lat="41.6154060" lon="1.9544480">
        <ele>649.2</ele>
        <time>2019-12-01T15:01:25Z</time>
      </trkpt>
      <trkpt lat="41.6153500" lon="1.9544660">
        <ele>649.0</ele>
        <time>2019-12-01T15:01:27Z</time>
      </trkpt>
      <trkpt lat="41.6152910" lon="1.9544910">
        <ele>648.8</ele>
        <time>2019-12-01T15:01:30Z</time>
      </trkpt>
      <trkpt lat="41.6152450" lon="1.9545090">
        <ele>648.7</ele>
        <time>2019-12-01T15:01:32Z</time>
      </trkpt>
      <trkpt lat="41.6151930" lon="1.9545210">
        <ele>648.5</ele>
        <time>2019-12-01T15:01:34Z</time>
      </trkpt>
      <trkpt lat="41.6151470" lon="1.9545340">
        <ele>648.3</ele>
        <time>2019-12-01T15:01:37Z</time>
      </trkpt>
      <trkpt lat="41.6151090" lon="1.9545510">
        <ele>648.2</ele>
        <time>2019-12-01T15:01:39Z</time>
      </trkpt>
      <trkpt lat="41.6150830" lon="1.9545590">
        <ele>648.1</ele>
        <time>2019-12-01T15:01:40Z</time>
      </trkpt>
      <trkpt lat="41.6150380" lon="1.9545730">
        <ele>647.9</ele>
        <time>2019-12-01T15:01:42Z</time>
      </trkpt>
      <trkpt lat="41.6150100" lon="1.9545790">
        <ele>647.7</ele>
        <time>2019-12-01T15:01:44Z</time>
      </trkpt>
      <trkpt lat="41.6149830" lon="1.9545920">
        <ele>647.6</ele>
        <time>2019-12-01T15:01:45Z</time>
      </trkpt>
      <trkpt lat="41.6149420" lon="1.9546150">
        <ele>647.4</ele>
        <time>2019-12-01T15:01:46Z</time>
      </trkpt>
      <trkpt lat="41.6149120" lon="1.9546270">
        <ele>647.3</ele>
        <time>2019-12-01T15:01:47Z</time>
      </trkpt>
      <trkpt lat="41.6148840" lon="1.9546390">
        <ele>647.1</ele>
        <time>2019-12-01T15:01:48Z</time>
      </trkpt>
      <trkpt lat="41.6148540" lon="1.9546520">
        <ele>646.9</ele>
        <time>2019-12-01T15:01:49Z</time>
      </trkpt>
      <trkpt lat="41.6148290" lon="1.9546640">
        <ele>646.8</ele>
        <time>2019-12-01T15:01:51Z</time>
      </trkpt>
      <trkpt lat="41.6147690" lon="1.9547000">
        <ele>646.5</ele>
        <time>2019-12-01T15:01:53Z</time>
      </trkpt>
      <trkpt lat="41.6147210" lon="1.9547200">
        <ele>646.2</ele>
        <time>2019-12-01T15:01:55Z</time>
      </trkpt>
      <trkpt lat="41.6146790" lon="1.9547330">
        <ele>646.0</ele>
        <time>2019-12-01T15:01:57Z</time>
      </trkpt>
      <trkpt lat="41.6146370" lon="1.9547430">
        <ele>645.8</ele>
        <time>2019-12-01T15:02:00Z</time>
      </trkpt>
      <trkpt lat="41.6146080" lon="1.9547460">
        <ele>645.7</ele>
        <time>2019-12-01T15:02:01Z</time>
      </trkpt>
      <trkpt lat="41.6145810" lon="1.9547520">
        <ele>645.6</ele>
        <time>2019-12-01T15:02:02Z</time>
      </trkpt>
      <trkpt lat="41.6145490" lon="1.9547580">
        <ele>645.5</ele>
        <time>2019-12-01T15:02:03Z</time>
      </trkpt>
      <trkpt lat="41.6144980" lon="1.9547680">
        <ele>645.3</ele>
        <time>2019-12-01T15:02:05Z</time>
      </trkpt>
      <trkpt lat="41.6144530" lon="1.9547750">
        <ele>645.2</ele>
        <time>2019-12-01T15:02:06Z</time>
      </trkpt>
      <trkpt lat="41.6144160" lon="1.9547810">
        <ele>645.1</ele>
        <time>2019-12-01T15:02:07Z</time>
      </trkpt>
      <trkpt lat="41.6143790" lon="1.9547890">
        <ele>645.0</ele>
        <time>2019-12-01T15:02:09Z</time>
      </trkpt>
      <trkpt lat="41.6143420" lon="1.9548000">
        <ele>644.9</ele>
        <time>2019-12-01T15:02:10Z</time>
      </trkpt>
      <trkpt lat="41.6143000" lon="1.9548150">
        <ele>644.9</ele>
        <time>2019-12-01T15:02:11Z</time>
      </trkpt>
      <trkpt lat="41.6142670" lon="1.9548280">
        <ele>644.8</ele>
        <time>2019-12-01T15:02:12Z</time>
      </trkpt>
      <trkpt lat="41.6142380" lon="1.9548420">
        <ele>644.8</ele>
        <time>2019-12-01T15:02:13Z</time>
      </trkpt>
      <trkpt lat="41.6141960" lon="1.9548640">
        <ele>644.8</ele>
        <time>2019-12-01T15:02:15Z</time>
      </trkpt>
      <trkpt lat="41.6141470" lon="1.9548800">
        <ele>644.9</ele>
        <time>2019-12-01T15:02:17Z</time>
      </trkpt>
      <trkpt lat="41.6141060" lon="1.9548950">
        <ele>644.9</ele>
        <time>2019-12-01T15:02:20Z</time>
      </trkpt>
      <trkpt lat="41.6140620" lon="1.9549050">
        <ele>645.0</ele>
        <time>2019-12-01T15:02:22Z</time>
      </trkpt>
      <trkpt lat="41.6140050" lon="1.9549180">
        <ele>645.1</ele>
        <time>2019-12-01T15:02:25Z</time>
      </trkpt>
      <trkpt lat="41.6139660" lon="1.9549180">
        <ele>645.2</ele>
        <time>2019-12-01T15:02:26Z</time>
      </trkpt>
      <trkpt lat="41.6139210" lon="1.9549120">
        <ele>645.3</ele>
        <time>2019-12-01T15:02:28Z</time>
      </trkpt>
      <trkpt lat="41.6138800" lon="1.9549080">
        <ele>645.3</ele>
        <time>2019-12-01T15:02:31Z</time>
      </trkpt>
      <trkpt lat="41.6138350" lon="1.9549080">
        <ele>645.4</ele>
        <time>2019-12-01T15:02:33Z</time>
      </trkpt>
      <trkpt lat="41.6137930" lon="1.9549090">
        <ele>645.5</ele>
        <time>2019-12-01T15:02:35Z</time>
      </trkpt>
      <trkpt lat="41.6137560" lon="1.9549080">
        <ele>645.6</ele>
        <time>2019-12-01T15:02:37Z</time>
      </trkpt>
      <trkpt lat="41.6137240" lon="1.9549100">
        <ele>645.6</ele>
        <time>2019-12-01T15:02:39Z</time>
      </trkpt>
      <trkpt lat="41.6136930" lon="1.9549160">
        <ele>645.6</ele>
        <time>2019-12-01T15:02:42Z</time>
      </trkpt>
      <trkpt lat="41.6136620" lon="1.9549200">
        <ele>645.7</ele>
        <time>2019-12-01T15:02:44Z</time>
      </trkpt>
      <trkpt lat="41.6136260" lon="1.9549190">
        <ele>645.7</ele>
        <time>2019-12-01T15:02:46Z</time>
      </trkpt>
      <trkpt lat="41.6135760" lon="1.9549110">
        <ele>645.7</ele>
        <time>2019-12-01T15:02:48Z</time>
      </trkpt>
      <trkpt lat="41.6135330" lon="1.9549020">
        <ele>645.7</ele>
        <time>2019-12-01T15:02:50Z</time>
      </trkpt>
      <trkpt lat="41.6134950" lon="1.9548940">
        <ele>645.7</ele>
        <time>2019-12-01T15:02:52Z</time>
      </trkpt>
      <trkpt lat="41.6134570" lon="1.9548860">
        <ele>645.7</ele>
        <time>2019-12-01T15:02:55Z</time>
      </trkpt>
      <trkpt lat="41.6134300" lon="1.9548710">
        <ele>645.7</ele>
        <time>2019-12-01T15:02:56Z</time>
      </trkpt>
      <trkpt lat="41.6133930" lon="1.9548570">
        <ele>645.7</ele>
        <time>2019-12-01T15:02:58Z</time>
      </trkpt>
      <trkpt lat="41.6133480" lon="1.9548630">
        <ele>645.7</ele>
        <time>2019-12-01T15:03:01Z</time>
      </trkpt>
      <trkpt lat="41.6133210" lon="1.9548680">
        <ele>645.6</ele>
        <time>2019-12-01T15:03:02Z</time>
      </trkpt>
      <trkpt lat="41.6132930" lon="1.9548710">
        <ele>645.6</ele>
        <time>2019-12-01T15:03:03Z</time>
      </trkpt>
      <trkpt lat="41.6132440" lon="1.9548720">
        <ele>645.5</ele>
        <time>2019-12-01T15:03:05Z</time>
      </trkpt>
      <trkpt lat="41.6131930" lon="1.9548700">
        <ele>645.5</ele>
        <time>2019-12-01T15:03:08Z</time>
      </trkpt>
      <trkpt lat="41.6131290" lon="1.9548800">
        <ele>645.3</ele>
        <time>2019-12-01T15:03:10Z</time>
      </trkpt>
      <trkpt lat="41.6130850" lon="1.9548870">
        <ele>645.2</ele>
        <time>2019-12-01T15:03:13Z</time>
      </trkpt>
      <trkpt lat="41.6130370" lon="1.9549160">
        <ele>645.1</ele>
        <time>2019-12-01T15:03:15Z</time>
      </trkpt>
      <trkpt lat="41.6129930" lon="1.9549420">
        <ele>644.8</ele>
        <time>2019-12-01T15:03:17Z</time>
      </trkpt>
      <trkpt lat="41.6129680" lon="1.9549590">
        <ele>644.7</ele>
        <time>2019-12-01T15:03:18Z</time>
      </trkpt>
      <trkpt lat="41.6129230" lon="1.9549900">
        <ele>644.4</ele>
        <time>2019-12-01T15:03:20Z</time>
      </trkpt>
      <trkpt lat="41.6128960" lon="1.9550060">
        <ele>644.2</ele>
        <time>2019-12-01T15:03:21Z</time>
      </trkpt>
      <trkpt lat="41.6128450" lon="1.9550420">
        <ele>643.7</ele>
        <time>2019-12-01T15:03:23Z</time>
      </trkpt>
      <trkpt lat="41.6128220" lon="1.9550600">
        <ele>643.5</ele>
        <time>2019-12-01T15:03:24Z</time>
      </trkpt>
      <trkpt lat="41.6127880" lon="1.9550900">
        <ele>643.2</ele>
        <time>2019-12-01T15:03:25Z</time>
      </trkpt>
      <trkpt lat="41.6127620" lon="1.9551160">
        <ele>642.9</ele>
        <time>2019-12-01T15:03:26Z</time>
      </trkpt>
      <trkpt lat="41.6127380" lon="1.9551410">
        <ele>642.6</ele>
        <time>2019-12-01T15:03:28Z</time>
      </trkpt>
      <trkpt lat="41.6126990" lon="1.9551760">
        <ele>642.2</ele>
        <time>2019-12-01T15:03:29Z</time>
      </trkpt>
      <trkpt lat="41.6126730" lon="1.9551990">
        <ele>642.0</ele>
        <time>2019-12-01T15:03:30Z</time>
      </trkpt>
      <trkpt lat="41.6126480" lon="1.9552190">
        <ele>641.7</ele>
        <time>2019-12-01T15:03:31Z</time>
      </trkpt>
      <trkpt lat="41.6126230" lon="1.9552430">
        <ele>641.5</ele>
        <time>2019-12-01T15:03:32Z</time>
      </trkpt>
      <trkpt lat="41.6126000" lon="1.9552670">
        <ele>641.2</ele>
        <time>2019-12-01T15:03:33Z</time>
      </trkpt>
      <trkpt lat="41.6125770" lon="1.9552950">
        <ele>641.0</ele>
        <time>2019-12-01T15:03:35Z</time>
      </trkpt>
      <trkpt lat="41.6125560" lon="1.9553230">
        <ele>640.7</ele>
        <time>2019-12-01T15:03:36Z</time>
      </trkpt>
      <trkpt lat="41.6125280" lon="1.9553770">
        <ele>640.3</ele>
        <time>2019-12-01T15:03:38Z</time>
      </trkpt>
      <trkpt lat="41.6125160" lon="1.9554110">
        <ele>640.0</ele>
        <time>2019-12-01T15:03:39Z</time>
      </trkpt>
      <trkpt lat="41.6124860" lon="1.9554550">
        <ele>639.7</ele>
        <time>2019-12-01T15:03:41Z</time>
      </trkpt>
      <trkpt lat="41.6124590" lon="1.9554830">
        <ele>639.5</ele>
        <time>2019-12-01T15:03:43Z</time>
      </trkpt>
      <trkpt lat="41.6124240" lon="1.9555200">
        <ele>639.2</ele>
        <time>2019-12-01T15:03:46Z</time>
      </trkpt>
      <trkpt lat="41.6123870" lon="1.9555460">
        <ele>638.8</ele>
        <time>2019-12-01T15:03:48Z</time>
      </trkpt>
      <trkpt lat="41.6123550" lon="1.9555550">
        <ele>638.6</ele>
        <time>2019-12-01T15:03:50Z</time>
      </trkpt>
      <trkpt lat="41.6123260" lon="1.9555530">
        <ele>638.4</ele>
        <time>2019-12-01T15:03:53Z</time>
      </trkpt>
      <trkpt lat="41.6122910" lon="1.9555510">
        <ele>638.2</ele>
        <time>2019-12-01T15:03:55Z</time>
      </trkpt>
      <trkpt lat="41.6122540" lon="1.9555720">
        <ele>638.0</ele>
        <time>2019-12-01T15:03:57Z</time>
      </trkpt>
      <trkpt lat="41.6122250" lon="1.9555950">
        <ele>637.8</ele>
        <time>2019-12-01T15:03:59Z</time>
      </trkpt>
      <trkpt lat="41.6122030" lon="1.9556170">
        <ele>637.7</ele>
        <time>2019-12-01T15:04:00Z</time>
      </trkpt>
      <trkpt lat="41.6121620" lon="1.9556570">
        <ele>637.5</ele>
        <time>2019-12-01T15:04:02Z</time>
      </trkpt>
      <trkpt lat="41.6121380" lon="1.9556740">
        <ele>637.3</ele>
        <time>2019-12-01T15:04:03Z</time>
      </trkpt>
      <trkpt lat="41.6121110" lon="1.9556900">
        <ele>637.2</ele>
        <time>2019-12-01T15:04:04Z</time>
      </trkpt>
      <trkpt lat="41.6120840" lon="1.9557030">
        <ele>637.0</ele>
        <time>2019-12-01T15:04:06Z</time>
      </trkpt>
      <trkpt lat="41.6120340" lon="1.9557190">
        <ele>636.8</ele>
        <time>2019-12-01T15:04:08Z</time>
      </trkpt>
      <trkpt lat="41.6120070" lon="1.9557240">
        <ele>636.6</ele>
        <time>2019-12-01T15:04:09Z</time>
      </trkpt>
      <trkpt lat="41.6119780" lon="1.9557250">
        <ele>636.5</ele>
        <time>2019-12-01T15:04:10Z</time>
      </trkpt>
      <trkpt lat="41.6119180" lon="1.9557360">
        <ele>636.1</ele>
        <time>2019-12-01T15:04:12Z</time>
      </trkpt>
      <trkpt lat="41.6118720" lon="1.9557470">
        <ele>635.8</ele>
        <time>2019-12-01T15:04:15Z</time>
      </trkpt>
      <trkpt lat="41.6118250" lon="1.9557540">
        <ele>635.6</ele>
        <time>2019-12-01T15:04:17Z</time>
      </trkpt>
      <trkpt lat="41.6117810" lon="1.9557620">
        <ele>635.4</ele>
        <time>2019-12-01T15:04:19Z</time>
      </trkpt>
      <trkpt lat="41.6117280" lon="1.9557650">
        <ele>635.2</ele>
        <time>2019-12-01T15:04:21Z</time>
      </trkpt>
      <trkpt lat="41.6117000" lon="1.9557640">
        <ele>635.1</ele>
        <time>2019-12-01T15:04:22Z</time>
      </trkpt>
      <trkpt lat="41.6116500" lon="1.9557600">
        <ele>634.9</ele>
        <time>2019-12-01T15:04:25Z</time>
      </trkpt>
      <trkpt lat="41.6115960" lon="1.9557630">
        <ele>634.8</ele>
        <time>2019-12-01T15:04:28Z</time>
      </trkpt>
      <trkpt lat="41.6115520" lon="1.9557830">
        <ele>634.7</ele>
        <time>2019-12-01T15:04:30Z</time>
      </trkpt>
      <trkpt lat="41.6115110" lon="1.9558030">
        <ele>634.6</ele>
        <time>2019-12-01T15:04:32Z</time>
      </trkpt>
      <trkpt lat="41.6114700" lon="1.9558270">
        <ele>634.6</ele>
        <time>2019-12-01T15:04:35Z</time>
      </trkpt>
      <trkpt lat="41.6114270" lon="1.9558620">
        <ele>634.5</ele>
        <time>2019-12-01T15:04:38Z</time>
      </trkpt>
      <trkpt lat="41.6113990" lon="1.9558880">
        <ele>634.4</ele>
        <time>2019-12-01T15:04:40Z</time>
      </trkpt>
      <trkpt lat="41.6113720" lon="1.9559110">
        <ele>634.3</ele>
        <time>2019-12-01T15:04:42Z</time>
      </trkpt>
      <trkpt lat="41.6113370" lon="1.9559370">
        <ele>634.3</ele>
        <time>2019-12-01T15:04:45Z</time>
      </trkpt>
      <trkpt lat="41.6112910" lon="1.9559670">
        <ele>634.2</ele>
        <time>2019-12-01T15:04:47Z</time>
      </trkpt>
      <trkpt lat="41.6112430" lon="1.9560180">
        <ele>634.1</ele>
        <time>2019-12-01T15:04:50Z</time>
      </trkpt>
      <trkpt lat="41.6112140" lon="1.9560490">
        <ele>634.1</ele>
        <time>2019-12-01T15:04:51Z</time>
      </trkpt>
      <trkpt lat="41.6111780" lon="1.9560850">
        <ele>634.0</ele>
        <time>2019-12-01T15:04:53Z</time>
      </trkpt>
      <trkpt lat="41.6111300" lon="1.9561250">
        <ele>634.0</ele>
        <time>2019-12-01T15:04:56Z</time>
      </trkpt>
      <trkpt lat="41.6111000" lon="1.9561480">
        <ele>633.9</ele>
        <time>2019-12-01T15:04:58Z</time>
      </trkpt>
      <trkpt lat="41.6110520" lon="1.9561830">
        <ele>633.9</ele>
        <time>2019-12-01T15:05:00Z</time>
      </trkpt>
      <trkpt lat="41.6110200" lon="1.9562060">
        <ele>633.9</ele>
        <time>2019-12-01T15:05:02Z</time>
      </trkpt>
      <trkpt lat="41.6109940" lon="1.9562220">
        <ele>633.9</ele>
        <time>2019-12-01T15:05:03Z</time>
      </trkpt>
      <trkpt lat="41.6109630" lon="1.9562470">
        <ele>633.5</ele>
        <time>2019-12-01T15:05:05Z</time>
      </trkpt>
      <trkpt lat="41.6109400" lon="1.9562660">
        <ele>633.5</ele>
        <time>2019-12-01T15:05:06Z</time>
      </trkpt>
      <trkpt lat="41.6109060" lon="1.9562990">
        <ele>633.5</ele>
        <time>2019-12-01T15:05:07Z</time>
      </trkpt>
      <trkpt lat="41.6108680" lon="1.9563430">
        <ele>632.9</ele>
        <time>2019-12-01T15:05:09Z</time>
      </trkpt>
      <trkpt lat="41.6108360" lon="1.9563880">
        <ele>632.8</ele>
        <time>2019-12-01T15:05:12Z</time>
      </trkpt>
      <trkpt lat="41.6108080" lon="1.9564300">
        <ele>632.7</ele>
        <time>2019-12-01T15:05:14Z</time>
      </trkpt>
      <trkpt lat="41.6107880" lon="1.9564610">
        <ele>632.7</ele>
        <time>2019-12-01T15:05:16Z</time>
      </trkpt>
      <trkpt lat="41.6107570" lon="1.9565080">
        <ele>632.6</ele>
        <time>2019-12-01T15:05:19Z</time>
      </trkpt>
      <trkpt lat="41.6107340" lon="1.9565360">
        <ele>632.5</ele>
        <time>2019-12-01T15:05:21Z</time>
      </trkpt>
      <trkpt lat="41.6106700" lon="1.9568080">
        <ele>633.0</ele>
        <time>2019-12-01T15:05:55Z</time>
      </trkpt>
      <trkpt lat="41.6106790" lon="1.9568670">
        <ele>633.2</ele>
        <time>2019-12-01T15:05:57Z</time>
      </trkpt>
      <trkpt lat="41.6106820" lon="1.9569060">
        <ele>633.4</ele>
        <time>2019-12-01T15:05:59Z</time>
      </trkpt>
      <trkpt lat="41.6106980" lon="1.9569950">
        <ele>633.7</ele>
        <time>2019-12-01T15:06:02Z</time>
      </trkpt>
      <trkpt lat="41.6107060" lon="1.9570380">
        <ele>633.8</ele>
        <time>2019-12-01T15:06:03Z</time>
      </trkpt>
      <trkpt lat="41.6107150" lon="1.9570730">
        <ele>633.9</ele>
        <time>2019-12-01T15:06:04Z</time>
      </trkpt>
      <trkpt lat="41.6107250" lon="1.9571110">
        <ele>634.0</ele>
        <time>2019-12-01T15:06:05Z</time>
      </trkpt>
      <trkpt lat="41.6107370" lon="1.9571530">
        <ele>634.0</ele>
        <time>2019-12-01T15:06:07Z</time>
      </trkpt>
      <trkpt lat="41.6107510" lon="1.9571930">
        <ele>634.1</ele>
        <time>2019-12-01T15:06:08Z</time>
      </trkpt>
      <trkpt lat="41.6107590" lon="1.9572330">
        <ele>634.2</ele>
        <time>2019-12-01T15:06:09Z</time>
      </trkpt>
      <trkpt lat="41.6107680" lon="1.9572800">
        <ele>634.2</ele>
        <time>2019-12-01T15:06:10Z</time>
      </trkpt>
      <trkpt lat="41.6107780" lon="1.9573270">
        <ele>634.2</ele>
        <time>2019-12-01T15:06:11Z</time>
      </trkpt>
      <trkpt lat="41.6107910" lon="1.9573660">
        <ele>634.3</ele>
        <time>2019-12-01T15:06:12Z</time>
      </trkpt>
      <trkpt lat="41.6108130" lon="1.9574150">
        <ele>634.3</ele>
        <time>2019-12-01T15:06:14Z</time>
      </trkpt>
      <trkpt lat="41.6108460" lon="1.9574900">
        <ele>634.3</ele>
        <time>2019-12-01T15:06:16Z</time>
      </trkpt>
      <trkpt lat="41.6108560" lon="1.9575240">
        <ele>634.3</ele>
        <time>2019-12-01T15:06:17Z</time>
      </trkpt>
      <trkpt lat="41.6108720" lon="1.9575820">
        <ele>634.4</ele>
        <time>2019-12-01T15:06:20Z</time>
      </trkpt>
      <trkpt lat="41.6108700" lon="1.9576580">
        <ele>634.4</ele>
        <time>2019-12-01T15:06:22Z</time>
      </trkpt>
      <trkpt lat="41.6108530" lon="1.9577160">
        <ele>634.5</ele>
        <time>2019-12-01T15:06:25Z</time>
      </trkpt>
      <trkpt lat="41.6108230" lon="1.9577610">
        <ele>634.6</ele>
        <time>2019-12-01T15:06:27Z</time>
      </trkpt>
      <trkpt lat="41.6107990" lon="1.9577780">
        <ele>634.6</ele>
        <time>2019-12-01T15:06:28Z</time>
      </trkpt>
      <trkpt lat="41.6107650" lon="1.9577950">
        <ele>634.7</ele>
        <time>2019-12-01T15:06:29Z</time>
      </trkpt>
      <trkpt lat="41.6107330" lon="1.9578120">
        <ele>634.9</ele>
        <time>2019-12-01T15:06:30Z</time>
      </trkpt>
      <trkpt lat="41.6106970" lon="1.9578250">
        <ele>635.1</ele>
        <time>2019-12-01T15:06:31Z</time>
      </trkpt>
      <trkpt lat="41.6106510" lon="1.9578350">
        <ele>635.4</ele>
        <time>2019-12-01T15:06:33Z</time>
      </trkpt>
      <trkpt lat="41.6106080" lon="1.9578450">
        <ele>635.7</ele>
        <time>2019-12-01T15:06:34Z</time>
      </trkpt>
      <trkpt lat="41.6105730" lon="1.9578490">
        <ele>635.9</ele>
        <time>2019-12-01T15:06:35Z</time>
      </trkpt>
      <trkpt lat="41.6105440" lon="1.9578420">
        <ele>636.1</ele>
        <time>2019-12-01T15:06:36Z</time>
      </trkpt>
      <trkpt lat="41.6105010" lon="1.9578280">
        <ele>636.4</ele>
        <time>2019-12-01T15:06:39Z</time>
      </trkpt>
      <trkpt lat="41.6104670" lon="1.9578120">
        <ele>636.7</ele>
        <time>2019-12-01T15:06:41Z</time>
      </trkpt>
      <trkpt lat="41.6104260" lon="1.9577860">
        <ele>637.1</ele>
        <time>2019-12-01T15:06:42Z</time>
      </trkpt>
      <trkpt lat="41.6103980" lon="1.9577670">
        <ele>637.4</ele>
        <time>2019-12-01T15:06:43Z</time>
      </trkpt>
      <trkpt lat="41.6103640" lon="1.9577440">
        <ele>637.8</ele>
        <time>2019-12-01T15:06:45Z</time>
      </trkpt>
      <trkpt lat="41.6103130" lon="1.9576970">
        <ele>638.4</ele>
        <time>2019-12-01T15:06:46Z</time>
      </trkpt>
      <trkpt lat="41.6102850" lon="1.9576670">
        <ele>638.8</ele>
        <time>2019-12-01T15:06:47Z</time>
      </trkpt>
      <trkpt lat="41.6102610" lon="1.9576340">
        <ele>639.2</ele>
        <time>2019-12-01T15:06:48Z</time>
      </trkpt>
      <trkpt lat="41.6102390" lon="1.9575990">
        <ele>639.7</ele>
        <time>2019-12-01T15:06:49Z</time>
      </trkpt>
      <trkpt lat="41.6102220" lon="1.9575660">
        <ele>640.0</ele>
        <time>2019-12-01T15:06:50Z</time>
      </trkpt>
      <trkpt lat="41.6102050" lon="1.9575320">
        <ele>640.3</ele>
        <time>2019-12-01T15:06:52Z</time>
      </trkpt>
      <trkpt lat="41.6101830" lon="1.9574950">
        <ele>640.7</ele>
        <time>2019-12-01T15:06:53Z</time>
      </trkpt>
      <trkpt lat="41.6101470" lon="1.9574680">
        <ele>641.1</ele>
        <time>2019-12-01T15:06:55Z</time>
      </trkpt>
      <trkpt lat="41.6101120" lon="1.9574720">
        <ele>641.3</ele>
        <time>2019-12-01T15:06:58Z</time>
      </trkpt>
      <trkpt lat="41.6100760" lon="1.9575180">
        <ele>641.7</ele>
        <time>2019-12-01T15:07:00Z</time>
      </trkpt>
      <trkpt lat="41.6100440" lon="1.9575830">
        <ele>642.1</ele>
        <time>2019-12-01T15:07:03Z</time>
      </trkpt>
      <trkpt lat="41.6100190" lon="1.9576540">
        <ele>642.4</ele>
        <time>2019-12-01T15:07:05Z</time>
      </trkpt>
      <trkpt lat="41.6100060" lon="1.9576910">
        <ele>642.5</ele>
        <time>2019-12-01T15:07:06Z</time>
      </trkpt>
      <trkpt lat="41.6099930" lon="1.9577710">
        <ele>642.8</ele>
        <time>2019-12-01T15:07:07Z</time>
      </trkpt>
      <trkpt lat="41.6099810" lon="1.9578290">
        <ele>643.0</ele>
        <time>2019-12-01T15:07:08Z</time>
      </trkpt>
      <trkpt lat="41.6099670" lon="1.9578830">
        <ele>643.2</ele>
        <time>2019-12-01T15:07:09Z</time>
      </trkpt>
      <trkpt lat="41.6099500" lon="1.9579350">
        <ele>643.4</ele>
        <time>2019-12-01T15:07:11Z</time>
      </trkpt>
      <trkpt lat="41.6099230" lon="1.9580080">
        <ele>643.6</ele>
        <time>2019-12-01T15:07:12Z</time>
      </trkpt>
      <trkpt lat="41.6099040" lon="1.9580500">
        <ele>643.7</ele>
        <time>2019-12-01T15:07:13Z</time>
      </trkpt>
      <trkpt lat="41.6098820" lon="1.9580890">
        <ele>643.8</ele>
        <time>2019-12-01T15:07:14Z</time>
      </trkpt>
      <trkpt lat="41.6098560" lon="1.9581260">
        <ele>643.9</ele>
        <time>2019-12-01T15:07:15Z</time>
      </trkpt>
      <trkpt lat="41.6098300" lon="1.9581560">
        <ele>643.9</ele>
        <time>2019-12-01T15:07:17Z</time>
      </trkpt>
      <trkpt lat="41.6098050" lon="1.9581790">
        <ele>643.9</ele>
        <time>2019-12-01T15:07:18Z</time>
      </trkpt>
      <trkpt lat="41.6097780" lon="1.9582000">
        <ele>643.8</ele>
        <time>2019-12-01T15:07:19Z</time>
      </trkpt>
      <trkpt lat="41.6097370" lon="1.9582300">
        <ele>643.6</ele>
        <time>2019-12-01T15:07:20Z</time>
      </trkpt>
      <trkpt lat="41.6096920" lon="1.9582660">
        <ele>643.4</ele>
        <time>2019-12-01T15:07:22Z</time>
      </trkpt>
      <trkpt lat="41.6096690" lon="1.9582870">
        <ele>643.3</ele>
        <time>2019-12-01T15:07:24Z</time>
      </trkpt>
      <trkpt lat="41.6096280" lon="1.9583270">
        <ele>643.0</ele>
        <time>2019-12-01T15:07:26Z</time>
      </trkpt>
      <trkpt lat="41.6096000" lon="1.9583710">
        <ele>642.8</ele>
        <time>2019-12-01T15:07:28Z</time>
      </trkpt>
      <trkpt lat="41.6095810" lon="1.9584340">
        <ele>642.4</ele>
        <time>2019-12-01T15:07:30Z</time>
      </trkpt>
      <trkpt lat="41.6095730" lon="1.9585010">
        <ele>642.0</ele>
        <time>2019-12-01T15:07:33Z</time>
      </trkpt>
      <trkpt lat="41.6095700" lon="1.9585390">
        <ele>641.7</ele>
        <time>2019-12-01T15:07:34Z</time>
      </trkpt>
      <trkpt lat="41.6095700" lon="1.9585800">
        <ele>641.4</ele>
        <time>2019-12-01T15:07:35Z</time>
      </trkpt>
      <trkpt lat="41.6095750" lon="1.9586180">
        <ele>641.1</ele>
        <time>2019-12-01T15:07:36Z</time>
      </trkpt>
      <trkpt lat="41.6095970" lon="1.9587090">
        <ele>640.5</ele>
        <time>2019-12-01T15:07:39Z</time>
      </trkpt>
      <trkpt lat="41.6096050" lon="1.9587440">
        <ele>640.1</ele>
        <time>2019-12-01T15:07:40Z</time>
      </trkpt>
      <trkpt lat="41.6096130" lon="1.9587820">
        <ele>639.7</ele>
        <time>2019-12-01T15:07:41Z</time>
      </trkpt>
      <trkpt lat="41.6096240" lon="1.9588480">
        <ele>638.9</ele>
        <time>2019-12-01T15:07:43Z</time>
      </trkpt>
      <trkpt lat="41.6096320" lon="1.9588870">
        <ele>638.4</ele>
        <time>2019-12-01T15:07:44Z</time>
      </trkpt>
      <trkpt lat="41.6096450" lon="1.9589340">
        <ele>637.9</ele>
        <time>2019-12-01T15:07:45Z</time>
      </trkpt>
      <trkpt lat="41.6096540" lon="1.9589790">
        <ele>637.4</ele>
        <time>2019-12-01T15:07:46Z</time>
      </trkpt>
      <trkpt lat="41.6096650" lon="1.9590520">
        <ele>636.3</ele>
        <time>2019-12-01T15:07:48Z</time>
      </trkpt>
      <trkpt lat="41.6096710" lon="1.9591140">
        <ele>635.1</ele>
        <time>2019-12-01T15:07:49Z</time>
      </trkpt>
      <trkpt lat="41.6096660" lon="1.9591600">
        <ele>634.3</ele>
        <time>2019-12-01T15:07:51Z</time>
      </trkpt>
      <trkpt lat="41.6096590" lon="1.9591980">
        <ele>633.7</ele>
        <time>2019-12-01T15:07:52Z</time>
      </trkpt>
      <trkpt lat="41.6096450" lon="1.9592540">
        <ele>632.7</ele>
        <time>2019-12-01T15:07:54Z</time>
      </trkpt>
      <trkpt lat="41.6096470" lon="1.9592970">
        <ele>632.2</ele>
        <time>2019-12-01T15:07:55Z</time>
      </trkpt>
      <trkpt lat="41.6096600" lon="1.9593660">
        <ele>631.2</ele>
        <time>2019-12-01T15:07:58Z</time>
      </trkpt>
      <trkpt lat="41.6096800" lon="1.9594260">
        <ele>630.3</ele>
        <time>2019-12-01T15:08:01Z</time>
      </trkpt>
      <trkpt lat="41.6097150" lon="1.9594490">
        <ele>629.3</ele>
        <time>2019-12-01T15:08:08Z</time>
      </trkpt>
      <trkpt lat="41.6097450" lon="1.9594740">
        <ele>628.5</ele>
        <time>2019-12-01T15:08:11Z</time>
      </trkpt>
      <trkpt lat="41.6097690" lon="1.9594980">
        <ele>627.6</ele>
        <time>2019-12-01T15:08:13Z</time>
      </trkpt>
      <trkpt lat="41.6098020" lon="1.9595280">
        <ele>626.5</ele>
        <time>2019-12-01T15:08:14Z</time>
      </trkpt>
      <trkpt lat="41.6098250" lon="1.9595500">
        <ele>626.0</ele>
        <time>2019-12-01T15:08:15Z</time>
      </trkpt>
      <trkpt lat="41.6098510" lon="1.9595740">
        <ele>625.4</ele>
        <time>2019-12-01T15:08:16Z</time>
      </trkpt>
      <trkpt lat="41.6098750" lon="1.9595990">
        <ele>624.8</ele>
        <time>2019-12-01T15:08:17Z</time>
      </trkpt>
      <trkpt lat="41.6099180" lon="1.9596490">
        <ele>623.5</ele>
        <time>2019-12-01T15:08:19Z</time>
      </trkpt>
      <trkpt lat="41.6099450" lon="1.9596830">
        <ele>622.5</ele>
        <time>2019-12-01T15:08:20Z</time>
      </trkpt>
      <trkpt lat="41.6099710" lon="1.9597140">
        <ele>621.7</ele>
        <time>2019-12-01T15:08:21Z</time>
      </trkpt>
      <trkpt lat="41.6099980" lon="1.9597440">
        <ele>621.0</ele>
        <time>2019-12-01T15:08:22Z</time>
      </trkpt>
      <trkpt lat="41.6100290" lon="1.9597840">
        <ele>620.1</ele>
        <time>2019-12-01T15:08:24Z</time>
      </trkpt>
      <trkpt lat="41.6100660" lon="1.9598310">
        <ele>618.8</ele>
        <time>2019-12-01T15:08:26Z</time>
      </trkpt>
      <trkpt lat="41.6100940" lon="1.9598640">
        <ele>617.9</ele>
        <time>2019-12-01T15:08:27Z</time>
      </trkpt>
      <trkpt lat="41.6101190" lon="1.9598920">
        <ele>617.1</ele>
        <time>2019-12-01T15:08:29Z</time>
      </trkpt>
      <trkpt lat="41.6101440" lon="1.9599190">
        <ele>616.3</ele>
        <time>2019-12-01T15:08:30Z</time>
      </trkpt>
      <trkpt lat="41.6101700" lon="1.9599440">
        <ele>615.5</ele>
        <time>2019-12-01T15:08:31Z</time>
      </trkpt>
      <trkpt lat="41.6101950" lon="1.9599680">
        <ele>614.7</ele>
        <time>2019-12-01T15:08:32Z</time>
      </trkpt>
      <trkpt lat="41.6102190" lon="1.9599920">
        <ele>613.9</ele>
        <time>2019-12-01T15:08:33Z</time>
      </trkpt>
      <trkpt lat="41.6102580" lon="1.9600390">
        <ele>612.5</ele>
        <time>2019-12-01T15:08:36Z</time>
      </trkpt>
      <trkpt lat="41.6102880" lon="1.9600840">
        <ele>611.5</ele>
        <time>2019-12-01T15:08:37Z</time>
      </trkpt>
      <trkpt lat="41.6103070" lon="1.9601200">
        <ele>610.8</ele>
        <time>2019-12-01T15:08:38Z</time>
      </trkpt>
      <trkpt lat="41.6103220" lon="1.9601570">
        <ele>610.2</ele>
        <time>2019-12-01T15:08:39Z</time>
      </trkpt>
      <trkpt lat="41.6103370" lon="1.9601880">
        <ele>609.6</ele>
        <time>2019-12-01T15:08:40Z</time>
      </trkpt>
      <trkpt lat="41.6103530" lon="1.9602190">
        <ele>609.0</ele>
        <time>2019-12-01T15:08:42Z</time>
      </trkpt>
      <trkpt lat="41.6103680" lon="1.9602480">
        <ele>608.5</ele>
        <time>2019-12-01T15:08:43Z</time>
      </trkpt>
      <trkpt lat="41.6104100" lon="1.9603120">
        <ele>607.2</ele>
        <time>2019-12-01T15:08:45Z</time>
      </trkpt>
      <trkpt lat="41.6104450" lon="1.9603460">
        <ele>606.3</ele>
        <time>2019-12-01T15:08:48Z</time>
      </trkpt>
      <trkpt lat="41.6104820" lon="1.9603680">
        <ele>605.4</ele>
        <time>2019-12-01T15:08:50Z</time>
      </trkpt>
      <trkpt lat="41.6105240" lon="1.9603840">
        <ele>604.6</ele>
        <time>2019-12-01T15:08:52Z</time>
      </trkpt>
      <trkpt lat="41.6105710" lon="1.9603950">
        <ele>603.6</ele>
        <time>2019-12-01T15:08:54Z</time>
      </trkpt>
      <trkpt lat="41.6106210" lon="1.9604120">
        <ele>602.6</ele>
        <time>2019-12-01T15:08:56Z</time>
      </trkpt>
      <trkpt lat="41.6106480" lon="1.9604200">
        <ele>602.0</ele>
        <time>2019-12-01T15:08:58Z</time>
      </trkpt>
      <trkpt lat="41.6106760" lon="1.9604300">
        <ele>601.4</ele>
        <time>2019-12-01T15:08:59Z</time>
      </trkpt>
      <trkpt lat="41.6107060" lon="1.9604450">
        <ele>600.7</ele>
        <time>2019-12-01T15:09:00Z</time>
      </trkpt>
      <trkpt lat="41.6107470" lon="1.9604670">
        <ele>599.8</ele>
        <time>2019-12-01T15:09:02Z</time>
      </trkpt>
      <trkpt lat="41.6107770" lon="1.9604870">
        <ele>599.2</ele>
        <time>2019-12-01T15:09:03Z</time>
      </trkpt>
      <trkpt lat="41.6108060" lon="1.9605080">
        <ele>598.5</ele>
        <time>2019-12-01T15:09:04Z</time>
      </trkpt>
      <trkpt lat="41.6108300" lon="1.9605280">
        <ele>597.8</ele>
        <time>2019-12-01T15:09:05Z</time>
      </trkpt>
      <trkpt lat="41.6108550" lon="1.9605510">
        <ele>597.2</ele>
        <time>2019-12-01T15:09:06Z</time>
      </trkpt>
      <trkpt lat="41.6108860" lon="1.9605850">
        <ele>596.3</ele>
        <time>2019-12-01T15:09:08Z</time>
      </trkpt>
      <trkpt lat="41.6109080" lon="1.9606170">
        <ele>595.5</ele>
        <time>2019-12-01T15:09:09Z</time>
      </trkpt>
      <trkpt lat="41.6110540" lon="1.9607550">
        <ele>591.6</ele>
        <time>2019-12-01T15:09:33Z</time>
      </trkpt>
      <trkpt lat="41.6110650" lon="1.9607950">
        <ele>590.9</ele>
        <time>2019-12-01T15:09:34Z</time>
      </trkpt>
      <trkpt lat="41.6110730" lon="1.9608430">
        <ele>590.2</ele>
        <time>2019-12-01T15:09:35Z</time>
      </trkpt>
      <trkpt lat="41.6110850" lon="1.9608810">
        <ele>590.4</ele>
        <time>2019-12-01T15:09:36Z</time>
      </trkpt>
      <trkpt lat="41.6111030" lon="1.9609130">
        <ele>590.6</ele>
        <time>2019-12-01T15:09:37Z</time>
      </trkpt>
      <trkpt lat="41.6111380" lon="1.9609470">
        <ele>590.9</ele>
        <time>2019-12-01T15:09:39Z</time>
      </trkpt>
      <trkpt lat="41.6111730" lon="1.9609610">
        <ele>591.1</ele>
        <time>2019-12-01T15:09:41Z</time>
      </trkpt>
      <trkpt lat="41.6112110" lon="1.9609550">
        <ele>591.3</ele>
        <time>2019-12-01T15:09:44Z</time>
      </trkpt>
      <trkpt lat="41.6112720" lon="1.9609210">
        <ele>591.6</ele>
        <time>2019-12-01T15:09:46Z</time>
      </trkpt>
      <trkpt lat="41.6113130" lon="1.9608850">
        <ele>591.7</ele>
        <time>2019-12-01T15:09:48Z</time>
      </trkpt>
      <trkpt lat="41.6113560" lon="1.9608550">
        <ele>591.8</ele>
        <time>2019-12-01T15:09:51Z</time>
      </trkpt>
      <trkpt lat="41.6113990" lon="1.9608400">
        <ele>591.9</ele>
        <time>2019-12-01T15:09:53Z</time>
      </trkpt>
      <trkpt lat="41.6114390" lon="1.9608540">
        <ele>591.9</ele>
        <time>2019-12-01T15:09:55Z</time>
      </trkpt>
      <trkpt lat="41.6115000" lon="1.9608690">
        <ele>591.8</ele>
        <time>2019-12-01T15:09:58Z</time>
      </trkpt>
      <trkpt lat="41.6115380" lon="1.9608960">
        <ele>591.7</ele>
        <time>2019-12-01T15:09:59Z</time>
      </trkpt>
      <trkpt lat="41.6115640" lon="1.9609060">
        <ele>591.6</ele>
        <time>2019-12-01T15:10:01Z</time>
      </trkpt>
      <trkpt lat="41.6116200" lon="1.9609260">
        <ele>591.4</ele>
        <time>2019-12-01T15:10:03Z</time>
      </trkpt>
      <trkpt lat="41.6116660" lon="1.9609350">
        <ele>591.2</ele>
        <time>2019-12-01T15:10:05Z</time>
      </trkpt>
      <trkpt lat="41.6117170" lon="1.9609270">
        <ele>591.0</ele>
        <time>2019-12-01T15:10:08Z</time>
      </trkpt>
      <trkpt lat="41.6117480" lon="1.9609220">
        <ele>590.8</ele>
        <time>2019-12-01T15:10:09Z</time>
      </trkpt>
      <trkpt lat="41.6117960" lon="1.9609210">
        <ele>590.6</ele>
        <time>2019-12-01T15:10:12Z</time>
      </trkpt>
      <trkpt lat="41.6118570" lon="1.9609090">
        <ele>590.3</ele>
        <time>2019-12-01T15:10:14Z</time>
      </trkpt>
      <trkpt lat="41.6119060" lon="1.9609020">
        <ele>589.9</ele>
        <time>2019-12-01T15:10:16Z</time>
      </trkpt>
      <trkpt lat="41.6119530" lon="1.9609050">
        <ele>589.6</ele>
        <time>2019-12-01T15:10:19Z</time>
      </trkpt>
      <trkpt lat="41.6120040" lon="1.9609190">
        <ele>589.3</ele>
        <time>2019-12-01T15:10:21Z</time>
      </trkpt>
      <trkpt lat="41.6120310" lon="1.9609290">
        <ele>589.1</ele>
        <time>2019-12-01T15:10:22Z</time>
      </trkpt>
      <trkpt lat="41.6120600" lon="1.9609420">
        <ele>588.9</ele>
        <time>2019-12-01T15:10:23Z</time>
      </trkpt>
      <trkpt lat="41.6120900" lon="1.9609590">
        <ele>588.6</ele>
        <time>2019-12-01T15:10:24Z</time>
      </trkpt>
      <trkpt lat="41.6121170" lon="1.9609770">
        <ele>588.4</ele>
        <time>2019-12-01T15:10:26Z</time>
      </trkpt>
      <trkpt lat="41.6121490" lon="1.9610060">
        <ele>588.1</ele>
        <time>2019-12-01T15:10:27Z</time>
      </trkpt>
      <trkpt lat="41.6121820" lon="1.9610470">
        <ele>587.7</ele>
        <time>2019-12-01T15:10:28Z</time>
      </trkpt>
      <trkpt lat="41.6122080" lon="1.9610820">
        <ele>587.5</ele>
        <time>2019-12-01T15:10:29Z</time>
      </trkpt>
      <trkpt lat="41.6122310" lon="1.9611140">
        <ele>587.2</ele>
        <time>2019-12-01T15:10:30Z</time>
      </trkpt>
      <trkpt lat="41.6122500" lon="1.9611520">
        <ele>587.0</ele>
        <time>2019-12-01T15:10:31Z</time>
      </trkpt>
      <trkpt lat="41.6122680" lon="1.9611910">
        <ele>586.8</ele>
        <time>2019-12-01T15:10:32Z</time>
      </trkpt>
      <trkpt lat="41.6122830" lon="1.9612310">
        <ele>586.5</ele>
        <time>2019-12-01T15:10:34Z</time>
      </trkpt>
      <trkpt lat="41.6122990" lon="1.9612740">
        <ele>586.3</ele>
        <time>2019-12-01T15:10:35Z</time>
      </trkpt>
      <trkpt lat="41.6123200" lon="1.9613390">
        <ele>585.9</ele>
        <time>2019-12-01T15:10:36Z</time>
      </trkpt>
      <trkpt lat="41.6123320" lon="1.9613750">
        <ele>585.7</ele>
        <time>2019-12-01T15:10:37Z</time>
      </trkpt>
      <trkpt lat="41.6123450" lon="1.9614180">
        <ele>585.4</ele>
        <time>2019-12-01T15:10:39Z</time>
      </trkpt>
      <trkpt lat="41.6123580" lon="1.9614600">
        <ele>585.2</ele>
        <time>2019-12-01T15:10:40Z</time>
      </trkpt>
      <trkpt lat="41.6123750" lon="1.9615210">
        <ele>584.8</ele>
        <time>2019-12-01T15:10:41Z</time>
      </trkpt>
      <trkpt lat="41.6123830" lon="1.9615600">
        <ele>584.6</ele>
        <time>2019-12-01T15:10:42Z</time>
      </trkpt>
      <trkpt lat="41.6123900" lon="1.9615960">
        <ele>584.4</ele>
        <time>2019-12-01T15:10:44Z</time>
      </trkpt>
      <trkpt lat="41.6123870" lon="1.9616770">
        <ele>583.9</ele>
        <time>2019-12-01T15:10:46Z</time>
      </trkpt>
      <trkpt lat="41.6123700" lon="1.9617350">
        <ele>583.6</ele>
        <time>2019-12-01T15:10:49Z</time>
      </trkpt>
      <trkpt lat="41.6123560" lon="1.9617680">
        <ele>583.3</ele>
        <time>2019-12-01T15:10:50Z</time>
      </trkpt>
      <trkpt lat="41.6123410" lon="1.9618040">
        <ele>583.1</ele>
        <time>2019-12-01T15:10:51Z</time>
      </trkpt>
      <trkpt lat="41.6123300" lon="1.9618400">
        <ele>582.8</ele>
        <time>2019-12-01T15:10:52Z</time>
      </trkpt>
      <trkpt lat="41.6123130" lon="1.9618890">
        <ele>582.5</ele>
        <time>2019-12-01T15:10:53Z</time>
      </trkpt>
      <trkpt lat="41.6122810" lon="1.9619530">
        <ele>582.0</ele>
        <time>2019-12-01T15:10:56Z</time>
      </trkpt>
      <trkpt lat="41.6122340" lon="1.9619930">
        <ele>581.6</ele>
        <time>2019-12-01T15:10:59Z</time>
      </trkpt>
      <trkpt lat="41.6121950" lon="1.9620010">
        <ele>581.3</ele>
        <time>2019-12-01T15:11:01Z</time>
      </trkpt>
      <trkpt lat="41.6121530" lon="1.9620000">
        <ele>581.0</ele>
        <time>2019-12-01T15:11:03Z</time>
      </trkpt>
      <trkpt lat="41.6121060" lon="1.9619780">
        <ele>580.5</ele>
        <time>2019-12-01T15:11:05Z</time>
      </trkpt>
      <trkpt lat="41.6120570" lon="1.9619650">
        <ele>580.1</ele>
        <time>2019-12-01T15:11:07Z</time>
      </trkpt>
      <trkpt lat="41.6120270" lon="1.9619630">
        <ele>579.8</ele>
        <time>2019-12-01T15:11:09Z</time>
      </trkpt>
      <trkpt lat="41.6120000" lon="1.9619570">
        <ele>579.5</ele>
        <time>2019-12-01T15:11:10Z</time>
      </trkpt>
      <trkpt lat="41.6119350" lon="1.9619310">
        <ele>578.8</ele>
        <time>2019-12-01T15:11:12Z</time>
      </trkpt>
      <trkpt lat="41.6118830" lon="1.9619020">
        <ele>578.3</ele>
        <time>2019-12-01T15:11:15Z</time>
      </trkpt>
      <trkpt lat="41.6118370" lon="1.9618840">
        <ele>577.8</ele>
        <time>2019-12-01T15:11:17Z</time>
      </trkpt>
      <trkpt lat="41.6117990" lon="1.9618870">
        <ele>577.4</ele>
        <time>2019-12-01T15:11:19Z</time>
      </trkpt>
      <trkpt lat="41.6117570" lon="1.9618930">
        <ele>577.0</ele>
        <time>2019-12-01T15:11:22Z</time>
      </trkpt>
      <trkpt lat="41.6117160" lon="1.9619180">
        <ele>576.5</ele>
        <time>2019-12-01T15:11:24Z</time>
      </trkpt>
      <trkpt lat="41.6116760" lon="1.9619610">
        <ele>576.0</ele>
        <time>2019-12-01T15:11:26Z</time>
      </trkpt>
      <trkpt lat="41.6116410" lon="1.9620280">
        <ele>575.5</ele>
        <time>2019-12-01T15:11:29Z</time>
      </trkpt>
      <trkpt lat="41.6116340" lon="1.9620830">
        <ele>575.1</ele>
        <time>2019-12-01T15:11:30Z</time>
      </trkpt>
      <trkpt lat="41.6116300" lon="1.9621440">
        <ele>574.7</ele>
        <time>2019-12-01T15:11:31Z</time>
      </trkpt>
      <trkpt lat="41.6116340" lon="1.9622000">
        <ele>574.3</ele>
        <time>2019-12-01T15:11:32Z</time>
      </trkpt>
      <trkpt lat="41.6116430" lon="1.9622520">
        <ele>573.9</ele>
        <time>2019-12-01T15:11:33Z</time>
      </trkpt>
      <trkpt lat="41.6116530" lon="1.9623050">
        <ele>573.6</ele>
        <time>2019-12-01T15:11:34Z</time>
      </trkpt>
      <trkpt lat="41.6116660" lon="1.9623550">
        <ele>573.3</ele>
        <time>2019-12-01T15:11:36Z</time>
      </trkpt>
      <trkpt lat="41.6116810" lon="1.9624000">
        <ele>573.0</ele>
        <time>2019-12-01T15:11:37Z</time>
      </trkpt>
      <trkpt lat="41.6116990" lon="1.9624460">
        <ele>572.7</ele>
        <time>2019-12-01T15:11:38Z</time>
      </trkpt>
      <trkpt lat="41.6117230" lon="1.9624990">
        <ele>572.3</ele>
        <time>2019-12-01T15:11:39Z</time>
      </trkpt>
      <trkpt lat="41.6117440" lon="1.9625510">
        <ele>572.0</ele>
        <time>2019-12-01T15:11:42Z</time>
      </trkpt>
      <trkpt lat="41.6117550" lon="1.9625990">
        <ele>571.7</ele>
        <time>2019-12-01T15:11:44Z</time>
      </trkpt>
      <trkpt lat="41.6117650" lon="1.9626450">
        <ele>571.5</ele>
        <time>2019-12-01T15:11:45Z</time>
      </trkpt>
      <trkpt lat="41.6117720" lon="1.9626820">
        <ele>571.3</ele>
        <time>2019-12-01T15:11:46Z</time>
      </trkpt>
      <trkpt lat="41.6117770" lon="1.9627210">
        <ele>571.0</ele>
        <time>2019-12-01T15:11:48Z</time>
      </trkpt>
      <trkpt lat="41.6117780" lon="1.9627620">
        <ele>570.8</ele>
        <time>2019-12-01T15:11:49Z</time>
      </trkpt>
      <trkpt lat="41.6117750" lon="1.9628080">
        <ele>570.5</ele>
        <time>2019-12-01T15:11:50Z</time>
      </trkpt>
      <trkpt lat="41.6117660" lon="1.9628610">
        <ele>570.2</ele>
        <time>2019-12-01T15:11:51Z</time>
      </trkpt>
      <trkpt lat="41.6117570" lon="1.9629040">
        <ele>569.9</ele>
        <time>2019-12-01T15:11:52Z</time>
      </trkpt>
      <trkpt lat="41.6117430" lon="1.9629650">
        <ele>569.4</ele>
        <time>2019-12-01T15:11:54Z</time>
      </trkpt>
      <trkpt lat="41.6117300" lon="1.9630070">
        <ele>569.1</ele>
        <time>2019-12-01T15:11:55Z</time>
      </trkpt>
      <trkpt lat="41.6117190" lon="1.9630460">
        <ele>568.8</ele>
        <time>2019-12-01T15:11:56Z</time>
      </trkpt>
      <trkpt lat="41.6117120" lon="1.9630990">
        <ele>568.4</ele>
        <time>2019-12-01T15:11:58Z</time>
      </trkpt>
      <trkpt lat="41.6117190" lon="1.9631690">
        <ele>567.9</ele>
        <time>2019-12-01T15:12:00Z</time>
      </trkpt>
      <trkpt lat="41.6117400" lon="1.9632300">
        <ele>567.5</ele>
        <time>2019-12-01T15:12:02Z</time>
      </trkpt>
      <trkpt lat="41.6117490" lon="1.9632660">
        <ele>567.3</ele>
        <time>2019-12-01T15:12:03Z</time>
      </trkpt>
      <trkpt lat="41.6117590" lon="1.9633200">
        <ele>566.8</ele>
        <time>2019-12-01T15:12:05Z</time>
      </trkpt>
      <trkpt lat="41.6117740" lon="1.9633720">
        <ele>566.4</ele>
        <time>2019-12-01T15:12:06Z</time>
      </trkpt>
      <trkpt lat="41.6117850" lon="1.9634070">
        <ele>566.1</ele>
        <time>2019-12-01T15:12:07Z</time>
      </trkpt>
      <trkpt lat="41.6117970" lon="1.9634430">
        <ele>565.8</ele>
        <time>2019-12-01T15:12:09Z</time>
      </trkpt>
      <trkpt lat="41.6118070" lon="1.9634800">
        <ele>565.5</ele>
        <time>2019-12-01T15:12:10Z</time>
      </trkpt>
      <trkpt lat="41.6118200" lon="1.9635340">
        <ele>565.0</ele>
        <time>2019-12-01T15:12:11Z</time>
      </trkpt>
      <trkpt lat="41.6118290" lon="1.9635700">
        <ele>564.7</ele>
        <time>2019-12-01T15:12:12Z</time>
      </trkpt>
      <trkpt lat="41.6118340" lon="1.9636060">
        <ele>564.4</ele>
        <time>2019-12-01T15:12:13Z</time>
      </trkpt>
      <trkpt lat="41.6118310" lon="1.9636730">
        <ele>563.9</ele>
        <time>2019-12-01T15:12:16Z</time>
      </trkpt>
      <trkpt lat="41.6118090" lon="1.9637380">
        <ele>563.3</ele>
        <time>2019-12-01T15:12:18Z</time>
      </trkpt>
      <trkpt lat="41.6117860" lon="1.9637820">
        <ele>562.9</ele>
        <time>2019-12-01T15:12:20Z</time>
      </trkpt>
      <trkpt lat="41.6117640" lon="1.9638090">
        <ele>562.6</ele>
        <time>2019-12-01T15:12:21Z</time>
      </trkpt>
      <trkpt lat="41.6117410" lon="1.9638320">
        <ele>562.3</ele>
        <time>2019-12-01T15:12:22Z</time>
      </trkpt>
      <trkpt lat="41.6117160" lon="1.9638490">
        <ele>562.0</ele>
        <time>2019-12-01T15:12:23Z</time>
      </trkpt>
      <trkpt lat="41.6116720" lon="1.9638730">
        <ele>561.5</ele>
        <time>2019-12-01T15:12:25Z</time>
      </trkpt>
      <trkpt lat="41.6116230" lon="1.9638850">
        <ele>561.1</ele>
        <time>2019-12-01T15:12:28Z</time>
      </trkpt>
      <trkpt lat="41.6115580" lon="1.9639060">
        <ele>560.4</ele>
        <time>2019-12-01T15:12:30Z</time>
      </trkpt>
      <trkpt lat="41.6115270" lon="1.9639160">
        <ele>560.1</ele>
        <time>2019-12-01T15:12:31Z</time>
      </trkpt>
      <trkpt lat="41.6114950" lon="1.9639280">
        <ele>559.8</ele>
        <time>2019-12-01T15:12:32Z</time>
      </trkpt>
      <trkpt lat="41.6114600" lon="1.9639390">
        <ele>559.5</ele>
        <time>2019-12-01T15:12:34Z</time>
      </trkpt>
      <trkpt lat="41.6114280" lon="1.9639490">
        <ele>559.2</ele>
        <time>2019-12-01T15:12:35Z</time>
      </trkpt>
      <trkpt lat="41.6113920" lon="1.9639630">
        <ele>558.9</ele>
        <time>2019-12-01T15:12:36Z</time>
      </trkpt>
      <trkpt lat="41.6113550" lon="1.9639780">
        <ele>558.6</ele>
        <time>2019-12-01T15:12:37Z</time>
      </trkpt>
      <trkpt lat="41.6113260" lon="1.9639890">
        <ele>558.4</ele>
        <time>2019-12-01T15:12:38Z</time>
      </trkpt>
      <trkpt lat="41.6112740" lon="1.9640000">
        <ele>558.0</ele>
        <time>2019-12-01T15:12:41Z</time>
      </trkpt>
      <trkpt lat="41.6112430" lon="1.9640000">
        <ele>557.7</ele>
        <time>2019-12-01T15:12:42Z</time>
      </trkpt>
      <trkpt lat="41.6111870" lon="1.9639970">
        <ele>557.3</ele>
        <time>2019-12-01T15:12:44Z</time>
      </trkpt>
      <trkpt lat="41.6111540" lon="1.9639840">
        <ele>557.0</ele>
        <time>2019-12-01T15:12:45Z</time>
      </trkpt>
      <trkpt lat="41.6111200" lon="1.9639630">
        <ele>556.7</ele>
        <time>2019-12-01T15:12:46Z</time>
      </trkpt>
      <trkpt lat="41.6110790" lon="1.9639310">
        <ele>556.2</ele>
        <time>2019-12-01T15:12:47Z</time>
      </trkpt>
      <trkpt lat="41.6110450" lon="1.9639040">
        <ele>555.9</ele>
        <time>2019-12-01T15:12:49Z</time>
      </trkpt>
      <trkpt lat="41.6110160" lon="1.9638810">
        <ele>555.6</ele>
        <time>2019-12-01T15:12:50Z</time>
      </trkpt>
      <trkpt lat="41.6109800" lon="1.9638490">
        <ele>555.1</ele>
        <time>2019-12-01T15:12:51Z</time>
      </trkpt>
      <trkpt lat="41.6109570" lon="1.9638250">
        <ele>554.8</ele>
        <time>2019-12-01T15:12:52Z</time>
      </trkpt>
      <trkpt lat="41.6109330" lon="1.9637960">
        <ele>554.5</ele>
        <time>2019-12-01T15:12:53Z</time>
      </trkpt>
      <trkpt lat="41.6109100" lon="1.9637650">
        <ele>554.1</ele>
        <time>2019-12-01T15:12:55Z</time>
      </trkpt>
      <trkpt lat="41.6108900" lon="1.9637350">
        <ele>553.7</ele>
        <time>2019-12-01T15:12:56Z</time>
      </trkpt>
      <trkpt lat="41.6108590" lon="1.9636890">
        <ele>553.1</ele>
        <time>2019-12-01T15:12:57Z</time>
      </trkpt>
      <trkpt lat="41.6108230" lon="1.9636470">
        <ele>552.4</ele>
        <time>2019-12-01T15:12:59Z</time>
      </trkpt>
      <trkpt lat="41.6107790" lon="1.9636020">
        <ele>551.5</ele>
        <time>2019-12-01T15:13:02Z</time>
      </trkpt>
      <trkpt lat="41.6107390" lon="1.9636060">
        <ele>550.9</ele>
        <time>2019-12-01T15:13:04Z</time>
      </trkpt>
      <trkpt lat="41.6107130" lon="1.9636390">
        <ele>550.4</ele>
        <time>2019-12-01T15:13:06Z</time>
      </trkpt>
      <trkpt lat="41.6106790" lon="1.9637150">
        <ele>549.5</ele>
        <time>2019-12-01T15:13:09Z</time>
      </trkpt>
      <trkpt lat="41.6106680" lon="1.9637720">
        <ele>548.9</ele>
        <time>2019-12-01T15:13:10Z</time>
      </trkpt>
      <trkpt lat="41.6106530" lon="1.9638440">
        <ele>548.1</ele>
        <time>2019-12-01T15:13:11Z</time>
      </trkpt>
      <trkpt lat="41.6106430" lon="1.9639020">
        <ele>547.4</ele>
        <time>2019-12-01T15:13:12Z</time>
      </trkpt>
      <trkpt lat="41.6106320" lon="1.9639670">
        <ele>546.6</ele>
        <time>2019-12-01T15:13:13Z</time>
      </trkpt>
      <trkpt lat="41.6106220" lon="1.9640390">
        <ele>545.9</ele>
        <time>2019-12-01T15:13:15Z</time>
      </trkpt>
      <trkpt lat="41.6106130" lon="1.9641060">
        <ele>545.3</ele>
        <time>2019-12-01T15:13:16Z</time>
      </trkpt>
      <trkpt lat="41.6106060" lon="1.9641670">
        <ele>544.8</ele>
        <time>2019-12-01T15:13:17Z</time>
      </trkpt>
      <trkpt lat="41.6105920" lon="1.9642400">
        <ele>544.3</ele>
        <time>2019-12-01T15:13:18Z</time>
      </trkpt>
      <trkpt lat="41.6105820" lon="1.9642880">
        <ele>544.0</ele>
        <time>2019-12-01T15:13:19Z</time>
      </trkpt>
      <trkpt lat="41.6105730" lon="1.9643340">
        <ele>543.7</ele>
        <time>2019-12-01T15:13:21Z</time>
      </trkpt>
      <trkpt lat="41.6105640" lon="1.9643690">
        <ele>543.4</ele>
        <time>2019-12-01T15:13:22Z</time>
      </trkpt>
      <trkpt lat="41.6105500" lon="1.9644220">
        <ele>543.1</ele>
        <time>2019-12-01T15:13:23Z</time>
      </trkpt>
      <trkpt lat="41.6105370" lon="1.9644880">
        <ele>542.7</ele>
        <time>2019-12-01T15:13:25Z</time>
      </trkpt>
      <trkpt lat="41.6105260" lon="1.9645520">
        <ele>542.3</ele>
        <time>2019-12-01T15:13:28Z</time>
      </trkpt>
      <trkpt lat="41.6105140" lon="1.9645970">
        <ele>542.0</ele>
        <time>2019-12-01T15:13:29Z</time>
      </trkpt>
      <trkpt lat="41.6104980" lon="1.9646540">
        <ele>541.6</ele>
        <time>2019-12-01T15:13:31Z</time>
      </trkpt>
      <trkpt lat="41.6104920" lon="1.9647080">
        <ele>541.3</ele>
        <time>2019-12-01T15:13:34Z</time>
      </trkpt>
      <trkpt lat="41.6104780" lon="1.9647470">
        <ele>541.1</ele>
        <time>2019-12-01T15:13:35Z</time>
      </trkpt>
      <trkpt lat="41.6104550" lon="1.9647920">
        <ele>540.8</ele>
        <time>2019-12-01T15:13:37Z</time>
      </trkpt>
      <trkpt lat="41.6104270" lon="1.9648120">
        <ele>540.6</ele>
        <time>2019-12-01T15:13:40Z</time>
      </trkpt>
      <trkpt lat="41.6103800" lon="1.9648010">
        <ele>540.2</ele>
        <time>2019-12-01T15:13:42Z</time>
      </trkpt>
      <trkpt lat="41.6103320" lon="1.9647630">
        <ele>539.8</ele>
        <time>2019-12-01T15:13:45Z</time>
      </trkpt>
      <trkpt lat="41.6103010" lon="1.9647340">
        <ele>539.5</ele>
        <time>2019-12-01T15:13:46Z</time>
      </trkpt>
      <trkpt lat="41.6102740" lon="1.9647120">
        <ele>539.3</ele>
        <time>2019-12-01T15:13:47Z</time>
      </trkpt>
      <trkpt lat="41.6102480" lon="1.9646870">
        <ele>539.1</ele>
        <time>2019-12-01T15:13:48Z</time>
      </trkpt>
      <trkpt lat="41.6102230" lon="1.9646600">
        <ele>538.9</ele>
        <time>2019-12-01T15:13:49Z</time>
      </trkpt>
      <trkpt lat="41.6102000" lon="1.9646350">
        <ele>538.7</ele>
        <time>2019-12-01T15:13:50Z</time>
      </trkpt>
      <trkpt lat="41.6101490" lon="1.9645970">
        <ele>538.3</ele>
        <time>2019-12-01T15:13:53Z</time>
      </trkpt>
      <trkpt lat="41.6101210" lon="1.9645820">
        <ele>538.1</ele>
        <time>2019-12-01T15:13:54Z</time>
      </trkpt>
      <trkpt lat="41.6100900" lon="1.9645650">
        <ele>537.8</ele>
        <time>2019-12-01T15:13:55Z</time>
      </trkpt>
      <trkpt lat="41.6100460" lon="1.9645480">
        <ele>537.4</ele>
        <time>2019-12-01T15:13:56Z</time>
      </trkpt>
      <trkpt lat="41.6100150" lon="1.9645380">
        <ele>537.1</ele>
        <time>2019-12-01T15:13:57Z</time>
      </trkpt>
      <trkpt lat="41.6099840" lon="1.9645290">
        <ele>536.8</ele>
        <time>2019-12-01T15:13:59Z</time>
      </trkpt>
      <trkpt lat="41.6099200" lon="1.9645150">
        <ele>536.1</ele>
        <time>2019-12-01T15:14:01Z</time>
      </trkpt>
      <trkpt lat="41.6098670" lon="1.9645060">
        <ele>535.5</ele>
        <time>2019-12-01T15:14:04Z</time>
      </trkpt>
      <trkpt lat="41.6098070" lon="1.9644900">
        <ele>534.8</ele>
        <time>2019-12-01T15:14:06Z</time>
      </trkpt>
      <trkpt lat="41.6097630" lon="1.9644810">
        <ele>534.4</ele>
        <time>2019-12-01T15:14:08Z</time>
      </trkpt>
      <trkpt lat="41.6097210" lon="1.9644730">
        <ele>533.9</ele>
        <time>2019-12-01T15:14:11Z</time>
      </trkpt>
      <trkpt lat="41.6096690" lon="1.9644630">
        <ele>533.4</ele>
        <time>2019-12-01T15:14:13Z</time>
      </trkpt>
      <trkpt lat="41.6096180" lon="1.9644610">
        <ele>532.9</ele>
        <time>2019-12-01T15:14:15Z</time>
      </trkpt>
      <trkpt lat="41.6095690" lon="1.9644660">
        <ele>532.3</ele>
        <time>2019-12-01T15:14:17Z</time>
      </trkpt>
      <trkpt lat="41.6095130" lon="1.9644810">
        <ele>531.6</ele>
        <time>2019-12-01T15:14:19Z</time>
      </trkpt>
      <trkpt lat="41.6094810" lon="1.9644920">
        <ele>531.1</ele>
        <time>2019-12-01T15:14:21Z</time>
      </trkpt>
      <trkpt lat="41.6094440" lon="1.9645010">
        <ele>530.7</ele>
        <time>2019-12-01T15:14:22Z</time>
      </trkpt>
      <trkpt lat="41.6094080" lon="1.9645160">
        <ele>530.3</ele>
        <time>2019-12-01T15:14:23Z</time>
      </trkpt>
      <trkpt lat="41.6093780" lon="1.9645420">
        <ele>529.9</ele>
        <time>2019-12-01T15:14:24Z</time>
      </trkpt>
      <trkpt lat="41.6093520" lon="1.9645660">
        <ele>529.5</ele>
        <time>2019-12-01T15:14:25Z</time>
      </trkpt>
      <trkpt lat="41.6093280" lon="1.9645830">
        <ele>529.2</ele>
        <time>2019-12-01T15:14:26Z</time>
      </trkpt>
      <trkpt lat="41.6092860" lon="1.9646190">
        <ele>528.7</ele>
        <time>2019-12-01T15:14:29Z</time>
      </trkpt>
      <trkpt lat="41.6092610" lon="1.9646520">
        <ele>528.4</ele>
        <time>2019-12-01T15:14:30Z</time>
      </trkpt>
      <trkpt lat="41.6092300" lon="1.9647070">
        <ele>527.9</ele>
        <time>2019-12-01T15:14:32Z</time>
      </trkpt>
      <trkpt lat="41.6092010" lon="1.9647890">
        <ele>527.2</ele>
        <time>2019-12-01T15:14:35Z</time>
      </trkpt>
      <trkpt lat="41.6091830" lon="1.9648420">
        <ele>526.8</ele>
        <time>2019-12-01T15:14:36Z</time>
      </trkpt>
      <trkpt lat="41.6091760" lon="1.9648930">
        <ele>526.4</ele>
        <time>2019-12-01T15:14:37Z</time>
      </trkpt>
      <trkpt lat="41.6091710" lon="1.9649740">
        <ele>525.8</ele>
        <time>2019-12-01T15:14:39Z</time>
      </trkpt>
      <trkpt lat="41.6091740" lon="1.9650190">
        <ele>525.5</ele>
        <time>2019-12-01T15:14:40Z</time>
      </trkpt>
      <trkpt lat="41.6091810" lon="1.9650600">
        <ele>525.2</ele>
        <time>2019-12-01T15:14:41Z</time>
      </trkpt>
      <trkpt lat="41.6091900" lon="1.9650990">
        <ele>524.9</ele>
        <time>2019-12-01T15:14:42Z</time>
      </trkpt>
      <trkpt lat="41.6092090" lon="1.9651500">
        <ele>524.5</ele>
        <time>2019-12-01T15:14:44Z</time>
      </trkpt>
      <trkpt lat="41.6092340" lon="1.9652110">
        <ele>524.0</ele>
        <time>2019-12-01T15:14:46Z</time>
      </trkpt>
      <trkpt lat="41.6092480" lon="1.9652480">
        <ele>523.7</ele>
        <time>2019-12-01T15:14:48Z</time>
      </trkpt>
      <trkpt lat="41.6092700" lon="1.9652920">
        <ele>523.3</ele>
        <time>2019-12-01T15:14:50Z</time>
      </trkpt>
      <trkpt lat="41.6092830" lon="1.9653400">
        <ele>522.9</ele>
        <time>2019-12-01T15:14:52Z</time>
      </trkpt>
      <trkpt lat="41.6092900" lon="1.9654030">
        <ele>522.5</ele>
        <time>2019-12-01T15:14:55Z</time>
      </trkpt>
      <trkpt lat="41.6092950" lon="1.9654550">
        <ele>522.2</ele>
        <time>2019-12-01T15:14:57Z</time>
      </trkpt>
      <trkpt lat="41.6093060" lon="1.9654920">
        <ele>521.9</ele>
        <time>2019-12-01T15:14:59Z</time>
      </trkpt>
      <trkpt lat="41.6093220" lon="1.9655390">
        <ele>521.6</ele>
        <time>2019-12-01T15:15:01Z</time>
      </trkpt>
      <trkpt lat="41.6093470" lon="1.9656050">
        <ele>521.1</ele>
        <time>2019-12-01T15:15:04Z</time>
      </trkpt>
      <trkpt lat="41.6093580" lon="1.9656560">
        <ele>520.8</ele>
        <time>2019-12-01T15:15:07Z</time>
      </trkpt>
      <trkpt lat="41.6093750" lon="1.9657120">
        <ele>520.4</ele>
        <time>2019-12-01T15:15:09Z</time>
      </trkpt>
      <trkpt lat="41.6093920" lon="1.9657540">
        <ele>520.1</ele>
        <time>2019-12-01T15:15:12Z</time>
      </trkpt>
      <trkpt lat="41.6094210" lon="1.9658240">
        <ele>519.6</ele>
        <time>2019-12-01T15:15:14Z</time>
      </trkpt>
      <trkpt lat="41.6094540" lon="1.9658780">
        <ele>519.1</ele>
        <time>2019-12-01T15:15:16Z</time>
      </trkpt>
      <trkpt lat="41.6094840" lon="1.9659320">
        <ele>518.6</ele>
        <time>2019-12-01T15:15:19Z</time>
      </trkpt>
      <trkpt lat="41.6095010" lon="1.9659650">
        <ele>518.3</ele>
        <time>2019-12-01T15:15:20Z</time>
      </trkpt>
      <trkpt lat="41.6095170" lon="1.9659950">
        <ele>518.1</ele>
        <time>2019-12-01T15:15:21Z</time>
      </trkpt>
      <trkpt lat="41.6095500" lon="1.9660640">
        <ele>517.6</ele>
        <time>2019-12-01T15:15:24Z</time>
      </trkpt>
      <trkpt lat="41.6095750" lon="1.9661330">
        <ele>517.1</ele>
        <time>2019-12-01T15:15:26Z</time>
      </trkpt>
      <trkpt lat="41.6096050" lon="1.9662080">
        <ele>516.6</ele>
        <time>2019-12-01T15:15:29Z</time>
      </trkpt>
      <trkpt lat="41.6096270" lon="1.9662590">
        <ele>516.2</ele>
        <time>2019-12-01T15:15:31Z</time>
      </trkpt>
      <trkpt lat="41.6096410" lon="1.9662960">
        <ele>515.9</ele>
        <time>2019-12-01T15:15:33Z</time>
      </trkpt>
      <trkpt lat="41.6096660" lon="1.9663530">
        <ele>515.4</ele>
        <time>2019-12-01T15:15:35Z</time>
      </trkpt>
      <trkpt lat="41.6096790" lon="1.9663900">
        <ele>515.1</ele>
        <time>2019-12-01T15:15:37Z</time>
      </trkpt>
      <trkpt lat="41.6096990" lon="1.9664350">
        <ele>514.7</ele>
        <time>2019-12-01T15:15:39Z</time>
      </trkpt>
      <trkpt lat="41.6097240" lon="1.9664750">
        <ele>514.3</ele>
        <time>2019-12-01T15:15:41Z</time>
      </trkpt>
      <trkpt lat="41.6097550" lon="1.9665220">
        <ele>513.8</ele>
        <time>2019-12-01T15:15:43Z</time>
      </trkpt>
      <trkpt lat="41.6097800" lon="1.9665610">
        <ele>513.5</ele>
        <time>2019-12-01T15:15:45Z</time>
      </trkpt>
      <trkpt lat="41.6098090" lon="1.9666070">
        <ele>513.1</ele>
        <time>2019-12-01T15:15:47Z</time>
      </trkpt>
      <trkpt lat="41.6098270" lon="1.9666350">
        <ele>512.8</ele>
        <time>2019-12-01T15:15:48Z</time>
      </trkpt>
      <trkpt lat="41.6098500" lon="1.9666690">
        <ele>512.5</ele>
        <time>2019-12-01T15:15:49Z</time>
      </trkpt>
      <trkpt lat="41.6098700" lon="1.9667050">
        <ele>512.1</ele>
        <time>2019-12-01T15:15:50Z</time>
      </trkpt>
      <trkpt lat="41.6098860" lon="1.9667440">
        <ele>511.7</ele>
        <time>2019-12-01T15:15:51Z</time>
      </trkpt>
      <trkpt lat="41.6099000" lon="1.9667800">
        <ele>511.4</ele>
        <time>2019-12-01T15:15:52Z</time>
      </trkpt>
      <trkpt lat="41.6099230" lon="1.9668490">
        <ele>510.8</ele>
        <time>2019-12-01T15:15:54Z</time>
      </trkpt>
      <trkpt lat="41.6099370" lon="1.9668840">
        <ele>510.6</ele>
        <time>2019-12-01T15:15:55Z</time>
      </trkpt>
      <trkpt lat="41.6099520" lon="1.9669180">
        <ele>510.3</ele>
        <time>2019-12-01T15:15:57Z</time>
      </trkpt>
      <trkpt lat="41.6099650" lon="1.9669550">
        <ele>510.0</ele>
        <time>2019-12-01T15:15:58Z</time>
      </trkpt>
      <trkpt lat="41.6099800" lon="1.9670070">
        <ele>509.7</ele>
        <time>2019-12-01T15:15:59Z</time>
      </trkpt>
      <trkpt lat="41.6100020" lon="1.9670740">
        <ele>509.3</ele>
        <time>2019-12-01T15:16:01Z</time>
      </trkpt>
      <trkpt lat="41.6100190" lon="1.9671390">
        <ele>508.9</ele>
        <time>2019-12-01T15:16:04Z</time>
      </trkpt>
      <trkpt lat="41.6100290" lon="1.9671740">
        <ele>508.7</ele>
        <time>2019-12-01T15:16:05Z</time>
      </trkpt>
      <trkpt lat="41.6100380" lon="1.9672180">
        <ele>508.4</ele>
        <time>2019-12-01T15:16:06Z</time>
      </trkpt>
      <trkpt lat="41.6100470" lon="1.9672570">
        <ele>508.1</ele>
        <time>2019-12-01T15:16:07Z</time>
      </trkpt>
      <trkpt lat="41.6100550" lon="1.9672960">
        <ele>507.8</ele>
        <time>2019-12-01T15:16:08Z</time>
      </trkpt>
      <trkpt lat="41.6100630" lon="1.9673350">
        <ele>507.5</ele>
        <time>2019-12-01T15:16:09Z</time>
      </trkpt>
      <trkpt lat="41.6100690" lon="1.9673750">
        <ele>507.2</ele>
        <time>2019-12-01T15:16:10Z</time>
      </trkpt>
      <trkpt lat="41.6100760" lon="1.9674170">
        <ele>506.8</ele>
        <time>2019-12-01T15:16:12Z</time>
      </trkpt>
      <trkpt lat="41.6100820" lon="1.9674540">
        <ele>506.5</ele>
        <time>2019-12-01T15:16:13Z</time>
      </trkpt>
      <trkpt lat="41.6100840" lon="1.9675020">
        <ele>506.0</ele>
        <time>2019-12-01T15:16:14Z</time>
      </trkpt>
      <trkpt lat="41.6100930" lon="1.9675480">
        <ele>505.5</ele>
        <time>2019-12-01T15:16:16Z</time>
      </trkpt>
      <trkpt lat="41.6101120" lon="1.9676150">
        <ele>504.7</ele>
        <time>2019-12-01T15:16:18Z</time>
      </trkpt>
      <trkpt lat="41.6101270" lon="1.9676690">
        <ele>504.1</ele>
        <time>2019-12-01T15:16:20Z</time>
      </trkpt>
      <trkpt lat="41.6101410" lon="1.9677200">
        <ele>503.5</ele>
        <time>2019-12-01T15:16:22Z</time>
      </trkpt>
      <trkpt lat="41.6101570" lon="1.9677550">
        <ele>503.1</ele>
        <time>2019-12-01T15:16:24Z</time>
      </trkpt>
      <trkpt lat="41.6101840" lon="1.9678100">
        <ele>502.4</ele>
        <time>2019-12-01T15:16:25Z</time>
      </trkpt>
      <trkpt lat="41.6102000" lon="1.9678450">
        <ele>502.0</ele>
        <time>2019-12-01T15:16:26Z</time>
      </trkpt>
      <trkpt lat="41.6102200" lon="1.9679170">
        <ele>501.2</ele>
        <time>2019-12-01T15:16:28Z</time>
      </trkpt>
      <trkpt lat="41.6102260" lon="1.9679600">
        <ele>500.7</ele>
        <time>2019-12-01T15:16:30Z</time>
      </trkpt>
      <trkpt lat="41.6102330" lon="1.9680060">
        <ele>500.3</ele>
        <time>2019-12-01T15:16:31Z</time>
      </trkpt>
      <trkpt lat="41.6102380" lon="1.9680460">
        <ele>499.9</ele>
        <time>2019-12-01T15:16:32Z</time>
      </trkpt>
      <trkpt lat="41.6102480" lon="1.9681120">
        <ele>499.4</ele>
        <time>2019-12-01T15:16:33Z</time>
      </trkpt>
      <trkpt lat="41.6102520" lon="1.9681530">
        <ele>499.1</ele>
        <time>2019-12-01T15:16:34Z</time>
      </trkpt>
      <trkpt lat="41.6102540" lon="1.9681930">
        <ele>498.9</ele>
        <time>2019-12-01T15:16:36Z</time>
      </trkpt>
      <trkpt lat="41.6102500" lon="1.9682430">
        <ele>498.5</ele>
        <time>2019-12-01T15:16:37Z</time>
      </trkpt>
      <trkpt lat="41.6102430" lon="1.9682850">
        <ele>498.3</ele>
        <time>2019-12-01T15:16:39Z</time>
      </trkpt>
      <trkpt lat="41.6102370" lon="1.9683260">
        <ele>498.0</ele>
        <time>2019-12-01T15:16:40Z</time>
      </trkpt>
      <trkpt lat="41.6102240" lon="1.9683760">
        <ele>497.7</ele>
        <time>2019-12-01T15:16:43Z</time>
      </trkpt>
      <trkpt lat="41.6101900" lon="1.9684210">
        <ele>497.4</ele>
        <time>2019-12-01T15:16:45Z</time>
      </trkpt>
      <trkpt lat="41.6101530" lon="1.9684570">
        <ele>497.0</ele>
        <time>2019-12-01T15:16:48Z</time>
      </trkpt>
      <trkpt lat="41.6101080" lon="1.9684810">
        <ele>496.7</ele>
        <time>2019-12-01T15:16:50Z</time>
      </trkpt>
      <trkpt lat="41.6100610" lon="1.9685020">
        <ele>496.3</ele>
        <time>2019-12-01T15:16:52Z</time>
      </trkpt>
      <trkpt lat="41.6100180" lon="1.9685220">
        <ele>496.1</ele>
        <time>2019-12-01T15:16:54Z</time>
      </trkpt>
      <trkpt lat="41.6099830" lon="1.9685350">
        <ele>495.5</ele>
        <time>2019-12-01T15:16:56Z</time>
      </trkpt>
      <trkpt lat="41.6099490" lon="1.9685460">
        <ele>495.0</ele>
        <time>2019-12-01T15:16:57Z</time>
      </trkpt>
      <trkpt lat="41.6099020" lon="1.9685530">
        <ele>494.3</ele>
        <time>2019-12-01T15:17:00Z</time>
      </trkpt>
      <trkpt lat="41.6098750" lon="1.9685580">
        <ele>493.9</ele>
        <time>2019-12-01T15:17:01Z</time>
      </trkpt>
      <trkpt lat="41.6098330" lon="1.9685770">
        <ele>493.3</ele>
        <time>2019-12-01T15:17:03Z</time>
      </trkpt>
      <trkpt lat="41.6097950" lon="1.9685930">
        <ele>492.5</ele>
        <time>2019-12-01T15:17:06Z</time>
      </trkpt>
      <trkpt lat="41.6097540" lon="1.9686030">
        <ele>491.6</ele>
        <time>2019-12-01T15:17:08Z</time>
      </trkpt>
      <trkpt lat="41.6097170" lon="1.9686080">
        <ele>490.7</ele>
        <time>2019-12-01T15:17:09Z</time>
      </trkpt>
      <trkpt lat="41.6096750" lon="1.9686210">
        <ele>489.8</ele>
        <time>2019-12-01T15:17:12Z</time>
      </trkpt>
      <trkpt lat="41.6096440" lon="1.9686340">
        <ele>489.2</ele>
        <time>2019-12-01T15:17:13Z</time>
      </trkpt>
      <trkpt lat="41.6095930" lon="1.9686460">
        <ele>488.3</ele>
        <time>2019-12-01T15:17:16Z</time>
      </trkpt>
      <trkpt lat="41.6095380" lon="1.9686730">
        <ele>487.5</ele>
        <time>2019-12-01T15:17:18Z</time>
      </trkpt>
      <trkpt lat="41.6093800" lon="1.9688590">
        <ele>484.8</ele>
        <time>2019-12-01T15:17:29Z</time>
      </trkpt>
      <trkpt lat="41.6093700" lon="1.9688940">
        <ele>484.4</ele>
        <time>2019-12-01T15:17:33Z</time>
      </trkpt>
      <trkpt lat="41.6093500" lon="1.9689320">
        <ele>484.0</ele>
        <time>2019-12-01T15:17:37Z</time>
      </trkpt>
      <trkpt lat="41.6093260" lon="1.9689730">
        <ele>483.6</ele>
        <time>2019-12-01T15:17:41Z</time>
      </trkpt>
      <trkpt lat="41.6092750" lon="1.9690870">
        <ele>482.9</ele>
        <time>2019-12-01T15:17:43Z</time>
      </trkpt>
      <trkpt lat="41.6092330" lon="1.9691910">
        <ele>482.3</ele>
        <time>2019-12-01T15:17:45Z</time>
      </trkpt>
      <trkpt lat="41.6092150" lon="1.9692370">
        <ele>482.1</ele>
        <time>2019-12-01T15:17:47Z</time>
      </trkpt>
      <trkpt lat="41.6092030" lon="1.9692800">
        <ele>482.1</ele>
        <time>2019-12-01T15:17:49Z</time>
      </trkpt>
      <trkpt lat="41.6091970" lon="1.9693290">
        <ele>482.1</ele>
        <time>2019-12-01T15:17:52Z</time>
      </trkpt>
      <trkpt lat="41.6091860" lon="1.9693820">
        <ele>482.0</ele>
        <time>2019-12-01T15:17:56Z</time>
      </trkpt>
      <trkpt lat="41.6091750" lon="1.9694160">
        <ele>482.1</ele>
        <time>2019-12-01T15:17:59Z</time>
      </trkpt>
      <trkpt lat="41.6091660" lon="1.9694500">
        <ele>482.1</ele>
        <time>2019-12-01T15:18:01Z</time>
      </trkpt>
      <trkpt lat="41.6091500" lon="1.9695150">
        <ele>482.3</ele>
        <time>2019-12-01T15:18:04Z</time>
      </trkpt>
      <trkpt lat="41.6091470" lon="1.9695540">
        <ele>482.4</ele>
        <time>2019-12-01T15:18:06Z</time>
      </trkpt>
      <trkpt lat="41.6091430" lon="1.9695980">
        <ele>482.6</ele>
        <time>2019-12-01T15:18:09Z</time>
      </trkpt>
      <trkpt lat="41.6091310" lon="1.9696410">
        <ele>482.8</ele>
        <time>2019-12-01T15:18:12Z</time>
      </trkpt>
      <trkpt lat="41.6091210" lon="1.9697030">
        <ele>483.1</ele>
        <time>2019-12-01T15:18:16Z</time>
      </trkpt>
      <trkpt lat="41.6090940" lon="1.9697700">
        <ele>483.4</ele>
        <time>2019-12-01T15:18:20Z</time>
      </trkpt>
      <trkpt lat="41.6090820" lon="1.9698300">
        <ele>483.7</ele>
        <time>2019-12-01T15:18:23Z</time>
      </trkpt>
      <trkpt lat="41.6090650" lon="1.9698880">
        <ele>484.1</ele>
        <time>2019-12-01T15:18:26Z</time>
      </trkpt>
      <trkpt lat="41.6090480" lon="1.9699260">
        <ele>484.3</ele>
        <time>2019-12-01T15:18:28Z</time>
      </trkpt>
      <trkpt lat="41.6090230" lon="1.9699740">
        <ele>484.7</ele>
        <time>2019-12-01T15:18:31Z</time>
      </trkpt>
      <trkpt lat="41.6090020" lon="1.9700340">
        <ele>485.1</ele>
        <time>2019-12-01T15:18:34Z</time>
      </trkpt>
      <trkpt lat="41.6090030" lon="1.9700810">
        <ele>485.3</ele>
        <time>2019-12-01T15:18:37Z</time>
      </trkpt>
      <trkpt lat="41.6089960" lon="1.9701390">
        <ele>485.7</ele>
        <time>2019-12-01T15:18:42Z</time>
      </trkpt>
      <trkpt lat="41.6089810" lon="1.9701760">
        <ele>485.9</ele>
        <time>2019-12-01T15:18:45Z</time>
      </trkpt>
      <trkpt lat="41.6089650" lon="1.9702220">
        <ele>486.1</ele>
        <time>2019-12-01T15:18:47Z</time>
      </trkpt>
      <trkpt lat="41.6089470" lon="1.9702810">
        <ele>486.4</ele>
        <time>2019-12-01T15:18:49Z</time>
      </trkpt>
      <trkpt lat="41.6089340" lon="1.9703540">
        <ele>486.8</ele>
        <time>2019-12-01T15:18:52Z</time>
      </trkpt>
      <trkpt lat="41.6089390" lon="1.9704070">
        <ele>487.0</ele>
        <time>2019-12-01T15:18:55Z</time>
      </trkpt>
      <trkpt lat="41.6089450" lon="1.9704720">
        <ele>487.3</ele>
        <time>2019-12-01T15:18:59Z</time>
      </trkpt>
      <trkpt lat="41.6089530" lon="1.9705160">
        <ele>487.5</ele>
        <time>2019-12-01T15:19:02Z</time>
      </trkpt>
      <trkpt lat="41.6089460" lon="1.9705640">
        <ele>487.7</ele>
        <time>2019-12-01T15:19:05Z</time>
      </trkpt>
      <trkpt lat="41.6089420" lon="1.9706280">
        <ele>488.0</ele>
        <time>2019-12-01T15:19:09Z</time>
      </trkpt>
      <trkpt lat="41.6089430" lon="1.9706680">
        <ele>488.2</ele>
        <time>2019-12-01T15:19:12Z</time>
      </trkpt>
      <trkpt lat="41.6089490" lon="1.9707260">
        <ele>488.5</ele>
        <time>2019-12-01T15:19:16Z</time>
      </trkpt>
      <trkpt lat="41.6089560" lon="1.9707660">
        <ele>488.7</ele>
        <time>2019-12-01T15:19:19Z</time>
      </trkpt>
      <trkpt lat="41.6089660" lon="1.9708060">
        <ele>488.9</ele>
        <time>2019-12-01T15:19:23Z</time>
      </trkpt>
      <trkpt lat="41.6089720" lon="1.9708420">
        <ele>489.2</ele>
        <time>2019-12-01T15:19:27Z</time>
      </trkpt>
      <trkpt lat="41.6089980" lon="1.9708620">
        <ele>489.4</ele>
        <time>2019-12-01T15:19:31Z</time>
      </trkpt>
      <trkpt lat="41.6090380" lon="1.9708720">
        <ele>489.9</ele>
        <time>2019-12-01T15:19:34Z</time>
      </trkpt>
      <trkpt lat="41.6090750" lon="1.9708810">
        <ele>490.3</ele>
        <time>2019-12-01T15:19:37Z</time>
      </trkpt>
      <trkpt lat="41.6091200" lon="1.9708980">
        <ele>490.9</ele>
        <time>2019-12-01T15:19:41Z</time>
      </trkpt>
      <trkpt lat="41.6091480" lon="1.9708850">
        <ele>491.4</ele>
        <time>2019-12-01T15:19:45Z</time>
      </trkpt>
      <trkpt lat="41.6091790" lon="1.9709340">
        <ele>492.2</ele>
        <time>2019-12-01T15:19:47Z</time>
      </trkpt>
      <trkpt lat="41.6092170" lon="1.9709860">
        <ele>493.2</ele>
        <time>2019-12-01T15:19:49Z</time>
      </trkpt>
      <trkpt lat="41.6092550" lon="1.9710500">
        <ele>494.7</ele>
        <time>2019-12-01T15:19:52Z</time>
      </trkpt>
      <trkpt lat="41.6092170" lon="1.9710320">
        <ele>494.7</ele>
        <time>2019-12-01T15:19:55Z</time>
      </trkpt>
      <trkpt lat="41.6092440" lon="1.9711190">
        <ele>494.2</ele>
        <time>2019-12-01T15:19:59Z</time>
      </trkpt>
      <trkpt lat="41.6092670" lon="1.9711800">
        <ele>493.8</ele>
        <time>2019-12-01T15:20:00Z</time>
      </trkpt>
      <trkpt lat="41.6092910" lon="1.9712360">
        <ele>493.5</ele>
        <time>2019-12-01T15:20:01Z</time>
      </trkpt>
      <trkpt lat="41.6093130" lon="1.9712830">
        <ele>493.3</ele>
        <time>2019-12-01T15:20:03Z</time>
      </trkpt>
      <trkpt lat="41.6093310" lon="1.9713220">
        <ele>493.1</ele>
        <time>2019-12-01T15:20:04Z</time>
      </trkpt>
      <trkpt lat="41.6093420" lon="1.9713560">
        <ele>493.0</ele>
        <time>2019-12-01T15:20:05Z</time>
      </trkpt>
      <trkpt lat="41.6093520" lon="1.9713940">
        <ele>492.8</ele>
        <time>2019-12-01T15:20:06Z</time>
      </trkpt>
      <trkpt lat="41.6093620" lon="1.9714300">
        <ele>492.7</ele>
        <time>2019-12-01T15:20:07Z</time>
      </trkpt>
      <trkpt lat="41.6093750" lon="1.9714650">
        <ele>492.6</ele>
        <time>2019-12-01T15:20:08Z</time>
      </trkpt>
      <trkpt lat="41.6093810" lon="1.9715010">
        <ele>492.4</ele>
        <time>2019-12-01T15:20:09Z</time>
      </trkpt>
      <trkpt lat="41.6093880" lon="1.9715380">
        <ele>492.3</ele>
        <time>2019-12-01T15:20:10Z</time>
      </trkpt>
      <trkpt lat="41.6093980" lon="1.9716010">
        <ele>492.0</ele>
        <time>2019-12-01T15:20:12Z</time>
      </trkpt>
      <trkpt lat="41.6094060" lon="1.9716690">
        <ele>491.6</ele>
        <time>2019-12-01T15:20:14Z</time>
      </trkpt>
      <trkpt lat="41.6094160" lon="1.9717480">
        <ele>491.1</ele>
        <time>2019-12-01T15:20:17Z</time>
      </trkpt>
      <trkpt lat="41.6094210" lon="1.9717860">
        <ele>490.8</ele>
        <time>2019-12-01T15:20:18Z</time>
      </trkpt>
      <trkpt lat="41.6094250" lon="1.9718490">
        <ele>490.3</ele>
        <time>2019-12-01T15:20:20Z</time>
      </trkpt>
      <trkpt lat="41.6094250" lon="1.9718950">
        <ele>490.0</ele>
        <time>2019-12-01T15:20:22Z</time>
      </trkpt>
      <trkpt lat="41.6094200" lon="1.9719550">
        <ele>489.5</ele>
        <time>2019-12-01T15:20:24Z</time>
      </trkpt>
      <trkpt lat="41.6094110" lon="1.9720080">
        <ele>489.1</ele>
        <time>2019-12-01T15:20:26Z</time>
      </trkpt>
      <trkpt lat="41.6093970" lon="1.9720650">
        <ele>488.7</ele>
        <time>2019-12-01T15:20:28Z</time>
      </trkpt>
      <trkpt lat="41.6093850" lon="1.9721320">
        <ele>488.1</ele>
        <time>2019-12-01T15:20:31Z</time>
      </trkpt>
      <trkpt lat="41.6093790" lon="1.9721680">
        <ele>487.8</ele>
        <time>2019-12-01T15:20:32Z</time>
      </trkpt>
      <trkpt lat="41.6093720" lon="1.9722580">
        <ele>486.9</ele>
        <time>2019-12-01T15:20:34Z</time>
      </trkpt>
      <trkpt lat="41.6093740" lon="1.9722940">
        <ele>486.6</ele>
        <time>2019-12-01T15:20:35Z</time>
      </trkpt>
      <trkpt lat="41.6093740" lon="1.9723320">
        <ele>486.4</ele>
        <time>2019-12-01T15:20:36Z</time>
      </trkpt>
      <trkpt lat="41.6093720" lon="1.9724310">
        <ele>485.6</ele>
        <time>2019-12-01T15:20:39Z</time>
      </trkpt>
      <trkpt lat="41.6093700" lon="1.9724740">
        <ele>485.3</ele>
        <time>2019-12-01T15:20:41Z</time>
      </trkpt>
      <trkpt lat="41.6093670" lon="1.9725140">
        <ele>485.1</ele>
        <time>2019-12-01T15:20:42Z</time>
      </trkpt>
      <trkpt lat="41.6093670" lon="1.9725680">
        <ele>484.8</ele>
        <time>2019-12-01T15:20:43Z</time>
      </trkpt>
      <trkpt lat="41.6093720" lon="1.9726460">
        <ele>484.3</ele>
        <time>2019-12-01T15:20:46Z</time>
      </trkpt>
      <trkpt lat="41.6093750" lon="1.9726970">
        <ele>484.0</ele>
        <time>2019-12-01T15:20:48Z</time>
      </trkpt>
      <trkpt lat="41.6093800" lon="1.9727440">
        <ele>483.8</ele>
        <time>2019-12-01T15:20:49Z</time>
      </trkpt>
      <trkpt lat="41.6093860" lon="1.9728650">
        <ele>482.5</ele>
        <time>2019-12-01T15:20:59Z</time>
      </trkpt>
      <trkpt lat="41.6093700" lon="1.9729500">
        <ele>481.8</ele>
        <time>2019-12-01T15:21:01Z</time>
      </trkpt>
      <trkpt lat="41.6093550" lon="1.9729970">
        <ele>481.4</ele>
        <time>2019-12-01T15:21:03Z</time>
      </trkpt>
      <trkpt lat="41.6093370" lon="1.9730370">
        <ele>481.2</ele>
        <time>2019-12-01T15:21:04Z</time>
      </trkpt>
      <trkpt lat="41.6093170" lon="1.9730750">
        <ele>480.9</ele>
        <time>2019-12-01T15:21:05Z</time>
      </trkpt>
      <trkpt lat="41.6093020" lon="1.9731130">
        <ele>480.6</ele>
        <time>2019-12-01T15:21:06Z</time>
      </trkpt>
      <trkpt lat="41.6092740" lon="1.9731580">
        <ele>480.2</ele>
        <time>2019-12-01T15:21:08Z</time>
      </trkpt>
      <trkpt lat="41.6092410" lon="1.9731930">
        <ele>479.8</ele>
        <time>2019-12-01T15:21:10Z</time>
      </trkpt>
      <trkpt lat="41.6091510" lon="1.9732950">
        <ele>478.5</ele>
        <time>2019-12-01T15:21:13Z</time>
      </trkpt>
      <trkpt lat="41.6090940" lon="1.9733800">
        <ele>477.5</ele>
        <time>2019-12-01T15:21:34Z</time>
      </trkpt>
      <trkpt lat="41.6090380" lon="1.9734640">
        <ele>477.0</ele>
        <time>2019-12-01T15:21:35Z</time>
      </trkpt>
      <trkpt lat="41.6090110" lon="1.9735210">
        <ele>476.6</ele>
        <time>2019-12-01T15:21:37Z</time>
      </trkpt>
      <trkpt lat="41.6089910" lon="1.9735720">
        <ele>476.3</ele>
        <time>2019-12-01T15:21:38Z</time>
      </trkpt>
      <trkpt lat="41.6089750" lon="1.9736180">
        <ele>476.0</ele>
        <time>2019-12-01T15:21:39Z</time>
      </trkpt>
      <trkpt lat="41.6089570" lon="1.9736650">
        <ele>475.6</ele>
        <time>2019-12-01T15:21:40Z</time>
      </trkpt>
      <trkpt lat="41.6089430" lon="1.9737120">
        <ele>475.2</ele>
        <time>2019-12-01T15:21:41Z</time>
      </trkpt>
      <trkpt lat="41.6089320" lon="1.9737590">
        <ele>474.8</ele>
        <time>2019-12-01T15:21:42Z</time>
      </trkpt>
      <trkpt lat="41.6089230" lon="1.9738040">
        <ele>474.6</ele>
        <time>2019-12-01T15:21:43Z</time>
      </trkpt>
      <trkpt lat="41.6089130" lon="1.9738460">
        <ele>474.4</ele>
        <time>2019-12-01T15:21:44Z</time>
      </trkpt>
      <trkpt lat="41.6089020" lon="1.9738900">
        <ele>474.2</ele>
        <time>2019-12-01T15:21:45Z</time>
      </trkpt>
      <trkpt lat="41.6088920" lon="1.9739330">
        <ele>474.0</ele>
        <time>2019-12-01T15:21:46Z</time>
      </trkpt>
      <trkpt lat="41.6088820" lon="1.9739720">
        <ele>473.8</ele>
        <time>2019-12-01T15:21:48Z</time>
      </trkpt>
      <trkpt lat="41.6088600" lon="1.9740600">
        <ele>473.4</ele>
        <time>2019-12-01T15:21:50Z</time>
      </trkpt>
      <trkpt lat="41.6088470" lon="1.9741190">
        <ele>473.2</ele>
        <time>2019-12-01T15:21:52Z</time>
      </trkpt>
      <trkpt lat="41.6088390" lon="1.9741690">
        <ele>473.0</ele>
        <time>2019-12-01T15:21:53Z</time>
      </trkpt>
      <trkpt lat="41.6088310" lon="1.9742170">
        <ele>472.7</ele>
        <time>2019-12-01T15:21:54Z</time>
      </trkpt>
      <trkpt lat="41.6088220" lon="1.9742580">
        <ele>472.6</ele>
        <time>2019-12-01T15:21:55Z</time>
      </trkpt>
      <trkpt lat="41.6088140" lon="1.9742970">
        <ele>472.5</ele>
        <time>2019-12-01T15:21:56Z</time>
      </trkpt>
      <trkpt lat="41.6088080" lon="1.9743380">
        <ele>472.3</ele>
        <time>2019-12-01T15:21:57Z</time>
      </trkpt>
      <trkpt lat="41.6087940" lon="1.9744090">
        <ele>472.1</ele>
        <time>2019-12-01T15:21:59Z</time>
      </trkpt>
      <trkpt lat="41.6087150" lon="1.9745470">
        <ele>471.9</ele>
        <time>2019-12-01T15:22:46Z</time>
      </trkpt>
      <trkpt lat="41.6086860" lon="1.9745220">
        <ele>472.0</ele>
        <time>2019-12-01T15:22:47Z</time>
      </trkpt>
      <trkpt lat="41.6086540" lon="1.9745020">
        <ele>472.1</ele>
        <time>2019-12-01T15:22:48Z</time>
      </trkpt>
      <trkpt lat="41.6084580" lon="1.9744440">
        <ele>472.5</ele>
        <time>2019-12-01T15:23:03Z</time>
      </trkpt>
      <trkpt lat="41.6084210" lon="1.9744380">
        <ele>472.5</ele>
        <time>2019-12-01T15:23:05Z</time>
      </trkpt>
      <trkpt lat="41.6083620" lon="1.9744390">
        <ele>472.4</ele>
        <time>2019-12-01T15:23:07Z</time>
      </trkpt>
      <trkpt lat="41.6083040" lon="1.9744550">
        <ele>472.2</ele>
        <time>2019-12-01T15:23:10Z</time>
      </trkpt>
      <trkpt lat="41.6082740" lon="1.9744470">
        <ele>472.0</ele>
        <time>2019-12-01T15:23:12Z</time>
      </trkpt>
      <trkpt lat="41.6082450" lon="1.9744590">
        <ele>471.8</ele>
        <time>2019-12-01T15:23:15Z</time>
      </trkpt>
      <trkpt lat="41.6082000" lon="1.9744650">
        <ele>471.4</ele>
        <time>2019-12-01T15:23:19Z</time>
      </trkpt>
      <trkpt lat="41.6081660" lon="1.9744790">
        <ele>471.1</ele>
        <time>2019-12-01T15:23:22Z</time>
      </trkpt>
      <trkpt lat="41.6081340" lon="1.9745060">
        <ele>470.7</ele>
        <time>2019-12-01T15:23:26Z</time>
      </trkpt>
      <trkpt lat="41.6081080" lon="1.9745180">
        <ele>470.4</ele>
        <time>2019-12-01T15:23:28Z</time>
      </trkpt>
      <trkpt lat="41.6080770" lon="1.9745250">
        <ele>470.1</ele>
        <time>2019-12-01T15:23:30Z</time>
      </trkpt>
      <trkpt lat="41.6080440" lon="1.9745350">
        <ele>469.7</ele>
        <time>2019-12-01T15:23:33Z</time>
      </trkpt>
      <trkpt lat="41.6080030" lon="1.9745500">
        <ele>469.3</ele>
        <time>2019-12-01T15:23:36Z</time>
      </trkpt>
      <trkpt lat="41.6079710" lon="1.9745650">
        <ele>469.0</ele>
        <time>2019-12-01T15:23:38Z</time>
      </trkpt>
      <trkpt lat="41.6079420" lon="1.9745820">
        <ele>468.7</ele>
        <time>2019-12-01T15:23:40Z</time>
      </trkpt>
      <trkpt lat="41.6079100" lon="1.9746010">
        <ele>468.4</ele>
        <time>2019-12-01T15:23:42Z</time>
      </trkpt>
      <trkpt lat="41.6078850" lon="1.9746180">
        <ele>468.2</ele>
        <time>2019-12-01T15:23:44Z</time>
      </trkpt>
      <trkpt lat="41.6078500" lon="1.9746430">
        <ele>467.9</ele>
        <time>2019-12-01T15:23:47Z</time>
      </trkpt>
      <trkpt lat="41.6078190" lon="1.9746690">
        <ele>467.7</ele>
        <time>2019-12-01T15:23:48Z</time>
      </trkpt>
      <trkpt lat="41.6077710" lon="1.9747120">
        <ele>467.3</ele>
        <time>2019-12-01T15:23:50Z</time>
      </trkpt>
      <trkpt lat="41.6077270" lon="1.9747500">
        <ele>467.0</ele>
        <time>2019-12-01T15:23:52Z</time>
      </trkpt>
      <trkpt lat="41.6076920" lon="1.9747790">
        <ele>466.8</ele>
        <time>2019-12-01T15:23:53Z</time>
      </trkpt>
      <trkpt lat="41.6076470" lon="1.9748120">
        <ele>466.6</ele>
        <time>2019-12-01T15:23:54Z</time>
      </trkpt>
      <trkpt lat="41.6076230" lon="1.9748290">
        <ele>466.4</ele>
        <time>2019-12-01T15:23:55Z</time>
      </trkpt>
      <trkpt lat="41.6075910" lon="1.9748490">
        <ele>466.2</ele>
        <time>2019-12-01T15:23:58Z</time>
      </trkpt>
      <trkpt lat="41.6075500" lon="1.9748770">
        <ele>465.9</ele>
        <time>2019-12-01T15:24:01Z</time>
      </trkpt>
      <trkpt lat="41.6074440" lon="1.9749180">
        <ele>465.4</ele>
        <time>2019-12-01T15:24:14Z</time>
      </trkpt>
      <trkpt lat="41.6073990" lon="1.9749260">
        <ele>465.2</ele>
        <time>2019-12-01T15:24:17Z</time>
      </trkpt>
      <trkpt lat="41.6073550" lon="1.9749310">
        <ele>465.0</ele>
        <time>2019-12-01T15:24:19Z</time>
      </trkpt>
      <trkpt lat="41.6073110" lon="1.9749440">
        <ele>464.8</ele>
        <time>2019-12-01T15:24:21Z</time>
      </trkpt>
      <trkpt lat="41.6072840" lon="1.9749530">
        <ele>464.8</ele>
        <time>2019-12-01T15:24:22Z</time>
      </trkpt>
      <trkpt lat="41.6072500" lon="1.9749670">
        <ele>464.8</ele>
        <time>2019-12-01T15:24:23Z</time>
      </trkpt>
      <trkpt lat="41.6072240" lon="1.9749780">
        <ele>464.8</ele>
        <time>2019-12-01T15:24:25Z</time>
      </trkpt>
      <trkpt lat="41.6071870" lon="1.9749900">
        <ele>464.9</ele>
        <time>2019-12-01T15:24:26Z</time>
      </trkpt>
      <trkpt lat="41.6071530" lon="1.9749940">
        <ele>464.9</ele>
        <time>2019-12-01T15:24:28Z</time>
      </trkpt>
      <trkpt lat="41.6070960" lon="1.9750020">
        <ele>465.0</ele>
        <time>2019-12-01T15:24:30Z</time>
      </trkpt>
      <trkpt lat="41.6070480" lon="1.9750130">
        <ele>465.1</ele>
        <time>2019-12-01T15:24:31Z</time>
      </trkpt>
      <trkpt lat="41.6070070" lon="1.9750230">
        <ele>465.1</ele>
        <time>2019-12-01T15:24:32Z</time>
      </trkpt>
      <trkpt lat="41.6069700" lon="1.9750310">
        <ele>465.1</ele>
        <time>2019-12-01T15:24:33Z</time>
      </trkpt>
      <trkpt lat="41.6069420" lon="1.9750330">
        <ele>465.1</ele>
        <time>2019-12-01T15:24:35Z</time>
      </trkpt>
      <trkpt lat="41.6069030" lon="1.9750400">
        <ele>465.0</ele>
        <time>2019-12-01T15:24:36Z</time>
      </trkpt>
      <trkpt lat="41.6068440" lon="1.9750520">
        <ele>464.8</ele>
        <time>2019-12-01T15:24:39Z</time>
      </trkpt>
      <trkpt lat="41.6068020" lon="1.9750620">
        <ele>464.7</ele>
        <time>2019-12-01T15:24:41Z</time>
      </trkpt>
      <trkpt lat="41.6067540" lon="1.9750750">
        <ele>464.5</ele>
        <time>2019-12-01T15:24:43Z</time>
      </trkpt>
      <trkpt lat="41.6067250" lon="1.9750760">
        <ele>464.4</ele>
        <time>2019-12-01T15:24:44Z</time>
      </trkpt>
      <trkpt lat="41.6063570" lon="1.9752640">
        <ele>462.5</ele>
        <time>2019-12-01T15:25:13Z</time>
      </trkpt>
      <trkpt lat="41.6063190" lon="1.9752810">
        <ele>462.1</ele>
        <time>2019-12-01T15:25:15Z</time>
      </trkpt>
      <trkpt lat="41.6062800" lon="1.9753060">
        <ele>461.7</ele>
        <time>2019-12-01T15:25:18Z</time>
      </trkpt>
      <trkpt lat="41.6062420" lon="1.9753140">
        <ele>461.3</ele>
        <time>2019-12-01T15:25:21Z</time>
      </trkpt>
      <trkpt lat="41.6062060" lon="1.9753110">
        <ele>460.9</ele>
        <time>2019-12-01T15:25:24Z</time>
      </trkpt>
      <trkpt lat="41.6061760" lon="1.9752990">
        <ele>460.5</ele>
        <time>2019-12-01T15:25:26Z</time>
      </trkpt>
      <trkpt lat="41.6061440" lon="1.9752960">
        <ele>460.2</ele>
        <time>2019-12-01T15:25:29Z</time>
      </trkpt>
      <trkpt lat="41.6061040" lon="1.9752990">
        <ele>459.7</ele>
        <time>2019-12-01T15:25:31Z</time>
      </trkpt>
      <trkpt lat="41.6060700" lon="1.9753040">
        <ele>459.3</ele>
        <time>2019-12-01T15:25:33Z</time>
      </trkpt>
      <trkpt lat="41.6060370" lon="1.9753060">
        <ele>458.9</ele>
        <time>2019-12-01T15:25:34Z</time>
      </trkpt>
      <trkpt lat="41.6059900" lon="1.9753030">
        <ele>458.3</ele>
        <time>2019-12-01T15:25:37Z</time>
      </trkpt>
      <trkpt lat="41.6059430" lon="1.9753000">
        <ele>457.8</ele>
        <time>2019-12-01T15:25:39Z</time>
      </trkpt>
      <trkpt lat="41.6058400" lon="1.9753140">
        <ele>456.6</ele>
        <time>2019-12-01T15:25:47Z</time>
      </trkpt>
      <trkpt lat="41.6058040" lon="1.9753250">
        <ele>456.1</ele>
        <time>2019-12-01T15:25:48Z</time>
      </trkpt>
      <trkpt lat="41.6057710" lon="1.9753400">
        <ele>454.3</ele>
        <time>2019-12-01T15:25:49Z</time>
      </trkpt>
      <trkpt lat="41.6057330" lon="1.9753650">
        <ele>452.2</ele>
        <time>2019-12-01T15:25:51Z</time>
      </trkpt>
      <trkpt lat="41.6056830" lon="1.9754180">
        <ele>450.0</ele>
        <time>2019-12-01T15:25:52Z</time>
      </trkpt>
      <trkpt lat="41.6056400" lon="1.9754690">
        <ele>447.9</ele>
        <time>2019-12-01T15:25:54Z</time>
      </trkpt>
      <trkpt lat="41.6056010" lon="1.9755090">
        <ele>447.6</ele>
        <time>2019-12-01T15:25:57Z</time>
      </trkpt>
      <trkpt lat="41.6055780" lon="1.9755330">
        <ele>447.4</ele>
        <time>2019-12-01T15:25:58Z</time>
      </trkpt>
      <trkpt lat="41.6055600" lon="1.9755640">
        <ele>447.2</ele>
        <time>2019-12-01T15:25:59Z</time>
      </trkpt>
      <trkpt lat="41.6055440" lon="1.9755960">
        <ele>446.9</ele>
        <time>2019-12-01T15:26:00Z</time>
      </trkpt>
      <trkpt lat="41.6055350" lon="1.9756470">
        <ele>446.6</ele>
        <time>2019-12-01T15:26:03Z</time>
      </trkpt>
      <trkpt lat="41.6055190" lon="1.9757110">
        <ele>446.2</ele>
        <time>2019-12-01T15:26:05Z</time>
      </trkpt>
      <trkpt lat="41.6055020" lon="1.9757440">
        <ele>446.0</ele>
        <time>2019-12-01T15:26:06Z</time>
      </trkpt>
      <trkpt lat="41.6054710" lon="1.9757960">
        <ele>445.6</ele>
        <time>2019-12-01T15:26:08Z</time>
      </trkpt>
      <trkpt lat="41.6054520" lon="1.9758220">
        <ele>445.4</ele>
        <time>2019-12-01T15:26:09Z</time>
      </trkpt>
      <trkpt lat="41.6054200" lon="1.9758580">
        <ele>445.0</ele>
        <time>2019-12-01T15:26:12Z</time>
      </trkpt>
      <trkpt lat="41.6047960" lon="1.9752670">
        <ele>436.1</ele>
        <time>2019-12-01T15:28:11Z</time>
      </trkpt>
      <trkpt lat="41.6047650" lon="1.9751770">
        <ele>435.6</ele>
        <time>2019-12-01T15:28:15Z</time>
      </trkpt>
      <trkpt lat="41.6047550" lon="1.9751190">
        <ele>435.4</ele>
        <time>2019-12-01T15:28:17Z</time>
      </trkpt>
      <trkpt lat="41.6047450" lon="1.9750710">
        <ele>435.3</ele>
        <time>2019-12-01T15:28:19Z</time>
      </trkpt>
      <trkpt lat="41.6047270" lon="1.9750200">
        <ele>435.4</ele>
        <time>2019-12-01T15:28:31Z</time>
      </trkpt>
      <trkpt lat="41.6045980" lon="1.9747040">
        <ele>437.0</ele>
        <time>2019-12-01T15:29:03Z</time>
      </trkpt>
      <trkpt lat="41.6045690" lon="1.9746810">
        <ele>437.3</ele>
        <time>2019-12-01T15:29:04Z</time>
      </trkpt>
      <trkpt lat="41.6045470" lon="1.9746550">
        <ele>437.5</ele>
        <time>2019-12-01T15:29:05Z</time>
      </trkpt>
      <trkpt lat="41.6045090" lon="1.9746170">
        <ele>438.0</ele>
        <time>2019-12-01T15:29:07Z</time>
      </trkpt>
      <trkpt lat="41.6044610" lon="1.9746090">
        <ele>438.4</ele>
        <time>2019-12-01T15:29:10Z</time>
      </trkpt>
      <trkpt lat="41.6044140" lon="1.9746090">
        <ele>438.7</ele>
        <time>2019-12-01T15:29:12Z</time>
      </trkpt>
      <trkpt lat="41.6043660" lon="1.9746060">
        <ele>439.0</ele>
        <time>2019-12-01T15:29:14Z</time>
      </trkpt>
      <trkpt lat="41.6043370" lon="1.9746050">
        <ele>439.3</ele>
        <time>2019-12-01T15:29:15Z</time>
      </trkpt>
      <trkpt lat="41.6043090" lon="1.9746050">
        <ele>439.5</ele>
        <time>2019-12-01T15:29:16Z</time>
      </trkpt>
      <trkpt lat="41.6042590" lon="1.9746050">
        <ele>439.9</ele>
        <time>2019-12-01T15:29:18Z</time>
      </trkpt>
      <trkpt lat="41.6042080" lon="1.9746110">
        <ele>440.3</ele>
        <time>2019-12-01T15:29:21Z</time>
      </trkpt>
      <trkpt lat="41.6041640" lon="1.9746150">
        <ele>440.7</ele>
        <time>2019-12-01T15:29:23Z</time>
      </trkpt>
      <trkpt lat="41.6041140" lon="1.9746120">
        <ele>441.1</ele>
        <time>2019-12-01T15:29:26Z</time>
      </trkpt>
      <trkpt lat="41.6040710" lon="1.9746070">
        <ele>441.5</ele>
        <time>2019-12-01T15:29:28Z</time>
      </trkpt>
      <trkpt lat="41.6036220" lon="1.9741620">
        <ele>445.3</ele>
        <time>2019-12-01T15:30:15Z</time>
      </trkpt>
      <trkpt lat="41.6036120" lon="1.9741270">
        <ele>445.2</ele>
        <time>2019-12-01T15:30:16Z</time>
      </trkpt>
      <trkpt lat="41.6035860" lon="1.9740750">
        <ele>445.1</ele>
        <time>2019-12-01T15:30:20Z</time>
      </trkpt>
      <trkpt lat="41.6035840" lon="1.9740160">
        <ele>445.0</ele>
        <time>2019-12-01T15:30:21Z</time>
      </trkpt>
      <trkpt lat="41.6035850" lon="1.9739800">
        <ele>444.9</ele>
        <time>2019-12-01T15:30:23Z</time>
      </trkpt>
      <trkpt lat="41.6035840" lon="1.9739430">
        <ele>444.8</ele>
        <time>2019-12-01T15:30:24Z</time>
      </trkpt>
      <trkpt lat="41.6036010" lon="1.9738890">
        <ele>444.6</ele>
        <time>2019-12-01T15:30:25Z</time>
      </trkpt>
      <trkpt lat="41.6036320" lon="1.9738330">
        <ele>444.4</ele>
        <time>2019-12-01T15:30:27Z</time>
      </trkpt>
      <trkpt lat="41.6036660" lon="1.9737760">
        <ele>444.1</ele>
        <time>2019-12-01T15:30:30Z</time>
      </trkpt>
      <trkpt lat="41.6036840" lon="1.9737470">
        <ele>444.0</ele>
        <time>2019-12-01T15:30:31Z</time>
      </trkpt>
      <trkpt lat="41.6037020" lon="1.9737190">
        <ele>443.8</ele>
        <time>2019-12-01T15:30:32Z</time>
      </trkpt>
      <trkpt lat="41.6037200" lon="1.9736880">
        <ele>443.6</ele>
        <time>2019-12-01T15:30:33Z</time>
      </trkpt>
      <trkpt lat="41.6037460" lon="1.9736140">
        <ele>443.2</ele>
        <time>2019-12-01T15:30:35Z</time>
      </trkpt>
      <trkpt lat="41.6037590" lon="1.9735690">
        <ele>442.9</ele>
        <time>2019-12-01T15:30:37Z</time>
      </trkpt>
      <trkpt lat="41.6037630" lon="1.9735330">
        <ele>442.7</ele>
        <time>2019-12-01T15:30:38Z</time>
      </trkpt>
      <trkpt lat="41.6037570" lon="1.9734650">
        <ele>442.5</ele>
        <time>2019-12-01T15:30:40Z</time>
      </trkpt>
      <trkpt lat="41.6037460" lon="1.9734030">
        <ele>442.2</ele>
        <time>2019-12-01T15:30:42Z</time>
      </trkpt>
      <trkpt lat="41.6037380" lon="1.9733400">
        <ele>442.0</ele>
        <time>2019-12-01T15:30:44Z</time>
      </trkpt>
      <trkpt lat="41.6037270" lon="1.9732780">
        <ele>441.8</ele>
        <time>2019-12-01T15:30:47Z</time>
      </trkpt>
      <trkpt lat="41.6037200" lon="1.9732420">
        <ele>441.7</ele>
        <time>2019-12-01T15:30:48Z</time>
      </trkpt>
      <trkpt lat="41.6037010" lon="1.9731740">
        <ele>441.5</ele>
        <time>2019-12-01T15:30:50Z</time>
      </trkpt>
      <trkpt lat="41.6036930" lon="1.9731360">
        <ele>441.4</ele>
        <time>2019-12-01T15:30:51Z</time>
      </trkpt>
      <trkpt lat="41.6036840" lon="1.9730930">
        <ele>441.3</ele>
        <time>2019-12-01T15:30:52Z</time>
      </trkpt>
      <trkpt lat="41.6036710" lon="1.9730410">
        <ele>441.2</ele>
        <time>2019-12-01T15:30:53Z</time>
      </trkpt>
      <trkpt lat="41.6036600" lon="1.9729960">
        <ele>441.1</ele>
        <time>2019-12-01T15:30:55Z</time>
      </trkpt>
      <trkpt lat="41.6036480" lon="1.9729510">
        <ele>440.9</ele>
        <time>2019-12-01T15:30:56Z</time>
      </trkpt>
      <trkpt lat="41.6036360" lon="1.9729050">
        <ele>440.8</ele>
        <time>2019-12-01T15:30:57Z</time>
      </trkpt>
      <trkpt lat="41.6036140" lon="1.9728410">
        <ele>440.5</ele>
        <time>2019-12-01T15:30:58Z</time>
      </trkpt>
      <trkpt lat="41.6035980" lon="1.9728040">
        <ele>440.4</ele>
        <time>2019-12-01T15:30:59Z</time>
      </trkpt>
      <trkpt lat="41.6035810" lon="1.9727650">
        <ele>440.2</ele>
        <time>2019-12-01T15:31:01Z</time>
      </trkpt>
      <trkpt lat="41.6035630" lon="1.9727290">
        <ele>440.0</ele>
        <time>2019-12-01T15:31:02Z</time>
      </trkpt>
      <trkpt lat="41.6035440" lon="1.9726920">
        <ele>439.8</ele>
        <time>2019-12-01T15:31:03Z</time>
      </trkpt>
      <trkpt lat="41.6035270" lon="1.9726590">
        <ele>439.6</ele>
        <time>2019-12-01T15:31:04Z</time>
      </trkpt>
      <trkpt lat="41.6035100" lon="1.9726280">
        <ele>439.5</ele>
        <time>2019-12-01T15:31:05Z</time>
      </trkpt>
      <trkpt lat="41.6034930" lon="1.9725980">
        <ele>439.3</ele>
        <time>2019-12-01T15:31:06Z</time>
      </trkpt>
      <trkpt lat="41.6034770" lon="1.9725680">
        <ele>439.2</ele>
        <time>2019-12-01T15:31:07Z</time>
      </trkpt>
      <trkpt lat="41.6034610" lon="1.9725390">
        <ele>439.0</ele>
        <time>2019-12-01T15:31:08Z</time>
      </trkpt>
      <trkpt lat="41.6034300" lon="1.9724870">
        <ele>438.7</ele>
        <time>2019-12-01T15:31:11Z</time>
      </trkpt>
      <trkpt lat="41.6033980" lon="1.9724330">
        <ele>438.5</ele>
        <time>2019-12-01T15:31:13Z</time>
      </trkpt>
      <trkpt lat="41.6033640" lon="1.9723830">
        <ele>438.2</ele>
        <time>2019-12-01T15:31:15Z</time>
      </trkpt>
      <trkpt lat="41.6033240" lon="1.9723450">
        <ele>438.0</ele>
        <time>2019-12-01T15:31:17Z</time>
      </trkpt>
      <trkpt lat="41.6032830" lon="1.9723080">
        <ele>437.7</ele>
        <time>2019-12-01T15:31:19Z</time>
      </trkpt>
      <trkpt lat="41.6032370" lon="1.9722780">
        <ele>437.5</ele>
        <time>2019-12-01T15:31:22Z</time>
      </trkpt>
      <trkpt lat="41.6031880" lon="1.9722550">
        <ele>437.3</ele>
        <time>2019-12-01T15:31:24Z</time>
      </trkpt>
      <trkpt lat="41.6031410" lon="1.9722220">
        <ele>437.0</ele>
        <time>2019-12-01T15:31:26Z</time>
      </trkpt>
      <trkpt lat="41.6030940" lon="1.9721900">
        <ele>436.8</ele>
        <time>2019-12-01T15:31:29Z</time>
      </trkpt>
      <trkpt lat="41.6030570" lon="1.9721710">
        <ele>436.7</ele>
        <time>2019-12-01T15:31:30Z</time>
      </trkpt>
      <trkpt lat="41.6030110" lon="1.9721640">
        <ele>436.5</ele>
        <time>2019-12-01T15:31:32Z</time>
      </trkpt>
      <trkpt lat="41.6029590" lon="1.9721570">
        <ele>436.3</ele>
        <time>2019-12-01T15:31:35Z</time>
      </trkpt>
      <trkpt lat="41.6029170" lon="1.9721460">
        <ele>436.2</ele>
        <time>2019-12-01T15:31:36Z</time>
      </trkpt>
      <trkpt lat="41.6028890" lon="1.9721410">
        <ele>436.1</ele>
        <time>2019-12-01T15:31:38Z</time>
      </trkpt>
      <trkpt lat="41.6028360" lon="1.9721240">
        <ele>435.9</ele>
        <time>2019-12-01T15:31:40Z</time>
      </trkpt>
      <trkpt lat="41.6028130" lon="1.9721030">
        <ele>435.8</ele>
        <time>2019-12-01T15:31:41Z</time>
      </trkpt>
      <trkpt lat="41.6027720" lon="1.9720790">
        <ele>435.6</ele>
        <time>2019-12-01T15:31:43Z</time>
      </trkpt>
      <trkpt lat="41.6027260" lon="1.9720550">
        <ele>435.4</ele>
        <time>2019-12-01T15:31:45Z</time>
      </trkpt>
      <trkpt lat="41.6024950" lon="1.9718870">
        <ele>434.6</ele>
        <time>2019-12-01T15:32:14Z</time>
      </trkpt>
      <trkpt lat="41.6024690" lon="1.9718760">
        <ele>434.5</ele>
        <time>2019-12-01T15:32:15Z</time>
      </trkpt>
      <trkpt lat="41.6024290" lon="1.9718780">
        <ele>434.4</ele>
        <time>2019-12-01T15:32:20Z</time>
      </trkpt>
      <trkpt lat="41.6024020" lon="1.9718630">
        <ele>434.3</ele>
        <time>2019-12-01T15:32:21Z</time>
      </trkpt>
      <trkpt lat="41.6023600" lon="1.9718380">
        <ele>434.2</ele>
        <time>2019-12-01T15:32:23Z</time>
      </trkpt>
      <trkpt lat="41.6023040" lon="1.9718080">
        <ele>434.0</ele>
        <time>2019-12-01T15:32:24Z</time>
      </trkpt>
      <trkpt lat="41.6022630" lon="1.9717910">
        <ele>433.9</ele>
        <time>2019-12-01T15:32:26Z</time>
      </trkpt>
      <trkpt lat="41.6022280" lon="1.9717840">
        <ele>433.7</ele>
        <time>2019-12-01T15:32:28Z</time>
      </trkpt>
      <trkpt lat="41.6021780" lon="1.9717700">
        <ele>433.6</ele>
        <time>2019-12-01T15:32:29Z</time>
      </trkpt>
      <trkpt lat="41.6021270" lon="1.9717580">
        <ele>433.4</ele>
        <time>2019-12-01T15:32:32Z</time>
      </trkpt>
      <trkpt lat="41.6020900" lon="1.9717550">
        <ele>433.3</ele>
        <time>2019-12-01T15:32:34Z</time>
      </trkpt>
      <trkpt lat="41.6020360" lon="1.9717600">
        <ele>433.2</ele>
        <time>2019-12-01T15:32:36Z</time>
      </trkpt>
      <trkpt lat="41.6020030" lon="1.9717640">
        <ele>433.1</ele>
        <time>2019-12-01T15:32:37Z</time>
      </trkpt>
      <trkpt lat="41.6019700" lon="1.9717710">
        <ele>433.1</ele>
        <time>2019-12-01T15:32:39Z</time>
      </trkpt>
      <trkpt lat="41.6019410" lon="1.9717790">
        <ele>433.1</ele>
        <time>2019-12-01T15:32:40Z</time>
      </trkpt>
      <trkpt lat="41.6019040" lon="1.9717890">
        <ele>433.0</ele>
        <time>2019-12-01T15:32:42Z</time>
      </trkpt>
      <trkpt lat="41.6018600" lon="1.9717950">
        <ele>433.0</ele>
        <time>2019-12-01T15:32:45Z</time>
      </trkpt>
      <trkpt lat="41.6018040" lon="1.9718110">
        <ele>433.0</ele>
        <time>2019-12-01T15:32:47Z</time>
      </trkpt>
      <trkpt lat="41.6017760" lon="1.9718220">
        <ele>433.0</ele>
        <time>2019-12-01T15:32:48Z</time>
      </trkpt>
      <trkpt lat="41.6017190" lon="1.9718310">
        <ele>432.9</ele>
        <time>2019-12-01T15:32:52Z</time>
      </trkpt>
      <trkpt lat="41.6016880" lon="1.9718280">
        <ele>432.9</ele>
        <time>2019-12-01T15:32:55Z</time>
      </trkpt>
      <trkpt lat="41.6016170" lon="1.9718450">
        <ele>432.8</ele>
        <time>2019-12-01T15:33:10Z</time>
      </trkpt>
      <trkpt lat="41.6015890" lon="1.9718440">
        <ele>432.7</ele>
        <time>2019-12-01T15:33:11Z</time>
      </trkpt>
      <trkpt lat="41.6015520" lon="1.9718510">
        <ele>432.6</ele>
        <time>2019-12-01T15:33:14Z</time>
      </trkpt>
      <trkpt lat="41.6015140" lon="1.9718680">
        <ele>432.5</ele>
        <time>2019-12-01T15:33:16Z</time>
      </trkpt>
      <trkpt lat="41.6014820" lon="1.9718870">
        <ele>432.4</ele>
        <time>2019-12-01T15:33:18Z</time>
      </trkpt>
      <trkpt lat="41.6014580" lon="1.9719110">
        <ele>432.3</ele>
        <time>2019-12-01T15:33:20Z</time>
      </trkpt>
      <trkpt lat="41.6014310" lon="1.9719440">
        <ele>432.1</ele>
        <time>2019-12-01T15:33:23Z</time>
      </trkpt>
      <trkpt lat="41.6014010" lon="1.9719920">
        <ele>431.9</ele>
        <time>2019-12-01T15:33:25Z</time>
      </trkpt>
      <trkpt lat="41.6013730" lon="1.9720320">
        <ele>431.8</ele>
        <time>2019-12-01T15:33:27Z</time>
      </trkpt>
      <trkpt lat="41.6013490" lon="1.9720730">
        <ele>431.6</ele>
        <time>2019-12-01T15:33:30Z</time>
      </trkpt>
      <trkpt lat="41.6013250" lon="1.9721220">
        <ele>431.4</ele>
        <time>2019-12-01T15:33:32Z</time>
      </trkpt>
      <trkpt lat="41.6012880" lon="1.9721770">
        <ele>431.2</ele>
        <time>2019-12-01T15:33:34Z</time>
      </trkpt>
      <trkpt lat="41.6012680" lon="1.9722060">
        <ele>431.0</ele>
        <time>2019-12-01T15:33:35Z</time>
      </trkpt>
      <trkpt lat="41.6012320" lon="1.9722490">
        <ele>430.8</ele>
        <time>2019-12-01T15:33:38Z</time>
      </trkpt>
      <trkpt lat="41.6012080" lon="1.9722790">
        <ele>430.6</ele>
        <time>2019-12-01T15:33:39Z</time>
      </trkpt>
      <trkpt lat="41.6012700" lon="1.9725720">
        <ele>431.7</ele>
        <time>2019-12-01T15:34:08Z</time>
      </trkpt>
      <trkpt lat="41.6012990" lon="1.9726250">
        <ele>432.1</ele>
        <time>2019-12-01T15:34:11Z</time>
      </trkpt>
      <trkpt lat="41.6013390" lon="1.9727020">
        <ele>432.8</ele>
        <time>2019-12-01T15:34:13Z</time>
      </trkpt>
      <trkpt lat="41.6013640" lon="1.9727510">
        <ele>433.1</ele>
        <time>2019-12-01T15:34:15Z</time>
      </trkpt>
      <trkpt lat="41.6013880" lon="1.9727970">
        <ele>433.5</ele>
        <time>2019-12-01T15:34:19Z</time>
      </trkpt>
      <trkpt lat="41.6013970" lon="1.9728570">
        <ele>433.8</ele>
        <time>2019-12-01T15:34:21Z</time>
      </trkpt>
      <trkpt lat="41.6013780" lon="1.9729100">
        <ele>434.1</ele>
        <time>2019-12-01T15:34:23Z</time>
      </trkpt>
      <trkpt lat="41.6013600" lon="1.9729580">
        <ele>434.3</ele>
        <time>2019-12-01T15:34:25Z</time>
      </trkpt>
      <trkpt lat="41.6013230" lon="1.9730860">
        <ele>434.7</ele>
        <time>2019-12-01T15:34:27Z</time>
      </trkpt>
      <trkpt lat="41.6013110" lon="1.9731280">
        <ele>434.8</ele>
        <time>2019-12-01T15:34:28Z</time>
      </trkpt>
      <trkpt lat="41.6013050" lon="1.9731670">
        <ele>434.9</ele>
        <time>2019-12-01T15:34:29Z</time>
      </trkpt>
      <trkpt lat="41.6012990" lon="1.9732050">
        <ele>435.1</ele>
        <time>2019-12-01T15:34:30Z</time>
      </trkpt>
      <trkpt lat="41.6012900" lon="1.9732410">
        <ele>435.2</ele>
        <time>2019-12-01T15:34:31Z</time>
      </trkpt>
      <trkpt lat="41.6012780" lon="1.9733070">
        <ele>435.6</ele>
        <time>2019-12-01T15:34:33Z</time>
      </trkpt>
      <trkpt lat="41.6012700" lon="1.9733740">
        <ele>435.9</ele>
        <time>2019-12-01T15:34:35Z</time>
      </trkpt>
      <trkpt lat="41.6012660" lon="1.9734270">
        <ele>436.2</ele>
        <time>2019-12-01T15:34:38Z</time>
      </trkpt>
      <trkpt lat="41.6012720" lon="1.9734750">
        <ele>436.5</ele>
        <time>2019-12-01T15:34:41Z</time>
      </trkpt>
      <trkpt lat="41.6012830" lon="1.9735210">
        <ele>436.7</ele>
        <time>2019-12-01T15:34:42Z</time>
      </trkpt>
      <trkpt lat="41.6012860" lon="1.9735790">
        <ele>437.0</ele>
        <time>2019-12-01T15:34:44Z</time>
      </trkpt>
      <trkpt lat="41.6012700" lon="1.9736330">
        <ele>437.3</ele>
        <time>2019-12-01T15:34:47Z</time>
      </trkpt>
      <trkpt lat="41.6012450" lon="1.9736810">
        <ele>437.5</ele>
        <time>2019-12-01T15:34:50Z</time>
      </trkpt>
      <trkpt lat="41.6012230" lon="1.9737290">
        <ele>437.6</ele>
        <time>2019-12-01T15:34:51Z</time>
      </trkpt>
      <trkpt lat="41.6011940" lon="1.9737580">
        <ele>437.8</ele>
        <time>2019-12-01T15:34:55Z</time>
      </trkpt>
      <trkpt lat="41.6011730" lon="1.9738050">
        <ele>437.9</ele>
        <time>2019-12-01T15:34:56Z</time>
      </trkpt>
      <trkpt lat="41.6011530" lon="1.9738360">
        <ele>438.0</ele>
        <time>2019-12-01T15:34:58Z</time>
      </trkpt>
      <trkpt lat="41.6011340" lon="1.9738640">
        <ele>438.1</ele>
        <time>2019-12-01T15:35:01Z</time>
      </trkpt>
      <trkpt lat="41.6011130" lon="1.9739010">
        <ele>438.3</ele>
        <time>2019-12-01T15:35:04Z</time>
      </trkpt>
      <trkpt lat="41.6010810" lon="1.9739680">
        <ele>438.5</ele>
        <time>2019-12-01T15:35:06Z</time>
      </trkpt>
      <trkpt lat="41.6010600" lon="1.9740180">
        <ele>438.7</ele>
        <time>2019-12-01T15:35:09Z</time>
      </trkpt>
      <trkpt lat="41.6010320" lon="1.9740900">
        <ele>438.9</ele>
        <time>2019-12-01T15:35:12Z</time>
      </trkpt>
      <trkpt lat="41.6010100" lon="1.9741370">
        <ele>439.0</ele>
        <time>2019-12-01T15:35:14Z</time>
      </trkpt>
      <trkpt lat="41.6009890" lon="1.9741810">
        <ele>439.2</ele>
        <time>2019-12-01T15:35:17Z</time>
      </trkpt>
      <trkpt lat="41.6009650" lon="1.9742370">
        <ele>439.3</ele>
        <time>2019-12-01T15:35:21Z</time>
      </trkpt>
      <trkpt lat="41.6007920" lon="1.9746860">
        <ele>440.0</ele>
        <time>2019-12-01T15:35:45Z</time>
      </trkpt>
      <trkpt lat="41.6007830" lon="1.9747470">
        <ele>440.2</ele>
        <time>2019-12-01T15:35:48Z</time>
      </trkpt>
      <trkpt lat="41.6007850" lon="1.9748000">
        <ele>440.4</ele>
        <time>2019-12-01T15:35:51Z</time>
      </trkpt>
      <trkpt lat="41.6007930" lon="1.9748370">
        <ele>440.5</ele>
        <time>2019-12-01T15:35:54Z</time>
      </trkpt>
      <trkpt lat="41.6007910" lon="1.9748850">
        <ele>440.6</ele>
        <time>2019-12-01T15:35:58Z</time>
      </trkpt>
      <trkpt lat="41.6007680" lon="1.9749250">
        <ele>440.7</ele>
        <time>2019-12-01T15:36:04Z</time>
      </trkpt>
      <trkpt lat="41.6007450" lon="1.9749610">
        <ele>440.8</ele>
        <time>2019-12-01T15:36:07Z</time>
      </trkpt>
      <trkpt lat="41.6007040" lon="1.9750060">
        <ele>440.9</ele>
        <time>2019-12-01T15:36:11Z</time>
      </trkpt>
      <trkpt lat="41.6006620" lon="1.9750420">
        <ele>441.0</ele>
        <time>2019-12-01T15:36:14Z</time>
      </trkpt>
      <trkpt lat="41.6006260" lon="1.9750720">
        <ele>441.1</ele>
        <time>2019-12-01T15:36:17Z</time>
      </trkpt>
      <trkpt lat="41.6005910" lon="1.9751030">
        <ele>441.1</ele>
        <time>2019-12-01T15:36:19Z</time>
      </trkpt>
      <trkpt lat="41.6005670" lon="1.9751290">
        <ele>441.1</ele>
        <time>2019-12-01T15:36:21Z</time>
      </trkpt>
      <trkpt lat="41.6005240" lon="1.9751920">
        <ele>441.1</ele>
        <time>2019-12-01T15:36:24Z</time>
      </trkpt>
      <trkpt lat="41.6004940" lon="1.9752420">
        <ele>441.1</ele>
        <time>2019-12-01T15:36:26Z</time>
      </trkpt>
      <trkpt lat="41.6004730" lon="1.9752730">
        <ele>441.1</ele>
        <time>2019-12-01T15:36:27Z</time>
      </trkpt>
      <trkpt lat="41.6004410" lon="1.9753180">
        <ele>441.1</ele>
        <time>2019-12-01T15:36:29Z</time>
      </trkpt>
      <trkpt lat="41.6004030" lon="1.9753440">
        <ele>441.1</ele>
        <time>2019-12-01T15:36:31Z</time>
      </trkpt>
      <trkpt lat="41.6003770" lon="1.9753550">
        <ele>441.1</ele>
        <time>2019-12-01T15:36:33Z</time>
      </trkpt>
      <trkpt lat="41.6003380" lon="1.9753610">
        <ele>441.1</ele>
        <time>2019-12-01T15:36:40Z</time>
      </trkpt>
      <trkpt lat="41.6003050" lon="1.9753700">
        <ele>441.1</ele>
        <time>2019-12-01T15:36:45Z</time>
      </trkpt>
      <trkpt lat="41.6002490" lon="1.9753930">
        <ele>441.1</ele>
        <time>2019-12-01T15:36:47Z</time>
      </trkpt>
      <trkpt lat="41.6002140" lon="1.9754080">
        <ele>441.2</ele>
        <time>2019-12-01T15:36:48Z</time>
      </trkpt>
      <trkpt lat="41.6001860" lon="1.9754180">
        <ele>441.2</ele>
        <time>2019-12-01T15:36:49Z</time>
      </trkpt>
      <trkpt lat="41.6001250" lon="1.9754250">
        <ele>441.5</ele>
        <time>2019-12-01T15:36:52Z</time>
      </trkpt>
      <trkpt lat="41.6000670" lon="1.9754250">
        <ele>441.7</ele>
        <time>2019-12-01T15:36:55Z</time>
      </trkpt>
      <trkpt lat="41.6000250" lon="1.9754190">
        <ele>442.0</ele>
        <time>2019-12-01T15:36:57Z</time>
      </trkpt>
      <trkpt lat="41.5999900" lon="1.9754300">
        <ele>442.1</ele>
        <time>2019-12-01T15:36:58Z</time>
      </trkpt>
      <trkpt lat="41.5999510" lon="1.9754550">
        <ele>442.3</ele>
        <time>2019-12-01T15:37:00Z</time>
      </trkpt>
      <trkpt lat="41.5999160" lon="1.9754890">
        <ele>442.5</ele>
        <time>2019-12-01T15:37:03Z</time>
      </trkpt>
      <trkpt lat="41.5998910" lon="1.9755370">
        <ele>442.6</ele>
        <time>2019-12-01T15:37:06Z</time>
      </trkpt>
      <trkpt lat="41.5998530" lon="1.9755830">
        <ele>442.7</ele>
        <time>2019-12-01T15:37:08Z</time>
      </trkpt>
      <trkpt lat="41.5998090" lon="1.9756120">
        <ele>442.7</ele>
        <time>2019-12-01T15:37:10Z</time>
      </trkpt>
      <trkpt lat="41.5997810" lon="1.9756100">
        <ele>442.8</ele>
        <time>2019-12-01T15:37:13Z</time>
      </trkpt>
      <trkpt lat="41.5997480" lon="1.9756090">
        <ele>442.8</ele>
        <time>2019-12-01T15:37:14Z</time>
      </trkpt>
      <trkpt lat="41.5996970" lon="1.9756160">
        <ele>442.8</ele>
        <time>2019-12-01T15:37:17Z</time>
      </trkpt>
      <trkpt lat="41.5996550" lon="1.9756240">
        <ele>442.9</ele>
        <time>2019-12-01T15:37:20Z</time>
      </trkpt>
      <trkpt lat="41.5996110" lon="1.9756410">
        <ele>443.0</ele>
        <time>2019-12-01T15:37:21Z</time>
      </trkpt>
      <trkpt lat="41.5995650" lon="1.9756810">
        <ele>443.2</ele>
        <time>2019-12-01T15:37:24Z</time>
      </trkpt>
      <trkpt lat="41.5995110" lon="1.9757300">
        <ele>443.5</ele>
        <time>2019-12-01T15:37:27Z</time>
      </trkpt>
      <trkpt lat="41.5994760" lon="1.9757600">
        <ele>443.7</ele>
        <time>2019-12-01T15:37:30Z</time>
      </trkpt>
      <trkpt lat="41.5994420" lon="1.9757820">
        <ele>443.9</ele>
        <time>2019-12-01T15:37:31Z</time>
      </trkpt>
      <trkpt lat="41.5994080" lon="1.9757850">
        <ele>444.1</ele>
        <time>2019-12-01T15:37:33Z</time>
      </trkpt>
      <trkpt lat="41.5993750" lon="1.9757820">
        <ele>444.2</ele>
        <time>2019-12-01T15:37:36Z</time>
      </trkpt>
      <trkpt lat="41.5993290" lon="1.9757760">
        <ele>444.4</ele>
        <time>2019-12-01T15:37:38Z</time>
      </trkpt>
      <trkpt lat="41.5993020" lon="1.9757710">
        <ele>444.4</ele>
        <time>2019-12-01T15:37:39Z</time>
      </trkpt>
      <trkpt lat="41.5992740" lon="1.9757680">
        <ele>444.5</ele>
        <time>2019-12-01T15:37:41Z</time>
      </trkpt>
      <trkpt lat="41.5992240" lon="1.9757660">
        <ele>444.5</ele>
        <time>2019-12-01T15:37:43Z</time>
      </trkpt>
      <trkpt lat="41.5991740" lon="1.9757690">
        <ele>444.5</ele>
        <time>2019-12-01T15:37:46Z</time>
      </trkpt>
      <trkpt lat="41.5991240" lon="1.9757650">
        <ele>444.5</ele>
        <time>2019-12-01T15:37:47Z</time>
      </trkpt>
      <trkpt lat="41.5990970" lon="1.9757650">
        <ele>444.5</ele>
        <time>2019-12-01T15:37:48Z</time>
      </trkpt>
      <trkpt lat="41.5990490" lon="1.9757680">
        <ele>444.5</ele>
        <time>2019-12-01T15:37:51Z</time>
      </trkpt>
      <trkpt lat="41.5990140" lon="1.9757670">
        <ele>444.5</ele>
        <time>2019-12-01T15:37:52Z</time>
      </trkpt>
      <trkpt lat="41.5989670" lon="1.9757580">
        <ele>444.5</ele>
        <time>2019-12-01T15:37:54Z</time>
      </trkpt>
      <trkpt lat="41.5989160" lon="1.9757490">
        <ele>444.5</ele>
        <time>2019-12-01T15:37:57Z</time>
      </trkpt>
      <trkpt lat="41.5988880" lon="1.9757450">
        <ele>444.5</ele>
        <time>2019-12-01T15:37:58Z</time>
      </trkpt>
      <trkpt lat="41.5988390" lon="1.9757450">
        <ele>444.5</ele>
        <time>2019-12-01T15:38:01Z</time>
      </trkpt>
      <trkpt lat="41.5987930" lon="1.9757490">
        <ele>444.4</ele>
        <time>2019-12-01T15:38:02Z</time>
      </trkpt>
      <trkpt lat="41.5987340" lon="1.9757760">
        <ele>444.4</ele>
        <time>2019-12-01T15:38:06Z</time>
      </trkpt>
      <trkpt lat="41.5986660" lon="1.9758160">
        <ele>444.3</ele>
        <time>2019-12-01T15:38:08Z</time>
      </trkpt>
      <trkpt lat="41.5986250" lon="1.9758430">
        <ele>444.3</ele>
        <time>2019-12-01T15:38:10Z</time>
      </trkpt>
      <trkpt lat="41.5985910" lon="1.9758810">
        <ele>444.2</ele>
        <time>2019-12-01T15:38:13Z</time>
      </trkpt>
      <trkpt lat="41.5985630" lon="1.9759220">
        <ele>444.1</ele>
        <time>2019-12-01T15:38:14Z</time>
      </trkpt>
      <trkpt lat="41.5985490" lon="1.9759810">
        <ele>444.0</ele>
        <time>2019-12-01T15:38:16Z</time>
      </trkpt>
      <trkpt lat="41.5985310" lon="1.9760610">
        <ele>443.8</ele>
        <time>2019-12-01T15:38:19Z</time>
      </trkpt>
      <trkpt lat="41.5985180" lon="1.9761260">
        <ele>443.7</ele>
        <time>2019-12-01T15:38:21Z</time>
      </trkpt>
      <trkpt lat="41.5985010" lon="1.9761880">
        <ele>443.5</ele>
        <time>2019-12-01T15:38:24Z</time>
      </trkpt>
      <trkpt lat="41.5984770" lon="1.9762460">
        <ele>443.4</ele>
        <time>2019-12-01T15:38:26Z</time>
      </trkpt>
      <trkpt lat="41.5984260" lon="1.9763450">
        <ele>443.1</ele>
        <time>2019-12-01T15:38:29Z</time>
      </trkpt>
      <trkpt lat="41.5984070" lon="1.9763960">
        <ele>443.0</ele>
        <time>2019-12-01T15:38:32Z</time>
      </trkpt>
      <trkpt lat="41.5983540" lon="1.9764320">
        <ele>442.8</ele>
        <time>2019-12-01T15:38:35Z</time>
      </trkpt>
      <trkpt lat="41.5983140" lon="1.9764430">
        <ele>442.7</ele>
        <time>2019-12-01T15:38:37Z</time>
      </trkpt>
      <trkpt lat="41.5982740" lon="1.9764610">
        <ele>442.5</ele>
        <time>2019-12-01T15:38:40Z</time>
      </trkpt>
      <trkpt lat="41.5982400" lon="1.9765110">
        <ele>442.4</ele>
        <time>2019-12-01T15:38:43Z</time>
      </trkpt>
      <trkpt lat="41.5982660" lon="1.9768700">
        <ele>442.8</ele>
        <time>2019-12-01T15:39:06Z</time>
      </trkpt>
      <trkpt lat="41.5982850" lon="1.9769350">
        <ele>443.4</ele>
        <time>2019-12-01T15:39:09Z</time>
      </trkpt>
      <trkpt lat="41.5983090" lon="1.9769860">
        <ele>444.1</ele>
        <time>2019-12-01T15:39:10Z</time>
      </trkpt>
      <trkpt lat="41.5983670" lon="1.9770930">
        <ele>445.6</ele>
        <time>2019-12-01T15:39:11Z</time>
      </trkpt>
      <trkpt lat="41.5983930" lon="1.9771270">
        <ele>446.2</ele>
        <time>2019-12-01T15:39:12Z</time>
      </trkpt>
      <trkpt lat="41.5984160" lon="1.9771560">
        <ele>446.7</ele>
        <time>2019-12-01T15:39:14Z</time>
      </trkpt>
      <trkpt lat="41.5984400" lon="1.9771830">
        <ele>447.3</ele>
        <time>2019-12-01T15:39:15Z</time>
      </trkpt>
      <trkpt lat="41.5984610" lon="1.9772080">
        <ele>447.8</ele>
        <time>2019-12-01T15:39:17Z</time>
      </trkpt>
      <trkpt lat="41.5985230" lon="1.9772920">
        <ele>449.5</ele>
        <time>2019-12-01T15:39:20Z</time>
      </trkpt>
      <trkpt lat="41.5985430" lon="1.9773210">
        <ele>450.1</ele>
        <time>2019-12-01T15:39:21Z</time>
      </trkpt>
      <trkpt lat="41.5985750" lon="1.9773720">
        <ele>451.2</ele>
        <time>2019-12-01T15:39:24Z</time>
      </trkpt>
      <trkpt lat="41.5986170" lon="1.9774310">
        <ele>451.0</ele>
        <time>2019-12-01T15:39:26Z</time>
      </trkpt>
      <trkpt lat="41.5986370" lon="1.9774980">
        <ele>450.9</ele>
        <time>2019-12-01T15:39:28Z</time>
      </trkpt>
      <trkpt lat="41.5986490" lon="1.9775660">
        <ele>450.7</ele>
        <time>2019-12-01T15:39:31Z</time>
      </trkpt>
      <trkpt lat="41.5986480" lon="1.9776500">
        <ele>450.5</ele>
        <time>2019-12-01T15:39:35Z</time>
      </trkpt>
      <trkpt lat="41.5986390" lon="1.9776890">
        <ele>450.4</ele>
        <time>2019-12-01T15:39:37Z</time>
      </trkpt>
      <trkpt lat="41.5986000" lon="1.9777360">
        <ele>450.2</ele>
        <time>2019-12-01T15:39:40Z</time>
      </trkpt>
      <trkpt lat="41.5985580" lon="1.9777610">
        <ele>450.0</ele>
        <time>2019-12-01T15:39:42Z</time>
      </trkpt>
      <trkpt lat="41.5985320" lon="1.9777730">
        <ele>449.9</ele>
        <time>2019-12-01T15:39:44Z</time>
      </trkpt>
      <trkpt lat="41.5984990" lon="1.9777790">
        <ele>449.8</ele>
        <time>2019-12-01T15:39:45Z</time>
      </trkpt>
      <trkpt lat="41.5984660" lon="1.9777770">
        <ele>449.6</ele>
        <time>2019-12-01T15:39:46Z</time>
      </trkpt>
      <trkpt lat="41.5984270" lon="1.9777680">
        <ele>449.4</ele>
        <time>2019-12-01T15:39:47Z</time>
      </trkpt>
      <trkpt lat="41.5983760" lon="1.9777510">
        <ele>449.1</ele>
        <time>2019-12-01T15:39:48Z</time>
      </trkpt>
      <trkpt lat="41.5983430" lon="1.9777330">
        <ele>448.8</ele>
        <time>2019-12-01T15:39:49Z</time>
      </trkpt>
      <trkpt lat="41.5983110" lon="1.9777070">
        <ele>448.6</ele>
        <time>2019-12-01T15:39:51Z</time>
      </trkpt>
      <trkpt lat="41.5982810" lon="1.9776830">
        <ele>448.3</ele>
        <time>2019-12-01T15:39:52Z</time>
      </trkpt>
      <trkpt lat="41.5982530" lon="1.9776580">
        <ele>448.1</ele>
        <time>2019-12-01T15:39:53Z</time>
      </trkpt>
      <trkpt lat="41.5981960" lon="1.9776040">
        <ele>447.8</ele>
        <time>2019-12-01T15:39:55Z</time>
      </trkpt>
      <trkpt lat="41.5981670" lon="1.9775760">
        <ele>447.6</ele>
        <time>2019-12-01T15:39:56Z</time>
      </trkpt>
      <trkpt lat="41.5981420" lon="1.9775510">
        <ele>447.5</ele>
        <time>2019-12-01T15:39:57Z</time>
      </trkpt>
      <trkpt lat="41.5981200" lon="1.9775270">
        <ele>447.4</ele>
        <time>2019-12-01T15:39:58Z</time>
      </trkpt>
      <trkpt lat="41.5980970" lon="1.9775080">
        <ele>447.3</ele>
        <time>2019-12-01T15:40:00Z</time>
      </trkpt>
      <trkpt lat="41.5980730" lon="1.9774820">
        <ele>447.3</ele>
        <time>2019-12-01T15:40:01Z</time>
      </trkpt>
      <trkpt lat="41.5980320" lon="1.9774450">
        <ele>447.2</ele>
        <time>2019-12-01T15:40:03Z</time>
      </trkpt>
      <trkpt lat="41.5980050" lon="1.9774180">
        <ele>447.1</ele>
        <time>2019-12-01T15:40:04Z</time>
      </trkpt>
      <trkpt lat="41.5979710" lon="1.9773790">
        <ele>447.0</ele>
        <time>2019-12-01T15:40:07Z</time>
      </trkpt>
      <trkpt lat="41.5979380" lon="1.9773480">
        <ele>446.9</ele>
        <time>2019-12-01T15:40:10Z</time>
      </trkpt>
      <trkpt lat="41.5978950" lon="1.9773140">
        <ele>446.8</ele>
        <time>2019-12-01T15:40:11Z</time>
      </trkpt>
      <trkpt lat="41.5978660" lon="1.9772990">
        <ele>446.7</ele>
        <time>2019-12-01T15:40:14Z</time>
      </trkpt>
      <trkpt lat="41.5978340" lon="1.9772810">
        <ele>446.6</ele>
        <time>2019-12-01T15:40:17Z</time>
      </trkpt>
      <trkpt lat="41.5977970" lon="1.9772520">
        <ele>446.5</ele>
        <time>2019-12-01T15:40:19Z</time>
      </trkpt>
      <trkpt lat="41.5977640" lon="1.9772230">
        <ele>446.4</ele>
        <time>2019-12-01T15:40:22Z</time>
      </trkpt>
      <trkpt lat="41.5977360" lon="1.9771970">
        <ele>446.3</ele>
        <time>2019-12-01T15:40:23Z</time>
      </trkpt>
      <trkpt lat="41.5969930" lon="1.9766730">
        <ele>444.4</ele>
        <time>2019-12-01T15:41:21Z</time>
      </trkpt>
      <trkpt lat="41.5969510" lon="1.9766840">
        <ele>444.2</ele>
        <time>2019-12-01T15:41:25Z</time>
      </trkpt>
      <trkpt lat="41.5968840" lon="1.9767090">
        <ele>444.0</ele>
        <time>2019-12-01T15:41:27Z</time>
      </trkpt>
      <trkpt lat="41.5968370" lon="1.9767380">
        <ele>443.8</ele>
        <time>2019-12-01T15:41:29Z</time>
      </trkpt>
      <trkpt lat="41.5967910" lon="1.9767620">
        <ele>443.6</ele>
        <time>2019-12-01T15:41:32Z</time>
      </trkpt>
      <trkpt lat="41.5967660" lon="1.9767780">
        <ele>443.6</ele>
        <time>2019-12-01T15:41:33Z</time>
      </trkpt>
      <trkpt lat="41.5967230" lon="1.9768010">
        <ele>443.5</ele>
        <time>2019-12-01T15:41:35Z</time>
      </trkpt>
      <trkpt lat="41.5966840" lon="1.9768320">
        <ele>443.4</ele>
        <time>2019-12-01T15:41:37Z</time>
      </trkpt>
      <trkpt lat="41.5966590" lon="1.9768530">
        <ele>443.3</ele>
        <time>2019-12-01T15:41:38Z</time>
      </trkpt>
      <trkpt lat="41.5966290" lon="1.9768720">
        <ele>443.2</ele>
        <time>2019-12-01T15:41:39Z</time>
      </trkpt>
      <trkpt lat="41.5965830" lon="1.9768960">
        <ele>443.0</ele>
        <time>2019-12-01T15:41:42Z</time>
      </trkpt>
      <trkpt lat="41.5965220" lon="1.9769250">
        <ele>442.7</ele>
        <time>2019-12-01T15:41:45Z</time>
      </trkpt>
      <trkpt lat="41.5964760" lon="1.9769520">
        <ele>442.5</ele>
        <time>2019-12-01T15:41:48Z</time>
      </trkpt>
      <trkpt lat="41.5964290" lon="1.9769750">
        <ele>442.2</ele>
        <time>2019-12-01T15:41:50Z</time>
      </trkpt>
      <trkpt lat="41.5964100" lon="1.9769840">
        <ele>442.0</ele>
        <time>2019-12-01T15:41:52Z</time>
      </trkpt>
      <trkpt lat="41.5963500" lon="1.9770230">
        <ele>441.6</ele>
        <time>2019-12-01T15:41:54Z</time>
      </trkpt>
      <trkpt lat="41.5963200" lon="1.9770460">
        <ele>441.4</ele>
        <time>2019-12-01T15:41:56Z</time>
      </trkpt>
      <trkpt lat="41.5962920" lon="1.9770670">
        <ele>441.2</ele>
        <time>2019-12-01T15:41:57Z</time>
      </trkpt>
      <trkpt lat="41.5962220" lon="1.9775180">
        <ele>440.2</ele>
        <time>2019-12-01T15:42:21Z</time>
      </trkpt>
      <trkpt lat="41.5962370" lon="1.9775900">
        <ele>440.1</ele>
        <time>2019-12-01T15:42:24Z</time>
      </trkpt>
      <trkpt lat="41.5962490" lon="1.9776310">
        <ele>440.0</ele>
        <time>2019-12-01T15:42:26Z</time>
      </trkpt>
      <trkpt lat="41.5962650" lon="1.9776680">
        <ele>439.9</ele>
        <time>2019-12-01T15:42:28Z</time>
      </trkpt>
      <trkpt lat="41.5962900" lon="1.9777280">
        <ele>439.7</ele>
        <time>2019-12-01T15:42:31Z</time>
      </trkpt>
      <trkpt lat="41.5963030" lon="1.9777720">
        <ele>439.5</ele>
        <time>2019-12-01T15:42:33Z</time>
      </trkpt>
      <trkpt lat="41.5963140" lon="1.9778070">
        <ele>439.4</ele>
        <time>2019-12-01T15:42:35Z</time>
      </trkpt>
      <trkpt lat="41.5963370" lon="1.9778490">
        <ele>439.2</ele>
        <time>2019-12-01T15:42:38Z</time>
      </trkpt>
      <trkpt lat="41.5963490" lon="1.9779050">
        <ele>438.9</ele>
        <time>2019-12-01T15:42:41Z</time>
      </trkpt>
      <trkpt lat="41.5963300" lon="1.9779980">
        <ele>438.6</ele>
        <time>2019-12-01T15:42:45Z</time>
      </trkpt>
      <trkpt lat="41.5963140" lon="1.9780340">
        <ele>438.4</ele>
        <time>2019-12-01T15:42:46Z</time>
      </trkpt>
      <trkpt lat="41.5962860" lon="1.9780810">
        <ele>438.3</ele>
        <time>2019-12-01T15:42:47Z</time>
      </trkpt>
      <trkpt lat="41.5961760" lon="1.9780870">
        <ele>438.1</ele>
        <time>2019-12-01T15:42:50Z</time>
      </trkpt>
      <trkpt lat="41.5961040" lon="1.9780570">
        <ele>438.0</ele>
        <time>2019-12-01T15:43:08Z</time>
      </trkpt>
      <trkpt lat="41.5960330" lon="1.9780260">
        <ele>438.0</ele>
        <time>2019-12-01T15:43:09Z</time>
      </trkpt>
      <trkpt lat="41.5960010" lon="1.9780130">
        <ele>438.0</ele>
        <time>2019-12-01T15:43:11Z</time>
      </trkpt>
      <trkpt lat="41.5959720" lon="1.9779950">
        <ele>437.9</ele>
        <time>2019-12-01T15:43:13Z</time>
      </trkpt>
      <trkpt lat="41.5959460" lon="1.9779760">
        <ele>437.9</ele>
        <time>2019-12-01T15:43:14Z</time>
      </trkpt>
      <trkpt lat="41.5958870" lon="1.9779450">
        <ele>437.7</ele>
        <time>2019-12-01T15:43:16Z</time>
      </trkpt>
      <trkpt lat="41.5958390" lon="1.9779250">
        <ele>437.5</ele>
        <time>2019-12-01T15:43:19Z</time>
      </trkpt>
      <trkpt lat="41.5957390" lon="1.9779000">
        <ele>437.1</ele>
        <time>2019-12-01T15:43:22Z</time>
      </trkpt>
      <trkpt lat="41.5957110" lon="1.9778940">
        <ele>437.0</ele>
        <time>2019-12-01T15:43:23Z</time>
      </trkpt>
      <trkpt lat="41.5956790" lon="1.9778880">
        <ele>436.8</ele>
        <time>2019-12-01T15:43:24Z</time>
      </trkpt>
      <trkpt lat="41.5956480" lon="1.9778810">
        <ele>436.7</ele>
        <time>2019-12-01T15:43:25Z</time>
      </trkpt>
      <trkpt lat="41.5956200" lon="1.9778720">
        <ele>436.6</ele>
        <time>2019-12-01T15:43:26Z</time>
      </trkpt>
      <trkpt lat="41.5955720" lon="1.9778590">
        <ele>436.4</ele>
        <time>2019-12-01T15:43:28Z</time>
      </trkpt>
      <trkpt lat="41.5954900" lon="1.9778350">
        <ele>436.1</ele>
        <time>2019-12-01T15:43:32Z</time>
      </trkpt>
      <trkpt lat="41.5954580" lon="1.9778240">
        <ele>435.9</ele>
        <time>2019-12-01T15:43:33Z</time>
      </trkpt>
      <trkpt lat="41.5954270" lon="1.9778150">
        <ele>435.8</ele>
        <time>2019-12-01T15:43:35Z</time>
      </trkpt>
      <trkpt lat="41.5953990" lon="1.9778060">
        <ele>435.7</ele>
        <time>2019-12-01T15:43:36Z</time>
      </trkpt>
      <trkpt lat="41.5953680" lon="1.9777950">
        <ele>435.6</ele>
        <time>2019-12-01T15:43:38Z</time>
      </trkpt>
      <trkpt lat="41.5952990" lon="1.9777730">
        <ele>435.3</ele>
        <time>2019-12-01T15:43:40Z</time>
      </trkpt>
      <trkpt lat="41.5952700" lon="1.9777620">
        <ele>435.2</ele>
        <time>2019-12-01T15:43:41Z</time>
      </trkpt>
      <trkpt lat="41.5952420" lon="1.9777530">
        <ele>435.1</ele>
        <time>2019-12-01T15:43:42Z</time>
      </trkpt>
      <trkpt lat="41.5951920" lon="1.9777400">
        <ele>434.9</ele>
        <time>2019-12-01T15:43:44Z</time>
      </trkpt>
      <trkpt lat="41.5951510" lon="1.9777320">
        <ele>434.8</ele>
        <time>2019-12-01T15:43:47Z</time>
      </trkpt>
      <trkpt lat="41.5950810" lon="1.9777250">
        <ele>434.6</ele>
        <time>2019-12-01T15:43:49Z</time>
      </trkpt>
      <trkpt lat="41.5950350" lon="1.9777350">
        <ele>434.4</ele>
        <time>2019-12-01T15:43:52Z</time>
      </trkpt>
      <trkpt lat="41.5949890" lon="1.9777640">
        <ele>434.3</ele>
        <time>2019-12-01T15:43:54Z</time>
      </trkpt>
      <trkpt lat="41.5949650" lon="1.9777850">
        <ele>434.2</ele>
        <time>2019-12-01T15:43:55Z</time>
      </trkpt>
      <trkpt lat="41.5949230" lon="1.9778170">
        <ele>434.0</ele>
        <time>2019-12-01T15:43:57Z</time>
      </trkpt>
      <trkpt lat="41.5949000" lon="1.9778380">
        <ele>434.0</ele>
        <time>2019-12-01T15:43:58Z</time>
      </trkpt>
      <trkpt lat="41.5948620" lon="1.9778890">
        <ele>433.7</ele>
        <time>2019-12-01T15:44:01Z</time>
      </trkpt>
      <trkpt lat="41.5948420" lon="1.9779140">
        <ele>433.6</ele>
        <time>2019-12-01T15:44:02Z</time>
      </trkpt>
      <trkpt lat="41.5948120" lon="1.9779690">
        <ele>433.4</ele>
        <time>2019-12-01T15:44:05Z</time>
      </trkpt>
      <trkpt lat="41.5947730" lon="1.9780530">
        <ele>433.0</ele>
        <time>2019-12-01T15:44:07Z</time>
      </trkpt>
      <trkpt lat="41.5947570" lon="1.9780850">
        <ele>432.8</ele>
        <time>2019-12-01T15:44:08Z</time>
      </trkpt>
      <trkpt lat="41.5947390" lon="1.9781270">
        <ele>432.5</ele>
        <time>2019-12-01T15:44:10Z</time>
      </trkpt>
      <trkpt lat="41.5947070" lon="1.9782060">
        <ele>432.0</ele>
        <time>2019-12-01T15:44:11Z</time>
      </trkpt>
      <trkpt lat="41.5946910" lon="1.9782450">
        <ele>431.7</ele>
        <time>2019-12-01T15:44:12Z</time>
      </trkpt>
      <trkpt lat="41.5946730" lon="1.9782820">
        <ele>431.5</ele>
        <time>2019-12-01T15:44:13Z</time>
      </trkpt>
      <trkpt lat="41.5946580" lon="1.9783210">
        <ele>431.2</ele>
        <time>2019-12-01T15:44:15Z</time>
      </trkpt>
      <trkpt lat="41.5946460" lon="1.9783610">
        <ele>430.9</ele>
        <time>2019-12-01T15:44:16Z</time>
      </trkpt>
      <trkpt lat="41.5946360" lon="1.9784050">
        <ele>430.6</ele>
        <time>2019-12-01T15:44:18Z</time>
      </trkpt>
      <trkpt lat="41.5946280" lon="1.9784540">
        <ele>430.3</ele>
        <time>2019-12-01T15:44:19Z</time>
      </trkpt>
      <trkpt lat="41.5946130" lon="1.9785490">
        <ele>429.8</ele>
        <time>2019-12-01T15:44:20Z</time>
      </trkpt>
      <trkpt lat="41.5946080" lon="1.9785950">
        <ele>429.6</ele>
        <time>2019-12-01T15:44:21Z</time>
      </trkpt>
      <trkpt lat="41.5945950" lon="1.9786660">
        <ele>429.3</ele>
        <time>2019-12-01T15:44:24Z</time>
      </trkpt>
      <trkpt lat="41.5943140" lon="1.9796950">
        <ele>427.9</ele>
        <time>2019-12-01T15:45:24Z</time>
      </trkpt>
      <trkpt lat="41.5942790" lon="1.9797520">
        <ele>427.7</ele>
        <time>2019-12-01T15:45:29Z</time>
      </trkpt>
      <trkpt lat="41.5942660" lon="1.9797840">
        <ele>427.7</ele>
        <time>2019-12-01T15:45:30Z</time>
      </trkpt>
      <trkpt lat="41.5942440" lon="1.9799450">
        <ele>427.3</ele>
        <time>2019-12-01T15:45:34Z</time>
      </trkpt>
      <trkpt lat="41.5942450" lon="1.9799900">
        <ele>427.2</ele>
        <time>2019-12-01T15:45:35Z</time>
      </trkpt>
      <trkpt lat="41.5942440" lon="1.9800320">
        <ele>427.1</ele>
        <time>2019-12-01T15:45:36Z</time>
      </trkpt>
      <trkpt lat="41.5942450" lon="1.9800710">
        <ele>427.0</ele>
        <time>2019-12-01T15:45:37Z</time>
      </trkpt>
      <trkpt lat="41.5942450" lon="1.9801140">
        <ele>426.9</ele>
        <time>2019-12-01T15:45:38Z</time>
      </trkpt>
      <trkpt lat="41.5942440" lon="1.9801840">
        <ele>426.7</ele>
        <time>2019-12-01T15:45:40Z</time>
      </trkpt>
      <trkpt lat="41.5942380" lon="1.9802500">
        <ele>426.4</ele>
        <time>2019-12-01T15:45:43Z</time>
      </trkpt>
      <trkpt lat="41.5942290" lon="1.9803390">
        <ele>426.1</ele>
        <time>2019-12-01T15:45:47Z</time>
      </trkpt>
      <trkpt lat="41.5942210" lon="1.9803820">
        <ele>425.9</ele>
        <time>2019-12-01T15:45:49Z</time>
      </trkpt>
      <trkpt lat="41.5942100" lon="1.9804230">
        <ele>425.7</ele>
        <time>2019-12-01T15:45:52Z</time>
      </trkpt>
      <trkpt lat="41.5941840" lon="1.9804630">
        <ele>425.5</ele>
        <time>2019-12-01T15:45:56Z</time>
      </trkpt>
      <trkpt lat="41.5937660" lon="1.9808230">
        <ele>423.7</ele>
        <time>2019-12-01T15:46:37Z</time>
      </trkpt>
      <trkpt lat="41.5937310" lon="1.9808560">
        <ele>423.5</ele>
        <time>2019-12-01T15:46:39Z</time>
      </trkpt>
      <trkpt lat="41.5937000" lon="1.9808860">
        <ele>423.3</ele>
        <time>2019-12-01T15:46:41Z</time>
      </trkpt>
      <trkpt lat="41.5936640" lon="1.9809140">
        <ele>423.1</ele>
        <time>2019-12-01T15:46:43Z</time>
      </trkpt>
      <trkpt lat="41.5936380" lon="1.9809370">
        <ele>423.0</ele>
        <time>2019-12-01T15:46:45Z</time>
      </trkpt>
      <trkpt lat="41.5935880" lon="1.9809770">
        <ele>422.7</ele>
        <time>2019-12-01T15:46:49Z</time>
      </trkpt>
      <trkpt lat="41.5935430" lon="1.9810170">
        <ele>422.5</ele>
        <time>2019-12-01T15:46:52Z</time>
      </trkpt>
      <trkpt lat="41.5935060" lon="1.9810440">
        <ele>422.4</ele>
        <time>2019-12-01T15:46:54Z</time>
      </trkpt>
      <trkpt lat="41.5934650" lon="1.9810690">
        <ele>422.2</ele>
        <time>2019-12-01T15:46:56Z</time>
      </trkpt>
      <trkpt lat="41.5934260" lon="1.9811000">
        <ele>422.0</ele>
        <time>2019-12-01T15:46:58Z</time>
      </trkpt>
      <trkpt lat="41.5934040" lon="1.9811310">
        <ele>421.9</ele>
        <time>2019-12-01T15:47:00Z</time>
      </trkpt>
      <trkpt lat="41.5933720" lon="1.9811850">
        <ele>421.8</ele>
        <time>2019-12-01T15:47:04Z</time>
      </trkpt>
      <trkpt lat="41.5933500" lon="1.9812140">
        <ele>421.7</ele>
        <time>2019-12-01T15:47:07Z</time>
      </trkpt>
      <trkpt lat="41.5933330" lon="1.9812540">
        <ele>421.6</ele>
        <time>2019-12-01T15:47:12Z</time>
      </trkpt>
      <trkpt lat="41.5933140" lon="1.9812980">
        <ele>421.4</ele>
        <time>2019-12-01T15:47:14Z</time>
      </trkpt>
      <trkpt lat="41.5932940" lon="1.9813430">
        <ele>421.3</ele>
        <time>2019-12-01T15:47:16Z</time>
      </trkpt>
      <trkpt lat="41.5932670" lon="1.9814250">
        <ele>421.2</ele>
        <time>2019-12-01T15:47:19Z</time>
      </trkpt>
      <trkpt lat="41.5932500" lon="1.9814780">
        <ele>421.0</ele>
        <time>2019-12-01T15:47:21Z</time>
      </trkpt>
      <trkpt lat="41.5932380" lon="1.9815300">
        <ele>420.9</ele>
        <time>2019-12-01T15:47:23Z</time>
      </trkpt>
      <trkpt lat="41.5932270" lon="1.9815760">
        <ele>420.8</ele>
        <time>2019-12-01T15:47:25Z</time>
      </trkpt>
      <trkpt lat="41.5932220" lon="1.9816190">
        <ele>420.7</ele>
        <time>2019-12-01T15:47:27Z</time>
      </trkpt>
      <trkpt lat="41.5932200" lon="1.9816560">
        <ele>420.7</ele>
        <time>2019-12-01T15:47:29Z</time>
      </trkpt>
      <trkpt lat="41.5932220" lon="1.9816930">
        <ele>420.6</ele>
        <time>2019-12-01T15:47:31Z</time>
      </trkpt>
      <trkpt lat="41.5932180" lon="1.9817360">
        <ele>420.5</ele>
        <time>2019-12-01T15:47:34Z</time>
      </trkpt>
      <trkpt lat="41.5932610" lon="1.9818300">
        <ele>420.2</ele>
        <time>2019-12-01T15:47:40Z</time>
      </trkpt>
      <trkpt lat="41.5932600" lon="1.9819200">
        <ele>420.0</ele>
        <time>2019-12-01T15:47:43Z</time>
      </trkpt>
      <trkpt lat="41.5932630" lon="1.9819660">
        <ele>419.9</ele>
        <time>2019-12-01T15:47:45Z</time>
      </trkpt>
      <trkpt lat="41.5932670" lon="1.9820420">
        <ele>419.7</ele>
        <time>2019-12-01T15:47:48Z</time>
      </trkpt>
      <trkpt lat="41.5932680" lon="1.9820960">
        <ele>419.5</ele>
        <time>2019-12-01T15:47:49Z</time>
      </trkpt>
      <trkpt lat="41.5932660" lon="1.9821390">
        <ele>419.4</ele>
        <time>2019-12-01T15:47:51Z</time>
      </trkpt>
      <trkpt lat="41.5932660" lon="1.9822210">
        <ele>419.2</ele>
        <time>2019-12-01T15:47:53Z</time>
      </trkpt>
      <trkpt lat="41.5932760" lon="1.9823070">
        <ele>419.0</ele>
        <time>2019-12-01T15:47:55Z</time>
      </trkpt>
      <trkpt lat="41.5932740" lon="1.9823610">
        <ele>418.9</ele>
        <time>2019-12-01T15:47:57Z</time>
      </trkpt>
      <trkpt lat="41.5932680" lon="1.9824350">
        <ele>418.8</ele>
        <time>2019-12-01T15:47:58Z</time>
      </trkpt>
      <trkpt lat="41.5932770" lon="1.9824820">
        <ele>418.7</ele>
        <time>2019-12-01T15:48:00Z</time>
      </trkpt>
      <trkpt lat="41.5932770" lon="1.9825280">
        <ele>418.7</ele>
        <time>2019-12-01T15:48:01Z</time>
      </trkpt>
      <trkpt lat="41.5932780" lon="1.9825700">
        <ele>418.6</ele>
        <time>2019-12-01T15:48:02Z</time>
      </trkpt>
      <trkpt lat="41.5932820" lon="1.9826070">
        <ele>418.6</ele>
        <time>2019-12-01T15:48:03Z</time>
      </trkpt>
      <trkpt lat="41.5932850" lon="1.9826800">
        <ele>418.5</ele>
        <time>2019-12-01T15:48:05Z</time>
      </trkpt>
      <trkpt lat="41.5932890" lon="1.9827180">
        <ele>418.4</ele>
        <time>2019-12-01T15:48:07Z</time>
      </trkpt>
      <trkpt lat="41.5932910" lon="1.9827560">
        <ele>418.4</ele>
        <time>2019-12-01T15:48:09Z</time>
      </trkpt>
      <trkpt lat="41.5932940" lon="1.9828690">
        <ele>418.3</ele>
        <time>2019-12-01T15:48:12Z</time>
      </trkpt>
      <trkpt lat="41.5932960" lon="1.9829100">
        <ele>418.2</ele>
        <time>2019-12-01T15:48:13Z</time>
      </trkpt>
      <trkpt lat="41.5932950" lon="1.9829990">
        <ele>418.1</ele>
        <time>2019-12-01T15:48:15Z</time>
      </trkpt>
      <trkpt lat="41.5932860" lon="1.9830330">
        <ele>418.1</ele>
        <time>2019-12-01T15:48:16Z</time>
      </trkpt>
      <trkpt lat="41.5932490" lon="1.9830850">
        <ele>418.0</ele>
        <time>2019-12-01T15:48:18Z</time>
      </trkpt>
      <trkpt lat="41.5932280" lon="1.9831070">
        <ele>417.9</ele>
        <time>2019-12-01T15:48:19Z</time>
      </trkpt>
      <trkpt lat="41.5931800" lon="1.9831330">
        <ele>417.9</ele>
        <time>2019-12-01T15:48:21Z</time>
      </trkpt>
      <trkpt lat="41.5931530" lon="1.9831400">
        <ele>417.8</ele>
        <time>2019-12-01T15:48:22Z</time>
      </trkpt>
      <trkpt lat="41.5931180" lon="1.9831390">
        <ele>417.7</ele>
        <time>2019-12-01T15:48:24Z</time>
      </trkpt>
      <trkpt lat="41.5930850" lon="1.9831270">
        <ele>417.6</ele>
        <time>2019-12-01T15:48:26Z</time>
      </trkpt>
      <trkpt lat="41.5926850" lon="1.9827490">
        <ele>416.0</ele>
        <time>2019-12-01T15:48:53Z</time>
      </trkpt>
      <trkpt lat="41.5926520" lon="1.9827540">
        <ele>415.9</ele>
        <time>2019-12-01T15:48:55Z</time>
      </trkpt>
      <trkpt lat="41.5926180" lon="1.9827510">
        <ele>415.8</ele>
        <time>2019-12-01T15:48:58Z</time>
      </trkpt>
      <trkpt lat="41.5925760" lon="1.9827320">
        <ele>415.7</ele>
        <time>2019-12-01T15:49:02Z</time>
      </trkpt>
      <trkpt lat="41.5925240" lon="1.9827420">
        <ele>415.5</ele>
        <time>2019-12-01T15:49:05Z</time>
      </trkpt>
      <trkpt lat="41.5924970" lon="1.9827500">
        <ele>415.4</ele>
        <time>2019-12-01T15:49:06Z</time>
      </trkpt>
      <trkpt lat="41.5924340" lon="1.9827750">
        <ele>415.1</ele>
        <time>2019-12-01T15:49:08Z</time>
      </trkpt>
      <trkpt lat="41.5923890" lon="1.9827980">
        <ele>414.8</ele>
        <time>2019-12-01T15:49:10Z</time>
      </trkpt>
      <trkpt lat="41.5923310" lon="1.9828550">
        <ele>414.4</ele>
        <time>2019-12-01T15:49:13Z</time>
      </trkpt>
      <trkpt lat="41.5922840" lon="1.9829090">
        <ele>414.0</ele>
        <time>2019-12-01T15:49:16Z</time>
      </trkpt>
      <trkpt lat="41.5922400" lon="1.9829500">
        <ele>413.7</ele>
        <time>2019-12-01T15:49:18Z</time>
      </trkpt>
      <trkpt lat="41.5922180" lon="1.9829710">
        <ele>413.5</ele>
        <time>2019-12-01T15:49:20Z</time>
      </trkpt>
      <trkpt lat="41.5921900" lon="1.9829980">
        <ele>413.3</ele>
        <time>2019-12-01T15:49:21Z</time>
      </trkpt>
      <trkpt lat="41.5921680" lon="1.9830200">
        <ele>413.1</ele>
        <time>2019-12-01T15:49:22Z</time>
      </trkpt>
      <trkpt lat="41.5921220" lon="1.9830610">
        <ele>412.8</ele>
        <time>2019-12-01T15:49:25Z</time>
      </trkpt>
      <trkpt lat="41.5920860" lon="1.9830920">
        <ele>412.5</ele>
        <time>2019-12-01T15:49:26Z</time>
      </trkpt>
      <trkpt lat="41.5920620" lon="1.9831120">
        <ele>412.4</ele>
        <time>2019-12-01T15:49:27Z</time>
      </trkpt>
      <trkpt lat="41.5920370" lon="1.9831330">
        <ele>412.2</ele>
        <time>2019-12-01T15:49:28Z</time>
      </trkpt>
      <trkpt lat="41.5920110" lon="1.9831550">
        <ele>412.0</ele>
        <time>2019-12-01T15:49:30Z</time>
      </trkpt>
      <trkpt lat="41.5919800" lon="1.9831830">
        <ele>411.8</ele>
        <time>2019-12-01T15:49:31Z</time>
      </trkpt>
      <trkpt lat="41.5919240" lon="1.9832280">
        <ele>411.4</ele>
        <time>2019-12-01T15:49:32Z</time>
      </trkpt>
      <trkpt lat="41.5918970" lon="1.9832450">
        <ele>411.3</ele>
        <time>2019-12-01T15:49:34Z</time>
      </trkpt>
      <trkpt lat="41.5918640" lon="1.9832700">
        <ele>411.1</ele>
        <time>2019-12-01T15:49:36Z</time>
      </trkpt>
      <trkpt lat="41.5918240" lon="1.9833090">
        <ele>410.8</ele>
        <time>2019-12-01T15:49:37Z</time>
      </trkpt>
      <trkpt lat="41.5918030" lon="1.9833360">
        <ele>410.6</ele>
        <time>2019-12-01T15:49:38Z</time>
      </trkpt>
      <trkpt lat="41.5917470" lon="1.9833960">
        <ele>410.1</ele>
        <time>2019-12-01T15:49:41Z</time>
      </trkpt>
      <trkpt lat="41.5917240" lon="1.9834150">
        <ele>409.9</ele>
        <time>2019-12-01T15:49:42Z</time>
      </trkpt>
      <trkpt lat="41.5916830" lon="1.9834520">
        <ele>409.6</ele>
        <time>2019-12-01T15:49:44Z</time>
      </trkpt>
      <trkpt lat="41.5916380" lon="1.9834820">
        <ele>409.2</ele>
        <time>2019-12-01T15:49:47Z</time>
      </trkpt>
      <trkpt lat="41.5915790" lon="1.9835350">
        <ele>408.7</ele>
        <time>2019-12-01T15:49:49Z</time>
      </trkpt>
      <trkpt lat="41.5915530" lon="1.9835620">
        <ele>408.4</ele>
        <time>2019-12-01T15:49:50Z</time>
      </trkpt>
      <trkpt lat="41.5915240" lon="1.9835900">
        <ele>408.2</ele>
        <time>2019-12-01T15:49:52Z</time>
      </trkpt>
      <trkpt lat="41.5914970" lon="1.9836130">
        <ele>407.9</ele>
        <time>2019-12-01T15:49:53Z</time>
      </trkpt>
      <trkpt lat="41.5914690" lon="1.9836380">
        <ele>407.7</ele>
        <time>2019-12-01T15:49:54Z</time>
      </trkpt>
      <trkpt lat="41.5914190" lon="1.9836870">
        <ele>407.2</ele>
        <time>2019-12-01T15:49:56Z</time>
      </trkpt>
      <trkpt lat="41.5913940" lon="1.9837110">
        <ele>407.0</ele>
        <time>2019-12-01T15:49:57Z</time>
      </trkpt>
      <trkpt lat="41.5913530" lon="1.9837500">
        <ele>406.6</ele>
        <time>2019-12-01T15:49:59Z</time>
      </trkpt>
      <trkpt lat="41.5913210" lon="1.9837920">
        <ele>406.3</ele>
        <time>2019-12-01T15:50:02Z</time>
      </trkpt>
      <trkpt lat="41.5912890" lon="1.9838240">
        <ele>406.0</ele>
        <time>2019-12-01T15:50:05Z</time>
      </trkpt>
      <trkpt lat="41.5910080" lon="1.9842150">
        <ele>402.2</ele>
        <time>2019-12-01T15:50:31Z</time>
      </trkpt>
      <trkpt lat="41.5909850" lon="1.9842630">
        <ele>402.0</ele>
        <time>2019-12-01T15:50:33Z</time>
      </trkpt>
      <trkpt lat="41.5909680" lon="1.9843000">
        <ele>401.9</ele>
        <time>2019-12-01T15:50:35Z</time>
      </trkpt>
      <trkpt lat="41.5909600" lon="1.9843420">
        <ele>401.9</ele>
        <time>2019-12-01T15:50:37Z</time>
      </trkpt>
      <trkpt lat="41.5909580" lon="1.9843910">
        <ele>401.8</ele>
        <time>2019-12-01T15:50:39Z</time>
      </trkpt>
      <trkpt lat="41.5909540" lon="1.9844390">
        <ele>401.8</ele>
        <time>2019-12-01T15:50:41Z</time>
      </trkpt>
      <trkpt lat="41.5909480" lon="1.9844870">
        <ele>401.8</ele>
        <time>2019-12-01T15:50:43Z</time>
      </trkpt>
      <trkpt lat="41.5909470" lon="1.9845360">
        <ele>401.9</ele>
        <time>2019-12-01T15:50:45Z</time>
      </trkpt>
      <trkpt lat="41.5909450" lon="1.9845920">
        <ele>401.9</ele>
        <time>2019-12-01T15:50:47Z</time>
      </trkpt>
      <trkpt lat="41.5909450" lon="1.9846440">
        <ele>402.0</ele>
        <time>2019-12-01T15:50:49Z</time>
      </trkpt>
      <trkpt lat="41.5909490" lon="1.9846850">
        <ele>402.0</ele>
        <time>2019-12-01T15:50:51Z</time>
      </trkpt>
      <trkpt lat="41.5909590" lon="1.9847250">
        <ele>402.1</ele>
        <time>2019-12-01T15:50:53Z</time>
      </trkpt>
      <trkpt lat="41.5909720" lon="1.9847760">
        <ele>402.1</ele>
        <time>2019-12-01T15:50:56Z</time>
      </trkpt>
      <trkpt lat="41.5909820" lon="1.9848110">
        <ele>402.1</ele>
        <time>2019-12-01T15:50:58Z</time>
      </trkpt>
      <trkpt lat="41.5909890" lon="1.9848480">
        <ele>402.1</ele>
        <time>2019-12-01T15:51:00Z</time>
      </trkpt>
      <trkpt lat="41.5909970" lon="1.9848900">
        <ele>402.1</ele>
        <time>2019-12-01T15:51:02Z</time>
      </trkpt>
      <trkpt lat="41.5910090" lon="1.9849880">
        <ele>402.0</ele>
        <time>2019-12-01T15:51:08Z</time>
      </trkpt>
      <trkpt lat="41.5910090" lon="1.9850520">
        <ele>402.0</ele>
        <time>2019-12-01T15:51:11Z</time>
      </trkpt>
      <trkpt lat="41.5910040" lon="1.9850970">
        <ele>401.9</ele>
        <time>2019-12-01T15:51:13Z</time>
      </trkpt>
      <trkpt lat="41.5909890" lon="1.9851510">
        <ele>401.9</ele>
        <time>2019-12-01T15:51:15Z</time>
      </trkpt>
      <trkpt lat="41.5909500" lon="1.9851940">
        <ele>401.8</ele>
        <time>2019-12-01T15:51:19Z</time>
      </trkpt>
      <trkpt lat="41.5908710" lon="1.9852260">
        <ele>401.7</ele>
        <time>2019-12-01T15:51:21Z</time>
      </trkpt>
      <trkpt lat="41.5908400" lon="1.9852350">
        <ele>401.6</ele>
        <time>2019-12-01T15:51:23Z</time>
      </trkpt>
      <trkpt lat="41.5907970" lon="1.9852400">
        <ele>401.5</ele>
        <time>2019-12-01T15:51:24Z</time>
      </trkpt>
      <trkpt lat="41.5907610" lon="1.9852390">
        <ele>401.4</ele>
        <time>2019-12-01T15:51:25Z</time>
      </trkpt>
      <trkpt lat="41.5907260" lon="1.9852390">
        <ele>401.3</ele>
        <time>2019-12-01T15:51:27Z</time>
      </trkpt>
      <trkpt lat="41.5906330" lon="1.9852330">
        <ele>401.0</ele>
        <time>2019-12-01T15:51:29Z</time>
      </trkpt>
      <trkpt lat="41.5905970" lon="1.9852260">
        <ele>400.8</ele>
        <time>2019-12-01T15:51:30Z</time>
      </trkpt>
      <trkpt lat="41.5905620" lon="1.9852180">
        <ele>400.6</ele>
        <time>2019-12-01T15:51:31Z</time>
      </trkpt>
      <trkpt lat="41.5905320" lon="1.9852110">
        <ele>400.4</ele>
        <time>2019-12-01T15:51:33Z</time>
      </trkpt>
      <trkpt lat="41.5904840" lon="1.9851970">
        <ele>400.2</ele>
        <time>2019-12-01T15:51:34Z</time>
      </trkpt>
      <trkpt lat="41.5904540" lon="1.9851940">
        <ele>400.1</ele>
        <time>2019-12-01T15:51:35Z</time>
      </trkpt>
      <trkpt lat="41.5903950" lon="1.9851840">
        <ele>399.8</ele>
        <time>2019-12-01T15:51:38Z</time>
      </trkpt>
      <trkpt lat="41.5903500" lon="1.9851700">
        <ele>399.6</ele>
        <time>2019-12-01T15:51:40Z</time>
      </trkpt>
      <trkpt lat="41.5903030" lon="1.9851600">
        <ele>399.3</ele>
        <time>2019-12-01T15:51:42Z</time>
      </trkpt>
      <trkpt lat="41.5902440" lon="1.9851540">
        <ele>399.0</ele>
        <time>2019-12-01T15:51:45Z</time>
      </trkpt>
      <trkpt lat="41.5901940" lon="1.9851540">
        <ele>398.8</ele>
        <time>2019-12-01T15:51:47Z</time>
      </trkpt>
      <trkpt lat="41.5901360" lon="1.9851620">
        <ele>398.6</ele>
        <time>2019-12-01T15:51:50Z</time>
      </trkpt>
      <trkpt lat="41.5900940" lon="1.9851680">
        <ele>398.5</ele>
        <time>2019-12-01T15:51:52Z</time>
      </trkpt>
      <trkpt lat="41.5900450" lon="1.9851870">
        <ele>398.4</ele>
        <time>2019-12-01T15:51:55Z</time>
      </trkpt>
      <trkpt lat="41.5900100" lon="1.9852190">
        <ele>398.4</ele>
        <time>2019-12-01T15:51:57Z</time>
      </trkpt>
      <trkpt lat="41.5899710" lon="1.9852560">
        <ele>398.3</ele>
        <time>2019-12-01T15:52:00Z</time>
      </trkpt>
      <trkpt lat="41.5899410" lon="1.9852930">
        <ele>398.2</ele>
        <time>2019-12-01T15:52:01Z</time>
      </trkpt>
      <trkpt lat="41.5899100" lon="1.9853440">
        <ele>398.1</ele>
        <time>2019-12-01T15:52:03Z</time>
      </trkpt>
      <trkpt lat="41.5898880" lon="1.9853970">
        <ele>398.1</ele>
        <time>2019-12-01T15:52:06Z</time>
      </trkpt>
      <trkpt lat="41.5898710" lon="1.9854350">
        <ele>398.0</ele>
        <time>2019-12-01T15:52:07Z</time>
      </trkpt>
      <trkpt lat="41.5898580" lon="1.9854930">
        <ele>397.9</ele>
        <time>2019-12-01T15:52:09Z</time>
      </trkpt>
      <trkpt lat="41.5898410" lon="1.9855750">
        <ele>397.9</ele>
        <time>2019-12-01T15:52:12Z</time>
      </trkpt>
      <trkpt lat="41.5898270" lon="1.9856350">
        <ele>397.8</ele>
        <time>2019-12-01T15:52:14Z</time>
      </trkpt>
      <trkpt lat="41.5898150" lon="1.9856870">
        <ele>397.7</ele>
        <time>2019-12-01T15:52:17Z</time>
      </trkpt>
      <trkpt lat="41.5898020" lon="1.9857570">
        <ele>397.7</ele>
        <time>2019-12-01T15:52:19Z</time>
      </trkpt>
      <trkpt lat="41.5897900" lon="1.9858040">
        <ele>397.6</ele>
        <time>2019-12-01T15:52:22Z</time>
      </trkpt>
      <trkpt lat="41.5897830" lon="1.9858450">
        <ele>397.6</ele>
        <time>2019-12-01T15:52:23Z</time>
      </trkpt>
      <trkpt lat="41.5890470" lon="1.9872130">
        <ele>394.8</ele>
        <time>2019-12-01T15:53:47Z</time>
      </trkpt>
      <trkpt lat="41.5890210" lon="1.9872350">
        <ele>394.7</ele>
        <time>2019-12-01T15:53:48Z</time>
      </trkpt>
      <trkpt lat="41.5889690" lon="1.9872650">
        <ele>394.4</ele>
        <time>2019-12-01T15:53:50Z</time>
      </trkpt>
      <trkpt lat="41.5889450" lon="1.9872840">
        <ele>394.2</ele>
        <time>2019-12-01T15:53:52Z</time>
      </trkpt>
      <trkpt lat="41.5889090" lon="1.9873100">
        <ele>394.0</ele>
        <time>2019-12-01T15:53:53Z</time>
      </trkpt>
      <trkpt lat="41.5888500" lon="1.9873490">
        <ele>393.6</ele>
        <time>2019-12-01T15:53:55Z</time>
      </trkpt>
      <trkpt lat="41.5888190" lon="1.9873690">
        <ele>393.4</ele>
        <time>2019-12-01T15:53:56Z</time>
      </trkpt>
      <trkpt lat="41.5887920" lon="1.9873840">
        <ele>393.2</ele>
        <time>2019-12-01T15:53:58Z</time>
      </trkpt>
      <trkpt lat="41.5887600" lon="1.9874000">
        <ele>392.9</ele>
        <time>2019-12-01T15:53:59Z</time>
      </trkpt>
      <trkpt lat="41.5887320" lon="1.9874180">
        <ele>392.7</ele>
        <time>2019-12-01T15:54:00Z</time>
      </trkpt>
      <trkpt lat="41.5887060" lon="1.9874370">
        <ele>392.5</ele>
        <time>2019-12-01T15:54:01Z</time>
      </trkpt>
      <trkpt lat="41.5886810" lon="1.9874590">
        <ele>392.3</ele>
        <time>2019-12-01T15:54:02Z</time>
      </trkpt>
      <trkpt lat="41.5886290" lon="1.9875010">
        <ele>391.7</ele>
        <time>2019-12-01T15:54:05Z</time>
      </trkpt>
      <trkpt lat="41.5885850" lon="1.9875400">
        <ele>391.2</ele>
        <time>2019-12-01T15:54:07Z</time>
      </trkpt>
      <trkpt lat="41.5885280" lon="1.9876240">
        <ele>390.2</ele>
        <time>2019-12-01T15:54:10Z</time>
      </trkpt>
      <trkpt lat="41.5885080" lon="1.9876600">
        <ele>389.9</ele>
        <time>2019-12-01T15:54:11Z</time>
      </trkpt>
      <trkpt lat="41.5884910" lon="1.9876890">
        <ele>389.6</ele>
        <time>2019-12-01T15:54:13Z</time>
      </trkpt>
      <trkpt lat="41.5884620" lon="1.9877510">
        <ele>389.0</ele>
        <time>2019-12-01T15:54:15Z</time>
      </trkpt>
      <trkpt lat="41.5884480" lon="1.9877890">
        <ele>388.6</ele>
        <time>2019-12-01T15:54:16Z</time>
      </trkpt>
      <trkpt lat="41.5884320" lon="1.9878220">
        <ele>388.3</ele>
        <time>2019-12-01T15:54:17Z</time>
      </trkpt>
      <trkpt lat="41.5884160" lon="1.9878570">
        <ele>388.1</ele>
        <time>2019-12-01T15:54:19Z</time>
      </trkpt>
      <trkpt lat="41.5883910" lon="1.9879040">
        <ele>387.8</ele>
        <time>2019-12-01T15:54:20Z</time>
      </trkpt>
      <trkpt lat="41.5883740" lon="1.9879340">
        <ele>387.6</ele>
        <time>2019-12-01T15:54:21Z</time>
      </trkpt>
      <trkpt lat="41.5883530" lon="1.9879660">
        <ele>387.4</ele>
        <time>2019-12-01T15:54:22Z</time>
      </trkpt>
      <trkpt lat="41.5883340" lon="1.9879960">
        <ele>387.3</ele>
        <time>2019-12-01T15:54:23Z</time>
      </trkpt>
      <trkpt lat="41.5882970" lon="1.9880470">
        <ele>387.0</ele>
        <time>2019-12-01T15:54:26Z</time>
      </trkpt>
      <trkpt lat="41.5882730" lon="1.9880780">
        <ele>386.8</ele>
        <time>2019-12-01T15:54:27Z</time>
      </trkpt>
      <trkpt lat="41.5882500" lon="1.9881020">
        <ele>386.7</ele>
        <time>2019-12-01T15:54:28Z</time>
      </trkpt>
      <trkpt lat="41.5882290" lon="1.9881280">
        <ele>386.5</ele>
        <time>2019-12-01T15:54:29Z</time>
      </trkpt>
      <trkpt lat="41.5881880" lon="1.9881670">
        <ele>386.2</ele>
        <time>2019-12-01T15:54:31Z</time>
      </trkpt>
      <trkpt lat="41.5881610" lon="1.9881950">
        <ele>385.9</ele>
        <time>2019-12-01T15:54:32Z</time>
      </trkpt>
      <trkpt lat="41.5881260" lon="1.9882340">
        <ele>385.5</ele>
        <time>2019-12-01T15:54:35Z</time>
      </trkpt>
      <trkpt lat="41.5880870" lon="1.9882740">
        <ele>385.1</ele>
        <time>2019-12-01T15:54:38Z</time>
      </trkpt>
      <trkpt lat="41.5880540" lon="1.9883140">
        <ele>384.9</ele>
        <time>2019-12-01T15:54:40Z</time>
      </trkpt>
      <trkpt lat="41.5880210" lon="1.9883600">
        <ele>384.6</ele>
        <time>2019-12-01T15:54:42Z</time>
      </trkpt>
      <trkpt lat="41.5879890" lon="1.9884050">
        <ele>384.3</ele>
        <time>2019-12-01T15:54:44Z</time>
      </trkpt>
      <trkpt lat="41.5879600" lon="1.9884460">
        <ele>384.0</ele>
        <time>2019-12-01T15:54:47Z</time>
      </trkpt>
      <trkpt lat="41.5879360" lon="1.9884740">
        <ele>383.8</ele>
        <time>2019-12-01T15:54:48Z</time>
      </trkpt>
      <trkpt lat="41.5878970" lon="1.9885140">
        <ele>383.5</ele>
        <time>2019-12-01T15:54:50Z</time>
      </trkpt>
      <trkpt lat="41.5878550" lon="1.9885620">
        <ele>383.0</ele>
        <time>2019-12-01T15:54:53Z</time>
      </trkpt>
      <trkpt lat="41.5878250" lon="1.9886030">
        <ele>382.7</ele>
        <time>2019-12-01T15:54:55Z</time>
      </trkpt>
      <trkpt lat="41.5877670" lon="1.9886780">
        <ele>381.9</ele>
        <time>2019-12-01T15:54:58Z</time>
      </trkpt>
      <trkpt lat="41.5877460" lon="1.9887040">
        <ele>381.6</ele>
        <time>2019-12-01T15:54:59Z</time>
      </trkpt>
      <trkpt lat="41.5877070" lon="1.9887520">
        <ele>381.1</ele>
        <time>2019-12-01T15:55:02Z</time>
      </trkpt>
      <trkpt lat="41.5876860" lon="1.9887750">
        <ele>380.9</ele>
        <time>2019-12-01T15:55:03Z</time>
      </trkpt>
      <trkpt lat="41.5876470" lon="1.9888280">
        <ele>380.4</ele>
        <time>2019-12-01T15:55:05Z</time>
      </trkpt>
      <trkpt lat="41.5876270" lon="1.9888540">
        <ele>380.1</ele>
        <time>2019-12-01T15:55:06Z</time>
      </trkpt>
      <trkpt lat="41.5875870" lon="1.9889040">
        <ele>379.7</ele>
        <time>2019-12-01T15:55:08Z</time>
      </trkpt>
      <trkpt lat="41.5875660" lon="1.9889290">
        <ele>379.5</ele>
        <time>2019-12-01T15:55:09Z</time>
      </trkpt>
      <trkpt lat="41.5875250" lon="1.9889760">
        <ele>379.1</ele>
        <time>2019-12-01T15:55:12Z</time>
      </trkpt>
      <trkpt lat="41.5875050" lon="1.9890000">
        <ele>379.0</ele>
        <time>2019-12-01T15:55:13Z</time>
      </trkpt>
      <trkpt lat="41.5874840" lon="1.9890280">
        <ele>378.8</ele>
        <time>2019-12-01T15:55:14Z</time>
      </trkpt>
      <trkpt lat="41.5874640" lon="1.9890550">
        <ele>378.6</ele>
        <time>2019-12-01T15:55:15Z</time>
      </trkpt>
      <trkpt lat="41.5874230" lon="1.9891030">
        <ele>378.2</ele>
        <time>2019-12-01T15:55:18Z</time>
      </trkpt>
      <trkpt lat="41.5873880" lon="1.9891360">
        <ele>377.9</ele>
        <time>2019-12-01T15:55:19Z</time>
      </trkpt>
      <trkpt lat="41.5873650" lon="1.9891590">
        <ele>377.7</ele>
        <time>2019-12-01T15:55:20Z</time>
      </trkpt>
      <trkpt lat="41.5873450" lon="1.9891850">
        <ele>377.5</ele>
        <time>2019-12-01T15:55:21Z</time>
      </trkpt>
      <trkpt lat="41.5872920" lon="1.9892580">
        <ele>377.1</ele>
        <time>2019-12-01T15:55:24Z</time>
      </trkpt>
      <trkpt lat="41.5872540" lon="1.9893020">
        <ele>376.8</ele>
        <time>2019-12-01T15:55:27Z</time>
      </trkpt>
      <trkpt lat="41.5872140" lon="1.9893490">
        <ele>376.6</ele>
        <time>2019-12-01T15:55:29Z</time>
      </trkpt>
      <trkpt lat="41.5871910" lon="1.9893760">
        <ele>376.4</ele>
        <time>2019-12-01T15:55:30Z</time>
      </trkpt>
      <trkpt lat="41.5871700" lon="1.9894010">
        <ele>376.3</ele>
        <time>2019-12-01T15:55:31Z</time>
      </trkpt>
      <trkpt lat="41.5871460" lon="1.9894260">
        <ele>376.1</ele>
        <time>2019-12-01T15:55:32Z</time>
      </trkpt>
      <trkpt lat="41.5871210" lon="1.9894510">
        <ele>375.9</ele>
        <time>2019-12-01T15:55:33Z</time>
      </trkpt>
      <trkpt lat="41.5870980" lon="1.9894730">
        <ele>375.7</ele>
        <time>2019-12-01T15:55:34Z</time>
      </trkpt>
      <trkpt lat="41.5870740" lon="1.9894940">
        <ele>375.6</ele>
        <time>2019-12-01T15:55:36Z</time>
      </trkpt>
      <trkpt lat="41.5870280" lon="1.9895270">
        <ele>375.4</ele>
        <time>2019-12-01T15:55:38Z</time>
      </trkpt>
      <trkpt lat="41.5869840" lon="1.9895660">
        <ele>375.1</ele>
        <time>2019-12-01T15:55:40Z</time>
      </trkpt>
      <trkpt lat="41.5869580" lon="1.9895860">
        <ele>375.0</ele>
        <time>2019-12-01T15:55:41Z</time>
      </trkpt>
      <trkpt lat="41.5869200" lon="1.9896140">
        <ele>374.9</ele>
        <time>2019-12-01T15:55:43Z</time>
      </trkpt>
      <trkpt lat="41.5868900" lon="1.9896310">
        <ele>374.8</ele>
        <time>2019-12-01T15:55:44Z</time>
      </trkpt>
      <trkpt lat="41.5868620" lon="1.9896440">
        <ele>374.7</ele>
        <time>2019-12-01T15:55:45Z</time>
      </trkpt>
      <trkpt lat="41.5868350" lon="1.9896560">
        <ele>374.6</ele>
        <time>2019-12-01T15:55:46Z</time>
      </trkpt>
      <trkpt lat="41.5867700" lon="1.9896720">
        <ele>374.5</ele>
        <time>2019-12-01T15:55:49Z</time>
      </trkpt>
      <trkpt lat="41.5867150" lon="1.9896730">
        <ele>374.0</ele>
        <time>2019-12-01T15:55:51Z</time>
      </trkpt>
      <trkpt lat="41.5866610" lon="1.9896670">
        <ele>373.5</ele>
        <time>2019-12-01T15:55:54Z</time>
      </trkpt>
      <trkpt lat="41.5866330" lon="1.9896630">
        <ele>373.3</ele>
        <time>2019-12-01T15:55:55Z</time>
      </trkpt>
      <trkpt lat="41.5865700" lon="1.9896600">
        <ele>372.7</ele>
        <time>2019-12-01T15:55:56Z</time>
      </trkpt>
      <trkpt lat="41.5865410" lon="1.9896600">
        <ele>372.4</ele>
        <time>2019-12-01T15:55:58Z</time>
      </trkpt>
      <trkpt lat="41.5865130" lon="1.9896600">
        <ele>372.2</ele>
        <time>2019-12-01T15:55:59Z</time>
      </trkpt>
      <trkpt lat="41.5864610" lon="1.9896530">
        <ele>371.7</ele>
        <time>2019-12-01T15:56:01Z</time>
      </trkpt>
      <trkpt lat="41.5864340" lon="1.9896490">
        <ele>371.5</ele>
        <time>2019-12-01T15:56:02Z</time>
      </trkpt>
      <trkpt lat="41.5863660" lon="1.9896250">
        <ele>371.0</ele>
        <time>2019-12-01T15:56:05Z</time>
      </trkpt>
      <trkpt lat="41.5863400" lon="1.9896130">
        <ele>370.8</ele>
        <time>2019-12-01T15:56:07Z</time>
      </trkpt>
      <trkpt lat="41.5862980" lon="1.9895990">
        <ele>370.5</ele>
        <time>2019-12-01T15:56:08Z</time>
      </trkpt>
      <trkpt lat="41.5862710" lon="1.9895920">
        <ele>370.3</ele>
        <time>2019-12-01T15:56:09Z</time>
      </trkpt>
      <trkpt lat="41.5862440" lon="1.9895890">
        <ele>370.2</ele>
        <time>2019-12-01T15:56:10Z</time>
      </trkpt>
      <trkpt lat="41.5862150" lon="1.9895860">
        <ele>369.9</ele>
        <time>2019-12-01T15:56:11Z</time>
      </trkpt>
      <trkpt lat="41.5861650" lon="1.9895840">
        <ele>369.6</ele>
        <time>2019-12-01T15:56:14Z</time>
      </trkpt>
      <trkpt lat="41.5860890" lon="1.9895630">
        <ele>369.1</ele>
        <time>2019-12-01T15:56:17Z</time>
      </trkpt>
      <trkpt lat="41.5860670" lon="1.9895420">
        <ele>368.9</ele>
        <time>2019-12-01T15:56:18Z</time>
      </trkpt>
      <trkpt lat="41.5860430" lon="1.9895190">
        <ele>368.7</ele>
        <time>2019-12-01T15:56:19Z</time>
      </trkpt>
      <trkpt lat="41.5859950" lon="1.9894950">
        <ele>368.3</ele>
        <time>2019-12-01T15:56:21Z</time>
      </trkpt>
      <trkpt lat="41.5859190" lon="1.9894810">
        <ele>367.9</ele>
        <time>2019-12-01T15:56:25Z</time>
      </trkpt>
      <trkpt lat="41.5858730" lon="1.9894780">
        <ele>367.6</ele>
        <time>2019-12-01T15:56:27Z</time>
      </trkpt>
      <trkpt lat="41.5858380" lon="1.9894860">
        <ele>367.4</ele>
        <time>2019-12-01T15:56:29Z</time>
      </trkpt>
      <trkpt lat="41.5857900" lon="1.9894910">
        <ele>367.2</ele>
        <time>2019-12-01T15:56:32Z</time>
      </trkpt>
      <trkpt lat="41.5857430" lon="1.9894980">
        <ele>367.0</ele>
        <time>2019-12-01T15:56:34Z</time>
      </trkpt>
      <trkpt lat="41.5856980" lon="1.9895120">
        <ele>366.7</ele>
        <time>2019-12-01T15:56:37Z</time>
      </trkpt>
      <trkpt lat="41.5856160" lon="1.9895380">
        <ele>366.5</ele>
        <time>2019-12-01T15:56:40Z</time>
      </trkpt>
      <trkpt lat="41.5855700" lon="1.9895590">
        <ele>366.3</ele>
        <time>2019-12-01T15:56:43Z</time>
      </trkpt>
      <trkpt lat="41.5855370" lon="1.9895830">
        <ele>366.3</ele>
        <time>2019-12-01T15:56:44Z</time>
      </trkpt>
      <trkpt lat="41.5854920" lon="1.9896140">
        <ele>366.2</ele>
        <time>2019-12-01T15:56:46Z</time>
      </trkpt>
      <trkpt lat="41.5854530" lon="1.9896520">
        <ele>366.4</ele>
        <time>2019-12-01T15:56:49Z</time>
      </trkpt>
      <trkpt lat="41.5854270" lon="1.9896800">
        <ele>366.5</ele>
        <time>2019-12-01T15:56:50Z</time>
      </trkpt>
      <trkpt lat="41.5853920" lon="1.9897210">
        <ele>366.6</ele>
        <time>2019-12-01T15:56:52Z</time>
      </trkpt>
      <trkpt lat="41.5853580" lon="1.9897720">
        <ele>366.7</ele>
        <time>2019-12-01T15:56:54Z</time>
      </trkpt>
      <trkpt lat="41.5853160" lon="1.9898250">
        <ele>366.9</ele>
        <time>2019-12-01T15:56:57Z</time>
      </trkpt>
      <trkpt lat="41.5852780" lon="1.9898820">
        <ele>367.0</ele>
        <time>2019-12-01T15:57:01Z</time>
      </trkpt>
      <trkpt lat="41.5852570" lon="1.9899210">
        <ele>367.1</ele>
        <time>2019-12-01T15:57:02Z</time>
      </trkpt>
      <trkpt lat="41.5852230" lon="1.9899610">
        <ele>367.1</ele>
        <time>2019-12-01T15:57:04Z</time>
      </trkpt>
      <trkpt lat="41.5851810" lon="1.9900050">
        <ele>367.2</ele>
        <time>2019-12-01T15:57:07Z</time>
      </trkpt>
      <trkpt lat="41.5851450" lon="1.9900420">
        <ele>367.2</ele>
        <time>2019-12-01T15:57:10Z</time>
      </trkpt>
      <trkpt lat="41.5844980" lon="1.9907700">
        <ele>367.9</ele>
        <time>2019-12-01T15:58:14Z</time>
      </trkpt>
      <trkpt lat="41.5844610" lon="1.9908030">
        <ele>368.0</ele>
        <time>2019-12-01T15:58:17Z</time>
      </trkpt>
      <trkpt lat="41.5844370" lon="1.9908300">
        <ele>368.0</ele>
        <time>2019-12-01T15:58:19Z</time>
      </trkpt>
      <trkpt lat="41.5844170" lon="1.9908570">
        <ele>368.0</ele>
        <time>2019-12-01T15:58:23Z</time>
      </trkpt>
      <trkpt lat="41.5843830" lon="1.9908960">
        <ele>368.1</ele>
        <time>2019-12-01T15:58:27Z</time>
      </trkpt>
      <trkpt lat="41.5843560" lon="1.9909330">
        <ele>368.1</ele>
        <time>2019-12-01T15:58:29Z</time>
      </trkpt>
      <trkpt lat="41.5843330" lon="1.9909740">
        <ele>368.2</ele>
        <time>2019-12-01T15:58:30Z</time>
      </trkpt>
      <trkpt lat="41.5843040" lon="1.9910250">
        <ele>368.2</ele>
        <time>2019-12-01T15:58:33Z</time>
      </trkpt>
      <trkpt lat="41.5842850" lon="1.9910780">
        <ele>368.3</ele>
        <time>2019-12-01T15:58:35Z</time>
      </trkpt>
      <trkpt lat="41.5842750" lon="1.9911370">
        <ele>368.3</ele>
        <time>2019-12-01T15:58:38Z</time>
      </trkpt>
      <trkpt lat="41.5842670" lon="1.9911850">
        <ele>368.4</ele>
        <time>2019-12-01T15:58:39Z</time>
      </trkpt>
      <trkpt lat="41.5842620" lon="1.9912340">
        <ele>368.4</ele>
        <time>2019-12-01T15:58:41Z</time>
      </trkpt>
      <trkpt lat="41.5842570" lon="1.9912710">
        <ele>368.4</ele>
        <time>2019-12-01T15:58:42Z</time>
      </trkpt>
      <trkpt lat="41.5842550" lon="1.9913070">
        <ele>368.4</ele>
        <time>2019-12-01T15:58:43Z</time>
      </trkpt>
      <trkpt lat="41.5842540" lon="1.9913460">
        <ele>368.5</ele>
        <time>2019-12-01T15:58:44Z</time>
      </trkpt>
      <trkpt lat="41.5842510" lon="1.9913820">
        <ele>368.5</ele>
        <time>2019-12-01T15:58:45Z</time>
      </trkpt>
      <trkpt lat="41.5842480" lon="1.9914330">
        <ele>368.5</ele>
        <time>2019-12-01T15:58:46Z</time>
      </trkpt>
      <trkpt lat="41.5842430" lon="1.9915320">
        <ele>368.5</ele>
        <time>2019-12-01T15:58:49Z</time>
      </trkpt>
      <trkpt lat="41.5842410" lon="1.9915690">
        <ele>368.5</ele>
        <time>2019-12-01T15:58:51Z</time>
      </trkpt>
      <trkpt lat="41.5842400" lon="1.9916050">
        <ele>368.5</ele>
        <time>2019-12-01T15:58:52Z</time>
      </trkpt>
      <trkpt lat="41.5842370" lon="1.9916780">
        <ele>368.5</ele>
        <time>2019-12-01T15:58:55Z</time>
      </trkpt>
      <trkpt lat="41.5842360" lon="1.9917380">
        <ele>368.6</ele>
        <time>2019-12-01T15:58:57Z</time>
      </trkpt>
      <trkpt lat="41.5842350" lon="1.9918070">
        <ele>368.6</ele>
        <time>2019-12-01T15:58:59Z</time>
      </trkpt>
      <trkpt lat="41.5842300" lon="1.9918790">
        <ele>368.6</ele>
        <time>2019-12-01T15:59:01Z</time>
      </trkpt>
      <trkpt lat="41.5842220" lon="1.9919400">
        <ele>368.5</ele>
        <time>2019-12-01T15:59:04Z</time>
      </trkpt>
      <trkpt lat="41.5842070" lon="1.9920010">
        <ele>368.5</ele>
        <time>2019-12-01T15:59:06Z</time>
      </trkpt>
      <trkpt lat="41.5841900" lon="1.9920610">
        <ele>368.5</ele>
        <time>2019-12-01T15:59:08Z</time>
      </trkpt>
      <trkpt lat="41.5841740" lon="1.9920970">
        <ele>368.4</ele>
        <time>2019-12-01T15:59:10Z</time>
      </trkpt>
      <trkpt lat="41.5841440" lon="1.9921420">
        <ele>368.3</ele>
        <time>2019-12-01T15:59:12Z</time>
      </trkpt>
      <trkpt lat="41.5841110" lon="1.9921770">
        <ele>368.2</ele>
        <time>2019-12-01T15:59:15Z</time>
      </trkpt>
      <trkpt lat="41.5840790" lon="1.9921890">
        <ele>368.1</ele>
        <time>2019-12-01T15:59:16Z</time>
      </trkpt>
      <trkpt lat="41.5840340" lon="1.9921910">
        <ele>367.9</ele>
        <time>2019-12-01T15:59:18Z</time>
      </trkpt>
      <trkpt lat="41.5839810" lon="1.9921690">
        <ele>367.6</ele>
        <time>2019-12-01T15:59:20Z</time>
      </trkpt>
      <trkpt lat="41.5839090" lon="1.9921130">
        <ele>367.2</ele>
        <time>2019-12-01T15:59:24Z</time>
      </trkpt>
      <trkpt lat="41.5838860" lon="1.9920920">
        <ele>367.1</ele>
        <time>2019-12-01T15:59:25Z</time>
      </trkpt>
      <trkpt lat="41.5838460" lon="1.9920500">
        <ele>366.8</ele>
        <time>2019-12-01T15:59:27Z</time>
      </trkpt>
      <trkpt lat="41.5838130" lon="1.9920080">
        <ele>366.6</ele>
        <time>2019-12-01T15:59:30Z</time>
      </trkpt>
      <trkpt lat="41.5837830" lon="1.9919710">
        <ele>366.4</ele>
        <time>2019-12-01T15:59:31Z</time>
      </trkpt>
      <trkpt lat="41.5837430" lon="1.9919300">
        <ele>366.2</ele>
        <time>2019-12-01T15:59:33Z</time>
      </trkpt>
      <trkpt lat="41.5837210" lon="1.9919060">
        <ele>366.0</ele>
        <time>2019-12-01T15:59:34Z</time>
      </trkpt>
      <trkpt lat="41.5836830" lon="1.9918670">
        <ele>365.7</ele>
        <time>2019-12-01T15:59:37Z</time>
      </trkpt>
      <trkpt lat="41.5836490" lon="1.9918360">
        <ele>365.6</ele>
        <time>2019-12-01T15:59:39Z</time>
      </trkpt>
      <trkpt lat="41.5836070" lon="1.9918140">
        <ele>365.5</ele>
        <time>2019-12-01T15:59:41Z</time>
      </trkpt>
      <trkpt lat="41.5835660" lon="1.9917980">
        <ele>365.4</ele>
        <time>2019-12-01T15:59:43Z</time>
      </trkpt>
      <trkpt lat="41.5835380" lon="1.9917880">
        <ele>365.3</ele>
        <time>2019-12-01T15:59:45Z</time>
      </trkpt>
      <trkpt lat="41.5834950" lon="1.9917760">
        <ele>365.2</ele>
        <time>2019-12-01T15:59:47Z</time>
      </trkpt>
      <trkpt lat="41.5834570" lon="1.9917670">
        <ele>365.1</ele>
        <time>2019-12-01T15:59:49Z</time>
      </trkpt>
      <trkpt lat="41.5834210" lon="1.9917540">
        <ele>365.0</ele>
        <time>2019-12-01T15:59:52Z</time>
      </trkpt>
      <trkpt lat="41.5833020" lon="1.9918190">
        <ele>365.2</ele>
        <time>2019-12-01T16:00:26Z</time>
      </trkpt>
      <trkpt lat="41.5832510" lon="1.9918530">
        <ele>365.3</ele>
        <time>2019-12-01T16:00:28Z</time>
      </trkpt>
      <trkpt lat="41.5832050" lon="1.9918950">
        <ele>365.2</ele>
        <time>2019-12-01T16:00:30Z</time>
      </trkpt>
      <trkpt lat="41.5831740" lon="1.9919220">
        <ele>365.2</ele>
        <time>2019-12-01T16:00:31Z</time>
      </trkpt>
      <trkpt lat="41.5831470" lon="1.9919560">
        <ele>365.2</ele>
        <time>2019-12-01T16:00:32Z</time>
      </trkpt>
      <trkpt lat="41.5831270" lon="1.9919850">
        <ele>365.2</ele>
        <time>2019-12-01T16:00:33Z</time>
      </trkpt>
      <trkpt lat="41.5830900" lon="1.9920240">
        <ele>365.1</ele>
        <time>2019-12-01T16:00:35Z</time>
      </trkpt>
      <trkpt lat="41.5830600" lon="1.9920680">
        <ele>365.0</ele>
        <time>2019-12-01T16:00:38Z</time>
      </trkpt>
      <trkpt lat="41.5830410" lon="1.9921340">
        <ele>364.9</ele>
        <time>2019-12-01T16:00:40Z</time>
      </trkpt>
      <trkpt lat="41.5830230" lon="1.9922000">
        <ele>364.8</ele>
        <time>2019-12-01T16:00:42Z</time>
      </trkpt>
      <trkpt lat="41.5829930" lon="1.9922490">
        <ele>364.7</ele>
        <time>2019-12-01T16:00:44Z</time>
      </trkpt>
      <trkpt lat="41.5829650" lon="1.9922970">
        <ele>364.6</ele>
        <time>2019-12-01T16:00:47Z</time>
      </trkpt>
      <trkpt lat="41.5829450" lon="1.9923750">
        <ele>364.6</ele>
        <time>2019-12-01T16:00:50Z</time>
      </trkpt>
      <trkpt lat="41.5829400" lon="1.9924020">
        <ele>364.6</ele>
        <time>2019-12-01T16:00:51Z</time>
      </trkpt>
      <trkpt lat="41.5829310" lon="1.9924510">
        <ele>364.5</ele>
        <time>2019-12-01T16:00:53Z</time>
      </trkpt>
      <trkpt lat="41.5829260" lon="1.9925090">
        <ele>364.5</ele>
        <time>2019-12-01T16:00:56Z</time>
      </trkpt>
      <trkpt lat="41.5829300" lon="1.9925580">
        <ele>364.5</ele>
        <time>2019-12-01T16:00:58Z</time>
      </trkpt>
      <trkpt lat="41.5829360" lon="1.9925950">
        <ele>364.5</ele>
        <time>2019-12-01T16:00:59Z</time>
      </trkpt>
      <trkpt lat="41.5829450" lon="1.9926450">
        <ele>364.5</ele>
        <time>2019-12-01T16:01:02Z</time>
      </trkpt>
      <trkpt lat="41.5829570" lon="1.9926970">
        <ele>364.4</ele>
        <time>2019-12-01T16:01:04Z</time>
      </trkpt>
      <trkpt lat="41.5829690" lon="1.9927550">
        <ele>364.3</ele>
        <time>2019-12-01T16:01:07Z</time>
      </trkpt>
      <trkpt lat="41.5829790" lon="1.9928080">
        <ele>364.3</ele>
        <time>2019-12-01T16:01:09Z</time>
      </trkpt>
      <trkpt lat="41.5829900" lon="1.9928730">
        <ele>364.2</ele>
        <time>2019-12-01T16:01:11Z</time>
      </trkpt>
      <trkpt lat="41.5829940" lon="1.9929320">
        <ele>364.1</ele>
        <time>2019-12-01T16:01:14Z</time>
      </trkpt>
      <trkpt lat="41.5829950" lon="1.9929890">
        <ele>364.0</ele>
        <time>2019-12-01T16:01:16Z</time>
      </trkpt>
      <trkpt lat="41.5829930" lon="1.9930580">
        <ele>363.9</ele>
        <time>2019-12-01T16:01:18Z</time>
      </trkpt>
      <trkpt lat="41.5829850" lon="1.9931290">
        <ele>363.8</ele>
        <time>2019-12-01T16:01:21Z</time>
      </trkpt>
      <trkpt lat="41.5829750" lon="1.9931890">
        <ele>363.7</ele>
        <time>2019-12-01T16:01:23Z</time>
      </trkpt>
      <trkpt lat="41.5829680" lon="1.9932290">
        <ele>363.6</ele>
        <time>2019-12-01T16:01:26Z</time>
      </trkpt>
      <trkpt lat="41.5829570" lon="1.9933440">
        <ele>363.3</ele>
        <time>2019-12-01T16:01:29Z</time>
      </trkpt>
      <trkpt lat="41.5829570" lon="1.9933810">
        <ele>363.2</ele>
        <time>2019-12-01T16:01:30Z</time>
      </trkpt>
      <trkpt lat="41.5829570" lon="1.9934480">
        <ele>362.9</ele>
        <time>2019-12-01T16:01:32Z</time>
      </trkpt>
      <trkpt lat="41.5829610" lon="1.9934840">
        <ele>362.8</ele>
        <time>2019-12-01T16:01:33Z</time>
      </trkpt>
      <trkpt lat="41.5829700" lon="1.9935480">
        <ele>362.5</ele>
        <time>2019-12-01T16:01:36Z</time>
      </trkpt>
      <trkpt lat="41.5829810" lon="1.9935880">
        <ele>362.3</ele>
        <time>2019-12-01T16:01:37Z</time>
      </trkpt>
      <trkpt lat="41.5829940" lon="1.9936360">
        <ele>362.0</ele>
        <time>2019-12-01T16:01:39Z</time>
      </trkpt>
      <trkpt lat="41.5830080" lon="1.9936700">
        <ele>361.7</ele>
        <time>2019-12-01T16:01:41Z</time>
      </trkpt>
      <trkpt lat="41.5830250" lon="1.9937140">
        <ele>361.4</ele>
        <time>2019-12-01T16:01:43Z</time>
      </trkpt>
      <trkpt lat="41.5830410" lon="1.9937450">
        <ele>361.2</ele>
        <time>2019-12-01T16:01:44Z</time>
      </trkpt>
      <trkpt lat="41.5830640" lon="1.9937900">
        <ele>360.9</ele>
        <time>2019-12-01T16:01:47Z</time>
      </trkpt>
      <trkpt lat="41.5830880" lon="1.9938390">
        <ele>360.6</ele>
        <time>2019-12-01T16:01:49Z</time>
      </trkpt>
      <trkpt lat="41.5831110" lon="1.9938830">
        <ele>360.3</ele>
        <time>2019-12-01T16:01:52Z</time>
      </trkpt>
      <trkpt lat="41.5831310" lon="1.9939150">
        <ele>360.1</ele>
        <time>2019-12-01T16:01:53Z</time>
      </trkpt>
      <trkpt lat="41.5831490" lon="1.9939560">
        <ele>359.8</ele>
        <time>2019-12-01T16:01:55Z</time>
      </trkpt>
      <trkpt lat="41.5831680" lon="1.9939960">
        <ele>359.6</ele>
        <time>2019-12-01T16:01:57Z</time>
      </trkpt>
      <trkpt lat="41.5831940" lon="1.9940440">
        <ele>359.3</ele>
        <time>2019-12-01T16:01:59Z</time>
      </trkpt>
      <trkpt lat="41.5832200" lon="1.9941010">
        <ele>358.9</ele>
        <time>2019-12-01T16:02:01Z</time>
      </trkpt>
      <trkpt lat="41.5832490" lon="1.9941700">
        <ele>358.5</ele>
        <time>2019-12-01T16:02:04Z</time>
      </trkpt>
      <trkpt lat="41.5832660" lon="1.9942340">
        <ele>358.1</ele>
        <time>2019-12-01T16:02:06Z</time>
      </trkpt>
      <trkpt lat="41.5832760" lon="1.9942860">
        <ele>357.8</ele>
        <time>2019-12-01T16:02:07Z</time>
      </trkpt>
      <trkpt lat="41.5832880" lon="1.9943500">
        <ele>357.4</ele>
        <time>2019-12-01T16:02:10Z</time>
      </trkpt>
      <trkpt lat="41.5833040" lon="1.9944330">
        <ele>356.8</ele>
        <time>2019-12-01T16:02:13Z</time>
      </trkpt>
      <trkpt lat="41.5833060" lon="1.9944700">
        <ele>356.5</ele>
        <time>2019-12-01T16:02:14Z</time>
      </trkpt>
      <trkpt lat="41.5833100" lon="1.9945410">
        <ele>356.0</ele>
        <time>2019-12-01T16:02:16Z</time>
      </trkpt>
      <trkpt lat="41.5833130" lon="1.9945940">
        <ele>355.6</ele>
        <time>2019-12-01T16:02:18Z</time>
      </trkpt>
      <trkpt lat="41.5833130" lon="1.9946670">
        <ele>355.1</ele>
        <time>2019-12-01T16:02:20Z</time>
      </trkpt>
      <trkpt lat="41.5833120" lon="1.9947050">
        <ele>354.8</ele>
        <time>2019-12-01T16:02:21Z</time>
      </trkpt>
      <trkpt lat="41.5833110" lon="1.9947790">
        <ele>354.2</ele>
        <time>2019-12-01T16:02:23Z</time>
      </trkpt>
      <trkpt lat="41.5833110" lon="1.9948470">
        <ele>353.5</ele>
        <time>2019-12-01T16:02:26Z</time>
      </trkpt>
      <trkpt lat="41.5833110" lon="1.9949050">
        <ele>353.0</ele>
        <time>2019-12-01T16:02:27Z</time>
      </trkpt>
      <trkpt lat="41.5833120" lon="1.9949450">
        <ele>352.6</ele>
        <time>2019-12-01T16:02:28Z</time>
      </trkpt>
      <trkpt lat="41.5833100" lon="1.9949880">
        <ele>352.3</ele>
        <time>2019-12-01T16:02:29Z</time>
      </trkpt>
      <trkpt lat="41.5833110" lon="1.9950280">
        <ele>352.0</ele>
        <time>2019-12-01T16:02:31Z</time>
      </trkpt>
      <trkpt lat="41.5833690" lon="1.9953170">
        <ele>350.5</ele>
        <time>2019-12-01T16:02:43Z</time>
      </trkpt>
      <trkpt lat="41.5833780" lon="1.9953790">
        <ele>350.3</ele>
        <time>2019-12-01T16:02:46Z</time>
      </trkpt>
      <trkpt lat="41.5833720" lon="1.9954810">
        <ele>350.0</ele>
        <time>2019-12-01T16:02:49Z</time>
      </trkpt>
      <trkpt lat="41.5833700" lon="1.9955130">
        <ele>349.9</ele>
        <time>2019-12-01T16:02:50Z</time>
      </trkpt>
      <trkpt lat="41.5833590" lon="1.9955850">
        <ele>349.7</ele>
        <time>2019-12-01T16:02:52Z</time>
      </trkpt>
      <trkpt lat="41.5833500" lon="1.9956230">
        <ele>349.6</ele>
        <time>2019-12-01T16:02:54Z</time>
      </trkpt>
      <trkpt lat="41.5833430" lon="1.9956700">
        <ele>349.5</ele>
        <time>2019-12-01T16:02:55Z</time>
      </trkpt>
      <trkpt lat="41.5833320" lon="1.9957260">
        <ele>349.4</ele>
        <time>2019-12-01T16:02:57Z</time>
      </trkpt>
      <trkpt lat="41.5833150" lon="1.9957880">
        <ele>349.3</ele>
        <time>2019-12-01T16:03:00Z</time>
      </trkpt>
      <trkpt lat="41.5832910" lon="1.9958640">
        <ele>349.1</ele>
        <time>2019-12-01T16:03:02Z</time>
      </trkpt>
      <trkpt lat="41.5832700" lon="1.9959100">
        <ele>349.0</ele>
        <time>2019-12-01T16:03:04Z</time>
      </trkpt>
      <trkpt lat="41.5832400" lon="1.9959610">
        <ele>348.8</ele>
        <time>2019-12-01T16:03:07Z</time>
      </trkpt>
      <trkpt lat="41.5832160" lon="1.9960030">
        <ele>348.7</ele>
        <time>2019-12-01T16:03:09Z</time>
      </trkpt>
      <trkpt lat="41.5831820" lon="1.9960680">
        <ele>348.5</ele>
        <time>2019-12-01T16:03:12Z</time>
      </trkpt>
      <trkpt lat="41.5830010" lon="1.9962970">
        <ele>347.4</ele>
        <time>2019-12-01T16:03:26Z</time>
      </trkpt>
      <trkpt lat="41.5829660" lon="1.9963330">
        <ele>347.3</ele>
        <time>2019-12-01T16:03:29Z</time>
      </trkpt>
      <trkpt lat="41.5829430" lon="1.9963560">
        <ele>347.1</ele>
        <time>2019-12-01T16:03:31Z</time>
      </trkpt>
      <trkpt lat="41.5829090" lon="1.9963920">
        <ele>347.0</ele>
        <time>2019-12-01T16:03:33Z</time>
      </trkpt>
      <trkpt lat="41.5828710" lon="1.9964340">
        <ele>346.1</ele>
        <time>2019-12-01T16:03:36Z</time>
      </trkpt>
      <trkpt lat="41.5828430" lon="1.9964630">
        <ele>346.1</ele>
        <time>2019-12-01T16:03:38Z</time>
      </trkpt>
      <trkpt lat="41.5828090" lon="1.9964930">
        <ele>346.1</ele>
        <time>2019-12-01T16:03:41Z</time>
      </trkpt>
      <trkpt lat="41.5827790" lon="1.9965320">
        <ele>345.6</ele>
        <time>2019-12-01T16:03:44Z</time>
      </trkpt>
      <trkpt lat="41.5827500" lon="1.9966200">
        <ele>345.3</ele>
        <time>2019-12-01T16:03:47Z</time>
      </trkpt>
      <trkpt lat="41.5827300" lon="1.9966800">
        <ele>345.1</ele>
        <time>2019-12-01T16:03:50Z</time>
      </trkpt>
      <trkpt lat="41.5827120" lon="1.9967100">
        <ele>345.0</ele>
        <time>2019-12-01T16:03:51Z</time>
      </trkpt>
      <trkpt lat="41.5826930" lon="1.9967440">
        <ele>344.9</ele>
        <time>2019-12-01T16:03:52Z</time>
      </trkpt>
      <trkpt lat="41.5826690" lon="1.9967810">
        <ele>344.7</ele>
        <time>2019-12-01T16:03:53Z</time>
      </trkpt>
      <trkpt lat="41.5826250" lon="1.9968480">
        <ele>344.4</ele>
        <time>2019-12-01T16:03:55Z</time>
      </trkpt>
      <trkpt lat="41.5826030" lon="1.9968790">
        <ele>344.3</ele>
        <time>2019-12-01T16:03:56Z</time>
      </trkpt>
      <trkpt lat="41.5825570" lon="1.9969220">
        <ele>344.1</ele>
        <time>2019-12-01T16:03:59Z</time>
      </trkpt>
      <trkpt lat="41.5825300" lon="1.9969420">
        <ele>342.2</ele>
        <time>2019-12-01T16:04:00Z</time>
      </trkpt>
      <trkpt lat="41.5824940" lon="1.9969480">
        <ele>341.9</ele>
        <time>2019-12-01T16:04:02Z</time>
      </trkpt>
      <trkpt lat="41.5824550" lon="1.9969480">
        <ele>341.7</ele>
        <time>2019-12-01T16:04:05Z</time>
      </trkpt>
      <trkpt lat="41.5824280" lon="1.9969510">
        <ele>341.6</ele>
        <time>2019-12-01T16:04:06Z</time>
      </trkpt>
      <trkpt lat="41.5823800" lon="1.9969550">
        <ele>341.4</ele>
        <time>2019-12-01T16:04:08Z</time>
      </trkpt>
      <trkpt lat="41.5823440" lon="1.9969740">
        <ele>341.3</ele>
        <time>2019-12-01T16:04:11Z</time>
      </trkpt>
      <trkpt lat="41.5823150" lon="1.9970150">
        <ele>341.1</ele>
        <time>2019-12-01T16:04:13Z</time>
      </trkpt>
      <trkpt lat="41.5822870" lon="1.9970560">
        <ele>341.0</ele>
        <time>2019-12-01T16:04:15Z</time>
      </trkpt>
      <trkpt lat="41.5822550" lon="1.9971170">
        <ele>340.9</ele>
        <time>2019-12-01T16:04:18Z</time>
      </trkpt>
      <trkpt lat="41.5822300" lon="1.9971640">
        <ele>340.8</ele>
        <time>2019-12-01T16:04:20Z</time>
      </trkpt>
      <trkpt lat="41.5822060" lon="1.9972100">
        <ele>340.6</ele>
        <time>2019-12-01T16:04:22Z</time>
      </trkpt>
      <trkpt lat="41.5821840" lon="1.9972540">
        <ele>340.6</ele>
        <time>2019-12-01T16:04:24Z</time>
      </trkpt>
      <trkpt lat="41.5821590" lon="1.9973030">
        <ele>340.5</ele>
        <time>2019-12-01T16:04:27Z</time>
      </trkpt>
      <trkpt lat="41.5821380" lon="1.9973530">
        <ele>340.4</ele>
        <time>2019-12-01T16:04:29Z</time>
      </trkpt>
      <trkpt lat="41.5821120" lon="1.9974040">
        <ele>340.3</ele>
        <time>2019-12-01T16:04:31Z</time>
      </trkpt>
      <trkpt lat="41.5820820" lon="1.9974650">
        <ele>340.2</ele>
        <time>2019-12-01T16:04:34Z</time>
      </trkpt>
      <trkpt lat="41.5820570" lon="1.9975150">
        <ele>340.1</ele>
        <time>2019-12-01T16:04:36Z</time>
      </trkpt>
      <trkpt lat="41.5820430" lon="1.9975520">
        <ele>340.0</ele>
        <time>2019-12-01T16:04:37Z</time>
      </trkpt>
      <trkpt lat="41.5820260" lon="1.9975870">
        <ele>340.0</ele>
        <time>2019-12-01T16:04:39Z</time>
      </trkpt>
      <trkpt lat="41.5820100" lon="1.9976330">
        <ele>339.9</ele>
        <time>2019-12-01T16:04:41Z</time>
      </trkpt>
      <trkpt lat="41.5819960" lon="1.9976640">
        <ele>339.8</ele>
        <time>2019-12-01T16:04:43Z</time>
      </trkpt>
      <trkpt lat="41.5819720" lon="1.9977120">
        <ele>339.7</ele>
        <time>2019-12-01T16:04:45Z</time>
      </trkpt>
      <trkpt lat="41.5819470" lon="1.9977670">
        <ele>339.6</ele>
        <time>2019-12-01T16:04:47Z</time>
      </trkpt>
      <trkpt lat="41.5819230" lon="1.9978190">
        <ele>339.5</ele>
        <time>2019-12-01T16:04:49Z</time>
      </trkpt>
      <trkpt lat="41.5819040" lon="1.9978740">
        <ele>339.4</ele>
        <time>2019-12-01T16:04:52Z</time>
      </trkpt>
      <trkpt lat="41.5818850" lon="1.9979260">
        <ele>339.3</ele>
        <time>2019-12-01T16:04:54Z</time>
      </trkpt>
      <trkpt lat="41.5818670" lon="1.9979840">
        <ele>339.2</ele>
        <time>2019-12-01T16:04:56Z</time>
      </trkpt>
      <trkpt lat="41.5818480" lon="1.9980460">
        <ele>339.1</ele>
        <time>2019-12-01T16:04:58Z</time>
      </trkpt>
      <trkpt lat="41.5818340" lon="1.9981040">
        <ele>339.0</ele>
        <time>2019-12-01T16:05:00Z</time>
      </trkpt>
      <trkpt lat="41.5818200" lon="1.9981670">
        <ele>338.9</ele>
        <time>2019-12-01T16:05:03Z</time>
      </trkpt>
      <trkpt lat="41.5818000" lon="1.9982260">
        <ele>338.8</ele>
        <time>2019-12-01T16:05:05Z</time>
      </trkpt>
      <trkpt lat="41.5816860" lon="1.9984870">
        <ele>338.2</ele>
        <time>2019-12-01T16:05:15Z</time>
      </trkpt>
      <trkpt lat="41.5816600" lon="1.9985440">
        <ele>338.1</ele>
        <time>2019-12-01T16:05:18Z</time>
      </trkpt>
      <trkpt lat="41.5816250" lon="1.9986300">
        <ele>338.0</ele>
        <time>2019-12-01T16:05:21Z</time>
      </trkpt>
      <trkpt lat="41.5816040" lon="1.9986870">
        <ele>337.9</ele>
        <time>2019-12-01T16:05:23Z</time>
      </trkpt>
      <trkpt lat="41.5815810" lon="1.9987450">
        <ele>337.8</ele>
        <time>2019-12-01T16:05:25Z</time>
      </trkpt>
      <trkpt lat="41.5815600" lon="1.9988000">
        <ele>337.7</ele>
        <time>2019-12-01T16:05:28Z</time>
      </trkpt>
      <trkpt lat="41.5815450" lon="1.9988350">
        <ele>337.6</ele>
        <time>2019-12-01T16:05:29Z</time>
      </trkpt>
      <trkpt lat="41.5815210" lon="1.9988880">
        <ele>337.5</ele>
        <time>2019-12-01T16:05:31Z</time>
      </trkpt>
      <trkpt lat="41.5815030" lon="1.9989420">
        <ele>337.4</ele>
        <time>2019-12-01T16:05:33Z</time>
      </trkpt>
      <trkpt lat="41.5814820" lon="1.9989890">
        <ele>337.4</ele>
        <time>2019-12-01T16:05:35Z</time>
      </trkpt>
      <trkpt lat="41.5814660" lon="1.9990390">
        <ele>337.3</ele>
        <time>2019-12-01T16:05:38Z</time>
      </trkpt>
      <trkpt lat="41.5814460" lon="1.9990860">
        <ele>337.2</ele>
        <time>2019-12-01T16:05:40Z</time>
      </trkpt>
      <trkpt lat="41.5814250" lon="1.9991380">
        <ele>337.1</ele>
        <time>2019-12-01T16:05:43Z</time>
      </trkpt>
      <trkpt lat="41.5814030" lon="1.9991890">
        <ele>337.0</ele>
        <time>2019-12-01T16:05:45Z</time>
      </trkpt>
      <trkpt lat="41.5813830" lon="1.9992380">
        <ele>336.9</ele>
        <time>2019-12-01T16:05:48Z</time>
      </trkpt>
      <trkpt lat="41.5813700" lon="1.9992830">
        <ele>336.9</ele>
        <time>2019-12-01T16:05:50Z</time>
      </trkpt>
      <trkpt lat="41.5813480" lon="1.9993450">
        <ele>336.8</ele>
        <time>2019-12-01T16:05:52Z</time>
      </trkpt>
      <trkpt lat="41.5813330" lon="1.9993960">
        <ele>336.7</ele>
        <time>2019-12-01T16:05:55Z</time>
      </trkpt>
      <trkpt lat="41.5813200" lon="1.9994400">
        <ele>336.6</ele>
        <time>2019-12-01T16:05:57Z</time>
      </trkpt>
      <trkpt lat="41.5813050" lon="1.9994870">
        <ele>336.5</ele>
        <time>2019-12-01T16:06:00Z</time>
      </trkpt>
      <trkpt lat="41.5812810" lon="1.9995560">
        <ele>336.3</ele>
        <time>2019-12-01T16:06:03Z</time>
      </trkpt>
      <trkpt lat="41.5812720" lon="1.9995800">
        <ele>336.2</ele>
        <time>2019-12-01T16:06:04Z</time>
      </trkpt>
      <trkpt lat="41.5812560" lon="1.9996310">
        <ele>335.8</ele>
        <time>2019-12-01T16:06:06Z</time>
      </trkpt>
    </trkseg>
  </trk>
</gpx>
